<?xml version='1.0' encoding='UTF-8'?><gpx version="1.1" creator="JPX - https://github.com/jenetics/jpx" xmlns="http://www.topografix.com/GPX/1/1"><trk><trkseg><trkpt lat="42.69456540821992" lon="2.8994411519690457"><ele>47.0</ele><time>2026-04-10T08:34:39.891Z</time></trkpt><trkpt lat="42.69462052420939" lon="2.8992993490654824"><ele>47.0</ele><time>2026-04-10T08:34:41.891Z</time></trkpt><trkpt lat="42.694653612622766" lon="2.8992231539117066"><ele>47.0</ele><time>2026-04-10T08:34:42.891Z</time></trkpt><trkpt lat="42.69471728097029" lon="2.899153258937197"><ele>47.0</ele><time>2026-04-10T08:34:44.891Z</time></trkpt><trkpt lat="42.69481385713277" lon="2.8992234524313854"><ele>47.0</ele><time>2026-04-10T08:34:46.891Z</time></trkpt><trkpt lat="42.69487578437335" lon="2.899279670968192"><ele>47.0</ele><time>2026-04-10T08:34:47.891Z</time></trkpt><trkpt lat="42.69494179314482" lon="2.8993340811189574"><ele>47.0</ele><time>2026-04-10T08:34:48.891Z</time></trkpt><trkpt lat="42.69500675407452" lon="2.8994014467491667"><ele>47.0</ele><time>2026-04-10T08:34:49.891Z</time></trkpt><trkpt lat="42.695068014571575" lon="2.899478865605498"><ele>47.0</ele><time>2026-04-10T08:34:50.891Z</time></trkpt><trkpt lat="42.6951270784501" lon="2.8995589240578576"><ele>47.0</ele><time>2026-04-10T08:34:51.891Z</time></trkpt><trkpt lat="42.69517953069927" lon="2.899632076760284"><ele>47.0</ele><time>2026-04-10T08:34:52.891Z</time></trkpt><trkpt lat="42.69522299122877" lon="2.8996952794050244"><ele>47.0</ele><time>2026-04-10T08:34:56.891Z</time></trkpt><trkpt lat="42.69528893907842" lon="2.899819702823817"><ele>46.83333333333333</ele><time>2026-04-10T08:35:02.891Z</time></trkpt><trkpt lat="42.695334246295076" lon="2.899881435470031"><ele>46.666666666666664</ele><time>2026-04-10T08:35:06.891Z</time></trkpt><trkpt lat="42.69538619755097" lon="2.899957350949459"><ele>46.5</ele><time>2026-04-10T08:35:17.891Z</time></trkpt><trkpt lat="42.69542713917744" lon="2.9000435566789005"><ele>46.333333333333336</ele><time>2026-04-10T08:35:20.891Z</time></trkpt><trkpt lat="42.69546623040671" lon="2.9001249894144046"><ele>46.16666666666667</ele><time>2026-04-10T08:35:22.891Z</time></trkpt><trkpt lat="42.695490963339054" lon="2.900222801991963"><ele>46.0</ele><time>2026-04-10T08:35:33.889Z</time></trkpt><trkpt lat="42.69540708604641" lon="2.90032818341632"><ele>46.0</ele><time>2026-04-10T08:35:35.889Z</time></trkpt><trkpt lat="42.69531556837469" lon="2.9004520086112047"><ele>46.0</ele><time>2026-04-10T08:35:37.888Z</time></trkpt><trkpt lat="42.69526729774472" lon="2.9005143192138907"><ele>46.0</ele><time>2026-04-10T08:35:38.888Z</time></trkpt><trkpt lat="42.69521755365647" lon="2.900569913502811"><ele>46.0</ele><time>2026-04-10T08:35:39.888Z</time></trkpt><trkpt lat="42.695171565731854" lon="2.9006388229609446"><ele>46.0</ele><time>2026-04-10T08:35:40.888Z</time></trkpt><trkpt lat="42.69512548603648" lon="2.9007030451482647"><ele>46.0</ele><time>2026-04-10T08:35:41.888Z</time></trkpt><trkpt lat="42.69506120812628" lon="2.9007865494322993"><ele>46.333333333333336</ele><time>2026-04-10T08:35:43.888Z</time></trkpt><trkpt lat="42.6950058681875" lon="2.9008506927034867"><ele>46.66666666666667</ele><time>2026-04-10T08:35:46.889Z</time></trkpt><trkpt lat="42.694933989471025" lon="2.9009346098439424"><ele>47.0</ele><time>2026-04-10T08:35:57.889Z</time></trkpt><trkpt lat="42.69488134383606" lon="2.901008856100709"><ele>47.333333333333336</ele><time>2026-04-10T08:35:59.889Z</time></trkpt><trkpt lat="42.694820474067114" lon="2.9010902610887093"><ele>47.666666666666664</ele><time>2026-04-10T08:36:01.889Z</time></trkpt><trkpt lat="42.694745478075525" lon="2.901181680483084"><ele>48.0</ele><time>2026-04-10T08:36:03.889Z</time></trkpt><trkpt lat="42.694698023883284" lon="2.901245648353874"><ele>48.2</ele><time>2026-04-10T08:36:05.889Z</time></trkpt><trkpt lat="42.69467719293969" lon="2.9013289430300295"><ele>48.4</ele><time>2026-04-10T08:36:36.889Z</time></trkpt><trkpt lat="42.69461158039597" lon="2.901389781499035"><ele>48.6</ele><time>2026-04-10T08:36:58.889Z</time></trkpt><trkpt lat="42.69452793302758" lon="2.9014407372078512"><ele>48.800000000000004</ele><time>2026-04-10T08:37:00.889Z</time></trkpt><trkpt lat="42.69441702003083" lon="2.9013712442677355"><ele>49.0</ele><time>2026-04-10T08:37:02.889Z</time></trkpt><trkpt lat="42.69430814126902" lon="2.901265349265975"><ele>49.33333333333333</ele><time>2026-04-10T08:37:04.889Z</time></trkpt><trkpt lat="42.69425548538928" lon="2.901194523452754"><ele>49.666666666666664</ele><time>2026-04-10T08:37:05.889Z</time></trkpt><trkpt lat="42.69417724172027" lon="2.9011506383684664"><ele>50.0</ele><time>2026-04-10T08:37:06.889Z</time></trkpt><trkpt lat="42.69411255494654" lon="2.9010910415794515"><ele>50.33333333333333</ele><time>2026-04-10T08:37:07.889Z</time></trkpt><trkpt lat="42.694040204669186" lon="2.9010585137204306"><ele>50.666666666666664</ele><time>2026-04-10T08:37:08.889Z</time></trkpt><trkpt lat="42.69395443069942" lon="2.900986806479563"><ele>51.0</ele><time>2026-04-10T08:37:10.889Z</time></trkpt><trkpt lat="42.693880575045306" lon="2.9008931337351638"><ele>51.0</ele><time>2026-04-10T08:37:12.889Z</time></trkpt><trkpt lat="42.69381830500798" lon="2.9008447084865754"><ele>51.0</ele><time>2026-04-10T08:37:13.889Z</time></trkpt><trkpt lat="42.69375085251051" lon="2.9007831207547374"><ele>51.0</ele><time>2026-04-10T08:37:14.889Z</time></trkpt><trkpt lat="42.693682932507464" lon="2.9007092102355503"><ele>51.0</ele><time>2026-04-10T08:37:15.889Z</time></trkpt><trkpt lat="42.6936116193652" lon="2.900657025827817"><ele>51.0</ele><time>2026-04-10T08:37:16.889Z</time></trkpt><trkpt lat="42.69354612951279" lon="2.9005881912076417"><ele>51.0</ele><time>2026-04-10T08:37:17.889Z</time></trkpt><trkpt lat="42.69347730894322" lon="2.900525962647702"><ele>51.5</ele><time>2026-04-10T08:37:18.889Z</time></trkpt><trkpt lat="42.693402569714266" lon="2.9004701399705657"><ele>52.0</ele><time>2026-04-10T08:37:19.889Z</time></trkpt><trkpt lat="42.693336161101236" lon="2.9003977697474577"><ele>52.5</ele><time>2026-04-10T08:37:20.889Z</time></trkpt><trkpt lat="42.69327294068613" lon="2.9003397781907903"><ele>53.0</ele><time>2026-04-10T08:37:21.889Z</time></trkpt><trkpt lat="42.69320005644723" lon="2.900273410697628"><ele>53.5</ele><time>2026-04-10T08:37:22.889Z</time></trkpt><trkpt lat="42.693142415174655" lon="2.9002211414979264"><ele>54.0</ele><time>2026-04-10T08:37:23.889Z</time></trkpt><trkpt lat="42.693080104807855" lon="2.9001694639081155"><ele>54.0</ele><time>2026-04-10T08:37:24.889Z</time></trkpt><trkpt lat="42.69302490047105" lon="2.900121544004309"><ele>54.0</ele><time>2026-04-10T08:37:25.889Z</time></trkpt><trkpt lat="42.69294739437704" lon="2.900033156305738"><ele>54.0</ele><time>2026-04-10T08:37:27.889Z</time></trkpt><trkpt lat="42.692863402122974" lon="2.899956047301493"><ele>54.0</ele><time>2026-04-10T08:37:29.889Z</time></trkpt><trkpt lat="42.692795694332034" lon="2.899901689601301"><ele>54.0</ele><time>2026-04-10T08:37:30.889Z</time></trkpt><trkpt lat="42.692741751720874" lon="2.899836462785225"><ele>54.0</ele><time>2026-04-10T08:37:31.889Z</time></trkpt><trkpt lat="42.692677664887164" lon="2.899764208318661"><ele>54.166666666666664</ele><time>2026-04-10T08:37:32.889Z</time></trkpt><trkpt lat="42.692620387199355" lon="2.8997032882406444"><ele>54.33333333333333</ele><time>2026-04-10T08:37:33.889Z</time></trkpt><trkpt lat="42.69254790584053" lon="2.8996452954370437"><ele>54.5</ele><time>2026-04-10T08:37:34.889Z</time></trkpt><trkpt lat="42.69248491772487" lon="2.899587606384956"><ele>54.666666666666664</ele><time>2026-04-10T08:37:35.889Z</time></trkpt><trkpt lat="42.69241898289512" lon="2.8995317615981846"><ele>54.83333333333333</ele><time>2026-04-10T08:37:36.889Z</time></trkpt><trkpt lat="42.69235808661184" lon="2.8994622533406655"><ele>55.0</ele><time>2026-04-10T08:37:37.889Z</time></trkpt><trkpt lat="42.69229539864636" lon="2.899403828899187"><ele>54.99999999999999</ele><time>2026-04-10T08:37:38.886Z</time></trkpt><trkpt lat="42.692231082411084" lon="2.899345075700668"><ele>55.0</ele><time>2026-04-10T08:37:39.885Z</time></trkpt><trkpt lat="42.69217066244081" lon="2.899286450852427"><ele>55.0</ele><time>2026-04-10T08:37:40.885Z</time></trkpt><trkpt lat="42.69211616714043" lon="2.8992236500591377"><ele>55.0</ele><time>2026-04-10T08:37:41.885Z</time></trkpt><trkpt lat="42.69206043121861" lon="2.8991702487729873"><ele>54.99999999999999</ele><time>2026-04-10T08:37:42.886Z</time></trkpt><trkpt lat="42.69199669341672" lon="2.8991322708264335"><ele>55.0</ele><time>2026-04-10T08:37:43.886Z</time></trkpt><trkpt lat="42.69189711914055" lon="2.8990313145739623"><ele>54.83333333333333</ele><time>2026-04-10T08:37:45.885Z</time></trkpt><trkpt lat="42.6918439637878" lon="2.898962934580978"><ele>54.666666666666664</ele><time>2026-04-10T08:37:47.886Z</time></trkpt><trkpt lat="42.691783906809825" lon="2.8989335459633687"><ele>54.5</ele><time>2026-04-10T08:37:57.886Z</time></trkpt><trkpt lat="42.69172819960876" lon="2.898875384060663"><ele>54.33333333333333</ele><time>2026-04-10T08:38:00.886Z</time></trkpt><trkpt lat="42.69166448938462" lon="2.8988010920690797"><ele>54.166666666666664</ele><time>2026-04-10T08:38:14.886Z</time></trkpt><trkpt lat="42.691594608356404" lon="2.89872088670398"><ele>54.0</ele><time>2026-04-10T08:38:16.886Z</time></trkpt><trkpt lat="42.69153159597611" lon="2.8986606624982527"><ele>54.0</ele><time>2026-04-10T08:38:17.886Z</time></trkpt><trkpt lat="42.69146525375262" lon="2.898588657514326"><ele>54.00000000000001</ele><time>2026-04-10T08:38:18.886Z</time></trkpt><trkpt lat="42.69139457140825" lon="2.8985167908414846"><ele>54.00000000000001</ele><time>2026-04-10T08:38:19.886Z</time></trkpt><trkpt lat="42.69133668685409" lon="2.8984107429012678"><ele>54.0</ele><time>2026-04-10T08:38:20.886Z</time></trkpt><trkpt lat="42.69124727286962" lon="2.8983413380930902"><ele>54.0</ele><time>2026-04-10T08:38:21.886Z</time></trkpt><trkpt lat="42.69118131159911" lon="2.898275156674385"><ele>53.800000000000004</ele><time>2026-04-10T08:38:22.886Z</time></trkpt><trkpt lat="42.69117055898603" lon="2.898135034296024"><ele>53.60000000000001</ele><time>2026-04-10T08:38:23.886Z</time></trkpt><trkpt lat="42.6911640205156" lon="2.8980041421270997"><ele>53.4</ele><time>2026-04-10T08:38:24.886Z</time></trkpt><trkpt lat="42.69118407684585" lon="2.8978526385406758"><ele>53.2</ele><time>2026-04-10T08:38:25.886Z</time></trkpt><trkpt lat="42.69120826700699" lon="2.8977107034367293"><ele>53.0</ele><time>2026-04-10T08:38:26.886Z</time></trkpt><trkpt lat="42.69121306796922" lon="2.8975572631077524"><ele>52.8</ele><time>2026-04-10T08:38:27.886Z</time></trkpt><trkpt lat="42.691228561281534" lon="2.8974033321082375"><ele>52.599999999999994</ele><time>2026-04-10T08:38:28.886Z</time></trkpt><trkpt lat="42.691253701598185" lon="2.8972559144245875"><ele>52.400000000000006</ele><time>2026-04-10T08:38:29.886Z</time></trkpt><trkpt lat="42.69126184816417" lon="2.8971103044703646"><ele>52.2</ele><time>2026-04-10T08:38:30.886Z</time></trkpt><trkpt lat="42.69127602890239" lon="2.8969736449682326"><ele>52.0</ele><time>2026-04-10T08:38:31.886Z</time></trkpt><trkpt lat="42.69128433380343" lon="2.896858966537045"><ele>51.8</ele><time>2026-04-10T08:38:32.886Z</time></trkpt><trkpt lat="42.691299287585295" lon="2.8967064695441485"><ele>51.6</ele><time>2026-04-10T08:38:34.886Z</time></trkpt><trkpt lat="42.691320341983726" lon="2.896577424112353"><ele>51.4</ele><time>2026-04-10T08:38:36.886Z</time></trkpt><trkpt lat="42.691197188247884" lon="2.896528124799039"><ele>51.199999999999996</ele><time>2026-04-10T08:38:37.886Z</time></trkpt><trkpt lat="42.69111651605042" lon="2.8965051228555705"><ele>51.0</ele><time>2026-04-10T08:38:38.886Z</time></trkpt><trkpt lat="42.691041820814306" lon="2.8964993749563273"><ele>50.8</ele><time>2026-04-10T08:38:39.886Z</time></trkpt><trkpt lat="42.69095588436418" lon="2.8964804101141635"><ele>50.599999999999994</ele><time>2026-04-10T08:38:40.886Z</time></trkpt><trkpt lat="42.690865407991474" lon="2.8964531490489303"><ele>50.4</ele><time>2026-04-10T08:38:41.886Z</time></trkpt><trkpt lat="42.6907873295936" lon="2.8964249333638463"><ele>50.2</ele><time>2026-04-10T08:38:42.886Z</time></trkpt><trkpt lat="42.69069162830134" lon="2.896396807970029"><ele>50.0</ele><time>2026-04-10T08:38:43.886Z</time></trkpt><trkpt lat="42.690591120891966" lon="2.896369694844087"><ele>50.0</ele><time>2026-04-10T08:38:44.886Z</time></trkpt><trkpt lat="42.69048132878314" lon="2.8963348075462156"><ele>50.0</ele><time>2026-04-10T08:38:45.886Z</time></trkpt><trkpt lat="42.690375902258" lon="2.8963149248765694"><ele>50.0</ele><time>2026-04-10T08:38:46.886Z</time></trkpt><trkpt lat="42.690275752377104" lon="2.896289588193773"><ele>50.0</ele><time>2026-04-10T08:38:47.886Z</time></trkpt><trkpt lat="42.69018598791189" lon="2.896276337379056"><ele>50.0</ele><time>2026-04-10T08:38:48.886Z</time></trkpt><trkpt lat="42.69010742692873" lon="2.8962649016040793"><ele>49.4</ele><time>2026-04-10T08:38:49.886Z</time></trkpt><trkpt lat="42.690011604276776" lon="2.8962064225205197"><ele>48.8</ele><time>2026-04-10T08:38:51.886Z</time></trkpt><trkpt lat="42.68995068728743" lon="2.896181476561484"><ele>48.2</ele><time>2026-04-10T08:38:54.886Z</time></trkpt><trkpt lat="42.689888393587886" lon="2.8961559670349244"><ele>47.6</ele><time>2026-04-10T08:38:56.886Z</time></trkpt><trkpt lat="42.6897631165051" lon="2.896149956792099"><ele>47.0</ele><time>2026-04-10T08:38:58.886Z</time></trkpt><trkpt lat="42.68966743871116" lon="2.8961251313054994"><ele>47.0</ele><time>2026-04-10T08:39:00.886Z</time></trkpt><trkpt lat="42.68957634336863" lon="2.8960910020950257"><ele>47.0</ele><time>2026-04-10T08:39:02.886Z</time></trkpt><trkpt lat="42.689459808750556" lon="2.8960236420872127"><ele>47.0</ele><time>2026-04-10T08:39:04.886Z</time></trkpt><trkpt lat="42.68940811400543" lon="2.895965711600693"><ele>47.0</ele><time>2026-04-10T08:39:05.886Z</time></trkpt><trkpt lat="42.689352113793475" lon="2.8959082663524596"><ele>47.0</ele><time>2026-04-10T08:39:06.886Z</time></trkpt><trkpt lat="42.689291407583326" lon="2.8958490066604394"><ele>47.0</ele><time>2026-04-10T08:39:07.886Z</time></trkpt><trkpt lat="42.689235104423176" lon="2.8957792479212787"><ele>46.0</ele><time>2026-04-10T08:39:08.886Z</time></trkpt><trkpt lat="42.6891850821552" lon="2.895700944145256"><ele>45.0</ele><time>2026-04-10T08:39:09.886Z</time></trkpt><trkpt lat="42.68915069596518" lon="2.8956141916578257"><ele>44.0</ele><time>2026-04-10T08:39:10.886Z</time></trkpt><trkpt lat="42.6891079730311" lon="2.8955457260241255"><ele>43.0</ele><time>2026-04-10T08:39:11.886Z</time></trkpt><trkpt lat="42.689033100488764" lon="2.89545403049823"><ele>42.0</ele><time>2026-04-10T08:39:13.886Z</time></trkpt><trkpt lat="42.68899567837109" lon="2.8953820396081893"><ele>41.0</ele><time>2026-04-10T08:39:15.886Z</time></trkpt><trkpt lat="42.68893997128943" lon="2.8953081189392296"><ele>41.0</ele><time>2026-04-10T08:39:22.886Z</time></trkpt><trkpt lat="42.688896034094" lon="2.8952352731688795"><ele>41.0</ele><time>2026-04-10T08:39:26.886Z</time></trkpt><trkpt lat="42.688836076667116" lon="2.8951217773662803"><ele>41.0</ele><time>2026-04-10T08:39:29.886Z</time></trkpt><trkpt lat="42.688829174138604" lon="2.895025869981232"><ele>41.0</ele><time>2026-04-10T08:39:40.886Z</time></trkpt><trkpt lat="42.68880139976039" lon="2.894874866456609"><ele>41.0</ele><time>2026-04-10T08:39:42.886Z</time></trkpt><trkpt lat="42.68876863436852" lon="2.8947980005663005"><ele>41.0</ele><time>2026-04-10T08:39:43.886Z</time></trkpt><trkpt lat="42.68877164868368" lon="2.8947017692350325"><ele>41.0</ele><time>2026-04-10T08:39:44.882Z</time></trkpt><trkpt lat="42.68874528485376" lon="2.894597845703916"><ele>41.0</ele><time>2026-04-10T08:39:45.882Z</time></trkpt><trkpt lat="42.68874389637672" lon="2.894479769537057"><ele>41.0</ele><time>2026-04-10T08:39:46.882Z</time></trkpt><trkpt lat="42.68876405948169" lon="2.8943763341993356"><ele>41.0</ele><time>2026-04-10T08:39:47.882Z</time></trkpt><trkpt lat="42.68879490737363" lon="2.8942902373378074"><ele>41.0</ele><time>2026-04-10T08:39:48.882Z</time></trkpt><trkpt lat="42.68882009861893" lon="2.8941817617569687"><ele>41.0</ele><time>2026-04-10T08:39:49.882Z</time></trkpt><trkpt lat="42.68884715101232" lon="2.8940754864898466"><ele>40.83333333333333</ele><time>2026-04-10T08:39:50.882Z</time></trkpt><trkpt lat="42.68888385524781" lon="2.8939678235602546"><ele>40.666666666666664</ele><time>2026-04-10T08:39:51.882Z</time></trkpt><trkpt lat="42.688924068338466" lon="2.8938712726258795"><ele>40.5</ele><time>2026-04-10T08:39:52.882Z</time></trkpt><trkpt lat="42.68897312420619" lon="2.8937696190205022"><ele>40.333333333333336</ele><time>2026-04-10T08:39:53.882Z</time></trkpt><trkpt lat="42.689025930277076" lon="2.8936667267458036"><ele>40.16666666666667</ele><time>2026-04-10T08:39:54.883Z</time></trkpt><trkpt lat="42.689081488144666" lon="2.893569903360716"><ele>40.0</ele><time>2026-04-10T08:39:55.883Z</time></trkpt><trkpt lat="42.68912681699807" lon="2.893474939727291"><ele>40.0</ele><time>2026-04-10T08:39:56.882Z</time></trkpt><trkpt lat="42.68917279254912" lon="2.8933727100385105"><ele>40.0</ele><time>2026-04-10T08:39:57.883Z</time></trkpt><trkpt lat="42.689219314954876" lon="2.8932782645407453"><ele>40.0</ele><time>2026-04-10T08:39:58.883Z</time></trkpt><trkpt lat="42.68927641487434" lon="2.8932020672510257"><ele>40.0</ele><time>2026-04-10T08:39:59.883Z</time></trkpt><trkpt lat="42.68933088272482" lon="2.893139687358535"><ele>40.0</ele><time>2026-04-10T08:40:00.883Z</time></trkpt><trkpt lat="42.689389525969034" lon="2.893031282159215"><ele>40.0</ele><time>2026-04-10T08:40:02.883Z</time></trkpt><trkpt lat="42.689445703211454" lon="2.892923678784771"><ele>39.833333333333336</ele><time>2026-04-10T08:40:04.883Z</time></trkpt><trkpt lat="42.68953722351729" lon="2.892793494811075"><ele>39.66666666666667</ele><time>2026-04-10T08:40:06.883Z</time></trkpt><trkpt lat="42.68958745627131" lon="2.8927169810171414"><ele>39.5</ele><time>2026-04-10T08:40:07.883Z</time></trkpt><trkpt lat="42.6896414342061" lon="2.892649806812483"><ele>39.333333333333336</ele><time>2026-04-10T08:40:08.883Z</time></trkpt><trkpt lat="42.689702807480074" lon="2.892579862443189"><ele>39.166666666666664</ele><time>2026-04-10T08:40:09.883Z</time></trkpt><trkpt lat="42.689751310213424" lon="2.8925039193361943"><ele>39.0</ele><time>2026-04-10T08:40:10.883Z</time></trkpt><trkpt lat="42.68980365702229" lon="2.8924295713674004"><ele>39.0</ele><time>2026-04-10T08:40:11.883Z</time></trkpt><trkpt lat="42.68985309603083" lon="2.8923540437740787"><ele>39.0</ele><time>2026-04-10T08:40:12.883Z</time></trkpt><trkpt lat="42.689899971002966" lon="2.8922793802771363"><ele>39.0</ele><time>2026-04-10T08:40:13.883Z</time></trkpt><trkpt lat="42.68997041651994" lon="2.8922018413939865"><ele>39.0</ele><time>2026-04-10T08:40:15.883Z</time></trkpt><trkpt lat="42.68992056191603" lon="2.8920783045346035"><ele>39.0</ele><time>2026-04-10T08:40:17.883Z</time></trkpt><trkpt lat="42.689835631340564" lon="2.8919714161673427"><ele>39.0</ele><time>2026-04-10T08:40:19.883Z</time></trkpt><trkpt lat="42.689787527450655" lon="2.8919110911218877"><ele>39.0</ele><time>2026-04-10T08:40:20.883Z</time></trkpt><trkpt lat="42.68973626349068" lon="2.8918576188357226"><ele>39.0</ele><time>2026-04-10T08:40:21.883Z</time></trkpt><trkpt lat="42.68964587882006" lon="2.891741639247993"><ele>39.0</ele><time>2026-04-10T08:40:23.883Z</time></trkpt><trkpt lat="42.68960211542188" lon="2.891672063309422"><ele>39.0</ele><time>2026-04-10T08:40:24.883Z</time></trkpt><trkpt lat="42.689562141051006" lon="2.8916033699450923"><ele>39.0</ele><time>2026-04-10T08:40:25.883Z</time></trkpt><trkpt lat="42.6895084028803" lon="2.8915355977491726"><ele>39.2</ele><time>2026-04-10T08:40:26.883Z</time></trkpt><trkpt lat="42.689429662407186" lon="2.891432666732529"><ele>39.4</ele><time>2026-04-10T08:40:28.883Z</time></trkpt><trkpt lat="42.689357405117896" lon="2.8913374392385753"><ele>39.6</ele><time>2026-04-10T08:40:30.883Z</time></trkpt><trkpt lat="42.68928175876476" lon="2.8912460140169887"><ele>39.8</ele><time>2026-04-10T08:40:32.883Z</time></trkpt><trkpt lat="42.6892417999212" lon="2.8911664510198545"><ele>40.0</ele><time>2026-04-10T08:40:35.883Z</time></trkpt><trkpt lat="42.68929126774325" lon="2.891096618776279"><ele>40.0</ele><time>2026-04-10T08:40:37.883Z</time></trkpt><trkpt lat="42.68936340977133" lon="2.8909697687358933"><ele>40.0</ele><time>2026-04-10T08:40:39.883Z</time></trkpt><trkpt lat="42.68940615856664" lon="2.8908965720812474"><ele>40.0</ele><time>2026-04-10T08:40:40.883Z</time></trkpt><trkpt lat="42.68944832525822" lon="2.890824372157744"><ele>40.0</ele><time>2026-04-10T08:40:41.883Z</time></trkpt><trkpt lat="42.68950139799741" lon="2.89073926626192"><ele>40.0</ele><time>2026-04-10T08:40:42.883Z</time></trkpt><trkpt lat="42.68954740065519" lon="2.8906571085797133"><ele>40.0</ele><time>2026-04-10T08:40:43.883Z</time></trkpt><trkpt lat="42.68959316264097" lon="2.8905750433499096"><ele>40.0</ele><time>2026-04-10T08:40:44.883Z</time></trkpt><trkpt lat="42.689640679527756" lon="2.890493077662927"><ele>40.0</ele><time>2026-04-10T08:40:45.883Z</time></trkpt><trkpt lat="42.68969815465243" lon="2.890396251366079"><ele>40.0</ele><time>2026-04-10T08:40:47.883Z</time></trkpt><trkpt lat="42.68976225438577" lon="2.8903785262226793"><ele>40.0</ele><time>2026-04-10T08:40:49.883Z</time></trkpt><trkpt lat="42.689848580739" lon="2.8903003213826026"><ele>40.0</ele><time>2026-04-10T08:40:51.883Z</time></trkpt><trkpt lat="42.689897281521816" lon="2.8902310700435074"><ele>40.0</ele><time>2026-04-10T08:40:52.883Z</time></trkpt><trkpt lat="42.68996781423771" lon="2.8901592742942914"><ele>40.0</ele><time>2026-04-10T08:40:53.883Z</time></trkpt><trkpt lat="42.690019802941286" lon="2.890093283174277"><ele>40.0</ele><time>2026-04-10T08:40:54.883Z</time></trkpt><trkpt lat="42.69006756430896" lon="2.8900063307199577"><ele>40.0</ele><time>2026-04-10T08:40:56.883Z</time></trkpt><trkpt lat="42.690046226171205" lon="2.8899142326161686"><ele>40.0</ele><time>2026-04-10T08:40:59.883Z</time></trkpt><trkpt lat="42.68999999135701" lon="2.8898422690510626"><ele>40.0</ele><time>2026-04-10T08:41:00.883Z</time></trkpt><trkpt lat="42.689927717771106" lon="2.8897960027699194"><ele>40.0</ele><time>2026-04-10T08:41:01.883Z</time></trkpt><trkpt lat="42.68989115607296" lon="2.8897075081608024"><ele>40.0</ele><time>2026-04-10T08:41:02.883Z</time></trkpt><trkpt lat="42.689849147138005" lon="2.8896269758853754"><ele>39.66666666666667</ele><time>2026-04-10T08:41:03.883Z</time></trkpt><trkpt lat="42.68980382849042" lon="2.889542053989915"><ele>39.333333333333336</ele><time>2026-04-10T08:41:04.883Z</time></trkpt><trkpt lat="42.68975279001777" lon="2.889458758751544"><ele>39.0</ele><time>2026-04-10T08:41:05.883Z</time></trkpt><trkpt lat="42.689705442782554" lon="2.889375314078443"><ele>38.666666666666664</ele><time>2026-04-10T08:41:06.883Z</time></trkpt><trkpt lat="42.68965386883326" lon="2.8892839958491776"><ele>38.33333333333333</ele><time>2026-04-10T08:41:07.883Z</time></trkpt><trkpt lat="42.689599222152644" lon="2.8891974654024697"><ele>38.0</ele><time>2026-04-10T08:41:08.883Z</time></trkpt><trkpt lat="42.68955437470516" lon="2.8891090507283828"><ele>38.0</ele><time>2026-04-10T08:41:09.883Z</time></trkpt><trkpt lat="42.68949738664788" lon="2.889022530934063"><ele>38.0</ele><time>2026-04-10T08:41:10.883Z</time></trkpt><trkpt lat="42.6894426684227" lon="2.888940812517265"><ele>38.0</ele><time>2026-04-10T08:41:11.883Z</time></trkpt><trkpt lat="42.6893906928786" lon="2.8888519076261163"><ele>38.0</ele><time>2026-04-10T08:41:12.883Z</time></trkpt><trkpt lat="42.68934364194521" lon="2.888748632854293"><ele>38.0</ele><time>2026-04-10T08:41:13.883Z</time></trkpt><trkpt lat="42.68928865944747" lon="2.888658367047511"><ele>38.0</ele><time>2026-04-10T08:41:14.883Z</time></trkpt><trkpt lat="42.689242173227356" lon="2.888563009720898"><ele>38.4</ele><time>2026-04-10T08:41:15.883Z</time></trkpt><trkpt lat="42.6891869741106" lon="2.888481919228654"><ele>38.8</ele><time>2026-04-10T08:41:16.883Z</time></trkpt><trkpt lat="42.68913516904892" lon="2.8883879377846644"><ele>39.2</ele><time>2026-04-10T08:41:17.883Z</time></trkpt><trkpt lat="42.689065427762564" lon="2.8882523221145258"><ele>39.6</ele><time>2026-04-10T08:41:19.883Z</time></trkpt><trkpt lat="42.68902014250376" lon="2.8881350581306666"><ele>40.0</ele><time>2026-04-10T08:41:22.883Z</time></trkpt><trkpt lat="42.689115862976095" lon="2.8880607489055725"><ele>40.0</ele><time>2026-04-10T08:41:24.883Z</time></trkpt><trkpt lat="42.689170888162906" lon="2.88798812069521"><ele>40.0</ele><time>2026-04-10T08:41:25.883Z</time></trkpt><trkpt lat="42.689226642470686" lon="2.887916685436769"><ele>40.0</ele><time>2026-04-10T08:41:26.883Z</time></trkpt><trkpt lat="42.68928873100236" lon="2.8878360390493976"><ele>40.0</ele><time>2026-04-10T08:41:27.883Z</time></trkpt><trkpt lat="42.68935131756941" lon="2.887753882311918"><ele>40.0</ele><time>2026-04-10T08:41:28.883Z</time></trkpt><trkpt lat="42.68941269433805" lon="2.8876712939376317"><ele>40.0</ele><time>2026-04-10T08:41:29.883Z</time></trkpt><trkpt lat="42.6894732394617" lon="2.88758442834144"><ele>39.833333333333336</ele><time>2026-04-10T08:41:30.883Z</time></trkpt><trkpt lat="42.68952121827966" lon="2.8874660899474804"><ele>39.66666666666667</ele><time>2026-04-10T08:41:31.883Z</time></trkpt><trkpt lat="42.689561921025394" lon="2.887357034945838"><ele>39.5</ele><time>2026-04-10T08:41:32.883Z</time></trkpt><trkpt lat="42.68959790866998" lon="2.8872418093959062"><ele>39.333333333333336</ele><time>2026-04-10T08:41:33.883Z</time></trkpt><trkpt lat="42.68964449565525" lon="2.887149896408994"><ele>39.166666666666664</ele><time>2026-04-10T08:41:34.883Z</time></trkpt><trkpt lat="42.6896975981339" lon="2.887069444201429"><ele>39.0</ele><time>2026-04-10T08:41:35.883Z</time></trkpt><trkpt lat="42.68971112500883" lon="2.886966232791393"><ele>39.0</ele><time>2026-04-10T08:41:37.883Z</time></trkpt><trkpt lat="42.689759169501066" lon="2.8868651574657465"><ele>39.0</ele><time>2026-04-10T08:41:46.883Z</time></trkpt><trkpt lat="42.689645656206814" lon="2.886728829775287"><ele>39.0</ele><time>2026-04-10T08:41:48.883Z</time></trkpt><trkpt lat="42.68958959217906" lon="2.8866861204536676"><ele>39.0</ele><time>2026-04-10T08:41:49.883Z</time></trkpt><trkpt lat="42.68953026053439" lon="2.886631371728843"><ele>39.0</ele><time>2026-04-10T08:41:50.878Z</time></trkpt><trkpt lat="42.68946753662399" lon="2.8865762227466485"><ele>39.166666666666664</ele><time>2026-04-10T08:41:51.878Z</time></trkpt><trkpt lat="42.6894091774745" lon="2.8865196765866434"><ele>39.333333333333336</ele><time>2026-04-10T08:41:52.878Z</time></trkpt><trkpt lat="42.689341316888246" lon="2.8864603123488592"><ele>39.5</ele><time>2026-04-10T08:41:53.878Z</time></trkpt><trkpt lat="42.68928372510121" lon="2.886378515128383"><ele>39.66666666666667</ele><time>2026-04-10T08:41:54.878Z</time></trkpt><trkpt lat="42.68922027337047" lon="2.88631198225824"><ele>39.833333333333336</ele><time>2026-04-10T08:41:55.878Z</time></trkpt><trkpt lat="42.68915633714429" lon="2.8862445615366856"><ele>40.0</ele><time>2026-04-10T08:41:56.877Z</time></trkpt><trkpt lat="42.68908293653737" lon="2.886197737944134"><ele>40.0</ele><time>2026-04-10T08:41:57.878Z</time></trkpt><trkpt lat="42.689029088351674" lon="2.8861154752791207"><ele>40.0</ele><time>2026-04-10T08:41:58.878Z</time></trkpt><trkpt lat="42.68895888720189" lon="2.8860442501702943"><ele>40.0</ele><time>2026-04-10T08:41:59.877Z</time></trkpt><trkpt lat="42.688903209880564" lon="2.885987760734966"><ele>40.0</ele><time>2026-04-10T08:42:00.878Z</time></trkpt><trkpt lat="42.6888314003361" lon="2.8859145531187624"><ele>40.0</ele><time>2026-04-10T08:42:02.877Z</time></trkpt><trkpt lat="42.68877317313258" lon="2.885878595170338"><ele>40.0</ele><time>2026-04-10T08:42:05.877Z</time></trkpt><trkpt lat="42.688725451720394" lon="2.8858140938007923"><ele>39.833333333333336</ele><time>2026-04-10T08:42:09.877Z</time></trkpt><trkpt lat="42.68868381002033" lon="2.8857227327198696"><ele>39.66666666666667</ele><time>2026-04-10T08:42:43.877Z</time></trkpt><trkpt lat="42.68872570624359" lon="2.885569210677207"><ele>39.5</ele><time>2026-04-10T08:42:45.877Z</time></trkpt><trkpt lat="42.688787104120564" lon="2.885499168499281"><ele>39.333333333333336</ele><time>2026-04-10T08:42:46.877Z</time></trkpt><trkpt lat="42.68884429855868" lon="2.8854301056172798"><ele>39.166666666666664</ele><time>2026-04-10T08:42:47.877Z</time></trkpt><trkpt lat="42.688901289812236" lon="2.8853452001116913"><ele>39.0</ele><time>2026-04-10T08:42:48.877Z</time></trkpt><trkpt lat="42.68895977140386" lon="2.8852595740473195"><ele>39.0</ele><time>2026-04-10T08:42:49.877Z</time></trkpt><trkpt lat="42.689021910356665" lon="2.885175677399032"><ele>39.0</ele><time>2026-04-10T08:42:50.877Z</time></trkpt><trkpt lat="42.689085154737" lon="2.88509946938155"><ele>39.0</ele><time>2026-04-10T08:42:51.877Z</time></trkpt><trkpt lat="42.68914504298949" lon="2.8850263524049082"><ele>39.0</ele><time>2026-04-10T08:42:52.877Z</time></trkpt><trkpt lat="42.689204115507856" lon="2.884952788559929"><ele>39.0</ele><time>2026-04-10T08:42:53.877Z</time></trkpt><trkpt lat="42.689278149722476" lon="2.884862609065311"><ele>39.0</ele><time>2026-04-10T08:42:55.877Z</time></trkpt><trkpt lat="42.68934392605305" lon="2.8847919589537168"><ele>39.0</ele><time>2026-04-10T08:42:57.877Z</time></trkpt><trkpt lat="42.689379835979366" lon="2.8847027248637653"><ele>39.0</ele><time>2026-04-10T08:43:16.877Z</time></trkpt><trkpt lat="42.689436789527" lon="2.884660313192267"><ele>39.0</ele><time>2026-04-10T08:43:19.877Z</time></trkpt><trkpt lat="42.689504311101054" lon="2.8845815378795305"><ele>39.0</ele><time>2026-04-10T08:43:22.877Z</time></trkpt><trkpt lat="42.68955467287874" lon="2.8845096593724837"><ele>39.0</ele><time>2026-04-10T08:43:24.877Z</time></trkpt><trkpt lat="42.68946332561807" lon="2.8843452653043946"><ele>38.833333333333336</ele><time>2026-04-10T08:43:25.877Z</time></trkpt><trkpt lat="42.689368474875714" lon="2.8842589958274316"><ele>38.666666666666664</ele><time>2026-04-10T08:43:27.877Z</time></trkpt><trkpt lat="42.68931681470556" lon="2.884202974092545"><ele>38.5</ele><time>2026-04-10T08:43:28.877Z</time></trkpt><trkpt lat="42.68925780976617" lon="2.884145728978691"><ele>38.33333333333333</ele><time>2026-04-10T08:43:29.877Z</time></trkpt><trkpt lat="42.68920355188437" lon="2.8840832290986613"><ele>38.166666666666664</ele><time>2026-04-10T08:43:30.877Z</time></trkpt><trkpt lat="42.68914444799295" lon="2.8840211177180772"><ele>38.0</ele><time>2026-04-10T08:43:31.877Z</time></trkpt><trkpt lat="42.68908626594467" lon="2.8839596490081005"><ele>38.0</ele><time>2026-04-10T08:43:32.877Z</time></trkpt><trkpt lat="42.689030767386654" lon="2.8839006564969307"><ele>38.0</ele><time>2026-04-10T08:43:33.877Z</time></trkpt><trkpt lat="42.68893314270703" lon="2.8838084822713554"><ele>38.0</ele><time>2026-04-10T08:43:35.877Z</time></trkpt><trkpt lat="42.688848079569375" lon="2.8837084214739837"><ele>38.0</ele><time>2026-04-10T08:43:37.877Z</time></trkpt><trkpt lat="42.688795289121444" lon="2.8836598883455555"><ele>38.0</ele><time>2026-04-10T08:43:38.877Z</time></trkpt><trkpt lat="42.688744903567034" lon="2.8835986358025316"><ele>38.0</ele><time>2026-04-10T08:43:39.877Z</time></trkpt><trkpt lat="42.6886919227657" lon="2.883537557175018"><ele>38.0</ele><time>2026-04-10T08:43:40.877Z</time></trkpt><trkpt lat="42.688637503575855" lon="2.8834709958827642"><ele>38.0</ele><time>2026-04-10T08:43:41.877Z</time></trkpt><trkpt lat="42.68857375413111" lon="2.8834113609619516"><ele>38.0</ele><time>2026-04-10T08:43:42.877Z</time></trkpt><trkpt lat="42.68851075187237" lon="2.883344582744876"><ele>38.0</ele><time>2026-04-10T08:43:43.877Z</time></trkpt><trkpt lat="42.6884531750044" lon="2.8832797471279683"><ele>38.0</ele><time>2026-04-10T08:43:44.877Z</time></trkpt><trkpt lat="42.68840059799291" lon="2.8832252911425127"><ele>38.0</ele><time>2026-04-10T08:43:45.877Z</time></trkpt><trkpt lat="42.688349745612115" lon="2.88316859644497"><ele>38.0</ele><time>2026-04-10T08:43:47.877Z</time></trkpt><trkpt lat="42.68829012895056" lon="2.8831133485137737"><ele>38.0</ele><time>2026-04-10T08:43:50.877Z</time></trkpt><trkpt lat="42.68822106752132" lon="2.8830420544920865"><ele>38.0</ele><time>2026-04-10T08:43:53.877Z</time></trkpt><trkpt lat="42.68815816495725" lon="2.8829806365226838"><ele>38.0</ele><time>2026-04-10T08:43:55.877Z</time></trkpt><trkpt lat="42.688065184932775" lon="2.882886390512073"><ele>38.0</ele><time>2026-04-10T08:43:57.874Z</time></trkpt><trkpt lat="42.68800569863865" lon="2.882831144733249"><ele>38.0</ele><time>2026-04-10T08:43:58.874Z</time></trkpt><trkpt lat="42.68795395949644" lon="2.8827750779851153"><ele>38.0</ele><time>2026-04-10T08:43:59.874Z</time></trkpt><trkpt lat="42.687887412112985" lon="2.8827235478969024"><ele>38.0</ele><time>2026-04-10T08:44:00.873Z</time></trkpt><trkpt lat="42.687820048586815" lon="2.882669418091457"><ele>38.0</ele><time>2026-04-10T08:44:01.873Z</time></trkpt><trkpt lat="42.687750488702015" lon="2.882611939977461"><ele>38.0</ele><time>2026-04-10T08:44:02.874Z</time></trkpt><trkpt lat="42.687677203405414" lon="2.8825475392012625"><ele>38.0</ele><time>2026-04-10T08:44:03.873Z</time></trkpt><trkpt lat="42.687595334639525" lon="2.8824975825432264"><ele>38.0</ele><time>2026-04-10T08:44:04.873Z</time></trkpt><trkpt lat="42.687516069510075" lon="2.8824477302378773"><ele>38.0</ele><time>2026-04-10T08:44:05.873Z</time></trkpt><trkpt lat="42.687444346624375" lon="2.882396282575681"><ele>38.166666666666664</ele><time>2026-04-10T08:44:06.874Z</time></trkpt><trkpt lat="42.68737141901208" lon="2.882340304647834"><ele>38.33333333333333</ele><time>2026-04-10T08:44:07.874Z</time></trkpt><trkpt lat="42.6873013258529" lon="2.8822730468449835"><ele>38.5</ele><time>2026-04-10T08:44:08.873Z</time></trkpt><trkpt lat="42.68723315102646" lon="2.882208569436374"><ele>38.666666666666664</ele><time>2026-04-10T08:44:09.873Z</time></trkpt><trkpt lat="42.68718049922616" lon="2.8821460743308687"><ele>38.833333333333336</ele><time>2026-04-10T08:44:10.873Z</time></trkpt><trkpt lat="42.68708723781254" lon="2.882041034637261"><ele>39.0</ele><time>2026-04-10T08:44:12.873Z</time></trkpt><trkpt lat="42.68704119146701" lon="2.881979302743822"><ele>39.0</ele><time>2026-04-10T08:44:13.873Z</time></trkpt><trkpt lat="42.68696799064242" lon="2.8818664232400395"><ele>39.0</ele><time>2026-04-10T08:44:15.873Z</time></trkpt><trkpt lat="42.68696976727119" lon="2.8817241381007306"><ele>39.0</ele><time>2026-04-10T08:44:17.873Z</time></trkpt><trkpt lat="42.68704653514483" lon="2.881673522823516"><ele>39.0</ele><time>2026-04-10T08:44:18.873Z</time></trkpt><trkpt lat="42.68709806689663" lon="2.881619389300645"><ele>39.0</ele><time>2026-04-10T08:44:19.873Z</time></trkpt><trkpt lat="42.6871440520027" lon="2.8815565178737894"><ele>39.0</ele><time>2026-04-10T08:44:20.873Z</time></trkpt><trkpt lat="42.68720348050711" lon="2.881476474161474"><ele>39.0</ele><time>2026-04-10T08:44:22.873Z</time></trkpt><trkpt lat="42.68713406133057" lon="2.8812759365567717"><ele>39.0</ele><time>2026-04-10T08:44:27.873Z</time></trkpt><trkpt lat="42.687064439206445" lon="2.8812125688342793"><ele>39.0</ele><time>2026-04-10T08:44:28.873Z</time></trkpt><trkpt lat="42.68699917720211" lon="2.881153169505181"><ele>39.0</ele><time>2026-04-10T08:44:29.873Z</time></trkpt><trkpt lat="42.686927090033855" lon="2.881087558192111"><ele>39.0</ele><time>2026-04-10T08:44:30.873Z</time></trkpt><trkpt lat="42.686850202969936" lon="2.8810175779873157"><ele>39.0</ele><time>2026-04-10T08:44:31.873Z</time></trkpt><trkpt lat="42.68678012822178" lon="2.8809500841492945"><ele>39.0</ele><time>2026-04-10T08:44:32.873Z</time></trkpt><trkpt lat="42.6867058477263" lon="2.880879493046558"><ele>39.0</ele><time>2026-04-10T08:44:33.873Z</time></trkpt><trkpt lat="42.68663006482855" lon="2.8808092307458466"><ele>39.0</ele><time>2026-04-10T08:44:34.873Z</time></trkpt><trkpt lat="42.68654772430039" lon="2.8807328885247196"><ele>39.0</ele><time>2026-04-10T08:44:35.873Z</time></trkpt><trkpt lat="42.686475517653044" lon="2.8806659419693017"><ele>38.6</ele><time>2026-04-10T08:44:36.873Z</time></trkpt><trkpt lat="42.68639721907253" lon="2.8805905255373063"><ele>38.2</ele><time>2026-04-10T08:44:37.873Z</time></trkpt><trkpt lat="42.68632236087851" lon="2.880517897165716"><ele>37.800000000000004</ele><time>2026-04-10T08:44:38.873Z</time></trkpt><trkpt lat="42.6862637550937" lon="2.880450048248977"><ele>37.4</ele><time>2026-04-10T08:44:39.873Z</time></trkpt><trkpt lat="42.68622919452307" lon="2.8803760785144767"><ele>37.0</ele><time>2026-04-10T08:44:40.874Z</time></trkpt><trkpt lat="42.686240664693145" lon="2.8802039107541524"><ele>37.0</ele><time>2026-04-10T08:44:42.874Z</time></trkpt><trkpt lat="42.68626036245311" lon="2.88010729516852"><ele>37.0</ele><time>2026-04-10T08:44:43.874Z</time></trkpt><trkpt lat="42.68626353191639" lon="2.879968165874989"><ele>37.0</ele><time>2026-04-10T08:44:45.874Z</time></trkpt><trkpt lat="42.68627575158828" lon="2.8798323409749327"><ele>37.0</ele><time>2026-04-10T08:44:47.874Z</time></trkpt><trkpt lat="42.686285989471344" lon="2.8797302053665548"><ele>37.0</ele><time>2026-04-10T08:44:50.874Z</time></trkpt><trkpt lat="42.68629510597267" lon="2.8796383827252834"><ele>37.0</ele><time>2026-04-10T08:45:00.874Z</time></trkpt><trkpt lat="42.68630764563829" lon="2.879512081580386"><ele>37.0</ele><time>2026-04-10T08:45:04.874Z</time></trkpt><trkpt lat="42.68631489155776" lon="2.87941291135294"><ele>37.0</ele><time>2026-04-10T08:45:06.874Z</time></trkpt><trkpt lat="42.686344546784085" lon="2.8792872383153405"><ele>37.0</ele><time>2026-04-10T08:45:08.874Z</time></trkpt><trkpt lat="42.68636894565194" lon="2.879116072326866"><ele>37.0</ele><time>2026-04-10T08:45:10.874Z</time></trkpt><trkpt lat="42.68637532766263" lon="2.879002470600033"><ele>37.0</ele><time>2026-04-10T08:45:11.874Z</time></trkpt><trkpt lat="42.68639255860384" lon="2.8788865183138745"><ele>37.0</ele><time>2026-04-10T08:45:12.874Z</time></trkpt><trkpt lat="42.68641090835259" lon="2.87877554844639"><ele>37.0</ele><time>2026-04-10T08:45:13.874Z</time></trkpt><trkpt lat="42.68643570708088" lon="2.878663293586739"><ele>37.0</ele><time>2026-04-10T08:45:14.874Z</time></trkpt><trkpt lat="42.686465795197265" lon="2.8785460802894884"><ele>37.0</ele><time>2026-04-10T08:45:15.874Z</time></trkpt><trkpt lat="42.686497181574765" lon="2.878434494165033"><ele>37.0</ele><time>2026-04-10T08:45:16.874Z</time></trkpt><trkpt lat="42.68652957591495" lon="2.8783158563704343"><ele>37.0</ele><time>2026-04-10T08:45:17.874Z</time></trkpt><trkpt lat="42.686553113597896" lon="2.878206775042109"><ele>36.833333333333336</ele><time>2026-04-10T08:45:18.874Z</time></trkpt><trkpt lat="42.68657315297533" lon="2.878117160648252"><ele>36.66666666666667</ele><time>2026-04-10T08:45:19.874Z</time></trkpt><trkpt lat="42.68661309770984" lon="2.8779889651102555"><ele>36.5</ele><time>2026-04-10T08:45:21.874Z</time></trkpt><trkpt lat="42.6866173103284" lon="2.8778605153536523"><ele>36.333333333333336</ele><time>2026-04-10T08:45:23.874Z</time></trkpt><trkpt lat="42.686578962464246" lon="2.877788209300992"><ele>36.166666666666664</ele><time>2026-04-10T08:45:24.874Z</time></trkpt><trkpt lat="42.686523495118344" lon="2.877723176040831"><ele>36.0</ele><time>2026-04-10T08:45:25.874Z</time></trkpt><trkpt lat="42.68645689531074" lon="2.8777019015926766"><ele>36.0</ele><time>2026-04-10T08:45:26.874Z</time></trkpt><trkpt lat="42.686388968970086" lon="2.877702958367741"><ele>36.0</ele><time>2026-04-10T08:45:27.874Z</time></trkpt><trkpt lat="42.68632437029588" lon="2.877657013139373"><ele>36.0</ele><time>2026-04-10T08:45:29.874Z</time></trkpt><trkpt lat="42.68634174071577" lon="2.8774990519165162"><ele>36.0</ele><time>2026-04-10T08:45:30.874Z</time></trkpt><trkpt lat="42.686358668945275" lon="2.8773864992861427"><ele>36.0</ele><time>2026-04-10T08:45:31.874Z</time></trkpt><trkpt lat="42.68636617573866" lon="2.877266815498539"><ele>36.0</ele><time>2026-04-10T08:45:32.874Z</time></trkpt><trkpt lat="42.68637672179205" lon="2.877146021946363"><ele>35.833333333333336</ele><time>2026-04-10T08:45:33.874Z</time></trkpt><trkpt lat="42.68638379752285" lon="2.8770232038656"><ele>35.666666666666664</ele><time>2026-04-10T08:45:34.874Z</time></trkpt><trkpt lat="42.68639422070029" lon="2.876910427534834"><ele>35.5</ele><time>2026-04-10T08:45:35.874Z</time></trkpt><trkpt lat="42.68639740924804" lon="2.8768075886871975"><ele>35.33333333333333</ele><time>2026-04-10T08:45:36.874Z</time></trkpt><trkpt lat="42.68638075552647" lon="2.8767029771647703"><ele>35.166666666666664</ele><time>2026-04-10T08:45:37.874Z</time></trkpt><trkpt lat="42.686310342204635" lon="2.8766268261734402"><ele>35.0</ele><time>2026-04-10T08:45:38.874Z</time></trkpt><trkpt lat="42.68625601189342" lon="2.8765212244232288"><ele>35.4</ele><time>2026-04-10T08:45:39.874Z</time></trkpt><trkpt lat="42.68619281113113" lon="2.876424168566507"><ele>35.8</ele><time>2026-04-10T08:45:40.874Z</time></trkpt><trkpt lat="42.68613294551131" lon="2.8763286617241044"><ele>36.2</ele><time>2026-04-10T08:45:41.874Z</time></trkpt><trkpt lat="42.686088348532856" lon="2.8762485285014825"><ele>36.6</ele><time>2026-04-10T08:45:42.874Z</time></trkpt><trkpt lat="42.686065579113354" lon="2.8761547067999627"><ele>37.0</ele><time>2026-04-10T08:45:44.874Z</time></trkpt><trkpt lat="42.68618501372444" lon="2.876050858290821"><ele>37.0</ele><time>2026-04-10T08:45:46.874Z</time></trkpt><trkpt lat="42.68626520876945" lon="2.8760360688401327"><ele>37.0</ele><time>2026-04-10T08:45:47.874Z</time></trkpt><trkpt lat="42.686340135937186" lon="2.8760334353374173"><ele>37.0</ele><time>2026-04-10T08:45:48.874Z</time></trkpt><trkpt lat="42.68638467678765" lon="2.875955007486653"><ele>37.0</ele><time>2026-04-10T08:45:49.874Z</time></trkpt><trkpt lat="42.686462277644104" lon="2.8759477970413285"><ele>37.0</ele><time>2026-04-10T08:45:50.874Z</time></trkpt><trkpt lat="42.68653309044089" lon="2.875907208168255"><ele>37.0</ele><time>2026-04-10T08:45:51.874Z</time></trkpt><trkpt lat="42.68660126170023" lon="2.8758650022756687"><ele>37.333333333333336</ele><time>2026-04-10T08:45:52.874Z</time></trkpt><trkpt lat="42.68666936492955" lon="2.8758236300409408"><ele>37.66666666666667</ele><time>2026-04-10T08:45:53.874Z</time></trkpt><trkpt lat="42.68674175325541" lon="2.8757772267872337"><ele>38.0</ele><time>2026-04-10T08:45:54.874Z</time></trkpt><trkpt lat="42.68681717961438" lon="2.8757289285155885"><ele>38.333333333333336</ele><time>2026-04-10T08:45:55.874Z</time></trkpt><trkpt lat="42.68689566500764" lon="2.8756773116063448"><ele>38.666666666666664</ele><time>2026-04-10T08:45:56.93Z</time></trkpt><trkpt lat="42.686975239073256" lon="2.87563289333375"><ele>39.0</ele><time>2026-04-10T08:45:57.93Z</time></trkpt><trkpt lat="42.687046099173315" lon="2.8755799263491224"><ele>39.0</ele><time>2026-04-10T08:45:58.93Z</time></trkpt><trkpt lat="42.68713325265291" lon="2.8755459034888338"><ele>39.0</ele><time>2026-04-10T08:45:59.93Z</time></trkpt><trkpt lat="42.68720346695372" lon="2.875497262160333"><ele>39.0</ele><time>2026-04-10T08:46:00.93Z</time></trkpt><trkpt lat="42.6872956209591" lon="2.875459256830031"><ele>39.0</ele><time>2026-04-10T08:46:02.926Z</time></trkpt><trkpt lat="42.687203938733475" lon="2.8752045215565643"><ele>39.0</ele><time>2026-04-10T08:46:04.925Z</time></trkpt><trkpt lat="42.68716090082077" lon="2.8751277890752394"><ele>39.0</ele><time>2026-04-10T08:46:05.925Z</time></trkpt><trkpt lat="42.687093966580846" lon="2.8749854790271"><ele>39.0</ele><time>2026-04-10T08:46:07.925Z</time></trkpt><trkpt lat="42.68704583139623" lon="2.874903392032392"><ele>39.0</ele><time>2026-04-10T08:46:08.925Z</time></trkpt><trkpt lat="42.68698423091962" lon="2.8748327255956476"><ele>39.0</ele><time>2026-04-10T08:46:09.926Z</time></trkpt><trkpt lat="42.68691642049261" lon="2.8747629138426434"><ele>39.0</ele><time>2026-04-10T08:46:10.926Z</time></trkpt><trkpt lat="42.68687707127666" lon="2.8746710947437983"><ele>39.0</ele><time>2026-04-10T08:46:11.925Z</time></trkpt><trkpt lat="42.68685438549473" lon="2.8744349401126694"><ele>39.0</ele><time>2026-04-10T08:46:13.925Z</time></trkpt><trkpt lat="42.68680089733453" lon="2.8743199220564297"><ele>39.0</ele><time>2026-04-10T08:46:14.925Z</time></trkpt><trkpt lat="42.68670954402904" lon="2.874225960598191"><ele>39.0</ele><time>2026-04-10T08:46:15.925Z</time></trkpt><trkpt lat="42.68663432473956" lon="2.87411131720458"><ele>39.0</ele><time>2026-04-10T08:46:16.925Z</time></trkpt><trkpt lat="42.6865810266024" lon="2.8739743919877756"><ele>39.0</ele><time>2026-04-10T08:46:17.925Z</time></trkpt><trkpt lat="42.68653373932692" lon="2.8738248244969755"><ele>39.0</ele><time>2026-04-10T08:46:18.925Z</time></trkpt><trkpt lat="42.68649503963076" lon="2.8736758832815874"><ele>39.0</ele><time>2026-04-10T08:46:19.925Z</time></trkpt><trkpt lat="42.6864536059963" lon="2.873526071805591"><ele>39.0</ele><time>2026-04-10T08:46:20.925Z</time></trkpt><trkpt lat="42.68641559384041" lon="2.873382715109903"><ele>39.0</ele><time>2026-04-10T08:46:21.925Z</time></trkpt><trkpt lat="42.68638340583115" lon="2.873259570922471"><ele>39.0</ele><time>2026-04-10T08:46:22.925Z</time></trkpt><trkpt lat="42.68635133669948" lon="2.8731515143939412"><ele>39.0</ele><time>2026-04-10T08:46:23.925Z</time></trkpt><trkpt lat="42.68633832161281" lon="2.873050462827136"><ele>39.0</ele><time>2026-04-10T08:46:24.925Z</time></trkpt><trkpt lat="42.6863185830764" lon="2.8729650532462307"><ele>39.0</ele><time>2026-04-10T08:46:25.925Z</time></trkpt><trkpt lat="42.68626548528864" lon="2.872890882271111"><ele>39.0</ele><time>2026-04-10T08:46:26.925Z</time></trkpt><trkpt lat="42.68613296810492" lon="2.8728827760323807"><ele>39.0</ele><time>2026-04-10T08:46:28.925Z</time></trkpt><trkpt lat="42.68604810070191" lon="2.8729480054472263"><ele>39.0</ele><time>2026-04-10T08:46:29.925Z</time></trkpt><trkpt lat="42.68596971897606" lon="2.873005722544948"><ele>39.0</ele><time>2026-04-10T08:46:30.925Z</time></trkpt><trkpt lat="42.6858831948568" lon="2.8730618664493224"><ele>39.0</ele><time>2026-04-10T08:46:31.925Z</time></trkpt><trkpt lat="42.68579968851749" lon="2.8731150388010906"><ele>39.0</ele><time>2026-04-10T08:46:32.925Z</time></trkpt><trkpt lat="42.685726614946674" lon="2.8731650164990565"><ele>39.0</ele><time>2026-04-10T08:46:33.925Z</time></trkpt><trkpt lat="42.68566106269279" lon="2.8731994871849733"><ele>39.0</ele><time>2026-04-10T08:46:34.925Z</time></trkpt><trkpt lat="42.68559479804446" lon="2.8732101082774997"><ele>39.0</ele><time>2026-04-10T08:46:35.925Z</time></trkpt><trkpt lat="42.68549695096361" lon="2.8729835653005136"><ele>39.0</ele><time>2026-04-10T08:46:38.926Z</time></trkpt><trkpt lat="42.68546151718976" lon="2.8728724929615"><ele>39.0</ele><time>2026-04-10T08:46:39.926Z</time></trkpt><trkpt lat="42.68542538881267" lon="2.8727618002467166"><ele>39.0</ele><time>2026-04-10T08:46:40.926Z</time></trkpt><trkpt lat="42.68538261923111" lon="2.8726554884049174"><ele>39.0</ele><time>2026-04-10T08:46:41.926Z</time></trkpt><trkpt lat="42.685346278584156" lon="2.8725398567048397"><ele>39.0</ele><time>2026-04-10T08:46:42.926Z</time></trkpt><trkpt lat="42.6853071936627" lon="2.8724193887807696"><ele>39.0</ele><time>2026-04-10T08:46:43.926Z</time></trkpt><trkpt lat="42.685265510815974" lon="2.872296228877187"><ele>39.5</ele><time>2026-04-10T08:46:44.926Z</time></trkpt><trkpt lat="42.685228378283405" lon="2.8721723855692844"><ele>40.0</ele><time>2026-04-10T08:46:45.926Z</time></trkpt><trkpt lat="42.685206823821325" lon="2.872052800493647"><ele>40.5</ele><time>2026-04-10T08:46:46.926Z</time></trkpt><trkpt lat="42.68519964715092" lon="2.8719405692813735"><ele>41.0</ele><time>2026-04-10T08:46:47.926Z</time></trkpt><trkpt lat="42.68518162511499" lon="2.8718484085837925"><ele>41.5</ele><time>2026-04-10T08:46:48.926Z</time></trkpt><trkpt lat="42.68520444210407" lon="2.871747834244516"><ele>42.0</ele><time>2026-04-10T08:46:50.926Z</time></trkpt><trkpt lat="42.685045699687954" lon="2.8716453819818377"><ele>42.0</ele><time>2026-04-10T08:46:52.926Z</time></trkpt><trkpt lat="42.68496406811426" lon="2.8716348034065455"><ele>42.0</ele><time>2026-04-10T08:46:53.926Z</time></trkpt><trkpt lat="42.68489389237321" lon="2.8716247649508797"><ele>42.0</ele><time>2026-04-10T08:46:54.926Z</time></trkpt><trkpt lat="42.68482843795693" lon="2.8716263602976313"><ele>42.0</ele><time>2026-04-10T08:46:55.926Z</time></trkpt><trkpt lat="42.68476529603858" lon="2.8716213895247833"><ele>42.0</ele><time>2026-04-10T08:46:56.926Z</time></trkpt><trkpt lat="42.684702677522424" lon="2.8716107877626427"><ele>42.0</ele><time>2026-04-10T08:46:57.926Z</time></trkpt><trkpt lat="42.68463734727217" lon="2.871603878018854"><ele>42.0</ele><time>2026-04-10T08:46:58.926Z</time></trkpt><trkpt lat="42.68456685207588" lon="2.8715963457288893"><ele>42.0</ele><time>2026-04-10T08:46:59.926Z</time></trkpt><trkpt lat="42.68449768661614" lon="2.8715819745959057"><ele>42.0</ele><time>2026-04-10T08:47:00.926Z</time></trkpt><trkpt lat="42.684378124267575" lon="2.871561556642731"><ele>42.0</ele><time>2026-04-10T08:47:02.926Z</time></trkpt><trkpt lat="42.684268412611885" lon="2.871515097067577"><ele>42.0</ele><time>2026-04-10T08:47:04.926Z</time></trkpt><trkpt lat="42.68421723561701" lon="2.8713681027877174"><ele>42.0</ele><time>2026-04-10T08:47:06.926Z</time></trkpt><trkpt lat="42.68427926369195" lon="2.871298820960628"><ele>42.0</ele><time>2026-04-10T08:47:07.926Z</time></trkpt><trkpt lat="42.68430054674393" lon="2.871217080328207"><ele>42.0</ele><time>2026-04-10T08:47:08.926Z</time></trkpt><trkpt lat="42.68433881929475" lon="2.8710771692550714"><ele>42.0</ele><time>2026-04-10T08:47:10.926Z</time></trkpt><trkpt lat="42.68437313194624" lon="2.870929971327087"><ele>42.0</ele><time>2026-04-10T08:47:12.926Z</time></trkpt><trkpt lat="42.68436196099223" lon="2.8707700851153"><ele>42.0</ele><time>2026-04-10T08:47:14.926Z</time></trkpt><trkpt lat="42.68432137446932" lon="2.870694727132371"><ele>42.166666666666664</ele><time>2026-04-10T08:47:15.926Z</time></trkpt><trkpt lat="42.68427767531464" lon="2.870609839538685"><ele>42.333333333333336</ele><time>2026-04-10T08:47:16.926Z</time></trkpt><trkpt lat="42.68423815191293" lon="2.8705239715120383"><ele>42.5</ele><time>2026-04-10T08:47:17.926Z</time></trkpt><trkpt lat="42.68419791282451" lon="2.8704369066555526"><ele>42.66666666666667</ele><time>2026-04-10T08:47:18.926Z</time></trkpt><trkpt lat="42.6841572040548" lon="2.870350819958485"><ele>42.833333333333336</ele><time>2026-04-10T08:47:19.926Z</time></trkpt><trkpt lat="42.68411631631317" lon="2.8702612157097205"><ele>43.0</ele><time>2026-04-10T08:47:20.926Z</time></trkpt><trkpt lat="42.68407385627818" lon="2.8701748595178747"><ele>42.833333333333336</ele><time>2026-04-10T08:47:21.926Z</time></trkpt><trkpt lat="42.684049386227734" lon="2.870077779084796"><ele>42.66666666666667</ele><time>2026-04-10T08:47:22.926Z</time></trkpt><trkpt lat="42.68400827619612" lon="2.8699949756498078"><ele>42.5</ele><time>2026-04-10T08:47:23.926Z</time></trkpt><trkpt lat="42.68397717703902" lon="2.86990669910757"><ele>42.333333333333336</ele><time>2026-04-10T08:47:24.926Z</time></trkpt><trkpt lat="42.68396561135204" lon="2.869819638206137"><ele>42.166666666666664</ele><time>2026-04-10T08:47:25.926Z</time></trkpt><trkpt lat="42.68392466749959" lon="2.8696878251417273"><ele>42.0</ele><time>2026-04-10T08:47:27.926Z</time></trkpt><trkpt lat="42.683902920301996" lon="2.869599242846711"><ele>42.0</ele><time>2026-04-10T08:47:29.926Z</time></trkpt><trkpt lat="42.683869477371466" lon="2.869503910805149"><ele>42.0</ele><time>2026-04-10T08:47:54.926Z</time></trkpt><trkpt lat="42.68384955685839" lon="2.869415575573875"><ele>42.0</ele><time>2026-04-10T08:47:56.926Z</time></trkpt><trkpt lat="42.68382935046257" lon="2.8692828548004035"><ele>42.0</ele><time>2026-04-10T08:47:58.926Z</time></trkpt><trkpt lat="42.68388930591664" lon="2.869183714884187"><ele>42.0</ele><time>2026-04-10T08:48:00.927Z</time></trkpt><trkpt lat="42.68396195229439" lon="2.869112353233235"><ele>42.0</ele><time>2026-04-10T08:48:01.927Z</time></trkpt><trkpt lat="42.68404360598743" lon="2.8690556309455895"><ele>41.8</ele><time>2026-04-10T08:48:02.927Z</time></trkpt><trkpt lat="42.684131316470896" lon="2.8689917244738954"><ele>41.6</ele><time>2026-04-10T08:48:03.927Z</time></trkpt><trkpt lat="42.68421434931694" lon="2.8689332143718165"><ele>41.4</ele><time>2026-04-10T08:48:04.927Z</time></trkpt><trkpt lat="42.68430183274038" lon="2.868860338940123"><ele>41.199999999999996</ele><time>2026-04-10T08:48:05.927Z</time></trkpt><trkpt lat="42.68438673162821" lon="2.868787407879575"><ele>41.0</ele><time>2026-04-10T08:48:06.927Z</time></trkpt><trkpt lat="42.684477387434775" lon="2.868712400560707"><ele>41.0</ele><time>2026-04-10T08:48:07.927Z</time></trkpt><trkpt lat="42.68456316598712" lon="2.868644501538907"><ele>41.0</ele><time>2026-04-10T08:48:08.921Z</time></trkpt><trkpt lat="42.68465120654357" lon="2.8685698009075633"><ele>41.0</ele><time>2026-04-10T08:48:09.921Z</time></trkpt><trkpt lat="42.68472990827118" lon="2.8684783564237506"><ele>41.0</ele><time>2026-04-10T08:48:10.922Z</time></trkpt><trkpt lat="42.6847904014302" lon="2.8683607492512757"><ele>41.0</ele><time>2026-04-10T08:48:11.921Z</time></trkpt><trkpt lat="42.684842469612356" lon="2.868236073852682"><ele>40.8</ele><time>2026-04-10T08:48:12.921Z</time></trkpt><trkpt lat="42.684901361483334" lon="2.8681151439149954"><ele>40.599999999999994</ele><time>2026-04-10T08:48:13.921Z</time></trkpt><trkpt lat="42.684966514914024" lon="2.867998383476777"><ele>40.4</ele><time>2026-04-10T08:48:14.922Z</time></trkpt><trkpt lat="42.68504204635471" lon="2.867891560644518"><ele>40.2</ele><time>2026-04-10T08:48:15.921Z</time></trkpt><trkpt lat="42.68512141005975" lon="2.867798218049749"><ele>40.0</ele><time>2026-04-10T08:48:16.921Z</time></trkpt><trkpt lat="42.68519615192832" lon="2.8677029947156165"><ele>40.0</ele><time>2026-04-10T08:48:17.922Z</time></trkpt><trkpt lat="42.68524944777778" lon="2.867628039199957"><ele>40.0</ele><time>2026-04-10T08:48:18.922Z</time></trkpt><trkpt lat="42.685321597485064" lon="2.8675338497384915"><ele>40.0</ele><time>2026-04-10T08:48:20.921Z</time></trkpt><trkpt lat="42.68536151946584" lon="2.8674643564875515"><ele>40.0</ele><time>2026-04-10T08:48:22.921Z</time></trkpt><trkpt lat="42.68543300918783" lon="2.867394405858563"><ele>40.0</ele><time>2026-04-10T08:48:24.921Z</time></trkpt><trkpt lat="42.685382568885615" lon="2.867216809371694"><ele>39.8</ele><time>2026-04-10T08:48:25.921Z</time></trkpt><trkpt lat="42.68532076231477" lon="2.867112205479034"><ele>39.6</ele><time>2026-04-10T08:48:26.921Z</time></trkpt><trkpt lat="42.68524884154897" lon="2.867022261601698"><ele>39.4</ele><time>2026-04-10T08:48:27.921Z</time></trkpt><trkpt lat="42.685179831216374" lon="2.8669200339320944"><ele>39.2</ele><time>2026-04-10T08:48:28.921Z</time></trkpt><trkpt lat="42.685108595756645" lon="2.866806832878473"><ele>39.0</ele><time>2026-04-10T08:48:29.921Z</time></trkpt><trkpt lat="42.68503197953819" lon="2.866682204871495"><ele>39.5</ele><time>2026-04-10T08:48:30.921Z</time></trkpt><trkpt lat="42.68495727244053" lon="2.8665633214731407"><ele>40.0</ele><time>2026-04-10T08:48:31.921Z</time></trkpt><trkpt lat="42.68488376427944" lon="2.866442022753053"><ele>40.5</ele><time>2026-04-10T08:48:32.921Z</time></trkpt><trkpt lat="42.68480854867461" lon="2.866309759098093"><ele>41.0</ele><time>2026-04-10T08:48:33.921Z</time></trkpt><trkpt lat="42.684737960932026" lon="2.8661783626063837"><ele>41.0</ele><time>2026-04-10T08:48:34.921Z</time></trkpt><trkpt lat="42.68466605390112" lon="2.866041394097752"><ele>41.0</ele><time>2026-04-10T08:48:35.921Z</time></trkpt><trkpt lat="42.68461149151436" lon="2.8658966267636403"><ele>41.0</ele><time>2026-04-10T08:48:36.921Z</time></trkpt><trkpt lat="42.68454697318143" lon="2.8657620188922093"><ele>41.0</ele><time>2026-04-10T08:48:37.921Z</time></trkpt><trkpt lat="42.68448126277417" lon="2.865623386628262"><ele>41.0</ele><time>2026-04-10T08:48:38.921Z</time></trkpt><trkpt lat="42.68442460248773" lon="2.86548732961221"><ele>41.0</ele><time>2026-04-10T08:48:39.921Z</time></trkpt><trkpt lat="42.68436653912211" lon="2.8653537725356406"><ele>41.0</ele><time>2026-04-10T08:48:40.921Z</time></trkpt><trkpt lat="42.68431006384734" lon="2.865223867603422"><ele>41.0</ele><time>2026-04-10T08:48:41.921Z</time></trkpt><trkpt lat="42.68425381263855" lon="2.8650912803749784"><ele>40.599999999999994</ele><time>2026-04-10T08:48:42.921Z</time></trkpt><trkpt lat="42.684200991112405" lon="2.8649682164826937"><ele>40.199999999999996</ele><time>2026-04-10T08:48:43.921Z</time></trkpt><trkpt lat="42.68415152691012" lon="2.8648529742276163"><ele>39.8</ele><time>2026-04-10T08:48:44.921Z</time></trkpt><trkpt lat="42.68409492774905" lon="2.8647449336286135"><ele>39.4</ele><time>2026-04-10T08:48:45.921Z</time></trkpt><trkpt lat="42.68403875238916" lon="2.8646375581958847"><ele>39.0</ele><time>2026-04-10T08:48:46.921Z</time></trkpt><trkpt lat="42.68398057516611" lon="2.864531479539146"><ele>39.0</ele><time>2026-04-10T08:48:47.921Z</time></trkpt><trkpt lat="42.68392061370562" lon="2.8644302325444477"><ele>39.0</ele><time>2026-04-10T08:48:48.921Z</time></trkpt><trkpt lat="42.68386448543959" lon="2.86433848643984"><ele>39.0</ele><time>2026-04-10T08:48:49.921Z</time></trkpt><trkpt lat="42.68380684772892" lon="2.8642458001633426"><ele>39.0</ele><time>2026-04-10T08:48:50.921Z</time></trkpt><trkpt lat="42.683755471641064" lon="2.8641551218433903"><ele>39.0</ele><time>2026-04-10T08:48:51.921Z</time></trkpt><trkpt lat="42.68371407536165" lon="2.8640789092569237"><ele>39.0</ele><time>2026-04-10T08:48:52.921Z</time></trkpt><trkpt lat="42.6836665743281" lon="2.863974446054892"><ele>39.0</ele><time>2026-04-10T08:48:54.921Z</time></trkpt><trkpt lat="42.68362758699406" lon="2.863903184950698"><ele>39.0</ele><time>2026-04-10T08:48:56.921Z</time></trkpt><trkpt lat="42.68360309689152" lon="2.863808774043211"><ele>39.0</ele><time>2026-04-10T08:49:02.921Z</time></trkpt><trkpt lat="42.68360756425128" lon="2.863707177654612"><ele>39.0</ele><time>2026-04-10T08:49:11.921Z</time></trkpt><trkpt lat="42.68365068902204" lon="2.8635347121784642"><ele>39.0</ele><time>2026-04-10T08:49:13.921Z</time></trkpt><trkpt lat="42.68369668671689" lon="2.86344011825463"><ele>39.0</ele><time>2026-04-10T08:49:14.921Z</time></trkpt><trkpt lat="42.68374398741538" lon="2.8633299843019273"><ele>39.2</ele><time>2026-04-10T08:49:15.921Z</time></trkpt><trkpt lat="42.683771572992825" lon="2.8632057778187994"><ele>39.4</ele><time>2026-04-10T08:49:16.921Z</time></trkpt><trkpt lat="42.68377643172882" lon="2.8630727898547472"><ele>39.6</ele><time>2026-04-10T08:49:17.921Z</time></trkpt><trkpt lat="42.683759144294534" lon="2.8629393489560258"><ele>39.8</ele><time>2026-04-10T08:49:18.921Z</time></trkpt><trkpt lat="42.68371242758396" lon="2.8628114579318322"><ele>40.0</ele><time>2026-04-10T08:49:19.921Z</time></trkpt><trkpt lat="42.683649267188656" lon="2.862700878800994"><ele>40.0</ele><time>2026-04-10T08:49:20.921Z</time></trkpt><trkpt lat="42.6835608432617" lon="2.8626220242825773"><ele>40.0</ele><time>2026-04-10T08:49:21.921Z</time></trkpt><trkpt lat="42.683462751048474" lon="2.86256838084598"><ele>40.0</ele><time>2026-04-10T08:49:22.921Z</time></trkpt><trkpt lat="42.68335791639741" lon="2.862546244581986"><ele>40.0</ele><time>2026-04-10T08:49:23.921Z</time></trkpt><trkpt lat="42.68325365931137" lon="2.862544943379687"><ele>40.0</ele><time>2026-04-10T08:49:24.921Z</time></trkpt><trkpt lat="42.683163466570875" lon="2.862521821672438"><ele>41.0</ele><time>2026-04-10T08:49:25.921Z</time></trkpt><trkpt lat="42.68308105328432" lon="2.8624659210572094"><ele>42.0</ele><time>2026-04-10T08:49:26.921Z</time></trkpt><trkpt lat="42.683017949872074" lon="2.8623675324155076"><ele>43.0</ele><time>2026-04-10T08:49:27.922Z</time></trkpt><trkpt lat="42.682962765640234" lon="2.862244040097447"><ele>44.0</ele><time>2026-04-10T08:49:28.922Z</time></trkpt><trkpt lat="42.68290867424749" lon="2.86211453268592"><ele>45.0</ele><time>2026-04-10T08:49:29.922Z</time></trkpt><trkpt lat="42.68285268477852" lon="2.8619806562955046"><ele>45.0</ele><time>2026-04-10T08:49:30.922Z</time></trkpt><trkpt lat="42.68279122970793" lon="2.8618482169125294"><ele>45.0</ele><time>2026-04-10T08:49:31.922Z</time></trkpt><trkpt lat="42.682738312683085" lon="2.861709663160334"><ele>45.0</ele><time>2026-04-10T08:49:32.922Z</time></trkpt><trkpt lat="42.68267470656953" lon="2.861569932718093"><ele>45.0</ele><time>2026-04-10T08:49:33.922Z</time></trkpt><trkpt lat="42.682612418557326" lon="2.861430330105742"><ele>44.75</ele><time>2026-04-10T08:49:34.922Z</time></trkpt><trkpt lat="42.68254796406833" lon="2.8612912829217354"><ele>44.5</ele><time>2026-04-10T08:49:35.922Z</time></trkpt><trkpt lat="42.68247739299763" lon="2.8611520991466017"><ele>44.25</ele><time>2026-04-10T08:49:36.922Z</time></trkpt><trkpt lat="42.68240065903906" lon="2.8610113401248625"><ele>44.0</ele><time>2026-04-10T08:49:37.922Z</time></trkpt><trkpt lat="42.682320786476346" lon="2.8608797591688844"><ele>43.75</ele><time>2026-04-10T08:49:38.922Z</time></trkpt><trkpt lat="42.682234008998805" lon="2.860752600957594"><ele>43.5</ele><time>2026-04-10T08:49:39.922Z</time></trkpt><trkpt lat="42.68214505627892" lon="2.8606237870587896"><ele>43.25</ele><time>2026-04-10T08:49:40.922Z</time></trkpt><trkpt lat="42.68205272283789" lon="2.8604982767384"><ele>43.0</ele><time>2026-04-10T08:49:41.922Z</time></trkpt><trkpt lat="42.68196315307906" lon="2.860367712040469"><ele>43.5</ele><time>2026-04-10T08:49:42.922Z</time></trkpt><trkpt lat="42.68186825902514" lon="2.860230033237511"><ele>44.0</ele><time>2026-04-10T08:49:43.922Z</time></trkpt><trkpt lat="42.681777396250624" lon="2.8600984564408733"><ele>44.5</ele><time>2026-04-10T08:49:44.922Z</time></trkpt><trkpt lat="42.6816794068349" lon="2.859963514184923"><ele>45.0</ele><time>2026-04-10T08:49:45.922Z</time></trkpt><trkpt lat="42.681582548834946" lon="2.8598217105816337"><ele>45.0</ele><time>2026-04-10T08:49:46.922Z</time></trkpt><trkpt lat="42.6814849696151" lon="2.85967765586926"><ele>45.0</ele><time>2026-04-10T08:49:47.922Z</time></trkpt><trkpt lat="42.68138312111112" lon="2.8595367195576937"><ele>45.0</ele><time>2026-04-10T08:49:48.922Z</time></trkpt><trkpt lat="42.681280090530436" lon="2.8593927625823645"><ele>45.0</ele><time>2026-04-10T08:49:49.922Z</time></trkpt><trkpt lat="42.681177040428395" lon="2.8592441239923185"><ele>45.333333333333336</ele><time>2026-04-10T08:49:50.922Z</time></trkpt><trkpt lat="42.68107792021857" lon="2.859092425730227"><ele>45.66666666666667</ele><time>2026-04-10T08:49:51.922Z</time></trkpt><trkpt lat="42.680976043256486" lon="2.8589407148589885"><ele>46.0</ele><time>2026-04-10T08:49:52.922Z</time></trkpt><trkpt lat="42.68087280061652" lon="2.8587900307679064"><ele>46.0</ele><time>2026-04-10T08:49:53.922Z</time></trkpt><trkpt lat="42.680774366386295" lon="2.8586372864227747"><ele>46.0</ele><time>2026-04-10T08:49:54.922Z</time></trkpt><trkpt lat="42.68066972773014" lon="2.858481606263165"><ele>46.0</ele><time>2026-04-10T08:49:55.922Z</time></trkpt><trkpt lat="42.68057710690053" lon="2.8583142906683223"><ele>45.66666666666667</ele><time>2026-04-10T08:49:56.922Z</time></trkpt><trkpt lat="42.68049536640463" lon="2.8581356380214085"><ele>45.333333333333336</ele><time>2026-04-10T08:49:57.922Z</time></trkpt><trkpt lat="42.68042494929234" lon="2.8579463469747264"><ele>45.0</ele><time>2026-04-10T08:49:58.922Z</time></trkpt><trkpt lat="42.680362543274875" lon="2.857755549409892"><ele>45.0</ele><time>2026-04-10T08:49:59.922Z</time></trkpt><trkpt lat="42.68029974108408" lon="2.857563961249912"><ele>45.0</ele><time>2026-04-10T08:50:00.922Z</time></trkpt><trkpt lat="42.68024008728712" lon="2.8573676349587567"><ele>45.0</ele><time>2026-04-10T08:50:01.922Z</time></trkpt><trkpt lat="42.680184216291934" lon="2.857168993511311"><ele>45.0</ele><time>2026-04-10T08:50:02.922Z</time></trkpt><trkpt lat="42.68012647813488" lon="2.8569736993032686"><ele>45.0</ele><time>2026-04-10T08:50:03.922Z</time></trkpt><trkpt lat="42.68007013397601" lon="2.856777790724449"><ele>45.0</ele><time>2026-04-10T08:50:04.922Z</time></trkpt><trkpt lat="42.6800120995169" lon="2.856584262644564"><ele>45.0</ele><time>2026-04-10T08:50:05.922Z</time></trkpt><trkpt lat="42.67995385119649" lon="2.856392036898059"><ele>45.0</ele><time>2026-04-10T08:50:06.922Z</time></trkpt><trkpt lat="42.67989300259667" lon="2.8562016422254204"><ele>45.0</ele><time>2026-04-10T08:50:07.922Z</time></trkpt><trkpt lat="42.679835171851444" lon="2.8560133731591373"><ele>44.75</ele><time>2026-04-10T08:50:08.922Z</time></trkpt><trkpt lat="42.6797791549287" lon="2.8558240492348386"><ele>44.5</ele><time>2026-04-10T08:50:09.922Z</time></trkpt><trkpt lat="42.67972605777158" lon="2.8556382267165485"><ele>44.25</ele><time>2026-04-10T08:50:10.922Z</time></trkpt><trkpt lat="42.67967679082547" lon="2.8554607911452963"><ele>44.0</ele><time>2026-04-10T08:50:11.922Z</time></trkpt><trkpt lat="42.679626937205484" lon="2.855293534941278"><ele>44.0</ele><time>2026-04-10T08:50:12.922Z</time></trkpt><trkpt lat="42.67958102927896" lon="2.8551391658235796"><ele>44.0</ele><time>2026-04-10T08:50:13.922Z</time></trkpt><trkpt lat="42.67954077406167" lon="2.8549927764639507"><ele>44.0</ele><time>2026-04-10T08:50:14.917Z</time></trkpt><trkpt lat="42.67950059896461" lon="2.854855523734286"><ele>44.0</ele><time>2026-04-10T08:50:15.917Z</time></trkpt><trkpt lat="42.67945670356372" lon="2.854721579425475"><ele>44.400000000000006</ele><time>2026-04-10T08:50:16.917Z</time></trkpt><trkpt lat="42.67941427099976" lon="2.8545832077388753"><ele>44.8</ele><time>2026-04-10T08:50:17.917Z</time></trkpt><trkpt lat="42.6793698273405" lon="2.854445423589856"><ele>45.2</ele><time>2026-04-10T08:50:18.917Z</time></trkpt><trkpt lat="42.67932541591032" lon="2.8543063286513206"><ele>45.599999999999994</ele><time>2026-04-10T08:50:19.917Z</time></trkpt><trkpt lat="42.67928418859587" lon="2.854166068099311"><ele>46.0</ele><time>2026-04-10T08:50:20.917Z</time></trkpt><trkpt lat="42.67924330194951" lon="2.85402414676464"><ele>46.5</ele><time>2026-04-10T08:50:21.917Z</time></trkpt><trkpt lat="42.67920102897318" lon="2.85388083837561"><ele>47.0</ele><time>2026-04-10T08:50:22.917Z</time></trkpt><trkpt lat="42.679157776457465" lon="2.853733338879633"><ele>47.5</ele><time>2026-04-10T08:50:23.917Z</time></trkpt><trkpt lat="42.67911379822519" lon="2.8535870920383695"><ele>48.0</ele><time>2026-04-10T08:50:24.916Z</time></trkpt><trkpt lat="42.67906507387425" lon="2.8534451470506497"><ele>48.25</ele><time>2026-04-10T08:50:25.916Z</time></trkpt><trkpt lat="42.67902021437374" lon="2.8532968686801436"><ele>48.5</ele><time>2026-04-10T08:50:26.917Z</time></trkpt><trkpt lat="42.67897188927082" lon="2.853145208636897"><ele>48.75</ele><time>2026-04-10T08:50:27.917Z</time></trkpt><trkpt lat="42.67892541336048" lon="2.8529926485497494"><ele>49.0</ele><time>2026-04-10T08:50:28.917Z</time></trkpt><trkpt lat="42.67888029545974" lon="2.8528377941448233"><ele>49.0</ele><time>2026-04-10T08:50:29.917Z</time></trkpt><trkpt lat="42.678835636051176" lon="2.852681903687637"><ele>49.0</ele><time>2026-04-10T08:50:30.917Z</time></trkpt><trkpt lat="42.67878802077361" lon="2.8525293440845605"><ele>49.0</ele><time>2026-04-10T08:50:31.917Z</time></trkpt><trkpt lat="42.67873996675158" lon="2.852378932888616"><ele>49.0</ele><time>2026-04-10T08:50:32.917Z</time></trkpt><trkpt lat="42.678694182106774" lon="2.8522324547798017"><ele>49.0</ele><time>2026-04-10T08:50:33.917Z</time></trkpt><trkpt lat="42.67865520051812" lon="2.8520937674551456"><ele>49.0</ele><time>2026-04-10T08:50:34.917Z</time></trkpt><trkpt lat="42.678614966493335" lon="2.8519713134852815"><ele>49.0</ele><time>2026-04-10T08:50:35.917Z</time></trkpt><trkpt lat="42.67858006569348" lon="2.851855990665214"><ele>49.0</ele><time>2026-04-10T08:50:36.917Z</time></trkpt><trkpt lat="42.6785467716917" lon="2.85174400184314"><ele>49.0</ele><time>2026-04-10T08:50:37.917Z</time></trkpt><trkpt lat="42.6785171039621" lon="2.851638868621674"><ele>48.83333333333333</ele><time>2026-04-10T08:50:38.917Z</time></trkpt><trkpt lat="42.6784920466146" lon="2.851556633952027"><ele>48.666666666666664</ele><time>2026-04-10T08:50:39.917Z</time></trkpt><trkpt lat="42.67844326471663" lon="2.851410812405204"><ele>48.5</ele><time>2026-04-10T08:50:41.917Z</time></trkpt><trkpt lat="42.678409895891896" lon="2.8513077184845037"><ele>48.33333333333333</ele><time>2026-04-10T08:50:43.917Z</time></trkpt><trkpt lat="42.67839363204699" lon="2.8511562872822283"><ele>48.166666666666664</ele><time>2026-04-10T08:50:45.917Z</time></trkpt><trkpt lat="42.67840826315768" lon="2.851066142407964"><ele>48.0</ele><time>2026-04-10T08:50:46.917Z</time></trkpt><trkpt lat="42.6784155887181" lon="2.850962251842819"><ele>47.833333333333336</ele><time>2026-04-10T08:50:47.917Z</time></trkpt><trkpt lat="42.67839922069638" lon="2.8508563826352398"><ele>47.666666666666664</ele><time>2026-04-10T08:50:48.917Z</time></trkpt><trkpt lat="42.67835707712125" lon="2.8507564755425228"><ele>47.5</ele><time>2026-04-10T08:50:49.917Z</time></trkpt><trkpt lat="42.6782973366953" lon="2.850676729270258"><ele>47.33333333333333</ele><time>2026-04-10T08:50:50.917Z</time></trkpt><trkpt lat="42.67822737641245" lon="2.850607661866335"><ele>47.166666666666664</ele><time>2026-04-10T08:50:51.917Z</time></trkpt><trkpt lat="42.678157675850926" lon="2.85054192000819"><ele>47.0</ele><time>2026-04-10T08:50:52.917Z</time></trkpt><trkpt lat="42.678090841262915" lon="2.8504688472332056"><ele>47.0</ele><time>2026-04-10T08:50:53.917Z</time></trkpt><trkpt lat="42.67803727733878" lon="2.850368400738718"><ele>47.0</ele><time>2026-04-10T08:50:54.917Z</time></trkpt><trkpt lat="42.677990954162766" lon="2.850254906372804"><ele>47.0</ele><time>2026-04-10T08:50:55.917Z</time></trkpt><trkpt lat="42.67790490187392" lon="2.8500044843579673"><ele>47.0</ele><time>2026-04-10T08:50:57.917Z</time></trkpt><trkpt lat="42.67786102313067" lon="2.8498720798978736"><ele>47.2</ele><time>2026-04-10T08:50:58.917Z</time></trkpt><trkpt lat="42.677816342705206" lon="2.849737064936171"><ele>47.400000000000006</ele><time>2026-04-10T08:50:59.917Z</time></trkpt><trkpt lat="42.677769488798475" lon="2.8496016978068455"><ele>47.599999999999994</ele><time>2026-04-10T08:51:00.917Z</time></trkpt><trkpt lat="42.6777240536028" lon="2.8494640657309422"><ele>47.8</ele><time>2026-04-10T08:51:01.917Z</time></trkpt><trkpt lat="42.67767501543141" lon="2.8493273968220505"><ele>48.0</ele><time>2026-04-10T08:51:02.917Z</time></trkpt><trkpt lat="42.677626184610034" lon="2.8491872558631752"><ele>48.25</ele><time>2026-04-10T08:51:03.917Z</time></trkpt><trkpt lat="42.677574903450946" lon="2.8490473030027483"><ele>48.5</ele><time>2026-04-10T08:51:04.917Z</time></trkpt><trkpt lat="42.677523641493046" lon="2.8489075215042745"><ele>48.75</ele><time>2026-04-10T08:51:05.917Z</time></trkpt><trkpt lat="42.677471673001726" lon="2.8487670294612353"><ele>49.0</ele><time>2026-04-10T08:51:06.917Z</time></trkpt><trkpt lat="42.67741994801827" lon="2.8486281154047557"><ele>49.0</ele><time>2026-04-10T08:51:07.917Z</time></trkpt><trkpt lat="42.67736803462544" lon="2.848490349559574"><ele>49.0</ele><time>2026-04-10T08:51:08.917Z</time></trkpt><trkpt lat="42.67731684855597" lon="2.8483573350555282"><ele>49.0</ele><time>2026-04-10T08:51:09.917Z</time></trkpt><trkpt lat="42.67726575561891" lon="2.8482294847839977"><ele>49.0</ele><time>2026-04-10T08:51:10.917Z</time></trkpt><trkpt lat="42.67721383309289" lon="2.848113776641684"><ele>49.0</ele><time>2026-04-10T08:51:11.917Z</time></trkpt><trkpt lat="42.677170794057595" lon="2.84800380876667"><ele>49.2</ele><time>2026-04-10T08:51:12.917Z</time></trkpt><trkpt lat="42.67713460355353" lon="2.8479102350630643"><ele>49.400000000000006</ele><time>2026-04-10T08:51:13.917Z</time></trkpt><trkpt lat="42.677117810189515" lon="2.8478263416472345"><ele>49.6</ele><time>2026-04-10T08:51:14.917Z</time></trkpt><trkpt lat="42.67708098369245" lon="2.847704239840692"><ele>49.8</ele><time>2026-04-10T08:51:16.917Z</time></trkpt><trkpt lat="42.67692369059623" lon="2.84777296821594"><ele>50.0</ele><time>2026-04-10T08:51:17.917Z</time></trkpt><trkpt lat="42.67685152511042" lon="2.8478128081545107"><ele>50.00000000000001</ele><time>2026-04-10T08:51:18.917Z</time></trkpt><trkpt lat="42.676777096533996" lon="2.847849785188063"><ele>50.0</ele><time>2026-04-10T08:51:19.917Z</time></trkpt><trkpt lat="42.676702409982965" lon="2.8478781424290442"><ele>50.0</ele><time>2026-04-10T08:51:20.917Z</time></trkpt><trkpt lat="42.67662182368893" lon="2.847905626730005"><ele>50.0</ele><time>2026-04-10T08:51:21.917Z</time></trkpt><trkpt lat="42.676545620256356" lon="2.8479430211543573"><ele>50.00000000000001</ele><time>2026-04-10T08:51:22.917Z</time></trkpt><trkpt lat="42.676462951259865" lon="2.8479757024084815"><ele>50.0</ele><time>2026-04-10T08:51:23.917Z</time></trkpt><trkpt lat="42.67637219560948" lon="2.8480098808753556"><ele>50.00000000000001</ele><time>2026-04-10T08:51:24.917Z</time></trkpt><trkpt lat="42.67630055547451" lon="2.848048653569225"><ele>50.0</ele><time>2026-04-10T08:51:25.917Z</time></trkpt><trkpt lat="42.676239390010586" lon="2.8480710361517656"><ele>50.0</ele><time>2026-04-10T08:51:26.917Z</time></trkpt><trkpt lat="42.676146327586025" lon="2.8481023407594175"><ele>50.0</ele><time>2026-04-10T08:51:28.917Z</time></trkpt><trkpt lat="42.67605744373214" lon="2.8481356946283283"><ele>50.00000000000001</ele><time>2026-04-10T08:51:30.917Z</time></trkpt><trkpt lat="42.67594432294313" lon="2.8481770931910457"><ele>50.0</ele><time>2026-04-10T08:51:32.917Z</time></trkpt><trkpt lat="42.67583291501897" lon="2.848239530301535"><ele>49.8</ele><time>2026-04-10T08:51:34.917Z</time></trkpt><trkpt lat="42.67573763677273" lon="2.848252278240075"><ele>49.6</ele><time>2026-04-10T08:51:36.917Z</time></trkpt><trkpt lat="42.67569527300671" lon="2.8480477417946726"><ele>49.400000000000006</ele><time>2026-04-10T08:51:38.917Z</time></trkpt><trkpt lat="42.67566965561497" lon="2.8478970935799253"><ele>49.2</ele><time>2026-04-10T08:51:40.917Z</time></trkpt><trkpt lat="42.675653312343684" lon="2.847800750221214"><ele>49.0</ele><time>2026-04-10T08:51:42.917Z</time></trkpt><trkpt lat="42.675613093364106" lon="2.8477104315507193"><ele>49.6</ele><time>2026-04-10T08:51:47.918Z</time></trkpt><trkpt lat="42.67559403986262" lon="2.8475892868948414"><ele>50.2</ele><time>2026-04-10T08:51:49.918Z</time></trkpt><trkpt lat="42.67555661197754" lon="2.8474298395716975"><ele>50.800000000000004</ele><time>2026-04-10T08:51:51.918Z</time></trkpt><trkpt lat="42.67550542627751" lon="2.8472710762256277"><ele>51.400000000000006</ele><time>2026-04-10T08:51:53.918Z</time></trkpt><trkpt lat="42.6754848993544" lon="2.847182969014378"><ele>52.0</ele><time>2026-04-10T08:51:54.918Z</time></trkpt><trkpt lat="42.67546400960941" lon="2.847088876007117"><ele>52.0</ele><time>2026-04-10T08:51:55.918Z</time></trkpt><trkpt lat="42.675436451533216" lon="2.846996886987658"><ele>52.0</ele><time>2026-04-10T08:51:56.918Z</time></trkpt><trkpt lat="42.67542073515335" lon="2.8469000770847335"><ele>52.0</ele><time>2026-04-10T08:51:57.918Z</time></trkpt><trkpt lat="42.6753984291022" lon="2.84680570246705"><ele>52.0</ele><time>2026-04-10T08:51:58.918Z</time></trkpt><trkpt lat="42.67538938787239" lon="2.846713354205044"><ele>52.0</ele><time>2026-04-10T08:51:59.918Z</time></trkpt><trkpt lat="42.67536735886935" lon="2.8466329389994107"><ele>52.0</ele><time>2026-04-10T08:52:00.918Z</time></trkpt><trkpt lat="42.67535798426554" lon="2.846543540948044"><ele>52.0</ele><time>2026-04-10T08:52:01.918Z</time></trkpt><trkpt lat="42.67534698698258" lon="2.8464574786417054"><ele>51.857142857142854</ele><time>2026-04-10T08:52:02.918Z</time></trkpt><trkpt lat="42.67533514401764" lon="2.846367677304831"><ele>51.714285714285715</ele><time>2026-04-10T08:52:03.918Z</time></trkpt><trkpt lat="42.67531759837259" lon="2.846281264249551"><ele>51.57142857142857</ele><time>2026-04-10T08:52:04.918Z</time></trkpt><trkpt lat="42.675283874475845" lon="2.8462006471668486"><ele>51.42857142857143</ele><time>2026-04-10T08:52:05.918Z</time></trkpt><trkpt lat="42.675277568738494" lon="2.846112744087349"><ele>51.28571428571429</ele><time>2026-04-10T08:52:06.918Z</time></trkpt><trkpt lat="42.675240476511554" lon="2.8459811763351444"><ele>51.142857142857146</ele><time>2026-04-10T08:52:08.918Z</time></trkpt><trkpt lat="42.67518667391932" lon="2.8459241365302432"><ele>51.0</ele><time>2026-04-10T08:52:10.918Z</time></trkpt><trkpt lat="42.67507421728129" lon="2.8459866191358936"><ele>51.0</ele><time>2026-04-10T08:52:11.918Z</time></trkpt><trkpt lat="42.67494746402149" lon="2.8460446123346115"><ele>51.0</ele><time>2026-04-10T08:52:13.918Z</time></trkpt><trkpt lat="42.67487598782683" lon="2.84607573724284"><ele>51.0</ele><time>2026-04-10T08:52:14.918Z</time></trkpt><trkpt lat="42.67479971458809" lon="2.8460915085043403"><ele>51.0</ele><time>2026-04-10T08:52:15.918Z</time></trkpt><trkpt lat="42.674724495002" lon="2.8460864127767156"><ele>51.0</ele><time>2026-04-10T08:52:16.918Z</time></trkpt><trkpt lat="42.67464941516687" lon="2.8460695215688148"><ele>51.0</ele><time>2026-04-10T08:52:17.918Z</time></trkpt><trkpt lat="42.67458202146164" lon="2.8460347533192167"><ele>51.0</ele><time>2026-04-10T08:52:18.918Z</time></trkpt><trkpt lat="42.67448845456789" lon="2.8459618856105013"><ele>51.0</ele><time>2026-04-10T08:52:20.914Z</time></trkpt><trkpt lat="42.674343693587964" lon="2.84613668122378"><ele>51.0</ele><time>2026-04-10T08:52:22.913Z</time></trkpt><trkpt lat="42.674288460509636" lon="2.8462128673007623"><ele>51.0</ele><time>2026-04-10T08:52:23.914Z</time></trkpt><trkpt lat="42.67421303892143" lon="2.8462630050380784"><ele>51.199999999999996</ele><time>2026-04-10T08:52:24.914Z</time></trkpt><trkpt lat="42.67412761624264" lon="2.8462950272500516"><ele>51.4</ele><time>2026-04-10T08:52:25.914Z</time></trkpt><trkpt lat="42.67404177404106" lon="2.8463333818190297"><ele>51.6</ele><time>2026-04-10T08:52:26.913Z</time></trkpt><trkpt lat="42.673965008148805" lon="2.846371491795802"><ele>51.8</ele><time>2026-04-10T08:52:27.914Z</time></trkpt><trkpt lat="42.673894059211904" lon="2.846395962168257"><ele>52.0</ele><time>2026-04-10T08:52:28.914Z</time></trkpt><trkpt lat="42.67377859196459" lon="2.8464248286512417"><ele>51.99999999999999</ele><time>2026-04-10T08:52:30.913Z</time></trkpt><trkpt lat="42.67371253611046" lon="2.846415874776961"><ele>52.0</ele><time>2026-04-10T08:52:31.913Z</time></trkpt><trkpt lat="42.67364095469258" lon="2.8464285183981444"><ele>52.0</ele><time>2026-04-10T08:52:32.913Z</time></trkpt><trkpt lat="42.67357181641598" lon="2.8464402543398357"><ele>52.0</ele><time>2026-04-10T08:52:33.914Z</time></trkpt><trkpt lat="42.6735083239049" lon="2.8464531868573335"><ele>51.99999999999999</ele><time>2026-04-10T08:52:34.914Z</time></trkpt><trkpt lat="42.67339166724501" lon="2.84647084420745"><ele>52.0</ele><time>2026-04-10T08:52:36.914Z</time></trkpt><trkpt lat="42.673295050366534" lon="2.846490661144358"><ele>51.99999999999999</ele><time>2026-04-10T08:52:38.914Z</time></trkpt><trkpt lat="42.673197161653206" lon="2.846527067373718"><ele>52.0</ele><time>2026-04-10T08:52:40.914Z</time></trkpt><trkpt lat="42.67312980409397" lon="2.846519301334585"><ele>52.0</ele><time>2026-04-10T08:52:41.914Z</time></trkpt><trkpt lat="42.67306860013372" lon="2.846578570426087"><ele>52.0</ele><time>2026-04-10T08:52:42.914Z</time></trkpt><trkpt lat="42.6729920699416" lon="2.84661488285324"><ele>51.99999999999999</ele><time>2026-04-10T08:52:43.914Z</time></trkpt><trkpt lat="42.672926930067106" lon="2.8466767599805567"><ele>52.0</ele><time>2026-04-10T08:52:44.914Z</time></trkpt><trkpt lat="42.672861904278804" lon="2.846764342394557"><ele>52.0</ele><time>2026-04-10T08:52:45.914Z</time></trkpt><trkpt lat="42.67278894669477" lon="2.846837513437883"><ele>52.0</ele><time>2026-04-10T08:52:46.914Z</time></trkpt><trkpt lat="42.67270803928031" lon="2.846909647458808"><ele>52.0</ele><time>2026-04-10T08:52:47.914Z</time></trkpt><trkpt lat="42.672625157739546" lon="2.84698990815538"><ele>52.0</ele><time>2026-04-10T08:52:48.914Z</time></trkpt><trkpt lat="42.67254355179453" lon="2.8470834035646373"><ele>52.0</ele><time>2026-04-10T08:52:49.914Z</time></trkpt><trkpt lat="42.67245993316047" lon="2.847176697290848"><ele>52.0</ele><time>2026-04-10T08:52:50.914Z</time></trkpt><trkpt lat="42.67237140000267" lon="2.8472675379206063"><ele>52.0</ele><time>2026-04-10T08:52:51.914Z</time></trkpt><trkpt lat="42.67228224514401" lon="2.8473588267995606"><ele>52.0</ele><time>2026-04-10T08:52:52.914Z</time></trkpt><trkpt lat="42.67218860985375" lon="2.8474487017846863"><ele>52.0</ele><time>2026-04-10T08:52:53.914Z</time></trkpt><trkpt lat="42.67209057315521" lon="2.847515589773624"><ele>52.0</ele><time>2026-04-10T08:52:54.914Z</time></trkpt><trkpt lat="42.6720084206702" lon="2.847606610786238"><ele>51.99999999999999</ele><time>2026-04-10T08:52:55.914Z</time></trkpt><trkpt lat="42.67194081704096" lon="2.847670506517268"><ele>52.0</ele><time>2026-04-10T08:52:56.914Z</time></trkpt><trkpt lat="42.671837318958836" lon="2.8477195804633397"><ele>52.0</ele><time>2026-04-10T08:52:58.914Z</time></trkpt><trkpt lat="42.6717893134679" lon="2.847660172123995"><ele>52.0</ele><time>2026-04-10T08:52:59.914Z</time></trkpt><trkpt lat="42.67174264791202" lon="2.8475627991109134"><ele>51.99999999999999</ele><time>2026-04-10T08:53:00.914Z</time></trkpt><trkpt lat="42.67168026991922" lon="2.847473710581073"><ele>52.0</ele><time>2026-04-10T08:53:01.914Z</time></trkpt><trkpt lat="42.6716352268266" lon="2.8473651817441263"><ele>52.33333333333333</ele><time>2026-04-10T08:53:02.914Z</time></trkpt><trkpt lat="42.671595264182" lon="2.8472513761895755"><ele>52.666666666666664</ele><time>2026-04-10T08:53:03.914Z</time></trkpt><trkpt lat="42.67155037070398" lon="2.8471439563309104"><ele>53.0</ele><time>2026-04-10T08:53:04.914Z</time></trkpt><trkpt lat="42.67151615144894" lon="2.8470549590874055"><ele>53.33333333333333</ele><time>2026-04-10T08:53:05.914Z</time></trkpt><trkpt lat="42.67144962096477" lon="2.846955310187581"><ele>53.666666666666664</ele><time>2026-04-10T08:53:07.914Z</time></trkpt><trkpt lat="42.671429208355704" lon="2.8468707827267368"><ele>54.0</ele><time>2026-04-10T08:53:09.914Z</time></trkpt><trkpt lat="42.67146999008596" lon="2.8469381051903704"><ele>54.0</ele><time>2026-04-10T08:53:13.914Z</time></trkpt><trkpt lat="42.67149735837923" lon="2.84706552425398"><ele>54.0</ele><time>2026-04-10T08:53:15.914Z</time></trkpt><trkpt lat="42.67152895858606" lon="2.8471524882645927"><ele>54.0</ele><time>2026-04-10T08:53:16.914Z</time></trkpt><trkpt lat="42.67156142883021" lon="2.84724157594815"><ele>54.0</ele><time>2026-04-10T08:53:17.914Z</time></trkpt><trkpt lat="42.67160214602096" lon="2.8473374242174097"><ele>54.0</ele><time>2026-04-10T08:53:18.914Z</time></trkpt><trkpt lat="42.67164677425225" lon="2.847435747310802"><ele>54.0</ele><time>2026-04-10T08:53:19.914Z</time></trkpt><trkpt lat="42.671693627709274" lon="2.8475386602412556"><ele>53.800000000000004</ele><time>2026-04-10T08:53:20.914Z</time></trkpt><trkpt lat="42.67173676345889" lon="2.847632896791887"><ele>53.60000000000001</ele><time>2026-04-10T08:53:21.914Z</time></trkpt><trkpt lat="42.671774317818816" lon="2.8477046232462824"><ele>53.4</ele><time>2026-04-10T08:53:22.914Z</time></trkpt><trkpt lat="42.671811107585505" lon="2.847788539434588"><ele>53.2</ele><time>2026-04-10T08:53:25.914Z</time></trkpt><trkpt lat="42.6718662077418" lon="2.847733511498843"><ele>53.0</ele><time>2026-04-10T08:53:28.914Z</time></trkpt><trkpt lat="42.67206677999857" lon="2.847549511212075"><ele>52.833333333333336</ele><time>2026-04-10T08:53:29.914Z</time></trkpt><trkpt lat="42.67213003442188" lon="2.847476679459497"><ele>52.66666666666667</ele><time>2026-04-10T08:53:30.914Z</time></trkpt><trkpt lat="42.67219688716103" lon="2.8474042579045205"><ele>52.5</ele><time>2026-04-10T08:53:31.914Z</time></trkpt><trkpt lat="42.672264269318234" lon="2.847332112454351"><ele>52.33333333333333</ele><time>2026-04-10T08:53:32.914Z</time></trkpt><trkpt lat="42.67233544740439" lon="2.8472621988862366"><ele>52.166666666666664</ele><time>2026-04-10T08:53:33.914Z</time></trkpt><trkpt lat="42.672409765183765" lon="2.8471915253149445"><ele>52.0</ele><time>2026-04-10T08:53:34.914Z</time></trkpt><trkpt lat="42.67248080491995" lon="2.847111787072283"><ele>52.0</ele><time>2026-04-10T08:53:35.914Z</time></trkpt><trkpt lat="42.672555656006395" lon="2.8470332983059836"><ele>52.0</ele><time>2026-04-10T08:53:36.914Z</time></trkpt><trkpt lat="42.67263113110042" lon="2.846957019457706"><ele>52.0</ele><time>2026-04-10T08:53:37.914Z</time></trkpt><trkpt lat="42.6727108424626" lon="2.846883723830473"><ele>52.0</ele><time>2026-04-10T08:53:38.914Z</time></trkpt><trkpt lat="42.672789933319834" lon="2.8468118499022523"><ele>52.0</ele><time>2026-04-10T08:53:39.914Z</time></trkpt><trkpt lat="42.67287019732438" lon="2.846738339534229"><ele>51.99999999999999</ele><time>2026-04-10T08:53:40.914Z</time></trkpt><trkpt lat="42.672948047243196" lon="2.846660407425889"><ele>52.0</ele><time>2026-04-10T08:53:41.914Z</time></trkpt><trkpt lat="42.67301904364777" lon="2.846584280001846"><ele>52.0</ele><time>2026-04-10T08:53:42.914Z</time></trkpt><trkpt lat="42.67309299158011" lon="2.8465338339883854"><ele>52.0</ele><time>2026-04-10T08:53:43.914Z</time></trkpt><trkpt lat="42.673176452425295" lon="2.846520232915772"><ele>51.99999999999999</ele><time>2026-04-10T08:53:44.914Z</time></trkpt><trkpt lat="42.6732719073393" lon="2.846515007111924"><ele>52.0</ele><time>2026-04-10T08:53:45.914Z</time></trkpt><trkpt lat="42.67337035558805" lon="2.8465249735139513"><ele>52.0</ele><time>2026-04-10T08:53:46.914Z</time></trkpt><trkpt lat="42.673468075599175" lon="2.846507101623411"><ele>52.0</ele><time>2026-04-10T08:53:47.915Z</time></trkpt><trkpt lat="42.67356562240723" lon="2.846470924816629"><ele>52.0</ele><time>2026-04-10T08:53:48.915Z</time></trkpt><trkpt lat="42.67366322216693" lon="2.846454511555367"><ele>52.0</ele><time>2026-04-10T08:53:49.915Z</time></trkpt><trkpt lat="42.673757118149176" lon="2.8464315355402365"><ele>52.0</ele><time>2026-04-10T08:53:50.915Z</time></trkpt><trkpt lat="42.673840342408035" lon="2.8464343056591144"><ele>52.0</ele><time>2026-04-10T08:53:51.915Z</time></trkpt><trkpt lat="42.67390949449446" lon="2.846395811520725"><ele>52.0</ele><time>2026-04-10T08:53:52.915Z</time></trkpt><trkpt lat="42.67401138101791" lon="2.846387603779376"><ele>52.0</ele><time>2026-04-10T08:53:54.915Z</time></trkpt><trkpt lat="42.6741027240162" lon="2.8463429531160482"><ele>52.0</ele><time>2026-04-10T08:53:56.915Z</time></trkpt><trkpt lat="42.67422901191799" lon="2.8463067631813064"><ele>52.0</ele><time>2026-04-10T08:53:58.915Z</time></trkpt><trkpt lat="42.67429245222212" lon="2.8462653490597405"><ele>51.99999999999999</ele><time>2026-04-10T08:53:59.915Z</time></trkpt><trkpt lat="42.67433362465243" lon="2.8461971266084776"><ele>52.0</ele><time>2026-04-10T08:54:00.915Z</time></trkpt><trkpt lat="42.674404278561745" lon="2.8461226876815786"><ele>52.0</ele><time>2026-04-10T08:54:02.915Z</time></trkpt><trkpt lat="42.67446017238419" lon="2.846037345883806"><ele>52.0</ele><time>2026-04-10T08:54:04.915Z</time></trkpt><trkpt lat="42.674397705557475" lon="2.8458634982124464"><ele>51.99999999999999</ele><time>2026-04-10T08:54:06.915Z</time></trkpt><trkpt lat="42.67436305566657" lon="2.845788354882872"><ele>52.0</ele><time>2026-04-10T08:54:07.915Z</time></trkpt><trkpt lat="42.674314111861555" lon="2.8457209243564883"><ele>51.57142857142857</ele><time>2026-04-10T08:54:08.915Z</time></trkpt><trkpt lat="42.674266917935086" lon="2.8456555080910877"><ele>51.142857142857146</ele><time>2026-04-10T08:54:09.915Z</time></trkpt><trkpt lat="42.67421843374448" lon="2.8455881531266756"><ele>50.714285714285715</ele><time>2026-04-10T08:54:10.915Z</time></trkpt><trkpt lat="42.67415947065608" lon="2.845531228449937"><ele>50.285714285714285</ele><time>2026-04-10T08:54:11.915Z</time></trkpt><trkpt lat="42.674113070394306" lon="2.8454417806245673"><ele>49.85714285714286</ele><time>2026-04-10T08:54:12.915Z</time></trkpt><trkpt lat="42.67406017696708" lon="2.8453677937279047"><ele>49.42857142857143</ele><time>2026-04-10T08:54:13.915Z</time></trkpt><trkpt lat="42.674005720592476" lon="2.845291630811941"><ele>49.0</ele><time>2026-04-10T08:54:14.915Z</time></trkpt><trkpt lat="42.673947532083005" lon="2.845210248167414"><ele>49.400000000000006</ele><time>2026-04-10T08:54:15.915Z</time></trkpt><trkpt lat="42.673886257529894" lon="2.8451245492625965"><ele>49.8</ele><time>2026-04-10T08:54:16.915Z</time></trkpt><trkpt lat="42.67382531381849" lon="2.845038305248701"><ele>50.2</ele><time>2026-04-10T08:54:17.915Z</time></trkpt><trkpt lat="42.673759220504245" lon="2.8449443960642"><ele>50.599999999999994</ele><time>2026-04-10T08:54:18.915Z</time></trkpt><trkpt lat="42.67368703713985" lon="2.8448669487422995"><ele>51.0</ele><time>2026-04-10T08:54:19.915Z</time></trkpt><trkpt lat="42.67361970001373" lon="2.8447741275626477"><ele>50.599999999999994</ele><time>2026-04-10T08:54:20.915Z</time></trkpt><trkpt lat="42.673546972539896" lon="2.8446851807341873"><ele>50.2</ele><time>2026-04-10T08:54:21.915Z</time></trkpt><trkpt lat="42.67346657396377" lon="2.844604534634967"><ele>49.8</ele><time>2026-04-10T08:54:22.915Z</time></trkpt><trkpt lat="42.673383351067635" lon="2.8445306003170376"><ele>49.400000000000006</ele><time>2026-04-10T08:54:23.915Z</time></trkpt><trkpt lat="42.67329761443981" lon="2.8444644517069446"><ele>49.0</ele><time>2026-04-10T08:54:24.915Z</time></trkpt><trkpt lat="42.673223826431695" lon="2.8444059744452264"><ele>49.0</ele><time>2026-04-10T08:54:25.915Z</time></trkpt><trkpt lat="42.67316309392541" lon="2.844352180310772"><ele>49.0</ele><time>2026-04-10T08:54:26.911Z</time></trkpt><trkpt lat="42.673090757026436" lon="2.844253839477139"><ele>49.0</ele><time>2026-04-10T08:54:28.91Z</time></trkpt><trkpt lat="42.67301477956408" lon="2.844210045391353"><ele>49.0</ele><time>2026-04-10T08:54:30.91Z</time></trkpt><trkpt lat="42.673089761307736" lon="2.844293726737587"><ele>49.0</ele><time>2026-04-10T08:54:34.91Z</time></trkpt><trkpt lat="42.673175341612065" lon="2.8443828850266795"><ele>49.0</ele><time>2026-04-10T08:54:36.91Z</time></trkpt><trkpt lat="42.67329625624704" lon="2.8444585621463814"><ele>49.0</ele><time>2026-04-10T08:54:38.91Z</time></trkpt><trkpt lat="42.67335377304389" lon="2.8445187526222178"><ele>49.0</ele><time>2026-04-10T08:54:39.91Z</time></trkpt><trkpt lat="42.67341413551454" lon="2.8445882450161797"><ele>49.0</ele><time>2026-04-10T08:54:40.91Z</time></trkpt><trkpt lat="42.67348384916638" lon="2.844656752938038"><ele>49.0</ele><time>2026-04-10T08:54:41.91Z</time></trkpt><trkpt lat="42.67355277764795" lon="2.8447292591000966"><ele>49.0</ele><time>2026-04-10T08:54:42.91Z</time></trkpt><trkpt lat="42.6736185444661" lon="2.84481450512129"><ele>49.0</ele><time>2026-04-10T08:54:43.91Z</time></trkpt><trkpt lat="42.67368425514647" lon="2.8449092706284973"><ele>49.0</ele><time>2026-04-10T08:54:44.91Z</time></trkpt><trkpt lat="42.673751383573304" lon="2.845010211905421"><ele>49.0</ele><time>2026-04-10T08:54:45.91Z</time></trkpt><trkpt lat="42.67382291316386" lon="2.845110577540391"><ele>49.0</ele><time>2026-04-10T08:54:46.91Z</time></trkpt><trkpt lat="42.67389689885998" lon="2.8452073108423295"><ele>49.0</ele><time>2026-04-10T08:54:47.91Z</time></trkpt><trkpt lat="42.673970642367614" lon="2.845306297114186"><ele>49.0</ele><time>2026-04-10T08:54:48.91Z</time></trkpt><trkpt lat="42.67404503077032" lon="2.845411522429727"><ele>49.0</ele><time>2026-04-10T08:54:49.91Z</time></trkpt><trkpt lat="42.67412391692096" lon="2.8455190500812937"><ele>49.0</ele><time>2026-04-10T08:54:50.91Z</time></trkpt><trkpt lat="42.67420361540975" lon="2.8456254713064464"><ele>49.0</ele><time>2026-04-10T08:54:51.91Z</time></trkpt><trkpt lat="42.67428306670456" lon="2.8457231169160004"><ele>49.0</ele><time>2026-04-10T08:54:52.91Z</time></trkpt><trkpt lat="42.67435295494499" lon="2.845815635068968"><ele>49.0</ele><time>2026-04-10T08:54:53.91Z</time></trkpt><trkpt lat="42.67441915480544" lon="2.8459093130178554"><ele>49.0</ele><time>2026-04-10T08:54:54.91Z</time></trkpt><trkpt lat="42.674494267993104" lon="2.8459843465034935"><ele>49.0</ele><time>2026-04-10T08:54:55.91Z</time></trkpt><trkpt lat="42.67457804091629" lon="2.846047710164099"><ele>49.0</ele><time>2026-04-10T08:54:56.91Z</time></trkpt><trkpt lat="42.6746653833726" lon="2.8460932990805086"><ele>49.33333333333333</ele><time>2026-04-10T08:54:57.91Z</time></trkpt><trkpt lat="42.67476100562985" lon="2.8461088755340564"><ele>49.666666666666664</ele><time>2026-04-10T08:54:58.91Z</time></trkpt><trkpt lat="42.674855864809366" lon="2.8460986717721575"><ele>50.0</ele><time>2026-04-10T08:54:59.91Z</time></trkpt><trkpt lat="42.6749474933398" lon="2.8460715573317175"><ele>50.33333333333333</ele><time>2026-04-10T08:55:00.91Z</time></trkpt><trkpt lat="42.675024539838134" lon="2.8460347855056933"><ele>50.666666666666664</ele><time>2026-04-10T08:55:01.91Z</time></trkpt><trkpt lat="42.67509910301295" lon="2.8460040330602676"><ele>51.0</ele><time>2026-04-10T08:55:02.91Z</time></trkpt><trkpt lat="42.67518421465132" lon="2.845962580310624"><ele>51.0</ele><time>2026-04-10T08:55:04.91Z</time></trkpt><trkpt lat="42.6752446837142" lon="2.8459316112731945"><ele>51.0</ele><time>2026-04-10T08:55:07.91Z</time></trkpt><trkpt lat="42.675345798203416" lon="2.8458998245640474"><ele>51.0</ele><time>2026-04-10T08:55:09.91Z</time></trkpt><trkpt lat="42.675452746473255" lon="2.845882356194079"><ele>51.0</ele><time>2026-04-10T08:55:11.91Z</time></trkpt><trkpt lat="42.675571635083514" lon="2.8459329311887505"><ele>51.0</ele><time>2026-04-10T08:55:13.91Z</time></trkpt><trkpt lat="42.67563572317669" lon="2.84592591010348"><ele>51.0</ele><time>2026-04-10T08:55:14.91Z</time></trkpt><trkpt lat="42.67570410149395" lon="2.8459104893790403"><ele>51.0</ele><time>2026-04-10T08:55:15.91Z</time></trkpt><trkpt lat="42.67577143505979" lon="2.845900448260747"><ele>51.0</ele><time>2026-04-10T08:55:16.91Z</time></trkpt><trkpt lat="42.67584294236753" lon="2.8460079507094336"><ele>51.0</ele><time>2026-04-10T08:55:17.91Z</time></trkpt><trkpt lat="42.67591112188856" lon="2.8460473498240484"><ele>51.0</ele><time>2026-04-10T08:55:18.91Z</time></trkpt><trkpt lat="42.67596631781748" lon="2.846098074861924"><ele>51.0</ele><time>2026-04-10T08:55:19.91Z</time></trkpt><trkpt lat="42.676085326465824" lon="2.8460605472004334"><ele>51.0</ele><time>2026-04-10T08:55:21.91Z</time></trkpt><trkpt lat="42.67604692382004" lon="2.8459214312713703"><ele>51.0</ele><time>2026-04-10T08:55:22.91Z</time></trkpt><trkpt lat="42.67602203675111" lon="2.845828352824276"><ele>51.0</ele><time>2026-04-10T08:55:23.91Z</time></trkpt><trkpt lat="42.67599870232711" lon="2.8457351297463314"><ele>51.0</ele><time>2026-04-10T08:55:24.911Z</time></trkpt><trkpt lat="42.67598114859097" lon="2.8456294244343483"><ele>51.0</ele><time>2026-04-10T08:55:25.911Z</time></trkpt><trkpt lat="42.675958596497495" lon="2.8455187501516384"><ele>51.0</ele><time>2026-04-10T08:55:26.911Z</time></trkpt><trkpt lat="42.675938361063636" lon="2.8454021244897665"><ele>51.0</ele><time>2026-04-10T08:55:27.911Z</time></trkpt><trkpt lat="42.67591304692176" lon="2.845288752931947"><ele>51.0</ele><time>2026-04-10T08:55:28.911Z</time></trkpt><trkpt lat="42.675891102647384" lon="2.8451762038569064"><ele>51.0</ele><time>2026-04-10T08:55:29.911Z</time></trkpt><trkpt lat="42.67586905128445" lon="2.845059305931141"><ele>51.0</ele><time>2026-04-10T08:55:30.911Z</time></trkpt><trkpt lat="42.67584477345596" lon="2.8449379021284114"><ele>51.0</ele><time>2026-04-10T08:55:31.911Z</time></trkpt><trkpt lat="42.67581946320555" lon="2.8448194390573267"><ele>51.0</ele><time>2026-04-10T08:55:32.911Z</time></trkpt><trkpt lat="42.675795812634796" lon="2.8447023122167603"><ele>51.0</ele><time>2026-04-10T08:55:33.911Z</time></trkpt><trkpt lat="42.67577294008464" lon="2.8445796423283416"><ele>51.0</ele><time>2026-04-10T08:55:34.911Z</time></trkpt><trkpt lat="42.67575125805217" lon="2.844469930888486"><ele>51.0</ele><time>2026-04-10T08:55:35.911Z</time></trkpt><trkpt lat="42.67572459540655" lon="2.844354304197133"><ele>51.0</ele><time>2026-04-10T08:55:37.911Z</time></trkpt><trkpt lat="42.67570195537748" lon="2.8442354879303933"><ele>51.0</ele><time>2026-04-10T08:55:40.911Z</time></trkpt><trkpt lat="42.675658934747254" lon="2.8440662137470425"><ele>51.333333333333336</ele><time>2026-04-10T08:55:42.911Z</time></trkpt><trkpt lat="42.67563908194479" lon="2.843963593779426"><ele>51.66666666666667</ele><time>2026-04-10T08:55:43.911Z</time></trkpt><trkpt lat="42.67561646546093" lon="2.843848885381416"><ele>52.0</ele><time>2026-04-10T08:55:44.911Z</time></trkpt><trkpt lat="42.675590516889336" lon="2.8437331629181255"><ele>52.333333333333336</ele><time>2026-04-10T08:55:45.911Z</time></trkpt><trkpt lat="42.67556285729651" lon="2.8436092694633928"><ele>52.66666666666667</ele><time>2026-04-10T08:55:46.911Z</time></trkpt><trkpt lat="42.675535336151505" lon="2.8434818303983795"><ele>53.0</ele><time>2026-04-10T08:55:47.911Z</time></trkpt><trkpt lat="42.67550589212689" lon="2.8433546930434357"><ele>53.2</ele><time>2026-04-10T08:55:48.911Z</time></trkpt><trkpt lat="42.67548247044725" lon="2.8432440200227305"><ele>53.4</ele><time>2026-04-10T08:55:49.911Z</time></trkpt><trkpt lat="42.675466371686895" lon="2.843154427849071"><ele>53.60000000000001</ele><time>2026-04-10T08:55:50.911Z</time></trkpt><trkpt lat="42.675450106451486" lon="2.8430156156872934"><ele>53.800000000000004</ele><time>2026-04-10T08:55:53.911Z</time></trkpt><trkpt lat="42.675418838065" lon="2.842861404405893"><ele>54.0</ele><time>2026-04-10T08:55:55.911Z</time></trkpt><trkpt lat="42.67539630385633" lon="2.8427564323974375"><ele>54.0</ele><time>2026-04-10T08:55:56.911Z</time></trkpt><trkpt lat="42.67536777342529" lon="2.8426457964893546"><ele>54.00000000000001</ele><time>2026-04-10T08:55:57.911Z</time></trkpt><trkpt lat="42.6753461669163" lon="2.8425255550955484"><ele>54.00000000000001</ele><time>2026-04-10T08:55:58.911Z</time></trkpt><trkpt lat="42.67533196957907" lon="2.842400027838675"><ele>54.0</ele><time>2026-04-10T08:55:59.911Z</time></trkpt><trkpt lat="42.67530198715864" lon="2.8422774439253295"><ele>54.0</ele><time>2026-04-10T08:56:00.911Z</time></trkpt><trkpt lat="42.67528025154445" lon="2.842165399953033"><ele>53.833333333333336</ele><time>2026-04-10T08:56:01.911Z</time></trkpt><trkpt lat="42.67526084272703" lon="2.8420616068776083"><ele>53.66666666666667</ele><time>2026-04-10T08:56:03.911Z</time></trkpt><trkpt lat="42.6752352533791" lon="2.8419307218123797"><ele>53.5</ele><time>2026-04-10T08:56:05.911Z</time></trkpt><trkpt lat="42.675214956329825" lon="2.8418336945571294"><ele>53.333333333333336</ele><time>2026-04-10T08:56:06.911Z</time></trkpt><trkpt lat="42.675189890218" lon="2.8417192639550954"><ele>53.16666666666667</ele><time>2026-04-10T08:56:07.911Z</time></trkpt><trkpt lat="42.67516634224379" lon="2.8415980072346367"><ele>53.0</ele><time>2026-04-10T08:56:08.911Z</time></trkpt><trkpt lat="42.675142052195206" lon="2.8414731671061206"><ele>53.0</ele><time>2026-04-10T08:56:09.911Z</time></trkpt><trkpt lat="42.67510443547062" lon="2.8413469214835025"><ele>53.0</ele><time>2026-04-10T08:56:10.911Z</time></trkpt><trkpt lat="42.67506302627554" lon="2.841226012205427"><ele>53.0</ele><time>2026-04-10T08:56:11.911Z</time></trkpt><trkpt lat="42.67504293837267" lon="2.8411011628484473"><ele>53.0</ele><time>2026-04-10T08:56:12.911Z</time></trkpt><trkpt lat="42.67500355037868" lon="2.840988761205818"><ele>53.0</ele><time>2026-04-10T08:56:13.911Z</time></trkpt><trkpt lat="42.6749839695688" lon="2.840865516541041"><ele>53.00000000000001</ele><time>2026-04-10T08:56:14.911Z</time></trkpt><trkpt lat="42.67495866875989" lon="2.8407439766461526"><ele>53.0</ele><time>2026-04-10T08:56:15.911Z</time></trkpt><trkpt lat="42.67493464979985" lon="2.8406228379116243"><ele>53.0</ele><time>2026-04-10T08:56:16.911Z</time></trkpt><trkpt lat="42.67492045709876" lon="2.840516017982379"><ele>53.0</ele><time>2026-04-10T08:56:17.911Z</time></trkpt><trkpt lat="42.674888790858205" lon="2.840389474296214"><ele>53.00000000000001</ele><time>2026-04-10T08:56:19.911Z</time></trkpt><trkpt lat="42.67488716370728" lon="2.840283283175206"><ele>53.0</ele><time>2026-04-10T08:56:38.907Z</time></trkpt><trkpt lat="42.67500129385868" lon="2.840250699076172"><ele>53.00000000000001</ele><time>2026-04-10T08:56:39.906Z</time></trkpt><trkpt lat="42.67505909423642" lon="2.8402083425529914"><ele>53.0</ele><time>2026-04-10T08:56:40.906Z</time></trkpt><trkpt lat="42.67512458877081" lon="2.8401704711112212"><ele>53.0</ele><time>2026-04-10T08:56:41.907Z</time></trkpt><trkpt lat="42.67520571266199" lon="2.84016586706164"><ele>53.0</ele><time>2026-04-10T08:56:42.906Z</time></trkpt><trkpt lat="42.67528891600235" lon="2.8402292088588563"><ele>53.00000000000001</ele><time>2026-04-10T08:56:43.906Z</time></trkpt><trkpt lat="42.67540937702511" lon="2.840161777062218"><ele>53.0</ele><time>2026-04-10T08:56:45.906Z</time></trkpt><trkpt lat="42.67542527751815" lon="2.840053627623659"><ele>53.4</ele><time>2026-04-10T08:56:46.906Z</time></trkpt><trkpt lat="42.67539453988863" lon="2.839940616037623"><ele>53.8</ele><time>2026-04-10T08:56:47.906Z</time></trkpt><trkpt lat="42.6753649939797" lon="2.8398252313418175"><ele>54.2</ele><time>2026-04-10T08:56:48.906Z</time></trkpt><trkpt lat="42.67533432963406" lon="2.839708562475245"><ele>54.6</ele><time>2026-04-10T08:56:49.906Z</time></trkpt><trkpt lat="42.675324578515806" lon="2.8395738927405825"><ele>55.0</ele><time>2026-04-10T08:56:50.906Z</time></trkpt><trkpt lat="42.67529444488179" lon="2.839440911752416"><ele>54.8</ele><time>2026-04-10T08:56:51.906Z</time></trkpt><trkpt lat="42.675242896054634" lon="2.8393121383351976"><ele>54.6</ele><time>2026-04-10T08:56:52.906Z</time></trkpt><trkpt lat="42.67518133884629" lon="2.8391850723791965"><ele>54.400000000000006</ele><time>2026-04-10T08:56:53.906Z</time></trkpt><trkpt lat="42.675119525083986" lon="2.8390551761925384"><ele>54.2</ele><time>2026-04-10T08:56:54.906Z</time></trkpt><trkpt lat="42.67506232078411" lon="2.8389219245216224"><ele>54.0</ele><time>2026-04-10T08:56:55.906Z</time></trkpt><trkpt lat="42.67499716031362" lon="2.8387887451854286"><ele>54.0</ele><time>2026-04-10T08:56:56.906Z</time></trkpt><trkpt lat="42.67493451141411" lon="2.838653723746211"><ele>54.0</ele><time>2026-04-10T08:56:57.906Z</time></trkpt><trkpt lat="42.674870458094034" lon="2.83851731347335"><ele>54.0</ele><time>2026-04-10T08:56:58.906Z</time></trkpt><trkpt lat="42.674808515650504" lon="2.8383757918870653"><ele>54.0</ele><time>2026-04-10T08:56:59.906Z</time></trkpt><trkpt lat="42.67474651980102" lon="2.8382342543089067"><ele>54.0</ele><time>2026-04-10T08:57:00.906Z</time></trkpt><trkpt lat="42.67468002908672" lon="2.8381013841852853"><ele>54.0</ele><time>2026-04-10T08:57:01.906Z</time></trkpt><trkpt lat="42.67461995731652" lon="2.8379602747823984"><ele>54.0</ele><time>2026-04-10T08:57:02.906Z</time></trkpt><trkpt lat="42.674547426643805" lon="2.837817977318049"><ele>54.0</ele><time>2026-04-10T08:57:03.906Z</time></trkpt><trkpt lat="42.67448560943189" lon="2.837668410366994"><ele>54.0</ele><time>2026-04-10T08:57:04.906Z</time></trkpt><trkpt lat="42.674423209137075" lon="2.837521391987198"><ele>54.0</ele><time>2026-04-10T08:57:05.906Z</time></trkpt><trkpt lat="42.6743582571942" lon="2.8373878624503046"><ele>54.0</ele><time>2026-04-10T08:57:06.906Z</time></trkpt><trkpt lat="42.674291375257056" lon="2.8372513798797954"><ele>54.0</ele><time>2026-04-10T08:57:07.906Z</time></trkpt><trkpt lat="42.674225723836564" lon="2.837110493286276"><ele>54.0</ele><time>2026-04-10T08:57:08.906Z</time></trkpt><trkpt lat="42.67415973345948" lon="2.836976792856728"><ele>54.00000000000001</ele><time>2026-04-10T08:57:09.906Z</time></trkpt><trkpt lat="42.674105258420994" lon="2.8368558824721486"><ele>54.00000000000001</ele><time>2026-04-10T08:57:10.906Z</time></trkpt><trkpt lat="42.67403453091525" lon="2.836748196117588"><ele>54.0</ele><time>2026-04-10T08:57:11.906Z</time></trkpt><trkpt lat="42.673957574536296" lon="2.8366443621995727"><ele>54.0</ele><time>2026-04-10T08:57:12.906Z</time></trkpt><trkpt lat="42.6738794565412" lon="2.8365319980354196"><ele>54.2</ele><time>2026-04-10T08:57:13.906Z</time></trkpt><trkpt lat="42.67380210229771" lon="2.8364232118888353"><ele>54.400000000000006</ele><time>2026-04-10T08:57:14.906Z</time></trkpt><trkpt lat="42.6737330844756" lon="2.83631122275598"><ele>54.6</ele><time>2026-04-10T08:57:15.906Z</time></trkpt><trkpt lat="42.67366020072379" lon="2.836207888331874"><ele>54.8</ele><time>2026-04-10T08:57:16.906Z</time></trkpt><trkpt lat="42.67359450359518" lon="2.8360990473020555"><ele>55.0</ele><time>2026-04-10T08:57:17.906Z</time></trkpt><trkpt lat="42.6735303087966" lon="2.8359958066965194"><ele>55.25</ele><time>2026-04-10T08:57:18.906Z</time></trkpt><trkpt lat="42.67346862451964" lon="2.8359023868558513"><ele>55.5</ele><time>2026-04-10T08:57:19.906Z</time></trkpt><trkpt lat="42.67341932289003" lon="2.8358259235483994"><ele>55.75</ele><time>2026-04-10T08:57:20.906Z</time></trkpt><trkpt lat="42.673355366773436" lon="2.8357154468931083"><ele>56.0</ele><time>2026-04-10T08:57:22.906Z</time></trkpt><trkpt lat="42.67319400017431" lon="2.8358522523874554"><ele>56.00000000000001</ele><time>2026-04-10T08:57:24.906Z</time></trkpt><trkpt lat="42.673128003459716" lon="2.835925012340708"><ele>56.0</ele><time>2026-04-10T08:57:25.906Z</time></trkpt><trkpt lat="42.67306428495259" lon="2.8359952606722847"><ele>56.0</ele><time>2026-04-10T08:57:26.906Z</time></trkpt><trkpt lat="42.67298805629612" lon="2.8360816883376976"><ele>56.0</ele><time>2026-04-10T08:57:27.906Z</time></trkpt><trkpt lat="42.67292152351386" lon="2.8361620739453985"><ele>56.00000000000001</ele><time>2026-04-10T08:57:28.907Z</time></trkpt><trkpt lat="42.67284936671993" lon="2.836241912459583"><ele>56.0</ele><time>2026-04-10T08:57:29.907Z</time></trkpt><trkpt lat="42.67277856572762" lon="2.836320742724786"><ele>56.00000000000001</ele><time>2026-04-10T08:57:30.907Z</time></trkpt><trkpt lat="42.67270323966521" lon="2.8364015487796816"><ele>56.0</ele><time>2026-04-10T08:57:31.907Z</time></trkpt><trkpt lat="42.67262742713438" lon="2.8364807517053907"><ele>56.0</ele><time>2026-04-10T08:57:32.907Z</time></trkpt><trkpt lat="42.672555699859" lon="2.83655605577887"><ele>56.0</ele><time>2026-04-10T08:57:33.907Z</time></trkpt><trkpt lat="42.672492900358336" lon="2.836627415129247"><ele>56.00000000000001</ele><time>2026-04-10T08:57:34.907Z</time></trkpt><trkpt lat="42.67243926010628" lon="2.8366806026692015"><ele>56.0</ele><time>2026-04-10T08:57:35.907Z</time></trkpt><trkpt lat="42.67237145459202" lon="2.8367299975225584"><ele>56.0</ele><time>2026-04-10T08:57:37.907Z</time></trkpt><trkpt lat="42.672342312784046" lon="2.836599645189846"><ele>55.99999999999999</ele><time>2026-04-10T08:57:38.907Z</time></trkpt><trkpt lat="42.67226757523459" lon="2.8364667732977913"><ele>55.99999999999999</ele><time>2026-04-10T08:57:40.907Z</time></trkpt><trkpt lat="42.67222597586954" lon="2.836392815172098"><ele>56.0</ele><time>2026-04-10T08:57:41.907Z</time></trkpt><trkpt lat="42.672130821805766" lon="2.8363799392113176"><ele>56.0</ele><time>2026-04-10T08:57:42.907Z</time></trkpt><trkpt lat="42.672055463521914" lon="2.8363528679024776"><ele>56.00000000000001</ele><time>2026-04-10T08:57:43.907Z</time></trkpt><trkpt lat="42.671984937959756" lon="2.836314605877778"><ele>56.0</ele><time>2026-04-10T08:57:44.907Z</time></trkpt><trkpt lat="42.67191131825235" lon="2.8362690990191552"><ele>56.0</ele><time>2026-04-10T08:57:45.907Z</time></trkpt><trkpt lat="42.67183908104294" lon="2.8362304048282936"><ele>56.0</ele><time>2026-04-10T08:57:46.907Z</time></trkpt><trkpt lat="42.671769176702114" lon="2.836201281012076"><ele>56.00000000000001</ele><time>2026-04-10T08:57:47.907Z</time></trkpt><trkpt lat="42.67170976450807" lon="2.836150385399689"><ele>56.0</ele><time>2026-04-10T08:57:48.907Z</time></trkpt><trkpt lat="42.67160029194045" lon="2.836310867255816"><ele>56.0</ele><time>2026-04-10T08:57:50.907Z</time></trkpt><trkpt lat="42.671588164147565" lon="2.836412326103459"><ele>56.0</ele><time>2026-04-10T08:57:51.907Z</time></trkpt><trkpt lat="42.67156869945446" lon="2.8365050116084913"><ele>56.0</ele><time>2026-04-10T08:57:52.907Z</time></trkpt><trkpt lat="42.67153856364219" lon="2.8365874552421335"><ele>56.0</ele><time>2026-04-10T08:57:53.907Z</time></trkpt><trkpt lat="42.67150248011616" lon="2.8366589735515966"><ele>56.0</ele><time>2026-04-10T08:57:54.907Z</time></trkpt><trkpt lat="42.67144333048908" lon="2.8367012155693634"><ele>56.0</ele><time>2026-04-10T08:57:55.907Z</time></trkpt><trkpt lat="42.671370745281415" lon="2.8367152915352363"><ele>56.0</ele><time>2026-04-10T08:57:56.907Z</time></trkpt><trkpt lat="42.67129115121607" lon="2.8367200507314574"><ele>56.00000000000001</ele><time>2026-04-10T08:57:57.907Z</time></trkpt><trkpt lat="42.6712199336987" lon="2.836734772377077"><ele>56.0</ele><time>2026-04-10T08:57:58.907Z</time></trkpt><trkpt lat="42.67114387185876" lon="2.836747199026149"><ele>56.0</ele><time>2026-04-10T08:57:59.907Z</time></trkpt><trkpt lat="42.67106593716017" lon="2.8367643112445946"><ele>56.0</ele><time>2026-04-10T08:58:00.907Z</time></trkpt><trkpt lat="42.6709854644267" lon="2.836782648261715"><ele>56.00000000000001</ele><time>2026-04-10T08:58:01.907Z</time></trkpt><trkpt lat="42.67090799895497" lon="2.8368014965827943"><ele>56.0</ele><time>2026-04-10T08:58:02.907Z</time></trkpt><trkpt lat="42.67082878119739" lon="2.8368186648423297"><ele>56.50000000000001</ele><time>2026-04-10T08:58:03.907Z</time></trkpt><trkpt lat="42.670750970658105" lon="2.8368376532402393"><ele>57.0</ele><time>2026-04-10T08:58:04.907Z</time></trkpt><trkpt lat="42.67065012969939" lon="2.836858600855708"><ele>57.5</ele><time>2026-04-10T08:58:06.907Z</time></trkpt><trkpt lat="42.67068049116873" lon="2.8369387701306814"><ele>58.0</ele><time>2026-04-10T08:58:12.907Z</time></trkpt><trkpt lat="42.670780244886096" lon="2.836849039237401"><ele>58.50000000000001</ele><time>2026-04-10T08:58:13.907Z</time></trkpt><trkpt lat="42.67084977657171" lon="2.8368157228872075"><ele>59.0</ele><time>2026-04-10T08:58:14.907Z</time></trkpt><trkpt lat="42.67091307196133" lon="2.836797980321968"><ele>59.00000000000001</ele><time>2026-04-10T08:58:15.907Z</time></trkpt><trkpt lat="42.67099247386809" lon="2.8367859598500185"><ele>59.0</ele><time>2026-04-10T08:58:16.907Z</time></trkpt><trkpt lat="42.67107016744991" lon="2.8367707983193275"><ele>59.0</ele><time>2026-04-10T08:58:17.907Z</time></trkpt><trkpt lat="42.671154380487515" lon="2.83675073216891"><ele>59.0</ele><time>2026-04-10T08:58:18.907Z</time></trkpt><trkpt lat="42.671236784119266" lon="2.836740734271635"><ele>59.00000000000001</ele><time>2026-04-10T08:58:19.907Z</time></trkpt><trkpt lat="42.67131768879047" lon="2.836725912276717"><ele>59.0</ele><time>2026-04-10T08:58:20.907Z</time></trkpt><trkpt lat="42.67139944824522" lon="2.836714781319384"><ele>58.50000000000001</ele><time>2026-04-10T08:58:21.907Z</time></trkpt><trkpt lat="42.67148143968254" lon="2.8366908412010696"><ele>58.0</ele><time>2026-04-10T08:58:22.907Z</time></trkpt><trkpt lat="42.67155015792716" lon="2.836626359770768"><ele>57.5</ele><time>2026-04-10T08:58:23.907Z</time></trkpt><trkpt lat="42.67158903530861" lon="2.8365243308384347"><ele>57.0</ele><time>2026-04-10T08:58:24.907Z</time></trkpt><trkpt lat="42.671599332707636" lon="2.8364001540978983"><ele>56.50000000000001</ele><time>2026-04-10T08:58:25.907Z</time></trkpt><trkpt lat="42.671616117049474" lon="2.8363037099044486"><ele>56.0</ele><time>2026-04-10T08:58:26.907Z</time></trkpt><trkpt lat="42.67168257261234" lon="2.8362469137656783"><ele>56.00000000000001</ele><time>2026-04-10T08:58:27.907Z</time></trkpt><trkpt lat="42.67176041054867" lon="2.836230510050653"><ele>56.0</ele><time>2026-04-10T08:58:28.907Z</time></trkpt><trkpt lat="42.67184271337395" lon="2.8362491721365735"><ele>56.0</ele><time>2026-04-10T08:58:29.907Z</time></trkpt><trkpt lat="42.67191297954532" lon="2.836292035566603"><ele>56.0</ele><time>2026-04-10T08:58:30.907Z</time></trkpt><trkpt lat="42.67198568376424" lon="2.8363347624639115"><ele>56.00000000000001</ele><time>2026-04-10T08:58:31.907Z</time></trkpt><trkpt lat="42.672066769095316" lon="2.8363780885294707"><ele>56.0</ele><time>2026-04-10T08:58:32.907Z</time></trkpt><trkpt lat="42.67213975552861" lon="2.836412747036201"><ele>56.0</ele><time>2026-04-10T08:58:33.907Z</time></trkpt><trkpt lat="42.672214817353776" lon="2.836465513154375"><ele>55.99999999999999</ele><time>2026-04-10T08:58:34.907Z</time></trkpt><trkpt lat="42.672279159653314" lon="2.836537905939816"><ele>55.99999999999999</ele><time>2026-04-10T08:58:35.907Z</time></trkpt><trkpt lat="42.672343273967314" lon="2.836672546388557"><ele>56.0</ele><time>2026-04-10T08:58:37.907Z</time></trkpt><trkpt lat="42.67243460027556" lon="2.8367119577196065"><ele>56.0</ele><time>2026-04-10T08:58:39.904Z</time></trkpt><trkpt lat="42.67253724714137" lon="2.836600204467122"><ele>56.00000000000001</ele><time>2026-04-10T08:58:41.904Z</time></trkpt><trkpt lat="42.672610092776544" lon="2.836554185129279"><ele>56.0</ele><time>2026-04-10T08:58:42.903Z</time></trkpt><trkpt lat="42.672674064758496" lon="2.836483657254402"><ele>56.0</ele><time>2026-04-10T08:58:43.903Z</time></trkpt><trkpt lat="42.672745733045254" lon="2.8364127279930806"><ele>56.0</ele><time>2026-04-10T08:58:44.903Z</time></trkpt><trkpt lat="42.672819011057115" lon="2.8363421201959613"><ele>56.00000000000001</ele><time>2026-04-10T08:58:45.903Z</time></trkpt><trkpt lat="42.67288280847668" lon="2.836268264508507"><ele>56.0</ele><time>2026-04-10T08:58:46.903Z</time></trkpt><trkpt lat="42.6729504426598" lon="2.836185506279128"><ele>56.00000000000001</ele><time>2026-04-10T08:58:47.903Z</time></trkpt><trkpt lat="42.673022534652695" lon="2.8361059504323127"><ele>56.0</ele><time>2026-04-10T08:58:48.903Z</time></trkpt><trkpt lat="42.673094540832835" lon="2.836032354790325"><ele>56.0</ele><time>2026-04-10T08:58:49.903Z</time></trkpt><trkpt lat="42.67315816134835" lon="2.835955375559956"><ele>56.0</ele><time>2026-04-10T08:58:50.903Z</time></trkpt><trkpt lat="42.67321125513884" lon="2.8358973743226406"><ele>56.00000000000001</ele><time>2026-04-10T08:58:51.903Z</time></trkpt><trkpt lat="42.673281341843044" lon="2.835825641356531"><ele>56.0</ele><time>2026-04-10T08:58:53.903Z</time></trkpt><trkpt lat="42.67334473464841" lon="2.8357442579722543"><ele>56.00000000000001</ele><time>2026-04-10T08:58:57.903Z</time></trkpt><trkpt lat="42.67329991444437" lon="2.835623554714897"><ele>56.0</ele><time>2026-04-10T08:58:58.903Z</time></trkpt><trkpt lat="42.673256439495226" lon="2.835553870646724"><ele>56.0</ele><time>2026-04-10T08:58:59.903Z</time></trkpt><trkpt lat="42.673202142061655" lon="2.8354829686112057"><ele>56.0</ele><time>2026-04-10T08:59:00.903Z</time></trkpt><trkpt lat="42.67314217716712" lon="2.8353946912278216"><ele>56.00000000000001</ele><time>2026-04-10T08:59:01.903Z</time></trkpt><trkpt lat="42.67308145095931" lon="2.8353013439234083"><ele>56.0</ele><time>2026-04-10T08:59:02.903Z</time></trkpt><trkpt lat="42.67301862853281" lon="2.8352108339546453"><ele>56.0</ele><time>2026-04-10T08:59:03.903Z</time></trkpt><trkpt lat="42.67297399440759" lon="2.835101841271174"><ele>55.99999999999999</ele><time>2026-04-10T08:59:04.903Z</time></trkpt><trkpt lat="42.67291829025355" lon="2.8350003883347323"><ele>55.99999999999999</ele><time>2026-04-10T08:59:05.903Z</time></trkpt><trkpt lat="42.672868965460296" lon="2.834888967654117"><ele>56.0</ele><time>2026-04-10T08:59:06.903Z</time></trkpt><trkpt lat="42.6728091674193" lon="2.8347813879580257"><ele>56.0</ele><time>2026-04-10T08:59:07.903Z</time></trkpt><trkpt lat="42.672765988244024" lon="2.8346599070803373"><ele>56.0</ele><time>2026-04-10T08:59:08.903Z</time></trkpt><trkpt lat="42.67272409269126" lon="2.8345332259645595"><ele>55.99999999999999</ele><time>2026-04-10T08:59:09.903Z</time></trkpt><trkpt lat="42.67267524143761" lon="2.8344071426186943"><ele>55.99999999999999</ele><time>2026-04-10T08:59:10.903Z</time></trkpt><trkpt lat="42.672630687500124" lon="2.834278697679365"><ele>56.0</ele><time>2026-04-10T08:59:11.903Z</time></trkpt><trkpt lat="42.67259833888919" lon="2.834139797278278"><ele>56.0</ele><time>2026-04-10T08:59:12.903Z</time></trkpt><trkpt lat="42.67255243352102" lon="2.8340223573599874"><ele>56.0</ele><time>2026-04-10T08:59:13.903Z</time></trkpt><trkpt lat="42.67250914358276" lon="2.8338869956193316"><ele>55.99999999999999</ele><time>2026-04-10T08:59:14.903Z</time></trkpt><trkpt lat="42.67246255965113" lon="2.8337586268063464"><ele>55.99999999999999</ele><time>2026-04-10T08:59:15.903Z</time></trkpt><trkpt lat="42.6724178326951" lon="2.83364163784296"><ele>56.0</ele><time>2026-04-10T08:59:16.903Z</time></trkpt><trkpt lat="42.672394723278046" lon="2.83353654277669"><ele>56.0</ele><time>2026-04-10T08:59:17.903Z</time></trkpt><trkpt lat="42.67237346453928" lon="2.83343264535697"><ele>56.16666666666667</ele><time>2026-04-10T08:59:18.903Z</time></trkpt><trkpt lat="42.672369598958504" lon="2.8333234111539713"><ele>56.333333333333336</ele><time>2026-04-10T08:59:19.903Z</time></trkpt><trkpt lat="42.67236761411331" lon="2.8332099932891484"><ele>56.5</ele><time>2026-04-10T08:59:20.903Z</time></trkpt><trkpt lat="42.67233502468502" lon="2.8331055297825216"><ele>56.66666666666667</ele><time>2026-04-10T08:59:21.903Z</time></trkpt><trkpt lat="42.67226951227521" lon="2.833027838465695"><ele>56.833333333333336</ele><time>2026-04-10T08:59:22.903Z</time></trkpt><trkpt lat="42.67218324707189" lon="2.8329655202464656"><ele>57.0</ele><time>2026-04-10T08:59:23.903Z</time></trkpt><trkpt lat="42.67208915124616" lon="2.8329750014377044"><ele>57.0</ele><time>2026-04-10T08:59:24.903Z</time></trkpt><trkpt lat="42.67202922217411" lon="2.832833086371818"><ele>57.0</ele><time>2026-04-10T08:59:25.903Z</time></trkpt><trkpt lat="42.671969433178624" lon="2.8327670329702106"><ele>57.0</ele><time>2026-04-10T08:59:27.903Z</time></trkpt><trkpt lat="42.671902145900795" lon="2.832689196369118"><ele>57.0</ele><time>2026-04-10T08:59:30.903Z</time></trkpt><trkpt lat="42.67181939315732" lon="2.8325900083932765"><ele>57.0</ele><time>2026-04-10T08:59:32.903Z</time></trkpt><trkpt lat="42.67171431583398" lon="2.832474629673336"><ele>57.0</ele><time>2026-04-10T08:59:34.903Z</time></trkpt><trkpt lat="42.67165094795579" lon="2.8324199346131147"><ele>57.0</ele><time>2026-04-10T08:59:35.903Z</time></trkpt><trkpt lat="42.671575765742205" lon="2.832360852208785"><ele>57.0</ele><time>2026-04-10T08:59:36.903Z</time></trkpt><trkpt lat="42.67150082451564" lon="2.8322889184133553"><ele>57.0</ele><time>2026-04-10T08:59:37.903Z</time></trkpt><trkpt lat="42.67142394400267" lon="2.8322114874507545"><ele>57.0</ele><time>2026-04-10T08:59:38.903Z</time></trkpt><trkpt lat="42.67133294317168" lon="2.832140179364457"><ele>57.0</ele><time>2026-04-10T08:59:39.903Z</time></trkpt><trkpt lat="42.67125433101232" lon="2.8320567340254974"><ele>57.0</ele><time>2026-04-10T08:59:40.903Z</time></trkpt><trkpt lat="42.671174138208166" lon="2.8319763790579273"><ele>57.0</ele><time>2026-04-10T08:59:41.903Z</time></trkpt><trkpt lat="42.671090436135316" lon="2.8319059094178427"><ele>57.0</ele><time>2026-04-10T08:59:42.903Z</time></trkpt><trkpt lat="42.67100856778012" lon="2.8318320539037702"><ele>57.0</ele><time>2026-04-10T08:59:43.903Z</time></trkpt><trkpt lat="42.67092789960696" lon="2.831760316415517"><ele>57.2</ele><time>2026-04-10T08:59:44.903Z</time></trkpt><trkpt lat="42.6708523917937" lon="2.8316796998824154"><ele>57.400000000000006</ele><time>2026-04-10T08:59:45.903Z</time></trkpt><trkpt lat="42.67076793886891" lon="2.8316077225612"><ele>57.599999999999994</ele><time>2026-04-10T08:59:46.903Z</time></trkpt><trkpt lat="42.67069656439873" lon="2.831532367399822"><ele>57.8</ele><time>2026-04-10T08:59:47.903Z</time></trkpt><trkpt lat="42.670623098350625" lon="2.831457088834522"><ele>58.0</ele><time>2026-04-10T08:59:48.904Z</time></trkpt><trkpt lat="42.670550191201784" lon="2.831380416194135"><ele>57.99999999999999</ele><time>2026-04-10T08:59:49.904Z</time></trkpt><trkpt lat="42.670487219893246" lon="2.831290514908621"><ele>58.0</ele><time>2026-04-10T08:59:50.904Z</time></trkpt><trkpt lat="42.670432245331874" lon="2.8311991231862126"><ele>58.0</ele><time>2026-04-10T08:59:51.904Z</time></trkpt><trkpt lat="42.67039136126141" lon="2.8310918220448364"><ele>58.0</ele><time>2026-04-10T08:59:52.904Z</time></trkpt><trkpt lat="42.67033358295039" lon="2.8310008983081056"><ele>57.99999999999999</ele><time>2026-04-10T08:59:53.904Z</time></trkpt><trkpt lat="42.670283559526325" lon="2.830914669541546"><ele>58.0</ele><time>2026-04-10T08:59:54.904Z</time></trkpt><trkpt lat="42.67023742362502" lon="2.830839647778484"><ele>58.166666666666664</ele><time>2026-04-10T08:59:55.904Z</time></trkpt><trkpt lat="42.67019225393267" lon="2.8307789853712477"><ele>58.33333333333333</ele><time>2026-04-10T08:59:56.904Z</time></trkpt><trkpt lat="42.67013092964072" lon="2.8307525789622296"><ele>58.5</ele><time>2026-04-10T08:59:57.904Z</time></trkpt><trkpt lat="42.67006267386996" lon="2.8307246738170853"><ele>58.66666666666667</ele><time>2026-04-10T08:59:58.904Z</time></trkpt><trkpt lat="42.669981732961205" lon="2.830775774065876"><ele>58.833333333333336</ele><time>2026-04-10T08:59:59.904Z</time></trkpt><trkpt lat="42.66990449741918" lon="2.830842311857221"><ele>59.0</ele><time>2026-04-10T09:00:00.904Z</time></trkpt><trkpt lat="42.669827124148625" lon="2.8308965927115066"><ele>59.0</ele><time>2026-04-10T09:00:01.904Z</time></trkpt><trkpt lat="42.669747825036765" lon="2.8309569716018657"><ele>59.00000000000001</ele><time>2026-04-10T09:00:02.904Z</time></trkpt><trkpt lat="42.66966934962606" lon="2.8310221209329334"><ele>59.00000000000001</ele><time>2026-04-10T09:00:03.904Z</time></trkpt><trkpt lat="42.66959512209063" lon="2.8310922447516167"><ele>59.0</ele><time>2026-04-10T09:00:04.904Z</time></trkpt><trkpt lat="42.669520201036576" lon="2.831171627460295"><ele>59.0</ele><time>2026-04-10T09:00:05.904Z</time></trkpt><trkpt lat="42.66944121894122" lon="2.831239550014104"><ele>59.400000000000006</ele><time>2026-04-10T09:00:06.904Z</time></trkpt><trkpt lat="42.66936292839703" lon="2.8313124125382028"><ele>59.800000000000004</ele><time>2026-04-10T09:00:07.904Z</time></trkpt><trkpt lat="42.669274893005145" lon="2.8313580748782066"><ele>60.199999999999996</ele><time>2026-04-10T09:00:08.904Z</time></trkpt><trkpt lat="42.66920106987462" lon="2.8314410753614356"><ele>60.599999999999994</ele><time>2026-04-10T09:00:09.904Z</time></trkpt><trkpt lat="42.669140025590096" lon="2.8315388566046082"><ele>61.0</ele><time>2026-04-10T09:00:10.904Z</time></trkpt><trkpt lat="42.66906315723645" lon="2.831603938801593"><ele>60.99999999999999</ele><time>2026-04-10T09:00:11.904Z</time></trkpt><trkpt lat="42.6689940544962" lon="2.8316605612032597"><ele>61.0</ele><time>2026-04-10T09:00:12.904Z</time></trkpt><trkpt lat="42.66891790996136" lon="2.8316759303024717"><ele>61.0</ele><time>2026-04-10T09:00:13.904Z</time></trkpt><trkpt lat="42.66884557314164" lon="2.8317050717047487"><ele>61.0</ele><time>2026-04-10T09:00:14.904Z</time></trkpt><trkpt lat="42.66876420466894" lon="2.8317378522303325"><ele>60.99999999999999</ele><time>2026-04-10T09:00:15.904Z</time></trkpt><trkpt lat="42.66867724624024" lon="2.8317747089917775"><ele>61.0</ele><time>2026-04-10T09:00:16.904Z</time></trkpt><trkpt lat="42.6685964577875" lon="2.8318083517399915"><ele>61.199999999999996</ele><time>2026-04-10T09:00:17.904Z</time></trkpt><trkpt lat="42.66850664494098" lon="2.8318478426400198"><ele>61.39999999999999</ele><time>2026-04-10T09:00:18.904Z</time></trkpt><trkpt lat="42.668416719512116" lon="2.831887575944932"><ele>61.6</ele><time>2026-04-10T09:00:19.904Z</time></trkpt><trkpt lat="42.66832310304914" lon="2.8319466754922136"><ele>61.8</ele><time>2026-04-10T09:00:20.904Z</time></trkpt><trkpt lat="42.66821880056145" lon="2.83196509383946"><ele>62.0</ele><time>2026-04-10T09:00:21.904Z</time></trkpt><trkpt lat="42.6681223837174" lon="2.8320028466711498"><ele>62.0</ele><time>2026-04-10T09:00:22.904Z</time></trkpt><trkpt lat="42.66802115744505" lon="2.832036631083493"><ele>62.0</ele><time>2026-04-10T09:00:23.904Z</time></trkpt><trkpt lat="42.66791396950273" lon="2.832056768112195"><ele>62.0</ele><time>2026-04-10T09:00:24.904Z</time></trkpt><trkpt lat="42.66780814153631" lon="2.8320767176135027"><ele>62.0</ele><time>2026-04-10T09:00:25.904Z</time></trkpt><trkpt lat="42.667704111148964" lon="2.83209681717279"><ele>62.0</ele><time>2026-04-10T09:00:26.904Z</time></trkpt><trkpt lat="42.66759579289385" lon="2.8321187008570274"><ele>62.0</ele><time>2026-04-10T09:00:27.904Z</time></trkpt><trkpt lat="42.66748871443811" lon="2.832145731779092"><ele>62.0</ele><time>2026-04-10T09:00:28.904Z</time></trkpt><trkpt lat="42.66738295315663" lon="2.8321735833982182"><ele>62.0</ele><time>2026-04-10T09:00:29.904Z</time></trkpt><trkpt lat="42.66727853089182" lon="2.8322004695653087"><ele>62.0</ele><time>2026-04-10T09:00:30.904Z</time></trkpt><trkpt lat="42.66717345229981" lon="2.832204895008834"><ele>62.0</ele><time>2026-04-10T09:00:31.904Z</time></trkpt><trkpt lat="42.66706881372089" lon="2.8322267381824755"><ele>62.0</ele><time>2026-04-10T09:00:32.904Z</time></trkpt><trkpt lat="42.66696192503751" lon="2.832249049337999"><ele>62.0</ele><time>2026-04-10T09:00:33.904Z</time></trkpt><trkpt lat="42.66685130703055" lon="2.8322788007595125"><ele>62.0</ele><time>2026-04-10T09:00:34.904Z</time></trkpt><trkpt lat="42.66674459886017" lon="2.8323019797221196"><ele>62.0</ele><time>2026-04-10T09:00:35.904Z</time></trkpt><trkpt lat="42.666644743430766" lon="2.8323207256681466"><ele>62.0</ele><time>2026-04-10T09:00:36.904Z</time></trkpt><trkpt lat="42.66653906034499" lon="2.8323346512463403"><ele>62.2</ele><time>2026-04-10T09:00:37.904Z</time></trkpt><trkpt lat="42.66643056086755" lon="2.832316563418575"><ele>62.400000000000006</ele><time>2026-04-10T09:00:38.904Z</time></trkpt><trkpt lat="42.66631897390185" lon="2.832314418646775"><ele>62.599999999999994</ele><time>2026-04-10T09:00:39.904Z</time></trkpt><trkpt lat="42.66620529889" lon="2.832309312892596"><ele>62.8</ele><time>2026-04-10T09:00:40.904Z</time></trkpt><trkpt lat="42.66609514099856" lon="2.832312290227571"><ele>63.0</ele><time>2026-04-10T09:00:41.904Z</time></trkpt><trkpt lat="42.66599122019332" lon="2.8323111879852574"><ele>63.0</ele><time>2026-04-10T09:00:42.904Z</time></trkpt><trkpt lat="42.66589404459928" lon="2.8323000751586265"><ele>63.0</ele><time>2026-04-10T09:00:43.904Z</time></trkpt><trkpt lat="42.66581228975919" lon="2.832292199559851"><ele>63.0</ele><time>2026-04-10T09:00:44.901Z</time></trkpt><trkpt lat="42.66572116433555" lon="2.832288688025915"><ele>63.0</ele><time>2026-04-10T09:00:45.901Z</time></trkpt><trkpt lat="42.66562499471793" lon="2.8322904257814345"><ele>63.0</ele><time>2026-04-10T09:00:46.901Z</time></trkpt><trkpt lat="42.66551904708979" lon="2.8322865434885554"><ele>63.0</ele><time>2026-04-10T09:00:47.9Z</time></trkpt><trkpt lat="42.6654113825002" lon="2.832284316619236"><ele>63.0</ele><time>2026-04-10T09:00:48.9Z</time></trkpt><trkpt lat="42.66530680821763" lon="2.8322834733786686"><ele>63.0</ele><time>2026-04-10T09:00:49.9Z</time></trkpt><trkpt lat="42.665200128915124" lon="2.83227082952352"><ele>63.0</ele><time>2026-04-10T09:00:50.901Z</time></trkpt><trkpt lat="42.665093577981644" lon="2.8322801826759587"><ele>63.0</ele><time>2026-04-10T09:00:51.9Z</time></trkpt><trkpt lat="42.664984449480464" lon="2.8322876965825587"><ele>63.0</ele><time>2026-04-10T09:00:52.9Z</time></trkpt><trkpt lat="42.66487679914927" lon="2.832305034748096"><ele>63.0</ele><time>2026-04-10T09:00:53.901Z</time></trkpt><trkpt lat="42.664766938151374" lon="2.8323346385723864"><ele>63.0</ele><time>2026-04-10T09:00:54.9Z</time></trkpt><trkpt lat="42.66465678978959" lon="2.832366576447661"><ele>63.0</ele><time>2026-04-10T09:00:55.9Z</time></trkpt><trkpt lat="42.66454487099342" lon="2.8324007737952552"><ele>63.0</ele><time>2026-04-10T09:00:56.9Z</time></trkpt><trkpt lat="42.66443497196975" lon="2.8324427858817587"><ele>63.0</ele><time>2026-04-10T09:00:57.899Z</time></trkpt><trkpt lat="42.66432632485268" lon="2.8324832084754346"><ele>63.0</ele><time>2026-04-10T09:00:58.899Z</time></trkpt><trkpt lat="42.66421454265642" lon="2.832537511541775"><ele>63.0</ele><time>2026-04-10T09:00:59.899Z</time></trkpt><trkpt lat="42.664104617787245" lon="2.832586774676776"><ele>63.0</ele><time>2026-04-10T09:01:00.899Z</time></trkpt><trkpt lat="42.66398906891322" lon="2.8326326669846997"><ele>62.8</ele><time>2026-04-10T09:01:01.9Z</time></trkpt><trkpt lat="42.6638742588372" lon="2.8326789840217517"><ele>62.599999999999994</ele><time>2026-04-10T09:01:02.9Z</time></trkpt><trkpt lat="42.66376435181162" lon="2.832725616296615"><ele>62.400000000000006</ele><time>2026-04-10T09:01:03.9Z</time></trkpt><trkpt lat="42.663667950072856" lon="2.832763982631492"><ele>62.2</ele><time>2026-04-10T09:01:04.899Z</time></trkpt><trkpt lat="42.66358633721308" lon="2.8328005641976897"><ele>62.0</ele><time>2026-04-10T09:01:05.898Z</time></trkpt><trkpt lat="42.66351066166161" lon="2.8328327854544804"><ele>62.00000000000001</ele><time>2026-04-10T09:01:06.896Z</time></trkpt><trkpt lat="42.66343687169857" lon="2.8328679463980717"><ele>62.0</ele><time>2026-04-10T09:01:07.895Z</time></trkpt><trkpt lat="42.66336609729281" lon="2.8329009245509034"><ele>62.0</ele><time>2026-04-10T09:01:08.894Z</time></trkpt><trkpt lat="42.66329569370823" lon="2.8329074817518287"><ele>62.0</ele><time>2026-04-10T09:01:09.893Z</time></trkpt><trkpt lat="42.66322147620865" lon="2.8328696526728683"><ele>62.00000000000001</ele><time>2026-04-10T09:01:10.892Z</time></trkpt><trkpt lat="42.663144973114235" lon="2.8328252156404137"><ele>62.0</ele><time>2026-04-10T09:01:11.892Z</time></trkpt><trkpt lat="42.66305910363157" lon="2.8328126735744723"><ele>62.0</ele><time>2026-04-10T09:01:12.891Z</time></trkpt><trkpt lat="42.66297508614633" lon="2.8328350120503543"><ele>62.0</ele><time>2026-04-10T09:01:13.89Z</time></trkpt><trkpt lat="42.66288986784556" lon="2.8328923843407288"><ele>62.0</ele><time>2026-04-10T09:01:14.889Z</time></trkpt><trkpt lat="42.66284276670534" lon="2.8330232409272793"><ele>62.0</ele><time>2026-04-10T09:01:15.889Z</time></trkpt><trkpt lat="42.66279249940643" lon="2.8331347567746006"><ele>62.0</ele><time>2026-04-10T09:01:16.888Z</time></trkpt><trkpt lat="42.66271663214256" lon="2.833208214745138"><ele>62.2</ele><time>2026-04-10T09:01:17.887Z</time></trkpt><trkpt lat="42.662620354699605" lon="2.8332426308757768"><ele>62.400000000000006</ele><time>2026-04-10T09:01:18.887Z</time></trkpt><trkpt lat="42.66252215878492" lon="2.8332815991893345"><ele>62.599999999999994</ele><time>2026-04-10T09:01:19.886Z</time></trkpt><trkpt lat="42.662425256385" lon="2.8333239830825154"><ele>62.8</ele><time>2026-04-10T09:01:20.886Z</time></trkpt><trkpt lat="42.66232542297455" lon="2.833365113009381"><ele>63.0</ele><time>2026-04-10T09:01:21.885Z</time></trkpt><trkpt lat="42.662227014498654" lon="2.8334115059383107"><ele>63.0</ele><time>2026-04-10T09:01:22.885Z</time></trkpt><trkpt lat="42.66212865998382" lon="2.8334583469721997"><ele>63.0</ele><time>2026-04-10T09:01:23.885Z</time></trkpt><trkpt lat="42.66202904532945" lon="2.833497821920443"><ele>63.0</ele><time>2026-04-10T09:01:24.884Z</time></trkpt><trkpt lat="42.661925975793" lon="2.8335322572206936"><ele>63.0</ele><time>2026-04-10T09:01:25.884Z</time></trkpt><trkpt lat="42.66182823197481" lon="2.8335422715565"><ele>63.0</ele><time>2026-04-10T09:01:26.884Z</time></trkpt><trkpt lat="42.661734695332726" lon="2.833522899647454"><ele>63.2</ele><time>2026-04-10T09:01:27.883Z</time></trkpt><trkpt lat="42.66164369404608" lon="2.8335360888161283"><ele>63.4</ele><time>2026-04-10T09:01:28.883Z</time></trkpt><trkpt lat="42.66156084134256" lon="2.83358859772028"><ele>63.60000000000001</ele><time>2026-04-10T09:01:29.883Z</time></trkpt><trkpt lat="42.661490746823354" lon="2.833658535504003"><ele>63.800000000000004</ele><time>2026-04-10T09:01:30.882Z</time></trkpt><trkpt lat="42.661405778537045" lon="2.8337181802986353"><ele>64.0</ele><time>2026-04-10T09:01:31.882Z</time></trkpt><trkpt lat="42.66131399509183" lon="2.833754281408888"><ele>63.99999999999999</ele><time>2026-04-10T09:01:32.882Z</time></trkpt><trkpt lat="42.66124418284234" lon="2.8337661519060893"><ele>64.0</ele><time>2026-04-10T09:01:33.882Z</time></trkpt><trkpt lat="42.661166628429996" lon="2.833801295007578"><ele>64.0</ele><time>2026-04-10T09:01:38.881Z</time></trkpt><trkpt lat="42.66109281760249" lon="2.833751287251494"><ele>64.0</ele><time>2026-04-10T09:01:40.881Z</time></trkpt><trkpt lat="42.66099609965927" lon="2.8337343623373816"><ele>63.99999999999999</ele><time>2026-04-10T09:01:42.88Z</time></trkpt><trkpt lat="42.66092455407198" lon="2.8337701520731757"><ele>64.0</ele><time>2026-04-10T09:01:43.88Z</time></trkpt><trkpt lat="42.6608667337355" lon="2.833841139183906"><ele>63.99999999999999</ele><time>2026-04-10T09:01:44.88Z</time></trkpt><trkpt lat="42.66081118824342" lon="2.8339271086108386"><ele>64.0</ele><time>2026-04-10T09:01:45.88Z</time></trkpt><trkpt lat="42.660743333909664" lon="2.833988865189531"><ele>64.0</ele><time>2026-04-10T09:01:46.88Z</time></trkpt><trkpt lat="42.66066618228302" lon="2.8340237621504496"><ele>64.0</ele><time>2026-04-10T09:01:47.88Z</time></trkpt><trkpt lat="42.66058510789746" lon="2.834054196883829"><ele>63.99999999999999</ele><time>2026-04-10T09:01:48.88Z</time></trkpt><trkpt lat="42.660497652009894" lon="2.834093413134227"><ele>64.0</ele><time>2026-04-10T09:01:49.88Z</time></trkpt><trkpt lat="42.66041220434171" lon="2.8341338814694677"><ele>64.0</ele><time>2026-04-10T09:01:50.88Z</time></trkpt><trkpt lat="42.660326223800425" lon="2.8341735561954096"><ele>64.0</ele><time>2026-04-10T09:01:51.88Z</time></trkpt><trkpt lat="42.660236874182935" lon="2.8342059786656577"><ele>64.0</ele><time>2026-04-10T09:01:52.88Z</time></trkpt><trkpt lat="42.66014322744307" lon="2.8342391970538685"><ele>64.0</ele><time>2026-04-10T09:01:53.88Z</time></trkpt><trkpt lat="42.66004745945555" lon="2.8342790122059887"><ele>64.0</ele><time>2026-04-10T09:01:54.88Z</time></trkpt><trkpt lat="42.65995177406636" lon="2.8343169145715383"><ele>64.0</ele><time>2026-04-10T09:01:55.88Z</time></trkpt><trkpt lat="42.6598563519425" lon="2.8343583631685654"><ele>64.0</ele><time>2026-04-10T09:01:56.88Z</time></trkpt><trkpt lat="42.65975804806844" lon="2.8344011566194265"><ele>64.0</ele><time>2026-04-10T09:01:57.879Z</time></trkpt><trkpt lat="42.65965772230039" lon="2.834449513948519"><ele>64.0</ele><time>2026-04-10T09:01:58.879Z</time></trkpt><trkpt lat="42.65955462099539" lon="2.834494061683867"><ele>64.0</ele><time>2026-04-10T09:01:59.879Z</time></trkpt><trkpt lat="42.65944899097886" lon="2.834535936005793"><ele>64.0</ele><time>2026-04-10T09:02:00.879Z</time></trkpt><trkpt lat="42.65934020132024" lon="2.8345659128894316"><ele>64.0</ele><time>2026-04-10T09:02:01.879Z</time></trkpt><trkpt lat="42.65923135880545" lon="2.8345957069568946"><ele>64.0</ele><time>2026-04-10T09:02:02.879Z</time></trkpt><trkpt lat="42.659121652147014" lon="2.8346258714213897"><ele>64.0</ele><time>2026-04-10T09:02:03.879Z</time></trkpt><trkpt lat="42.659011610244946" lon="2.8346432730442728"><ele>64.0</ele><time>2026-04-10T09:02:04.879Z</time></trkpt><trkpt lat="42.658899377694276" lon="2.8346447148388054"><ele>64.0</ele><time>2026-04-10T09:02:05.879Z</time></trkpt><trkpt lat="42.65878930988082" lon="2.834636446766443"><ele>64.0</ele><time>2026-04-10T09:02:06.879Z</time></trkpt><trkpt lat="42.65867830059211" lon="2.834625896352947"><ele>64.0</ele><time>2026-04-10T09:02:07.879Z</time></trkpt><trkpt lat="42.65856759723951" lon="2.8346101889120408"><ele>64.0</ele><time>2026-04-10T09:02:08.879Z</time></trkpt><trkpt lat="42.658459863293906" lon="2.834593273801725"><ele>64.0</ele><time>2026-04-10T09:02:09.879Z</time></trkpt><trkpt lat="42.65834968407013" lon="2.834578552037686"><ele>64.4</ele><time>2026-04-10T09:02:10.879Z</time></trkpt><trkpt lat="42.658244010873396" lon="2.8345602984460263"><ele>64.80000000000001</ele><time>2026-04-10T09:02:11.879Z</time></trkpt><trkpt lat="42.65813454456233" lon="2.8345509759908967"><ele>65.19999999999999</ele><time>2026-04-10T09:02:12.879Z</time></trkpt><trkpt lat="42.658024714454946" lon="2.834560700739394"><ele>65.6</ele><time>2026-04-10T09:02:13.879Z</time></trkpt><trkpt lat="42.657938817072264" lon="2.8345808556050778"><ele>66.0</ele><time>2026-04-10T09:02:14.879Z</time></trkpt><trkpt lat="42.65787472608674" lon="2.8345950380373037"><ele>66.0</ele><time>2026-04-10T09:02:15.879Z</time></trkpt><trkpt lat="42.657795908318604" lon="2.834602409487113"><ele>66.0</ele><time>2026-04-10T09:02:17.879Z</time></trkpt><trkpt lat="42.657721758308405" lon="2.834609013443175"><ele>66.0</ele><time>2026-04-10T09:02:21.879Z</time></trkpt><trkpt lat="42.657638756685365" lon="2.834621337976308"><ele>66.0</ele><time>2026-04-10T09:02:23.879Z</time></trkpt><trkpt lat="42.657535695739156" lon="2.8345854030198683"><ele>66.0</ele><time>2026-04-10T09:02:25.879Z</time></trkpt><trkpt lat="42.65744974822417" lon="2.834546868323576"><ele>66.0</ele><time>2026-04-10T09:02:27.879Z</time></trkpt><trkpt lat="42.65734208401777" lon="2.8344980539734155"><ele>65.83333333333333</ele><time>2026-04-10T09:02:29.879Z</time></trkpt><trkpt lat="42.65728159699817" lon="2.8344482683434666"><ele>65.66666666666667</ele><time>2026-04-10T09:02:30.879Z</time></trkpt><trkpt lat="42.65721594377118" lon="2.8343900949261185"><ele>65.5</ele><time>2026-04-10T09:02:31.879Z</time></trkpt><trkpt lat="42.65714024092272" lon="2.834337507916816"><ele>65.33333333333334</ele><time>2026-04-10T09:02:32.879Z</time></trkpt><trkpt lat="42.657058242219975" lon="2.83428368744426"><ele>65.16666666666667</ele><time>2026-04-10T09:02:33.879Z</time></trkpt><trkpt lat="42.65697897825408" lon="2.8342175041924196"><ele>65.0</ele><time>2026-04-10T09:02:34.879Z</time></trkpt><trkpt lat="42.65689716498577" lon="2.8341459247411387"><ele>65.0</ele><time>2026-04-10T09:02:35.879Z</time></trkpt><trkpt lat="42.65680749755618" lon="2.834086349486714"><ele>65.0</ele><time>2026-04-10T09:02:36.879Z</time></trkpt><trkpt lat="42.65671412142767" lon="2.834019876459679"><ele>65.0</ele><time>2026-04-10T09:02:37.879Z</time></trkpt><trkpt lat="42.656617354260064" lon="2.833952439362039"><ele>65.0</ele><time>2026-04-10T09:02:38.879Z</time></trkpt><trkpt lat="42.656517911639014" lon="2.8338828873989144"><ele>65.0</ele><time>2026-04-10T09:02:39.879Z</time></trkpt><trkpt lat="42.65642029721725" lon="2.8338146690158026"><ele>65.0</ele><time>2026-04-10T09:02:40.879Z</time></trkpt><trkpt lat="42.65632042641839" lon="2.833746779064843"><ele>65.0</ele><time>2026-04-10T09:02:41.879Z</time></trkpt><trkpt lat="42.656220377536485" lon="2.8336813226579864"><ele>65.0</ele><time>2026-04-10T09:02:42.879Z</time></trkpt><trkpt lat="42.65611613497894" lon="2.8336208081000693"><ele>65.0</ele><time>2026-04-10T09:02:43.879Z</time></trkpt><trkpt lat="42.65601508064003" lon="2.833558380113224"><ele>65.0</ele><time>2026-04-10T09:02:44.879Z</time></trkpt><trkpt lat="42.65591104426828" lon="2.8334991934318174"><ele>64.8</ele><time>2026-04-10T09:02:45.879Z</time></trkpt><trkpt lat="42.655808151620334" lon="2.833444489702552"><ele>64.6</ele><time>2026-04-10T09:02:46.879Z</time></trkpt><trkpt lat="42.65570508482326" lon="2.8333855224294364"><ele>64.4</ele><time>2026-04-10T09:02:47.879Z</time></trkpt><trkpt lat="42.65560399058785" lon="2.833325008914253"><ele>64.2</ele><time>2026-04-10T09:02:48.879Z</time></trkpt><trkpt lat="42.65549890361008" lon="2.8332634104534837"><ele>64.0</ele><time>2026-04-10T09:02:49.879Z</time></trkpt><trkpt lat="42.655392676915966" lon="2.833201909260583"><ele>64.0</ele><time>2026-04-10T09:02:50.876Z</time></trkpt><trkpt lat="42.65529200253589" lon="2.83313544430727"><ele>64.0</ele><time>2026-04-10T09:02:51.876Z</time></trkpt><trkpt lat="42.655188659922004" lon="2.833072980047873"><ele>64.0</ele><time>2026-04-10T09:02:52.876Z</time></trkpt><trkpt lat="42.65508742785689" lon="2.8330024278799764"><ele>64.0</ele><time>2026-04-10T09:02:53.876Z</time></trkpt><trkpt lat="42.65498329136037" lon="2.8329339898481596"><ele>64.25</ele><time>2026-04-10T09:02:54.875Z</time></trkpt><trkpt lat="42.65488084508987" lon="2.8328637121895985"><ele>64.5</ele><time>2026-04-10T09:02:55.875Z</time></trkpt><trkpt lat="42.65478167175018" lon="2.832793400352665"><ele>64.75</ele><time>2026-04-10T09:02:56.876Z</time></trkpt><trkpt lat="42.654683516950904" lon="2.83272442696094"><ele>65.0</ele><time>2026-04-10T09:02:57.876Z</time></trkpt><trkpt lat="42.65458137191439" lon="2.8326542775682193"><ele>65.0</ele><time>2026-04-10T09:02:58.876Z</time></trkpt><trkpt lat="42.65447838596602" lon="2.8325868069180973"><ele>65.0</ele><time>2026-04-10T09:02:59.876Z</time></trkpt><trkpt lat="42.65437886493935" lon="2.832525567468102"><ele>65.0</ele><time>2026-04-10T09:03:00.875Z</time></trkpt><trkpt lat="42.65428329914397" lon="2.832463630149615"><ele>65.0</ele><time>2026-04-10T09:03:01.875Z</time></trkpt><trkpt lat="42.654184567548896" lon="2.832402184109243"><ele>65.0</ele><time>2026-04-10T09:03:02.875Z</time></trkpt><trkpt lat="42.654086180170694" lon="2.8323400296629715"><ele>65.6</ele><time>2026-04-10T09:03:03.875Z</time></trkpt><trkpt lat="42.65398530145509" lon="2.8322870511583425"><ele>66.2</ele><time>2026-04-10T09:03:04.875Z</time></trkpt><trkpt lat="42.65388311987729" lon="2.832232679464035"><ele>66.8</ele><time>2026-04-10T09:03:05.875Z</time></trkpt><trkpt lat="42.65378121131479" lon="2.8321862026997073"><ele>67.4</ele><time>2026-04-10T09:03:06.875Z</time></trkpt><trkpt lat="42.65368219053035" lon="2.8321322722378097"><ele>68.0</ele><time>2026-04-10T09:03:07.875Z</time></trkpt><trkpt lat="42.653584804845515" lon="2.832080971869096"><ele>68.0</ele><time>2026-04-10T09:03:08.875Z</time></trkpt><trkpt lat="42.653489118110635" lon="2.83202638067069"><ele>68.0</ele><time>2026-04-10T09:03:09.875Z</time></trkpt><trkpt lat="42.65339444219101" lon="2.8319743717398924"><ele>68.0</ele><time>2026-04-10T09:03:10.875Z</time></trkpt><trkpt lat="42.65329945409989" lon="2.831920152260574"><ele>68.0</ele><time>2026-04-10T09:03:11.875Z</time></trkpt><trkpt lat="42.65320493801501" lon="2.8318649006177052"><ele>68.0</ele><time>2026-04-10T09:03:12.875Z</time></trkpt><trkpt lat="42.65311237303129" lon="2.831811121744085"><ele>67.8</ele><time>2026-04-10T09:03:13.875Z</time></trkpt><trkpt lat="42.65302262381744" lon="2.831757514839339"><ele>67.6</ele><time>2026-04-10T09:03:14.875Z</time></trkpt><trkpt lat="42.652939490557344" lon="2.831706033597532"><ele>67.4</ele><time>2026-04-10T09:03:15.875Z</time></trkpt><trkpt lat="42.65285950255493" lon="2.8316516176277386"><ele>67.2</ele><time>2026-04-10T09:03:16.875Z</time></trkpt><trkpt lat="42.65277704936199" lon="2.831592661387568"><ele>67.0</ele><time>2026-04-10T09:03:17.875Z</time></trkpt><trkpt lat="42.652697133885525" lon="2.83153559470062"><ele>67.6</ele><time>2026-04-10T09:03:18.875Z</time></trkpt><trkpt lat="42.65261565176984" lon="2.8314725326622856"><ele>68.2</ele><time>2026-04-10T09:03:19.875Z</time></trkpt><trkpt lat="42.65253847155723" lon="2.8313947410808824"><ele>68.8</ele><time>2026-04-10T09:03:20.875Z</time></trkpt><trkpt lat="42.65247711059375" lon="2.831308788419797"><ele>69.4</ele><time>2026-04-10T09:03:21.875Z</time></trkpt><trkpt lat="42.65243866797792" lon="2.8311874615959454"><ele>70.0</ele><time>2026-04-10T09:03:22.875Z</time></trkpt><trkpt lat="42.65237775589027" lon="2.8310872725809584"><ele>70.0</ele><time>2026-04-10T09:03:23.875Z</time></trkpt><trkpt lat="42.652293261387726" lon="2.8310278425011752"><ele>70.0</ele><time>2026-04-10T09:03:24.875Z</time></trkpt><trkpt lat="42.65221339566662" lon="2.8309643083977853"><ele>70.0</ele><time>2026-04-10T09:03:25.875Z</time></trkpt><trkpt lat="42.6521309070712" lon="2.8309083071774164"><ele>70.0</ele><time>2026-04-10T09:03:26.875Z</time></trkpt><trkpt lat="42.65204213240273" lon="2.830854608770663"><ele>70.0</ele><time>2026-04-10T09:03:27.876Z</time></trkpt><trkpt lat="42.651961894902705" lon="2.8307840844131573"><ele>70.2</ele><time>2026-04-10T09:03:28.876Z</time></trkpt><trkpt lat="42.65187570200696" lon="2.83073191175675"><ele>70.4</ele><time>2026-04-10T09:03:29.876Z</time></trkpt><trkpt lat="42.65178364122263" lon="2.8306985745220428"><ele>70.6</ele><time>2026-04-10T09:03:30.876Z</time></trkpt><trkpt lat="42.651701336305734" lon="2.830621467825062"><ele>70.8</ele><time>2026-04-10T09:03:31.876Z</time></trkpt><trkpt lat="42.651613275705074" lon="2.83056780065172"><ele>71.0</ele><time>2026-04-10T09:03:32.876Z</time></trkpt><trkpt lat="42.651524952127936" lon="2.8305045871421592"><ele>71.0</ele><time>2026-04-10T09:03:33.876Z</time></trkpt><trkpt lat="42.6514369219845" lon="2.8304315538053193"><ele>71.0</ele><time>2026-04-10T09:03:34.876Z</time></trkpt><trkpt lat="42.65134894796975" lon="2.83035004231984"><ele>71.0</ele><time>2026-04-10T09:03:35.876Z</time></trkpt><trkpt lat="42.65126116960059" lon="2.8302623167123655"><ele>71.0</ele><time>2026-04-10T09:03:36.876Z</time></trkpt><trkpt lat="42.651179043982914" lon="2.830164739876619"><ele>71.0</ele><time>2026-04-10T09:03:37.876Z</time></trkpt><trkpt lat="42.651099140094246" lon="2.8300644691729295"><ele>70.25</ele><time>2026-04-10T09:03:38.876Z</time></trkpt><trkpt lat="42.6510156081934" lon="2.829961988050802"><ele>69.5</ele><time>2026-04-10T09:03:39.876Z</time></trkpt><trkpt lat="42.650935276431866" lon="2.829855108489074"><ele>68.75</ele><time>2026-04-10T09:03:40.876Z</time></trkpt><trkpt lat="42.65085187557524" lon="2.829744550338477"><ele>68.0</ele><time>2026-04-10T09:03:41.876Z</time></trkpt><trkpt lat="42.650764865199136" lon="2.829642430500181"><ele>68.0</ele><time>2026-04-10T09:03:42.876Z</time></trkpt><trkpt lat="42.65067516284265" lon="2.8295382405859266"><ele>68.0</ele><time>2026-04-10T09:03:43.876Z</time></trkpt><trkpt lat="42.650589403481405" lon="2.829432091538096"><ele>68.0</ele><time>2026-04-10T09:03:44.876Z</time></trkpt><trkpt lat="42.65050446920683" lon="2.8293184432825647"><ele>68.0</ele><time>2026-04-10T09:03:45.876Z</time></trkpt><trkpt lat="42.65041672105304" lon="2.8292086337660387"><ele>68.25</ele><time>2026-04-10T09:03:46.876Z</time></trkpt><trkpt lat="42.650330054859204" lon="2.829096248335533"><ele>68.5</ele><time>2026-04-10T09:03:47.876Z</time></trkpt><trkpt lat="42.65024576817164" lon="2.8289810599164364"><ele>68.75</ele><time>2026-04-10T09:03:48.876Z</time></trkpt><trkpt lat="42.65016221091036" lon="2.828863995155985"><ele>69.0</ele><time>2026-04-10T09:03:49.876Z</time></trkpt><trkpt lat="42.65007432268424" lon="2.828748472772497"><ele>69.0</ele><time>2026-04-10T09:03:50.876Z</time></trkpt><trkpt lat="42.64998391131885" lon="2.828626990384606"><ele>69.0</ele><time>2026-04-10T09:03:51.876Z</time></trkpt><trkpt lat="42.6498987550268" lon="2.8285143210399126"><ele>69.0</ele><time>2026-04-10T09:03:52.876Z</time></trkpt><trkpt lat="42.649813124847576" lon="2.8283981613316698"><ele>69.0</ele><time>2026-04-10T09:03:53.876Z</time></trkpt><trkpt lat="42.649726820135406" lon="2.8282843082008915"><ele>69.2</ele><time>2026-04-10T09:03:54.876Z</time></trkpt><trkpt lat="42.64964000178364" lon="2.8281718569434755"><ele>69.4</ele><time>2026-04-10T09:03:55.876Z</time></trkpt><trkpt lat="42.64955503014784" lon="2.828067451594301"><ele>69.6</ele><time>2026-04-10T09:03:56.876Z</time></trkpt><trkpt lat="42.64948175221232" lon="2.827990711600231"><ele>69.8</ele><time>2026-04-10T09:03:57.876Z</time></trkpt><trkpt lat="42.64940575485402" lon="2.8279287309617525"><ele>70.0</ele><time>2026-04-10T09:03:58.876Z</time></trkpt><trkpt lat="42.64933621143406" lon="2.8278734150286318"><ele>70.16666666666666</ele><time>2026-04-10T09:03:59.876Z</time></trkpt><trkpt lat="42.6492801548191" lon="2.827814027321268"><ele>70.33333333333333</ele><time>2026-04-10T09:04:00.876Z</time></trkpt><trkpt lat="42.649258939571375" lon="2.827719977871486"><ele>70.5</ele><time>2026-04-10T09:04:01.876Z</time></trkpt><trkpt lat="42.649261260404195" lon="2.8276002627079673"><ele>70.66666666666667</ele><time>2026-04-10T09:04:02.876Z</time></trkpt><trkpt lat="42.64924032872148" lon="2.8274836056742907"><ele>70.83333333333334</ele><time>2026-04-10T09:04:03.876Z</time></trkpt><trkpt lat="42.64920697206491" lon="2.827359612357269"><ele>71.0</ele><time>2026-04-10T09:04:04.876Z</time></trkpt><trkpt lat="42.64916331611588" lon="2.8272379163801675"><ele>71.0</ele><time>2026-04-10T09:04:05.876Z</time></trkpt><trkpt lat="42.649120757957306" lon="2.8271122273116553"><ele>71.0</ele><time>2026-04-10T09:04:06.876Z</time></trkpt><trkpt lat="42.64907892755402" lon="2.8269888593558736"><ele>71.0</ele><time>2026-04-10T09:04:07.876Z</time></trkpt><trkpt lat="42.64904548689634" lon="2.826867901779298"><ele>71.0</ele><time>2026-04-10T09:04:08.876Z</time></trkpt><trkpt lat="42.649005720950555" lon="2.8267502444855293"><ele>71.0</ele><time>2026-04-10T09:04:09.876Z</time></trkpt><trkpt lat="42.64896497908303" lon="2.826629206019561"><ele>71.5</ele><time>2026-04-10T09:04:10.876Z</time></trkpt><trkpt lat="42.64892591071159" lon="2.8265082184568753"><ele>72.0</ele><time>2026-04-10T09:04:11.876Z</time></trkpt><trkpt lat="42.64889742940771" lon="2.8263925815075477"><ele>72.5</ele><time>2026-04-10T09:04:12.876Z</time></trkpt><trkpt lat="42.648885197409456" lon="2.826273947580623"><ele>73.0</ele><time>2026-04-10T09:04:13.876Z</time></trkpt><trkpt lat="42.6488798713749" lon="2.8261618832877784"><ele>73.5</ele><time>2026-04-10T09:04:14.876Z</time></trkpt><trkpt lat="42.648882092874" lon="2.8260436532077615"><ele>74.0</ele><time>2026-04-10T09:04:15.876Z</time></trkpt><trkpt lat="42.648878407897726" lon="2.825916849879671"><ele>74.4</ele><time>2026-04-10T09:04:16.876Z</time></trkpt><trkpt lat="42.64885188121848" lon="2.825790124217452"><ele>74.80000000000001</ele><time>2026-04-10T09:04:17.876Z</time></trkpt><trkpt lat="42.64881044229364" lon="2.825669641859903"><ele>75.19999999999999</ele><time>2026-04-10T09:04:18.876Z</time></trkpt><trkpt lat="42.64877982422816" lon="2.8255430327717503"><ele>75.6</ele><time>2026-04-10T09:04:19.876Z</time></trkpt><trkpt lat="42.648737697282506" lon="2.825426048363946"><ele>76.0</ele><time>2026-04-10T09:04:20.876Z</time></trkpt><trkpt lat="42.64868938271341" lon="2.8253109588339322"><ele>76.0</ele><time>2026-04-10T09:04:21.876Z</time></trkpt><trkpt lat="42.6486522489271" lon="2.8251861135701852"><ele>76.0</ele><time>2026-04-10T09:04:22.876Z</time></trkpt><trkpt lat="42.64859771803682" lon="2.825060910222434"><ele>76.0</ele><time>2026-04-10T09:04:23.876Z</time></trkpt><trkpt lat="42.64854169529565" lon="2.8249210990635913"><ele>76.0</ele><time>2026-04-10T09:04:24.876Z</time></trkpt><trkpt lat="42.64848330438019" lon="2.8247710884728914"><ele>76.0</ele><time>2026-04-10T09:04:25.876Z</time></trkpt><trkpt lat="42.648419628157676" lon="2.8246106085981877"><ele>76.75</ele><time>2026-04-10T09:04:26.876Z</time></trkpt><trkpt lat="42.64835585003528" lon="2.824438596770629"><ele>77.5</ele><time>2026-04-10T09:04:27.876Z</time></trkpt><trkpt lat="42.64828771351643" lon="2.8242628660204523"><ele>78.25</ele><time>2026-04-10T09:04:28.876Z</time></trkpt><trkpt lat="42.64821938244711" lon="2.824078879448482"><ele>79.0</ele><time>2026-04-10T09:04:29.876Z</time></trkpt><trkpt lat="42.64814257865587" lon="2.823886530156818"><ele>79.0</ele><time>2026-04-10T09:04:30.876Z</time></trkpt><trkpt lat="42.64807010322075" lon="2.8236907101388597"><ele>79.0</ele><time>2026-04-10T09:04:31.876Z</time></trkpt><trkpt lat="42.64799265851112" lon="2.823483181755201"><ele>79.0</ele><time>2026-04-10T09:04:32.876Z</time></trkpt><trkpt lat="42.647923561859045" lon="2.8232700578668357"><ele>78.33333333333333</ele><time>2026-04-10T09:04:33.876Z</time></trkpt><trkpt lat="42.64785249833215" lon="2.8230560622418523"><ele>77.66666666666667</ele><time>2026-04-10T09:04:34.876Z</time></trkpt><trkpt lat="42.64777966357974" lon="2.8228384384355274"><ele>77.0</ele><time>2026-04-10T09:04:35.876Z</time></trkpt><trkpt lat="42.64770602038558" lon="2.8226245549121973"><ele>78.66666666666667</ele><time>2026-04-10T09:04:36.876Z</time></trkpt><trkpt lat="42.647631352092475" lon="2.8224125901894013"><ele>80.33333333333333</ele><time>2026-04-10T09:04:37.876Z</time></trkpt><trkpt lat="42.64755242749454" lon="2.822202214510728"><ele>82.0</ele><time>2026-04-10T09:04:38.876Z</time></trkpt><trkpt lat="42.64747219323583" lon="2.8219886864185963"><ele>82.66666666666666</ele><time>2026-04-10T09:04:39.876Z</time></trkpt><trkpt lat="42.647392199301635" lon="2.821772069004196"><ele>83.33333333333333</ele><time>2026-04-10T09:04:40.876Z</time></trkpt><trkpt lat="42.64732263042545" lon="2.8215452839283337"><ele>84.0</ele><time>2026-04-10T09:04:41.876Z</time></trkpt><trkpt lat="42.647226122959815" lon="2.821334298845376"><ele>84.0</ele><time>2026-04-10T09:04:42.876Z</time></trkpt><trkpt lat="42.64713107093991" lon="2.8211213932689785"><ele>84.0</ele><time>2026-04-10T09:04:43.876Z</time></trkpt><trkpt lat="42.64703307557472" lon="2.8209119241294824"><ele>84.0</ele><time>2026-04-10T09:04:44.876Z</time></trkpt><trkpt lat="42.646937354056305" lon="2.8207188088982456"><ele>84.66666666666667</ele><time>2026-04-10T09:04:45.876Z</time></trkpt><trkpt lat="42.64684718039012" lon="2.820546546630283"><ele>85.33333333333334</ele><time>2026-04-10T09:04:46.876Z</time></trkpt><trkpt lat="42.64676057025622" lon="2.820372033462125"><ele>86.0</ele><time>2026-04-10T09:04:47.876Z</time></trkpt><trkpt lat="42.64666078246889" lon="2.8202115043523794"><ele>86.0</ele><time>2026-04-10T09:04:48.876Z</time></trkpt><trkpt lat="42.64656003443713" lon="2.8200419800768906"><ele>86.0</ele><time>2026-04-10T09:04:49.876Z</time></trkpt><trkpt lat="42.64647324549583" lon="2.8198510710312976"><ele>86.0</ele><time>2026-04-10T09:04:50.876Z</time></trkpt><trkpt lat="42.64637174528896" lon="2.8196667320988413"><ele>86.0</ele><time>2026-04-10T09:04:51.876Z</time></trkpt><trkpt lat="42.64626491957366" lon="2.819480177706217"><ele>86.0</ele><time>2026-04-10T09:04:52.876Z</time></trkpt><trkpt lat="42.646152866269425" lon="2.8192980444432085"><ele>86.0</ele><time>2026-04-10T09:04:53.876Z</time></trkpt><trkpt lat="42.646031417630155" lon="2.8191112119808275"><ele>86.0</ele><time>2026-04-10T09:04:54.876Z</time></trkpt><trkpt lat="42.64590994220775" lon="2.818925908704454"><ele>86.0</ele><time>2026-04-10T09:04:55.876Z</time></trkpt><trkpt lat="42.645785664538174" lon="2.8187401300061903"><ele>86.0</ele><time>2026-04-10T09:04:56.873Z</time></trkpt><trkpt lat="42.645656892145176" lon="2.8185519203827245"><ele>86.33333333333334</ele><time>2026-04-10T09:04:57.873Z</time></trkpt><trkpt lat="42.64552988727115" lon="2.8183657335977124"><ele>86.66666666666667</ele><time>2026-04-10T09:04:58.873Z</time></trkpt><trkpt lat="42.6454024944408" lon="2.818176852345183"><ele>87.0</ele><time>2026-04-10T09:04:59.873Z</time></trkpt><trkpt lat="42.64527613654742" lon="2.8179895053814543"><ele>87.0</ele><time>2026-04-10T09:05:00.874Z</time></trkpt><trkpt lat="42.64515032397447" lon="2.8178029670710365"><ele>87.0</ele><time>2026-04-10T09:05:01.874Z</time></trkpt><trkpt lat="42.64501139999088" lon="2.817630675201877"><ele>87.0</ele><time>2026-04-10T09:05:02.873Z</time></trkpt><trkpt lat="42.64488483010606" lon="2.817442555197661"><ele>87.66666666666667</ele><time>2026-04-10T09:05:03.874Z</time></trkpt><trkpt lat="42.64475745138366" lon="2.817254965615839"><ele>88.33333333333334</ele><time>2026-04-10T09:05:04.874Z</time></trkpt><trkpt lat="42.64464246052779" lon="2.817051228561944"><ele>89.0</ele><time>2026-04-10T09:05:05.873Z</time></trkpt><trkpt lat="42.64451485324825" lon="2.8168628076736235"><ele>88.66666666666667</ele><time>2026-04-10T09:05:06.873Z</time></trkpt><trkpt lat="42.64438671872973" lon="2.816675520534138"><ele>88.33333333333333</ele><time>2026-04-10T09:05:07.873Z</time></trkpt><trkpt lat="42.64425143190624" lon="2.816494718583307"><ele>88.0</ele><time>2026-04-10T09:05:08.873Z</time></trkpt><trkpt lat="42.644139300591014" lon="2.8162882107695424"><ele>88.0</ele><time>2026-04-10T09:05:09.873Z</time></trkpt><trkpt lat="42.64404228130054" lon="2.8160664297794775"><ele>88.0</ele><time>2026-04-10T09:05:10.873Z</time></trkpt><trkpt lat="42.6439721149763" lon="2.8158265905941433"><ele>88.0</ele><time>2026-04-10T09:05:11.873Z</time></trkpt><trkpt lat="42.64387562003356" lon="2.8156054947823215"><ele>88.66666666666666</ele><time>2026-04-10T09:05:12.873Z</time></trkpt><trkpt lat="42.64379798496004" lon="2.8153863591363133"><ele>89.33333333333333</ele><time>2026-04-10T09:05:13.873Z</time></trkpt><trkpt lat="42.6437348829745" lon="2.8151773303644356"><ele>90.0</ele><time>2026-04-10T09:05:14.873Z</time></trkpt><trkpt lat="42.643659849489715" lon="2.8149981197204244"><ele>90.0</ele><time>2026-04-10T09:05:15.873Z</time></trkpt><trkpt lat="42.643578026904486" lon="2.8148510386876313"><ele>90.0</ele><time>2026-04-10T09:05:16.873Z</time></trkpt><trkpt lat="42.6434760398788" lon="2.8147228947213474"><ele>90.0</ele><time>2026-04-10T09:05:17.873Z</time></trkpt><trkpt lat="42.643366134742614" lon="2.8146455773638746"><ele>90.0</ele><time>2026-04-10T09:05:18.873Z</time></trkpt><trkpt lat="42.643249705953" lon="2.8145487416793817"><ele>90.0</ele><time>2026-04-10T09:05:19.873Z</time></trkpt><trkpt lat="42.64313285718169" lon="2.814448317084117"><ele>90.0</ele><time>2026-04-10T09:05:20.873Z</time></trkpt><trkpt lat="42.64299670908139" lon="2.8143820264443735"><ele>90.0</ele><time>2026-04-10T09:05:21.873Z</time></trkpt><trkpt lat="42.6427229381433" lon="2.814252457984927"><ele>90.5</ele><time>2026-04-10T09:05:23.873Z</time></trkpt><trkpt lat="42.64258350750713" lon="2.814195559642531"><ele>91.0</ele><time>2026-04-10T09:05:24.873Z</time></trkpt><trkpt lat="42.64244962853632" lon="2.814134554056054"><ele>91.5</ele><time>2026-04-10T09:05:25.873Z</time></trkpt><trkpt lat="42.642314147831875" lon="2.8140729211726256"><ele>92.0</ele><time>2026-04-10T09:05:26.873Z</time></trkpt><trkpt lat="42.64216937129659" lon="2.8140136341278565"><ele>92.0</ele><time>2026-04-10T09:05:27.873Z</time></trkpt><trkpt lat="42.6420313576798" lon="2.813945399789832"><ele>92.0</ele><time>2026-04-10T09:05:28.873Z</time></trkpt><trkpt lat="42.641888616752226" lon="2.8138724045440178"><ele>92.0</ele><time>2026-04-10T09:05:29.873Z</time></trkpt><trkpt lat="42.641746428978415" lon="2.813807018788128"><ele>92.0</ele><time>2026-04-10T09:05:30.873Z</time></trkpt><trkpt lat="42.64159423208983" lon="2.8137440424183136"><ele>91.33333333333334</ele><time>2026-04-10T09:05:31.873Z</time></trkpt><trkpt lat="42.64144959077062" lon="2.813677020786488"><ele>90.66666666666667</ele><time>2026-04-10T09:05:32.873Z</time></trkpt><trkpt lat="42.64130158683066" lon="2.8136050214101385"><ele>90.0</ele><time>2026-04-10T09:05:33.873Z</time></trkpt><trkpt lat="42.64115561894061" lon="2.8135353985543037"><ele>90.66666666666667</ele><time>2026-04-10T09:05:34.873Z</time></trkpt><trkpt lat="42.64100622981942" lon="2.8134573978971433"><ele>91.33333333333334</ele><time>2026-04-10T09:05:35.873Z</time></trkpt><trkpt lat="42.640859201794534" lon="2.8133837599329894"><ele>92.0</ele><time>2026-04-10T09:05:36.873Z</time></trkpt><trkpt lat="42.64070958385785" lon="2.813305832210941"><ele>92.0</ele><time>2026-04-10T09:05:37.873Z</time></trkpt><trkpt lat="42.64057781492187" lon="2.813193541165644"><ele>92.0</ele><time>2026-04-10T09:05:38.873Z</time></trkpt><trkpt lat="42.64043748455309" lon="2.8130817962092585"><ele>92.0</ele><time>2026-04-10T09:05:39.873Z</time></trkpt><trkpt lat="42.64029900747207" lon="2.8129634804789103"><ele>92.0</ele><time>2026-04-10T09:05:40.873Z</time></trkpt><trkpt lat="42.64015227182742" lon="2.812854444263624"><ele>92.0</ele><time>2026-04-10T09:05:41.873Z</time></trkpt><trkpt lat="42.64001022462439" lon="2.812730063125454"><ele>92.0</ele><time>2026-04-10T09:05:42.873Z</time></trkpt><trkpt lat="42.63987412858369" lon="2.8125835167788864"><ele>92.0</ele><time>2026-04-10T09:05:43.873Z</time></trkpt><trkpt lat="42.639718179630336" lon="2.8124717906950307"><ele>92.0</ele><time>2026-04-10T09:05:44.873Z</time></trkpt><trkpt lat="42.639569117525134" lon="2.8123461548022615"><ele>92.0</ele><time>2026-04-10T09:05:45.873Z</time></trkpt><trkpt lat="42.63941501504657" lon="2.8122248164128205"><ele>91.66666666666667</ele><time>2026-04-10T09:05:46.873Z</time></trkpt><trkpt lat="42.63926018377559" lon="2.812103485827826"><ele>91.33333333333333</ele><time>2026-04-10T09:05:47.873Z</time></trkpt><trkpt lat="42.63910310697146" lon="2.8119887878287906"><ele>91.0</ele><time>2026-04-10T09:05:48.873Z</time></trkpt><trkpt lat="42.6389383275923" lon="2.81188259181492"><ele>91.0</ele><time>2026-04-10T09:05:49.873Z</time></trkpt><trkpt lat="42.638770960871064" lon="2.8117746455320445"><ele>91.0</ele><time>2026-04-10T09:05:50.873Z</time></trkpt><trkpt lat="42.638611586056044" lon="2.8116581178411004"><ele>91.0</ele><time>2026-04-10T09:05:51.873Z</time></trkpt><trkpt lat="42.63844960771037" lon="2.811540094029357"><ele>91.0</ele><time>2026-04-10T09:05:52.873Z</time></trkpt><trkpt lat="42.638285519315815" lon="2.8114327844811724"><ele>91.0</ele><time>2026-04-10T09:05:53.873Z</time></trkpt><trkpt lat="42.63812534013633" lon="2.8113218301411425"><ele>91.0</ele><time>2026-04-10T09:05:54.873Z</time></trkpt><trkpt lat="42.637965409266265" lon="2.811213062823574"><ele>91.0</ele><time>2026-04-10T09:05:55.873Z</time></trkpt><trkpt lat="42.63781042963827" lon="2.8110984710152134"><ele>91.0</ele><time>2026-04-10T09:05:56.873Z</time></trkpt><trkpt lat="42.63765560426419" lon="2.810984735706929"><ele>91.0</ele><time>2026-04-10T09:05:57.873Z</time></trkpt><trkpt lat="42.6375069397788" lon="2.810864360920999"><ele>90.66666666666666</ele><time>2026-04-10T09:05:58.873Z</time></trkpt><trkpt lat="42.63738627499283" lon="2.810706300198285"><ele>90.33333333333333</ele><time>2026-04-10T09:05:59.873Z</time></trkpt><trkpt lat="42.63725947709442" lon="2.8105450504531126"><ele>90.0</ele><time>2026-04-10T09:06:00.873Z</time></trkpt><trkpt lat="42.63712980545945" lon="2.8103796289665075"><ele>90.0</ele><time>2026-04-10T09:06:01.873Z</time></trkpt><trkpt lat="42.63699891779167" lon="2.8102126560808194"><ele>90.0</ele><time>2026-04-10T09:06:02.873Z</time></trkpt><trkpt lat="42.63686255054441" lon="2.8100601936439924"><ele>90.0</ele><time>2026-04-10T09:06:03.873Z</time></trkpt><trkpt lat="42.63672975150523" lon="2.809896171030664"><ele>90.66666666666667</ele><time>2026-04-10T09:06:04.873Z</time></trkpt><trkpt lat="42.636594780532455" lon="2.8097377770075314"><ele>91.33333333333334</ele><time>2026-04-10T09:06:05.873Z</time></trkpt><trkpt lat="42.63645066850999" lon="2.809596416294079"><ele>92.0</ele><time>2026-04-10T09:06:06.873Z</time></trkpt><trkpt lat="42.636299283399175" lon="2.809461414391939"><ele>92.0</ele><time>2026-04-10T09:06:07.873Z</time></trkpt><trkpt lat="42.63614650869926" lon="2.8093313144564362"><ele>92.0</ele><time>2026-04-10T09:06:08.873Z</time></trkpt><trkpt lat="42.63599807762799" lon="2.809191946722159"><ele>92.0</ele><time>2026-04-10T09:06:09.873Z</time></trkpt><trkpt lat="42.635831465536114" lon="2.8090860681861005"><ele>92.33333333333334</ele><time>2026-04-10T09:06:10.873Z</time></trkpt><trkpt lat="42.635671164006126" lon="2.808967998969123"><ele>92.66666666666667</ele><time>2026-04-10T09:06:11.873Z</time></trkpt><trkpt lat="42.63552395327088" lon="2.808851784619009"><ele>93.0</ele><time>2026-04-10T09:06:12.873Z</time></trkpt><trkpt lat="42.63540357940468" lon="2.8087352208266534"><ele>92.75</ele><time>2026-04-10T09:06:13.873Z</time></trkpt><trkpt lat="42.6352799376007" lon="2.8086582422544084"><ele>92.5</ele><time>2026-04-10T09:06:14.873Z</time></trkpt><trkpt lat="42.63517534136784" lon="2.808560711046304"><ele>92.25</ele><time>2026-04-10T09:06:15.873Z</time></trkpt><trkpt lat="42.63509481205278" lon="2.8084388570658403"><ele>92.0</ele><time>2026-04-10T09:06:16.873Z</time></trkpt><trkpt lat="42.63501461694803" lon="2.8083502402634815"><ele>92.6</ele><time>2026-04-10T09:06:17.873Z</time></trkpt><trkpt lat="42.63497963412029" lon="2.808256456281446"><ele>93.19999999999999</ele><time>2026-04-10T09:06:18.873Z</time></trkpt><trkpt lat="42.63495022001564" lon="2.8081498610323865"><ele>93.8</ele><time>2026-04-10T09:06:20.873Z</time></trkpt><trkpt lat="42.63482860463552" lon="2.808130046683085"><ele>94.4</ele><time>2026-04-10T09:06:22.873Z</time></trkpt><trkpt lat="42.634740627074066" lon="2.8081545772489576"><ele>95.0</ele><time>2026-04-10T09:06:23.873Z</time></trkpt><trkpt lat="42.63465835424826" lon="2.8081404485082517"><ele>95.0</ele><time>2026-04-10T09:06:24.873Z</time></trkpt><trkpt lat="42.63458871987285" lon="2.8080548020017115"><ele>95.0</ele><time>2026-04-10T09:06:25.873Z</time></trkpt><trkpt lat="42.63449365159937" lon="2.8079897688122557"><ele>95.0</ele><time>2026-04-10T09:06:26.873Z</time></trkpt><trkpt lat="42.63440195807472" lon="2.807908859419828"><ele>95.0</ele><time>2026-04-10T09:06:27.873Z</time></trkpt><trkpt lat="42.63430012942171" lon="2.807839728074675"><ele>95.0</ele><time>2026-04-10T09:06:28.873Z</time></trkpt><trkpt lat="42.63419161450167" lon="2.8077730699468035"><ele>95.0</ele><time>2026-04-10T09:06:29.873Z</time></trkpt><trkpt lat="42.634087639576926" lon="2.807701819795028"><ele>95.0</ele><time>2026-04-10T09:06:30.873Z</time></trkpt><trkpt lat="42.6339920698856" lon="2.8076241116520086"><ele>95.0</ele><time>2026-04-10T09:06:31.873Z</time></trkpt><trkpt lat="42.633916115431646" lon="2.8075746895590985"><ele>95.0</ele><time>2026-04-10T09:06:32.874Z</time></trkpt><trkpt lat="42.63386124407092" lon="2.8075164097973064"><ele>95.0</ele><time>2026-04-10T09:06:34.874Z</time></trkpt><trkpt lat="42.63377343058378" lon="2.8074805158745364"><ele>95.0</ele><time>2026-04-10T09:06:53.874Z</time></trkpt><trkpt lat="42.6337160295929" lon="2.80744055303008"><ele>95.0</ele><time>2026-04-10T09:06:54.874Z</time></trkpt><trkpt lat="42.63365530649995" lon="2.807399918735159"><ele>95.0</ele><time>2026-04-10T09:06:55.874Z</time></trkpt><trkpt lat="42.63358961648819" lon="2.8073598397717827"><ele>95.0</ele><time>2026-04-10T09:06:56.874Z</time></trkpt><trkpt lat="42.63351058261011" lon="2.8073161364141104"><ele>95.0</ele><time>2026-04-10T09:06:57.874Z</time></trkpt><trkpt lat="42.633424614602575" lon="2.807251704820117"><ele>95.0</ele><time>2026-04-10T09:06:58.874Z</time></trkpt><trkpt lat="42.633323841089904" lon="2.8071928096795955"><ele>94.5</ele><time>2026-04-10T09:06:59.874Z</time></trkpt><trkpt lat="42.63321377162487" lon="2.807121123282661"><ele>94.0</ele><time>2026-04-10T09:07:00.874Z</time></trkpt><trkpt lat="42.63310180085223" lon="2.807037284275098"><ele>93.5</ele><time>2026-04-10T09:07:01.874Z</time></trkpt><trkpt lat="42.632982894068675" lon="2.8069567374488154"><ele>93.0</ele><time>2026-04-10T09:07:02.87Z</time></trkpt><trkpt lat="42.63285420565227" lon="2.8068706242790418"><ele>94.0</ele><time>2026-04-10T09:07:03.871Z</time></trkpt><trkpt lat="42.6327191137454" lon="2.806784238757353"><ele>95.0</ele><time>2026-04-10T09:07:04.871Z</time></trkpt><trkpt lat="42.6325761235422" lon="2.8067184254409017"><ele>96.0</ele><time>2026-04-10T09:07:05.871Z</time></trkpt><trkpt lat="42.632431239938384" lon="2.8066355480297696"><ele>96.0</ele><time>2026-04-10T09:07:06.871Z</time></trkpt><trkpt lat="42.63228374785645" lon="2.8065676432980577"><ele>96.0</ele><time>2026-04-10T09:07:07.871Z</time></trkpt><trkpt lat="42.63213371581038" lon="2.806476946893546"><ele>96.0</ele><time>2026-04-10T09:07:08.871Z</time></trkpt><trkpt lat="42.631978335484504" lon="2.8063874287759103"><ele>95.66666666666667</ele><time>2026-04-10T09:07:09.87Z</time></trkpt><trkpt lat="42.631816890613734" lon="2.8063063561242254"><ele>95.33333333333334</ele><time>2026-04-10T09:07:10.87Z</time></trkpt><trkpt lat="42.63165092630791" lon="2.806226895949031"><ele>95.0</ele><time>2026-04-10T09:07:11.871Z</time></trkpt><trkpt lat="42.63148272143112" lon="2.8061507447342953"><ele>95.0</ele><time>2026-04-10T09:07:12.871Z</time></trkpt><trkpt lat="42.63131543366819" lon="2.8060701712106177"><ele>95.0</ele><time>2026-04-10T09:07:13.871Z</time></trkpt><trkpt lat="42.631146035200935" lon="2.805986510401859"><ele>95.0</ele><time>2026-04-10T09:07:14.871Z</time></trkpt><trkpt lat="42.630975165615375" lon="2.805903993248005"><ele>95.33333333333334</ele><time>2026-04-10T09:07:15.87Z</time></trkpt><trkpt lat="42.63079920786964" lon="2.805821161628974"><ele>95.66666666666667</ele><time>2026-04-10T09:07:16.87Z</time></trkpt><trkpt lat="42.630630959084634" lon="2.8057259387605638"><ele>96.0</ele><time>2026-04-10T09:07:17.87Z</time></trkpt><trkpt lat="42.63045775271629" lon="2.805623003411214"><ele>96.33333333333334</ele><time>2026-04-10T09:07:18.87Z</time></trkpt><trkpt lat="42.630291500335815" lon="2.805510663166423"><ele>96.66666666666667</ele><time>2026-04-10T09:07:19.87Z</time></trkpt><trkpt lat="42.630137469955294" lon="2.8053706071674314"><ele>97.0</ele><time>2026-04-10T09:07:20.87Z</time></trkpt><trkpt lat="42.62999261198964" lon="2.8052168501098405"><ele>97.0</ele><time>2026-04-10T09:07:21.87Z</time></trkpt><trkpt lat="42.629842477020844" lon="2.8050643888090665"><ele>97.0</ele><time>2026-04-10T09:07:22.87Z</time></trkpt><trkpt lat="42.62969776320062" lon="2.8049070572225356"><ele>97.0</ele><time>2026-04-10T09:07:23.87Z</time></trkpt><trkpt lat="42.629551513673846" lon="2.8047496804930176"><ele>97.33333333333334</ele><time>2026-04-10T09:07:24.87Z</time></trkpt><trkpt lat="42.629408841862634" lon="2.8045937409179382"><ele>97.66666666666666</ele><time>2026-04-10T09:07:25.87Z</time></trkpt><trkpt lat="42.62928235722275" lon="2.8044171750804874"><ele>98.0</ele><time>2026-04-10T09:07:26.87Z</time></trkpt><trkpt lat="42.62916349763847" lon="2.8042365831612424"><ele>98.0</ele><time>2026-04-10T09:07:27.87Z</time></trkpt><trkpt lat="42.62901979929656" lon="2.8040736437025853"><ele>98.0</ele><time>2026-04-10T09:07:28.87Z</time></trkpt><trkpt lat="42.62888298698866" lon="2.8038986471221032"><ele>98.0</ele><time>2026-04-10T09:07:29.87Z</time></trkpt><trkpt lat="42.62873603600581" lon="2.8037442624469513"><ele>98.66666666666666</ele><time>2026-04-10T09:07:30.87Z</time></trkpt><trkpt lat="42.62860122655295" lon="2.803596536844644"><ele>99.33333333333334</ele><time>2026-04-10T09:07:31.87Z</time></trkpt><trkpt lat="42.62848347575103" lon="2.803451527358428"><ele>100.0</ele><time>2026-04-10T09:07:32.87Z</time></trkpt><trkpt lat="42.62836008020073" lon="2.8033478526091664"><ele>100.0</ele><time>2026-04-10T09:07:33.87Z</time></trkpt><trkpt lat="42.62824581779334" lon="2.803233095537932"><ele>100.0</ele><time>2026-04-10T09:07:34.87Z</time></trkpt><trkpt lat="42.62814071225484" lon="2.8031224100022736"><ele>100.0</ele><time>2026-04-10T09:07:35.87Z</time></trkpt><trkpt lat="42.628034126071626" lon="2.803028712071112"><ele>100.0</ele><time>2026-04-10T09:07:36.87Z</time></trkpt><trkpt lat="42.627936142059845" lon="2.802920916915544"><ele>100.0</ele><time>2026-04-10T09:07:37.87Z</time></trkpt><trkpt lat="42.627849349129164" lon="2.8027961800886945"><ele>100.0</ele><time>2026-04-10T09:07:38.87Z</time></trkpt><trkpt lat="42.6277681978974" lon="2.802658476227229"><ele>100.0</ele><time>2026-04-10T09:07:39.87Z</time></trkpt><trkpt lat="42.62768006786864" lon="2.802535253534446"><ele>100.0</ele><time>2026-04-10T09:07:40.87Z</time></trkpt><trkpt lat="42.627595891274254" lon="2.8024088247032855"><ele>100.0</ele><time>2026-04-10T09:07:41.87Z</time></trkpt><trkpt lat="42.627516438056794" lon="2.8022759667494634"><ele>100.0</ele><time>2026-04-10T09:07:42.87Z</time></trkpt><trkpt lat="42.6274349224435" lon="2.8021425876472987"><ele>100.0</ele><time>2026-04-10T09:07:43.87Z</time></trkpt><trkpt lat="42.62734490153156" lon="2.8020124431962894"><ele>100.0</ele><time>2026-04-10T09:07:44.87Z</time></trkpt><trkpt lat="42.62727220299327" lon="2.8018709436401656"><ele>100.0</ele><time>2026-04-10T09:07:45.87Z</time></trkpt><trkpt lat="42.62718898936993" lon="2.8017290627889957"><ele>100.0</ele><time>2026-04-10T09:07:46.87Z</time></trkpt><trkpt lat="42.627101088485226" lon="2.8015930858581335"><ele>100.0</ele><time>2026-04-10T09:07:47.87Z</time></trkpt><trkpt lat="42.62701513953231" lon="2.801456415482779"><ele>100.0</ele><time>2026-04-10T09:07:48.87Z</time></trkpt><trkpt lat="42.62693221183335" lon="2.8013131924276387"><ele>100.25</ele><time>2026-04-10T09:07:49.87Z</time></trkpt><trkpt lat="42.626848802860394" lon="2.8011709079608584"><ele>100.5</ele><time>2026-04-10T09:07:50.87Z</time></trkpt><trkpt lat="42.62675447175625" lon="2.8010399401003587"><ele>100.75</ele><time>2026-04-10T09:07:51.87Z</time></trkpt><trkpt lat="42.626661471445495" lon="2.8009043901380095"><ele>101.0</ele><time>2026-04-10T09:07:52.87Z</time></trkpt><trkpt lat="42.62656138878248" lon="2.800776735853715"><ele>101.0</ele><time>2026-04-10T09:07:53.87Z</time></trkpt><trkpt lat="42.62644793654606" lon="2.800661340726396"><ele>101.0</ele><time>2026-04-10T09:07:54.87Z</time></trkpt><trkpt lat="42.62632679289599" lon="2.800550807545443"><ele>101.0</ele><time>2026-04-10T09:07:55.87Z</time></trkpt><trkpt lat="42.62620725224505" lon="2.800442077569839"><ele>101.0</ele><time>2026-04-10T09:07:56.87Z</time></trkpt><trkpt lat="42.62607638242404" lon="2.800343310031456"><ele>101.66666666666666</ele><time>2026-04-10T09:07:57.87Z</time></trkpt><trkpt lat="42.62593710196752" lon="2.8002529681087656"><ele>102.33333333333334</ele><time>2026-04-10T09:07:58.87Z</time></trkpt><trkpt lat="42.62580289691448" lon="2.80015906308496"><ele>103.0</ele><time>2026-04-10T09:07:59.87Z</time></trkpt><trkpt lat="42.62566104109819" lon="2.8000694383484617"><ele>102.33333333333334</ele><time>2026-04-10T09:08:00.87Z</time></trkpt><trkpt lat="42.625517268163634" lon="2.7999766389413647"><ele>101.66666666666666</ele><time>2026-04-10T09:08:01.87Z</time></trkpt><trkpt lat="42.62537684970749" lon="2.7998834266034707"><ele>101.0</ele><time>2026-04-10T09:08:02.871Z</time></trkpt><trkpt lat="42.62523317984572" lon="2.799788595581151"><ele>101.0</ele><time>2026-04-10T09:08:03.871Z</time></trkpt><trkpt lat="42.6250859957929" lon="2.7997019751648384"><ele>101.0</ele><time>2026-04-10T09:08:04.871Z</time></trkpt><trkpt lat="42.624941423207915" lon="2.7996100607620966"><ele>101.0</ele><time>2026-04-10T09:08:05.871Z</time></trkpt><trkpt lat="42.62479860009536" lon="2.7995113576513098"><ele>101.0</ele><time>2026-04-10T09:08:06.871Z</time></trkpt><trkpt lat="42.62466247151786" lon="2.7994027620945623"><ele>101.0</ele><time>2026-04-10T09:08:07.871Z</time></trkpt><trkpt lat="42.624537684150816" lon="2.799277857821913"><ele>101.0</ele><time>2026-04-10T09:08:08.871Z</time></trkpt><trkpt lat="42.62442832072267" lon="2.7991299826709044"><ele>101.66666666666666</ele><time>2026-04-10T09:08:09.871Z</time></trkpt><trkpt lat="42.624330291475765" lon="2.7989695901089346"><ele>102.33333333333334</ele><time>2026-04-10T09:08:10.871Z</time></trkpt><trkpt lat="42.62425909729161" lon="2.7987859082555455"><ele>103.0</ele><time>2026-04-10T09:08:11.871Z</time></trkpt><trkpt lat="42.62418378994865" lon="2.798607089114448"><ele>102.5</ele><time>2026-04-10T09:08:12.871Z</time></trkpt><trkpt lat="42.62410397204775" lon="2.7984405124758718"><ele>102.0</ele><time>2026-04-10T09:08:13.871Z</time></trkpt><trkpt lat="42.6240489000767" lon="2.7982744122600742"><ele>101.5</ele><time>2026-04-10T09:08:14.871Z</time></trkpt><trkpt lat="42.62398380473499" lon="2.7981186245847187"><ele>101.0</ele><time>2026-04-10T09:08:15.871Z</time></trkpt><trkpt lat="42.623928416148" lon="2.797963487101074"><ele>101.0</ele><time>2026-04-10T09:08:16.871Z</time></trkpt><trkpt lat="42.62385970757595" lon="2.7978139133975786"><ele>101.0</ele><time>2026-04-10T09:08:17.871Z</time></trkpt><trkpt lat="42.6237875310614" lon="2.797660382295215"><ele>101.0</ele><time>2026-04-10T09:08:18.871Z</time></trkpt><trkpt lat="42.62372082622654" lon="2.797504497898593"><ele>101.0</ele><time>2026-04-10T09:08:19.871Z</time></trkpt><trkpt lat="42.623657523076034" lon="2.797343268281773"><ele>101.25</ele><time>2026-04-10T09:08:20.871Z</time></trkpt><trkpt lat="42.62359339773369" lon="2.797180767155302"><ele>101.5</ele><time>2026-04-10T09:08:21.871Z</time></trkpt><trkpt lat="42.62352587434248" lon="2.7970165536287475"><ele>101.75</ele><time>2026-04-10T09:08:22.871Z</time></trkpt><trkpt lat="42.623459085963326" lon="2.7968479563798136"><ele>102.0</ele><time>2026-04-10T09:08:23.871Z</time></trkpt><trkpt lat="42.62341568906361" lon="2.796664119418284"><ele>102.0</ele><time>2026-04-10T09:08:24.871Z</time></trkpt><trkpt lat="42.623359591675644" lon="2.7964880857908083"><ele>102.0</ele><time>2026-04-10T09:08:25.871Z</time></trkpt><trkpt lat="42.623306241979535" lon="2.7963083847887873"><ele>102.0</ele><time>2026-04-10T09:08:26.871Z</time></trkpt><trkpt lat="42.62325382193944" lon="2.7961217981294793"><ele>102.0</ele><time>2026-04-10T09:08:27.871Z</time></trkpt><trkpt lat="42.62320407881272" lon="2.7959386004502726"><ele>102.25</ele><time>2026-04-10T09:08:28.871Z</time></trkpt><trkpt lat="42.62315497365452" lon="2.7957550321346574"><ele>102.5</ele><time>2026-04-10T09:08:29.871Z</time></trkpt><trkpt lat="42.62310701313443" lon="2.795575742391465"><ele>102.75</ele><time>2026-04-10T09:08:30.871Z</time></trkpt><trkpt lat="42.62306083649173" lon="2.7954113229479587"><ele>103.0</ele><time>2026-04-10T09:08:31.871Z</time></trkpt><trkpt lat="42.62301855002411" lon="2.795267175302919"><ele>102.80000000000001</ele><time>2026-04-10T09:08:32.871Z</time></trkpt><trkpt lat="42.62298275562752" lon="2.795145159702485"><ele>102.6</ele><time>2026-04-10T09:08:33.871Z</time></trkpt><trkpt lat="42.62294696885254" lon="2.7950269138077615"><ele>102.4</ele><time>2026-04-10T09:08:34.871Z</time></trkpt><trkpt lat="42.62291294156442" lon="2.7949183711802927"><ele>102.19999999999999</ele><time>2026-04-10T09:08:35.871Z</time></trkpt><trkpt lat="42.6227540273542" lon="2.7948678421592885"><ele>102.0</ele><time>2026-04-10T09:08:36.871Z</time></trkpt><trkpt lat="42.62266525386842" lon="2.7947907184060323"><ele>102.5</ele><time>2026-04-10T09:08:37.871Z</time></trkpt><trkpt lat="42.622570546709014" lon="2.794710754405401"><ele>103.0</ele><time>2026-04-10T09:08:38.871Z</time></trkpt><trkpt lat="42.62247011105661" lon="2.794626210178729"><ele>103.5</ele><time>2026-04-10T09:08:39.871Z</time></trkpt><trkpt lat="42.622365124185386" lon="2.7945389928114888"><ele>104.0</ele><time>2026-04-10T09:08:40.871Z</time></trkpt><trkpt lat="42.62225600281239" lon="2.7944503432730756"><ele>104.0</ele><time>2026-04-10T09:08:41.871Z</time></trkpt><trkpt lat="42.622141348454804" lon="2.7943730600922043"><ele>104.0</ele><time>2026-04-10T09:08:42.871Z</time></trkpt><trkpt lat="42.62202920667868" lon="2.794276877551174"><ele>104.0</ele><time>2026-04-10T09:08:43.871Z</time></trkpt><trkpt lat="42.62191384352399" lon="2.794181978063642"><ele>104.0</ele><time>2026-04-10T09:08:44.871Z</time></trkpt><trkpt lat="42.621801162478604" lon="2.7940753222867527"><ele>104.25</ele><time>2026-04-10T09:08:45.871Z</time></trkpt><trkpt lat="42.62168230163759" lon="2.793975484764401"><ele>104.5</ele><time>2026-04-10T09:08:46.871Z</time></trkpt><trkpt lat="42.62156727158704" lon="2.793872350774388"><ele>104.75</ele><time>2026-04-10T09:08:47.871Z</time></trkpt><trkpt lat="42.621448761619654" lon="2.793776248970654"><ele>105.0</ele><time>2026-04-10T09:08:48.871Z</time></trkpt><trkpt lat="42.621317205248296" lon="2.793689725990362"><ele>105.0</ele><time>2026-04-10T09:08:49.871Z</time></trkpt><trkpt lat="42.62118670422045" lon="2.7935848321582175"><ele>105.0</ele><time>2026-04-10T09:08:50.871Z</time></trkpt><trkpt lat="42.62104934711968" lon="2.79350191652157"><ele>105.0</ele><time>2026-04-10T09:08:51.871Z</time></trkpt><trkpt lat="42.62090820061041" lon="2.7934254067540842"><ele>106.0</ele><time>2026-04-10T09:08:52.871Z</time></trkpt><trkpt lat="42.62076575848856" lon="2.7933558701182792"><ele>107.0</ele><time>2026-04-10T09:08:53.871Z</time></trkpt><trkpt lat="42.62062756108588" lon="2.7932778708027155"><ele>108.0</ele><time>2026-04-10T09:08:54.871Z</time></trkpt><trkpt lat="42.62049673587175" lon="2.793174655166743"><ele>108.0</ele><time>2026-04-10T09:08:55.871Z</time></trkpt><trkpt lat="42.620384439956574" lon="2.793040957192046"><ele>108.0</ele><time>2026-04-10T09:08:56.871Z</time></trkpt><trkpt lat="42.620270705506215" lon="2.7928987736706743"><ele>108.0</ele><time>2026-04-10T09:08:57.871Z</time></trkpt><trkpt lat="42.6201565557551" lon="2.7927532714786865"><ele>108.66666666666666</ele><time>2026-04-10T09:08:58.871Z</time></trkpt><trkpt lat="42.62002799165512" lon="2.79262117642439"><ele>109.33333333333333</ele><time>2026-04-10T09:08:59.871Z</time></trkpt><trkpt lat="42.61991890537291" lon="2.7924660749076438"><ele>110.0</ele><time>2026-04-10T09:09:00.871Z</time></trkpt><trkpt lat="42.61979303345273" lon="2.7923239515769818"><ele>110.0</ele><time>2026-04-10T09:09:01.871Z</time></trkpt><trkpt lat="42.61965911034987" lon="2.792192065445486"><ele>110.0</ele><time>2026-04-10T09:09:02.871Z</time></trkpt><trkpt lat="42.61951772852728" lon="2.7920722064190024"><ele>110.0</ele><time>2026-04-10T09:09:03.871Z</time></trkpt><trkpt lat="42.619372036219765" lon="2.791957863475574"><ele>110.0</ele><time>2026-04-10T09:09:04.871Z</time></trkpt><trkpt lat="42.61922312117849" lon="2.791841108614353"><ele>110.0</ele><time>2026-04-10T09:09:05.871Z</time></trkpt><trkpt lat="42.619073668043875" lon="2.791731008612248"><ele>110.0</ele><time>2026-04-10T09:09:06.871Z</time></trkpt><trkpt lat="42.61893119934526" lon="2.7916262298509427"><ele>110.0</ele><time>2026-04-10T09:09:07.871Z</time></trkpt><trkpt lat="42.618806229988344" lon="2.791526280815349"><ele>110.0</ele><time>2026-04-10T09:09:08.868Z</time></trkpt><trkpt lat="42.61869346689192" lon="2.791430893962515"><ele>110.0</ele><time>2026-04-10T09:09:09.868Z</time></trkpt><trkpt lat="42.618595495570396" lon="2.7913361598924413"><ele>110.0</ele><time>2026-04-10T09:09:10.868Z</time></trkpt><trkpt lat="42.618505546925974" lon="2.7912484248341443"><ele>110.25</ele><time>2026-04-10T09:09:11.868Z</time></trkpt><trkpt lat="42.618414560964425" lon="2.791163793403943"><ele>110.5</ele><time>2026-04-10T09:09:12.868Z</time></trkpt><trkpt lat="42.61832221548587" lon="2.7910786625650905"><ele>110.75</ele><time>2026-04-10T09:09:13.868Z</time></trkpt><trkpt lat="42.61823389129913" lon="2.790977843423832"><ele>111.0</ele><time>2026-04-10T09:09:14.869Z</time></trkpt><trkpt lat="42.61814672070733" lon="2.790878706462706"><ele>111.0</ele><time>2026-04-10T09:09:15.868Z</time></trkpt><trkpt lat="42.61807141381594" lon="2.790755928442258"><ele>111.0</ele><time>2026-04-10T09:09:16.868Z</time></trkpt><trkpt lat="42.618009614572394" lon="2.790632034858502"><ele>111.0</ele><time>2026-04-10T09:09:17.868Z</time></trkpt><trkpt lat="42.61795258712663" lon="2.7905339955119204"><ele>111.0</ele><time>2026-04-10T09:09:18.868Z</time></trkpt><trkpt lat="42.61789536692423" lon="2.790440396671958"><ele>111.0</ele><time>2026-04-10T09:09:19.868Z</time></trkpt><trkpt lat="42.61784958193421" lon="2.7903682219803745"><ele>111.16666666666667</ele><time>2026-04-10T09:09:20.868Z</time></trkpt><trkpt lat="42.617802810018205" lon="2.7902917201382027"><ele>111.33333333333334</ele><time>2026-04-10T09:09:22.868Z</time></trkpt><trkpt lat="42.61772006598531" lon="2.7902565073867165"><ele>111.5</ele><time>2026-04-10T09:09:31.868Z</time></trkpt><trkpt lat="42.6176430587263" lon="2.7902332159735406"><ele>111.66666666666667</ele><time>2026-04-10T09:09:32.868Z</time></trkpt><trkpt lat="42.617551548329324" lon="2.7902098228722934"><ele>111.83333333333334</ele><time>2026-04-10T09:09:33.868Z</time></trkpt><trkpt lat="42.617452594502204" lon="2.790152529633133"><ele>112.0</ele><time>2026-04-10T09:09:34.868Z</time></trkpt><trkpt lat="42.61736183495432" lon="2.79008067077556"><ele>112.00000000000001</ele><time>2026-04-10T09:09:35.868Z</time></trkpt><trkpt lat="42.61728492308559" lon="2.7900179007257417"><ele>112.0</ele><time>2026-04-10T09:09:36.868Z</time></trkpt><trkpt lat="42.61722158728888" lon="2.789958996066149"><ele>112.0</ele><time>2026-04-10T09:09:37.868Z</time></trkpt><trkpt lat="42.61716630035099" lon="2.789912337471025"><ele>112.0</ele><time>2026-04-10T09:09:38.868Z</time></trkpt><trkpt lat="42.617109294428396" lon="2.789858342393041"><ele>112.00000000000001</ele><time>2026-04-10T09:09:39.868Z</time></trkpt><trkpt lat="42.61704242284535" lon="2.7897962147970436"><ele>112.0</ele><time>2026-04-10T09:09:40.868Z</time></trkpt><trkpt lat="42.6169850987945" lon="2.7897023359031388"><ele>112.25</ele><time>2026-04-10T09:09:41.868Z</time></trkpt><trkpt lat="42.61690739688649" lon="2.7896107499827507"><ele>112.5</ele><time>2026-04-10T09:09:42.868Z</time></trkpt><trkpt lat="42.61683646721614" lon="2.7894859580487466"><ele>112.75</ele><time>2026-04-10T09:09:43.868Z</time></trkpt><trkpt lat="42.61675898964362" lon="2.789355544160641"><ele>113.0</ele><time>2026-04-10T09:09:44.868Z</time></trkpt><trkpt lat="42.61669261938456" lon="2.7892017429199947"><ele>113.0</ele><time>2026-04-10T09:09:45.868Z</time></trkpt><trkpt lat="42.61661068354592" lon="2.7890589316690515"><ele>113.0</ele><time>2026-04-10T09:09:46.868Z</time></trkpt><trkpt lat="42.616523716206416" lon="2.788907350704587"><ele>113.0</ele><time>2026-04-10T09:09:47.868Z</time></trkpt><trkpt lat="42.61643393057099" lon="2.7887579129096447"><ele>113.0</ele><time>2026-04-10T09:09:48.868Z</time></trkpt><trkpt lat="42.61633771502078" lon="2.788605744710135"><ele>113.25</ele><time>2026-04-10T09:09:49.868Z</time></trkpt><trkpt lat="42.6162304050356" lon="2.78846769031628"><ele>113.5</ele><time>2026-04-10T09:09:50.868Z</time></trkpt><trkpt lat="42.616144065051486" lon="2.7883186520404357"><ele>113.75</ele><time>2026-04-10T09:09:51.868Z</time></trkpt><trkpt lat="42.6160579850585" lon="2.788188801057028"><ele>114.0</ele><time>2026-04-10T09:09:52.868Z</time></trkpt><trkpt lat="42.61598273886477" lon="2.7880736184519397"><ele>114.4</ele><time>2026-04-10T09:09:53.868Z</time></trkpt><trkpt lat="42.61592134878672" lon="2.787978196321172"><ele>114.80000000000001</ele><time>2026-04-10T09:09:54.868Z</time></trkpt><trkpt lat="42.61587619504479" lon="2.7879062685102776"><ele>115.19999999999999</ele><time>2026-04-10T09:09:55.868Z</time></trkpt><trkpt lat="42.61586685157896" lon="2.787779682481825"><ele>115.6</ele><time>2026-04-10T09:09:58.868Z</time></trkpt><trkpt lat="42.61598172080123" lon="2.7876372240132974"><ele>116.0</ele><time>2026-04-10T09:10:00.868Z</time></trkpt><trkpt lat="42.616044625004584" lon="2.787577273033901"><ele>115.99999999999999</ele><time>2026-04-10T09:10:01.868Z</time></trkpt><trkpt lat="42.61611177839589" lon="2.7875199129696253"><ele>116.0</ele><time>2026-04-10T09:10:02.868Z</time></trkpt><trkpt lat="42.616177449277565" lon="2.787456048853798"><ele>116.0</ele><time>2026-04-10T09:10:03.868Z</time></trkpt><trkpt lat="42.61622215829146" lon="2.787370033217403"><ele>116.0</ele><time>2026-04-10T09:10:04.868Z</time></trkpt><trkpt lat="42.616227105068766" lon="2.787274534848138"><ele>115.99999999999999</ele><time>2026-04-10T09:10:05.868Z</time></trkpt><trkpt lat="42.61618359243041" lon="2.7871716002367757"><ele>116.0</ele><time>2026-04-10T09:10:06.868Z</time></trkpt><trkpt lat="42.61614529719459" lon="2.7870619518602897"><ele>116.0</ele><time>2026-04-10T09:10:07.868Z</time></trkpt><trkpt lat="42.61610322120759" lon="2.7869449905000394"><ele>116.0</ele><time>2026-04-10T09:10:08.868Z</time></trkpt><trkpt lat="42.61606365447511" lon="2.786823140651274"><ele>116.0</ele><time>2026-04-10T09:10:09.868Z</time></trkpt><trkpt lat="42.61602692860268" lon="2.786689786973337"><ele>116.0</ele><time>2026-04-10T09:10:10.868Z</time></trkpt><trkpt lat="42.615983350375785" lon="2.7865593737429832"><ele>116.0</ele><time>2026-04-10T09:10:11.868Z</time></trkpt><trkpt lat="42.61593942841498" lon="2.786424335388247"><ele>116.25</ele><time>2026-04-10T09:10:12.868Z</time></trkpt><trkpt lat="42.61589412091361" lon="2.786284451965704"><ele>116.5</ele><time>2026-04-10T09:10:13.868Z</time></trkpt><trkpt lat="42.61584925799373" lon="2.786133872127961"><ele>116.75</ele><time>2026-04-10T09:10:14.868Z</time></trkpt><trkpt lat="42.615803985948695" lon="2.7859864130605474"><ele>117.0</ele><time>2026-04-10T09:10:15.868Z</time></trkpt><trkpt lat="42.61576371520684" lon="2.7858297993603447"><ele>117.5</ele><time>2026-04-10T09:10:16.868Z</time></trkpt><trkpt lat="42.61571266078183" lon="2.78568062390963"><ele>118.0</ele><time>2026-04-10T09:10:17.868Z</time></trkpt><trkpt lat="42.6156614301355" lon="2.7855290474335668"><ele>118.5</ele><time>2026-04-10T09:10:18.868Z</time></trkpt><trkpt lat="42.61561298525221" lon="2.785376393311417"><ele>119.0</ele><time>2026-04-10T09:10:19.868Z</time></trkpt><trkpt lat="42.61556444698229" lon="2.785223436811356"><ele>118.75</ele><time>2026-04-10T09:10:20.868Z</time></trkpt><trkpt lat="42.615503821990266" lon="2.785075912445852"><ele>118.5</ele><time>2026-04-10T09:10:21.868Z</time></trkpt><trkpt lat="42.615440032756524" lon="2.7849310022902056"><ele>118.25</ele><time>2026-04-10T09:10:22.868Z</time></trkpt><trkpt lat="42.61538053773863" lon="2.784778511626561"><ele>118.0</ele><time>2026-04-10T09:10:23.868Z</time></trkpt><trkpt lat="42.615320083974886" lon="2.7846251520948533"><ele>118.5</ele><time>2026-04-10T09:10:24.868Z</time></trkpt><trkpt lat="42.61526046307162" lon="2.7844704934532802"><ele>119.0</ele><time>2026-04-10T09:10:25.868Z</time></trkpt><trkpt lat="42.61520372476842" lon="2.7843131055213934"><ele>119.5</ele><time>2026-04-10T09:10:26.868Z</time></trkpt><trkpt lat="42.615130013202524" lon="2.7841776396000766"><ele>120.0</ele><time>2026-04-10T09:10:27.868Z</time></trkpt><trkpt lat="42.61505303151328" lon="2.7840377118666937"><ele>120.0</ele><time>2026-04-10T09:10:28.868Z</time></trkpt><trkpt lat="42.61498437876604" lon="2.7838928911912704"><ele>120.0</ele><time>2026-04-10T09:10:29.868Z</time></trkpt><trkpt lat="42.614916289775046" lon="2.783747102906138"><ele>120.0</ele><time>2026-04-10T09:10:30.868Z</time></trkpt><trkpt lat="42.614845362642164" lon="2.783607498251624"><ele>120.0</ele><time>2026-04-10T09:10:31.868Z</time></trkpt><trkpt lat="42.61477720891919" lon="2.783467585651172"><ele>119.75</ele><time>2026-04-10T09:10:32.868Z</time></trkpt><trkpt lat="42.61470985422405" lon="2.7833216081005925"><ele>119.5</ele><time>2026-04-10T09:10:33.868Z</time></trkpt><trkpt lat="42.614631065965376" lon="2.7831868535296356"><ele>119.25</ele><time>2026-04-10T09:10:34.868Z</time></trkpt><trkpt lat="42.614544783787096" lon="2.7830575092776497"><ele>119.0</ele><time>2026-04-10T09:10:35.868Z</time></trkpt><trkpt lat="42.61445505214808" lon="2.782934306192774"><ele>119.2</ele><time>2026-04-10T09:10:36.868Z</time></trkpt><trkpt lat="42.614370548211696" lon="2.7828185472275058"><ele>119.4</ele><time>2026-04-10T09:10:37.868Z</time></trkpt><trkpt lat="42.61429742175823" lon="2.782726618652806"><ele>119.6</ele><time>2026-04-10T09:10:38.868Z</time></trkpt><trkpt lat="42.61423800840836" lon="2.782661667162917"><ele>119.8</ele><time>2026-04-10T09:10:39.868Z</time></trkpt><trkpt lat="42.61416307594117" lon="2.7827041458569997"><ele>120.0</ele><time>2026-04-10T09:10:48.869Z</time></trkpt><trkpt lat="42.614045902462315" lon="2.7827358157874706"><ele>120.2</ele><time>2026-04-10T09:10:50.869Z</time></trkpt><trkpt lat="42.613951150908804" lon="2.7827191819927872"><ele>120.4</ele><time>2026-04-10T09:10:51.869Z</time></trkpt><trkpt lat="42.613854523917695" lon="2.7827179026464126"><ele>120.6</ele><time>2026-04-10T09:10:52.869Z</time></trkpt><trkpt lat="42.613757609425875" lon="2.7827095702809683"><ele>120.8</ele><time>2026-04-10T09:10:53.869Z</time></trkpt><trkpt lat="42.61365988654418" lon="2.7826898749408686"><ele>121.0</ele><time>2026-04-10T09:10:54.869Z</time></trkpt><trkpt lat="42.61355506816583" lon="2.782663400111854"><ele>121.19999999999999</ele><time>2026-04-10T09:10:55.869Z</time></trkpt><trkpt lat="42.61345258271877" lon="2.782633213332199"><ele>121.39999999999999</ele><time>2026-04-10T09:10:56.869Z</time></trkpt><trkpt lat="42.61335761212654" lon="2.782579454556601"><ele>121.6</ele><time>2026-04-10T09:10:57.869Z</time></trkpt><trkpt lat="42.61328357351755" lon="2.782521757376687"><ele>121.8</ele><time>2026-04-10T09:10:58.869Z</time></trkpt><trkpt lat="42.613229599237464" lon="2.782456712226056"><ele>122.0</ele><time>2026-04-10T09:10:59.869Z</time></trkpt><trkpt lat="42.61316293774084" lon="2.7823738879837028"><ele>121.99999999999999</ele><time>2026-04-10T09:11:01.869Z</time></trkpt><trkpt lat="42.613105755197964" lon="2.782322356141062"><ele>122.0</ele><time>2026-04-10T09:11:03.869Z</time></trkpt><trkpt lat="42.613017714056646" lon="2.7822948058809955"><ele>122.0</ele><time>2026-04-10T09:11:05.869Z</time></trkpt><trkpt lat="42.61293485277107" lon="2.782171135740763"><ele>122.0</ele><time>2026-04-10T09:11:06.869Z</time></trkpt><trkpt lat="42.61284984469702" lon="2.7821938097251517"><ele>121.99999999999999</ele><time>2026-04-10T09:11:08.869Z</time></trkpt><trkpt lat="42.612788884247216" lon="2.782215607217774"><ele>122.0</ele><time>2026-04-10T09:11:11.869Z</time></trkpt><trkpt lat="42.61267426957798" lon="2.782293855747938"><ele>122.14285714285712</ele><time>2026-04-10T09:11:13.869Z</time></trkpt><trkpt lat="42.61262334506271" lon="2.7823585103689368"><ele>122.28571428571428</ele><time>2026-04-10T09:11:14.865Z</time></trkpt><trkpt lat="42.61254593278903" lon="2.782400302216544"><ele>122.42857142857143</ele><time>2026-04-10T09:11:15.866Z</time></trkpt><trkpt lat="42.61249271137175" lon="2.7824469775853786"><ele>122.57142857142857</ele><time>2026-04-10T09:11:16.866Z</time></trkpt><trkpt lat="42.612435521432296" lon="2.7824942259602636"><ele>122.71428571428572</ele><time>2026-04-10T09:11:18.865Z</time></trkpt><trkpt lat="42.61237557182148" lon="2.782452555870296"><ele>122.85714285714288</ele><time>2026-04-10T09:11:28.865Z</time></trkpt><trkpt lat="42.61233301696925" lon="2.7823817108474738"><ele>123.00000000000001</ele><time>2026-04-10T09:11:29.865Z</time></trkpt><trkpt lat="42.612279733670086" lon="2.7823010970672577"><ele>123.0</ele><time>2026-04-10T09:11:30.865Z</time></trkpt><trkpt lat="42.612217667248956" lon="2.7822115752845247"><ele>123.00000000000001</ele><time>2026-04-10T09:11:31.865Z</time></trkpt><trkpt lat="42.61214543583878" lon="2.7821128921537044"><ele>123.00000000000001</ele><time>2026-04-10T09:11:32.865Z</time></trkpt><trkpt lat="42.61207108365205" lon="2.7820028089290862"><ele>123.0</ele><time>2026-04-10T09:11:33.865Z</time></trkpt><trkpt lat="42.61198796482997" lon="2.781887043175215"><ele>123.0</ele><time>2026-04-10T09:11:34.865Z</time></trkpt><trkpt lat="42.61190096045133" lon="2.7817631422909463"><ele>123.5</ele><time>2026-04-10T09:11:35.865Z</time></trkpt><trkpt lat="42.611806351291726" lon="2.7816352435136125"><ele>124.0</ele><time>2026-04-10T09:11:36.865Z</time></trkpt><trkpt lat="42.611709370286" lon="2.7815040688547596"><ele>124.5</ele><time>2026-04-10T09:11:37.865Z</time></trkpt><trkpt lat="42.61160476213597" lon="2.781362724071513"><ele>125.0</ele><time>2026-04-10T09:11:38.865Z</time></trkpt><trkpt lat="42.61149676500943" lon="2.7812199953839527"><ele>125.0</ele><time>2026-04-10T09:11:39.865Z</time></trkpt><trkpt lat="42.611397510704236" lon="2.781064784596976"><ele>125.0</ele><time>2026-04-10T09:11:40.865Z</time></trkpt><trkpt lat="42.61128418965306" lon="2.7809116915501684"><ele>125.0</ele><time>2026-04-10T09:11:41.865Z</time></trkpt><trkpt lat="42.61116931913432" lon="2.7807538048689686"><ele>125.0</ele><time>2026-04-10T09:11:42.865Z</time></trkpt><trkpt lat="42.61105049021399" lon="2.7805919766804386"><ele>125.0</ele><time>2026-04-10T09:11:43.865Z</time></trkpt><trkpt lat="42.610932609646774" lon="2.7804258416532526"><ele>125.0</ele><time>2026-04-10T09:11:44.865Z</time></trkpt><trkpt lat="42.61081844634006" lon="2.780251072959193"><ele>125.33333333333333</ele><time>2026-04-10T09:11:45.865Z</time></trkpt><trkpt lat="42.610706513507175" lon="2.7800695330069263"><ele>125.66666666666666</ele><time>2026-04-10T09:11:46.865Z</time></trkpt><trkpt lat="42.610597693938765" lon="2.779885573918065"><ele>126.0</ele><time>2026-04-10T09:11:47.865Z</time></trkpt><trkpt lat="42.61049025944921" lon="2.7796977259670466"><ele>126.0</ele><time>2026-04-10T09:11:48.865Z</time></trkpt><trkpt lat="42.61038149964881" lon="2.779505530782665"><ele>126.0</ele><time>2026-04-10T09:11:49.865Z</time></trkpt><trkpt lat="42.61027445378886" lon="2.7793170619582908"><ele>126.0</ele><time>2026-04-10T09:11:50.865Z</time></trkpt><trkpt lat="42.61016843803559" lon="2.779115239418462"><ele>126.66666666666666</ele><time>2026-04-10T09:11:51.865Z</time></trkpt><trkpt lat="42.6100639232656" lon="2.7789125094009752"><ele>127.33333333333333</ele><time>2026-04-10T09:11:52.865Z</time></trkpt><trkpt lat="42.609963461834575" lon="2.7787036511674637"><ele>128.0</ele><time>2026-04-10T09:11:53.865Z</time></trkpt><trkpt lat="42.60986525826779" lon="2.7784963988968383"><ele>128.33333333333331</ele><time>2026-04-10T09:11:54.865Z</time></trkpt><trkpt lat="42.60978137927859" lon="2.7782943755921794"><ele>128.66666666666666</ele><time>2026-04-10T09:11:55.865Z</time></trkpt><trkpt lat="42.60969995091989" lon="2.778121193892364"><ele>129.0</ele><time>2026-04-10T09:11:56.865Z</time></trkpt><trkpt lat="42.6096237728941" lon="2.777957987720114"><ele>129.0</ele><time>2026-04-10T09:11:57.865Z</time></trkpt><trkpt lat="42.60955781120479" lon="2.7778062252478484"><ele>129.0</ele><time>2026-04-10T09:11:58.865Z</time></trkpt><trkpt lat="42.609504833468144" lon="2.7776699652555954"><ele>129.0</ele><time>2026-04-10T09:11:59.866Z</time></trkpt><trkpt lat="42.60945301614108" lon="2.777531159181309"><ele>129.0</ele><time>2026-04-10T09:12:00.866Z</time></trkpt><trkpt lat="42.609407457952244" lon="2.777392501102395"><ele>129.2</ele><time>2026-04-10T09:12:01.866Z</time></trkpt><trkpt lat="42.60935918937296" lon="2.7772551735501376"><ele>129.4</ele><time>2026-04-10T09:12:02.866Z</time></trkpt><trkpt lat="42.60930993431934" lon="2.7771192878066895"><ele>129.6</ele><time>2026-04-10T09:12:03.866Z</time></trkpt><trkpt lat="42.609276277592286" lon="2.776974416953027"><ele>129.8</ele><time>2026-04-10T09:12:04.866Z</time></trkpt><trkpt lat="42.609224386132176" lon="2.77684078651741"><ele>130.0</ele><time>2026-04-10T09:12:05.866Z</time></trkpt><trkpt lat="42.60917751812911" lon="2.776702304959831"><ele>130.2</ele><time>2026-04-10T09:12:06.866Z</time></trkpt><trkpt lat="42.60914115660998" lon="2.776559190994558"><ele>130.4</ele><time>2026-04-10T09:12:07.866Z</time></trkpt><trkpt lat="42.60910025488243" lon="2.776416575898691"><ele>130.6</ele><time>2026-04-10T09:12:08.866Z</time></trkpt><trkpt lat="42.60906510232271" lon="2.7762710206995793"><ele>130.8</ele><time>2026-04-10T09:12:09.866Z</time></trkpt><trkpt lat="42.60903306912013" lon="2.776125672599436"><ele>131.0</ele><time>2026-04-10T09:12:10.866Z</time></trkpt><trkpt lat="42.6090006033628" lon="2.7759854505123243"><ele>131.2</ele><time>2026-04-10T09:12:11.866Z</time></trkpt><trkpt lat="42.60895584878627" lon="2.775846267523511"><ele>131.39999999999998</ele><time>2026-04-10T09:12:12.866Z</time></trkpt><trkpt lat="42.608916472797084" lon="2.775714884276359"><ele>131.6</ele><time>2026-04-10T09:12:13.866Z</time></trkpt><trkpt lat="42.60887535988774" lon="2.7755826815145537"><ele>131.79999999999998</ele><time>2026-04-10T09:12:14.866Z</time></trkpt><trkpt lat="42.608835564870574" lon="2.775463359266789"><ele>132.0</ele><time>2026-04-10T09:12:15.866Z</time></trkpt><trkpt lat="42.60878826658792" lon="2.7753285013255033"><ele>132.0</ele><time>2026-04-10T09:12:16.866Z</time></trkpt><trkpt lat="42.60874087954127" lon="2.7751983116057115"><ele>132.0</ele><time>2026-04-10T09:12:17.866Z</time></trkpt><trkpt lat="42.608693037607196" lon="2.775073659655155"><ele>132.0</ele><time>2026-04-10T09:12:18.866Z</time></trkpt><trkpt lat="42.608649057280964" lon="2.7749547122502767"><ele>132.0</ele><time>2026-04-10T09:12:19.866Z</time></trkpt><trkpt lat="42.60860798446014" lon="2.7748407628864147"><ele>132.0</ele><time>2026-04-10T09:12:20.866Z</time></trkpt><trkpt lat="42.608559752685" lon="2.774730537070282"><ele>132.0</ele><time>2026-04-10T09:12:21.866Z</time></trkpt><trkpt lat="42.60851241873069" lon="2.7746167049694974"><ele>132.0</ele><time>2026-04-10T09:12:22.866Z</time></trkpt><trkpt lat="42.60846704384335" lon="2.774498477493651"><ele>132.0</ele><time>2026-04-10T09:12:23.866Z</time></trkpt><trkpt lat="42.60843017773631" lon="2.7743785830040353"><ele>132.0</ele><time>2026-04-10T09:12:24.866Z</time></trkpt><trkpt lat="42.6083964523801" lon="2.774254478121147"><ele>132.0</ele><time>2026-04-10T09:12:25.866Z</time></trkpt><trkpt lat="42.60836831521346" lon="2.7741372125266586"><ele>132.0</ele><time>2026-04-10T09:12:26.866Z</time></trkpt><trkpt lat="42.6083345590773" lon="2.774017190801171"><ele>132.0</ele><time>2026-04-10T09:12:27.866Z</time></trkpt><trkpt lat="42.608309730125534" lon="2.773924688292309"><ele>132.0</ele><time>2026-04-10T09:12:28.866Z</time></trkpt><trkpt lat="42.60827850945179" lon="2.7737627104053355"><ele>132.0</ele><time>2026-04-10T09:12:30.866Z</time></trkpt><trkpt lat="42.608240324914426" lon="2.7735960078070017"><ele>132.0</ele><time>2026-04-10T09:12:32.866Z</time></trkpt><trkpt lat="42.608214098479934" lon="2.773499150980823"><ele>132.16666666666666</ele><time>2026-04-10T09:12:33.866Z</time></trkpt><trkpt lat="42.60819020809113" lon="2.773394224936524"><ele>132.33333333333334</ele><time>2026-04-10T09:12:34.866Z</time></trkpt><trkpt lat="42.60816902240222" lon="2.7732832341000297"><ele>132.5</ele><time>2026-04-10T09:12:35.866Z</time></trkpt><trkpt lat="42.60815424726974" lon="2.7731721534181184"><ele>132.66666666666669</ele><time>2026-04-10T09:12:36.866Z</time></trkpt><trkpt lat="42.60813457234089" lon="2.7730819588089575"><ele>132.83333333333334</ele><time>2026-04-10T09:12:37.866Z</time></trkpt><trkpt lat="42.60812186141715" lon="2.772978455339183"><ele>133.0</ele><time>2026-04-10T09:12:39.866Z</time></trkpt><trkpt lat="42.60814633442454" lon="2.7728896533202407"><ele>133.0</ele><time>2026-04-10T09:12:42.866Z</time></trkpt><trkpt lat="42.60820461537002" lon="2.7727784465477465"><ele>133.0</ele><time>2026-04-10T09:12:44.866Z</time></trkpt><trkpt lat="42.608245867816606" lon="2.7727061690186106"><ele>133.0</ele><time>2026-04-10T09:12:46.866Z</time></trkpt><trkpt lat="42.608262683983284" lon="2.7726217470017644"><ele>133.0</ele><time>2026-04-10T09:13:15.866Z</time></trkpt><trkpt lat="42.608277804305864" lon="2.7725378582909097"><ele>133.0</ele><time>2026-04-10T09:13:19.866Z</time></trkpt><trkpt lat="42.608287374272656" lon="2.772422489175845"><ele>133.0</ele><time>2026-04-10T09:13:26.864Z</time></trkpt><trkpt lat="42.60827763598549" lon="2.772291531531169"><ele>133.4</ele><time>2026-04-10T09:13:29.864Z</time></trkpt><trkpt lat="42.60826034001332" lon="2.7721481955573495"><ele>133.8</ele><time>2026-04-10T09:13:31.864Z</time></trkpt><trkpt lat="42.60824096449605" lon="2.7720051585207495"><ele>134.2</ele><time>2026-04-10T09:13:33.863Z</time></trkpt><trkpt lat="42.60821274670592" lon="2.7718935209414757"><ele>134.6</ele><time>2026-04-10T09:13:45.864Z</time></trkpt><trkpt lat="42.60818271919224" lon="2.7717851315989788"><ele>135.0</ele><time>2026-04-10T09:13:53.864Z</time></trkpt><trkpt lat="42.608179680836834" lon="2.771697828778063"><ele>135.33333333333334</ele><time>2026-04-10T09:13:55.864Z</time></trkpt><trkpt lat="42.608160567761004" lon="2.771593600869412"><ele>135.66666666666666</ele><time>2026-04-10T09:13:59.864Z</time></trkpt><trkpt lat="42.60814062710451" lon="2.771501728533117"><ele>136.0</ele><time>2026-04-10T09:14:03.864Z</time></trkpt><trkpt lat="42.608182467685296" lon="2.7714334853687452"><ele>136.33333333333331</ele><time>2026-04-10T09:14:07.864Z</time></trkpt><trkpt lat="42.608262855946315" lon="2.7713739334258762"><ele>136.66666666666666</ele><time>2026-04-10T09:14:09.864Z</time></trkpt><trkpt lat="42.608367048238975" lon="2.771290037304052"><ele>137.0</ele><time>2026-04-10T09:14:11.864Z</time></trkpt><trkpt lat="42.60842430874415" lon="2.7712528118757387"><ele>137.0</ele><time>2026-04-10T09:14:12.864Z</time></trkpt><trkpt lat="42.60852702094014" lon="2.7711603146288653"><ele>137.0</ele><time>2026-04-10T09:14:14.864Z</time></trkpt><trkpt lat="42.60858582762001" lon="2.771121232342099"><ele>137.0</ele><time>2026-04-10T09:14:15.864Z</time></trkpt><trkpt lat="42.60864626508218" lon="2.7710967059488856"><ele>137.0</ele><time>2026-04-10T09:14:16.864Z</time></trkpt><trkpt lat="42.60875531442902" lon="2.7710156453930077"><ele>137.0</ele><time>2026-04-10T09:14:18.864Z</time></trkpt><trkpt lat="42.60881716445861" lon="2.7709745276590403"><ele>137.0</ele><time>2026-04-10T09:14:19.864Z</time></trkpt><trkpt lat="42.60888805395349" lon="2.770941704924621"><ele>137.00000000000003</ele><time>2026-04-10T09:14:20.864Z</time></trkpt><trkpt lat="42.608956141284864" lon="2.7709013300505627"><ele>137.0</ele><time>2026-04-10T09:14:21.864Z</time></trkpt><trkpt lat="42.60902120740924" lon="2.770865783449034"><ele>137.0</ele><time>2026-04-10T09:14:22.864Z</time></trkpt><trkpt lat="42.609082538564884" lon="2.7708184052409863"><ele>137.0</ele><time>2026-04-10T09:14:23.864Z</time></trkpt><trkpt lat="42.60915174973222" lon="2.770783533892125"><ele>137.0</ele><time>2026-04-10T09:14:24.864Z</time></trkpt><trkpt lat="42.609231154786094" lon="2.7707576698117515"><ele>137.00000000000003</ele><time>2026-04-10T09:14:25.864Z</time></trkpt><trkpt lat="42.60929294834331" lon="2.7707088652403984"><ele>137.0</ele><time>2026-04-10T09:14:26.864Z</time></trkpt><trkpt lat="42.60937016859883" lon="2.770666856842831"><ele>137.0</ele><time>2026-04-10T09:14:27.864Z</time></trkpt><trkpt lat="42.60944487148754" lon="2.770615672797472"><ele>137.0</ele><time>2026-04-10T09:14:28.864Z</time></trkpt><trkpt lat="42.60951948947" lon="2.7705807270917022"><ele>137.0</ele><time>2026-04-10T09:14:29.864Z</time></trkpt><trkpt lat="42.60958389091875" lon="2.7705397107250813"><ele>137.0</ele><time>2026-04-10T09:14:30.864Z</time></trkpt><trkpt lat="42.609677199347175" lon="2.7704960530647487"><ele>137.0</ele><time>2026-04-10T09:14:32.864Z</time></trkpt><trkpt lat="42.609743773212365" lon="2.7704233846822306"><ele>137.0</ele><time>2026-04-10T09:14:34.864Z</time></trkpt><trkpt lat="42.60980449759607" lon="2.770321737396419"><ele>136.75</ele><time>2026-04-10T09:14:36.864Z</time></trkpt><trkpt lat="42.6098751431054" lon="2.7704534151665223"><ele>136.5</ele><time>2026-04-10T09:14:37.864Z</time></trkpt><trkpt lat="42.609853627357964" lon="2.770224274394315"><ele>136.25</ele><time>2026-04-10T09:14:38.864Z</time></trkpt><trkpt lat="42.60979191066317" lon="2.7700934520700686"><ele>136.0</ele><time>2026-04-10T09:14:40.864Z</time></trkpt><trkpt lat="42.60976998021849" lon="2.7699191674239425"><ele>136.0</ele><time>2026-04-10T09:14:42.864Z</time></trkpt><trkpt lat="42.609750415814254" lon="2.7698171269631087"><ele>136.0</ele><time>2026-04-10T09:14:43.864Z</time></trkpt><trkpt lat="42.60977544166007" lon="2.76970055018735"><ele>136.0</ele><time>2026-04-10T09:14:44.864Z</time></trkpt><trkpt lat="42.609759106177506" lon="2.7695838157746646"><ele>136.0</ele><time>2026-04-10T09:14:45.864Z</time></trkpt><trkpt lat="42.60974332160523" lon="2.7694723274161066"><ele>136.0</ele><time>2026-04-10T09:14:46.864Z</time></trkpt><trkpt lat="42.60972725583133" lon="2.7693588528701687"><ele>136.0</ele><time>2026-04-10T09:14:47.864Z</time></trkpt><trkpt lat="42.609710437398626" lon="2.769238369700113"><ele>136.0</ele><time>2026-04-10T09:14:48.864Z</time></trkpt><trkpt lat="42.609692950535944" lon="2.769112416653048"><ele>136.0</ele><time>2026-04-10T09:14:49.864Z</time></trkpt><trkpt lat="42.6096771336458" lon="2.7689984919682047"><ele>136.0</ele><time>2026-04-10T09:14:50.864Z</time></trkpt><trkpt lat="42.6096646385178" lon="2.7689084930264354"><ele>136.0</ele><time>2026-04-10T09:14:51.864Z</time></trkpt><trkpt lat="42.60965248496706" lon="2.768820954130064"><ele>136.0</ele><time>2026-04-10T09:14:53.864Z</time></trkpt><trkpt lat="42.60956635087124" lon="2.7688220929494642"><ele>136.0</ele><time>2026-04-10T09:14:54.864Z</time></trkpt><trkpt lat="42.609493801349856" lon="2.768837284480747"><ele>136.6</ele><time>2026-04-10T09:14:55.864Z</time></trkpt><trkpt lat="42.609416537349965" lon="2.768870783829257"><ele>137.2</ele><time>2026-04-10T09:14:56.864Z</time></trkpt><trkpt lat="42.60934261949856" lon="2.7689169576824035"><ele>137.8</ele><time>2026-04-10T09:14:57.864Z</time></trkpt><trkpt lat="42.609269282108805" lon="2.768991607477311"><ele>138.4</ele><time>2026-04-10T09:14:58.864Z</time></trkpt><trkpt lat="42.60918115978231" lon="2.7690551650072606"><ele>139.0</ele><time>2026-04-10T09:14:59.864Z</time></trkpt><trkpt lat="42.609099020986356" lon="2.769127028560534"><ele>139.0</ele><time>2026-04-10T09:15:00.864Z</time></trkpt><trkpt lat="42.6090153980338" lon="2.7692021861653915"><ele>139.0</ele><time>2026-04-10T09:15:01.864Z</time></trkpt><trkpt lat="42.60893486117864" lon="2.7692762273180085"><ele>139.0</ele><time>2026-04-10T09:15:02.864Z</time></trkpt><trkpt lat="42.608863790024316" lon="2.7693522247389244"><ele>139.0</ele><time>2026-04-10T09:15:03.864Z</time></trkpt><trkpt lat="42.60879486405715" lon="2.7694108660239536"><ele>139.0</ele><time>2026-04-10T09:15:04.864Z</time></trkpt><trkpt lat="42.60869721568613" lon="2.76948787370535"><ele>138.83333333333334</ele><time>2026-04-10T09:15:06.864Z</time></trkpt><trkpt lat="42.608633700356435" lon="2.769530679709778"><ele>138.66666666666669</ele><time>2026-04-10T09:15:08.864Z</time></trkpt><trkpt lat="42.60857015741085" lon="2.7696090902499604"><ele>138.5</ele><time>2026-04-10T09:15:15.864Z</time></trkpt><trkpt lat="42.608477254867296" lon="2.769674270394008"><ele>138.33333333333334</ele><time>2026-04-10T09:15:17.864Z</time></trkpt><trkpt lat="42.60841780286002" lon="2.769724883555825"><ele>138.16666666666666</ele><time>2026-04-10T09:15:18.864Z</time></trkpt><trkpt lat="42.60836100970348" lon="2.769773233339634"><ele>138.0</ele><time>2026-04-10T09:15:19.864Z</time></trkpt><trkpt lat="42.60829573833969" lon="2.7698277567349883"><ele>138.0</ele><time>2026-04-10T09:15:20.864Z</time></trkpt><trkpt lat="42.60823150578163" lon="2.7698823120114775"><ele>138.0</ele><time>2026-04-10T09:15:21.864Z</time></trkpt><trkpt lat="42.60816667397232" lon="2.7699396651817385"><ele>138.0</ele><time>2026-04-10T09:15:22.864Z</time></trkpt><trkpt lat="42.60810309052162" lon="2.7699960359699385"><ele>138.0</ele><time>2026-04-10T09:15:23.864Z</time></trkpt><trkpt lat="42.608014245044" lon="2.770084147933799"><ele>138.0</ele><time>2026-04-10T09:15:25.864Z</time></trkpt><trkpt lat="42.60794676836129" lon="2.770104043477821"><ele>138.0</ele><time>2026-04-10T09:15:29.863Z</time></trkpt><trkpt lat="42.6078756732426" lon="2.7698267425544274"><ele>138.0</ele><time>2026-04-10T09:15:32.863Z</time></trkpt><trkpt lat="42.60782688426207" lon="2.7697161712430565"><ele>138.0</ele><time>2026-04-10T09:15:33.862Z</time></trkpt><trkpt lat="42.60778108962759" lon="2.7696166141439904"><ele>138.0</ele><time>2026-04-10T09:15:34.862Z</time></trkpt><trkpt lat="42.607739257988555" lon="2.769520041396169"><ele>138.0</ele><time>2026-04-10T09:15:35.862Z</time></trkpt><trkpt lat="42.60769450453221" lon="2.7694116831734066"><ele>138.0</ele><time>2026-04-10T09:15:36.863Z</time></trkpt><trkpt lat="42.60764879379976" lon="2.7692958190181387"><ele>138.20000000000002</ele><time>2026-04-10T09:15:37.863Z</time></trkpt><trkpt lat="42.60760576902435" lon="2.769186763081228"><ele>138.4</ele><time>2026-04-10T09:15:38.863Z</time></trkpt><trkpt lat="42.607556658263896" lon="2.769062280816288"><ele>138.60000000000002</ele><time>2026-04-10T09:15:39.862Z</time></trkpt><trkpt lat="42.607493340997415" lon="2.768948198445656"><ele>138.8</ele><time>2026-04-10T09:15:40.862Z</time></trkpt><trkpt lat="42.60745243886197" lon="2.7688114000625084"><ele>139.0</ele><time>2026-04-10T09:15:41.862Z</time></trkpt><trkpt lat="42.607402264148405" lon="2.7686828617852712"><ele>139.0</ele><time>2026-04-10T09:15:42.862Z</time></trkpt><trkpt lat="42.607361777315916" lon="2.768556824841488"><ele>139.0</ele><time>2026-04-10T09:15:43.862Z</time></trkpt><trkpt lat="42.60733003909209" lon="2.768420502217867"><ele>139.0</ele><time>2026-04-10T09:15:44.862Z</time></trkpt><trkpt lat="42.60731305642946" lon="2.768285585383714"><ele>139.0</ele><time>2026-04-10T09:15:45.862Z</time></trkpt><trkpt lat="42.607286178592105" lon="2.7681485307063456"><ele>139.0</ele><time>2026-04-10T09:15:46.862Z</time></trkpt><trkpt lat="42.607257930401275" lon="2.7680162084605358"><ele>139.16666666666669</ele><time>2026-04-10T09:15:47.862Z</time></trkpt><trkpt lat="42.60722908497244" lon="2.767883965951834"><ele>139.33333333333334</ele><time>2026-04-10T09:15:48.862Z</time></trkpt><trkpt lat="42.60720830054353" lon="2.767757027315821"><ele>139.5</ele><time>2026-04-10T09:15:49.862Z</time></trkpt><trkpt lat="42.60717918199774" lon="2.767660560832111"><ele>139.66666666666666</ele><time>2026-04-10T09:15:50.862Z</time></trkpt><trkpt lat="42.60715563498953" lon="2.767579570583685"><ele>139.83333333333331</ele><time>2026-04-10T09:15:51.862Z</time></trkpt><trkpt lat="42.60712580085619" lon="2.7674839314908537"><ele>140.0</ele><time>2026-04-10T09:15:53.862Z</time></trkpt><trkpt lat="42.607095594530676" lon="2.7673167757184416"><ele>140.0</ele><time>2026-04-10T09:15:55.862Z</time></trkpt><trkpt lat="42.60706424308879" lon="2.7672024917392903"><ele>140.0</ele><time>2026-04-10T09:15:56.862Z</time></trkpt><trkpt lat="42.60703398489795" lon="2.767082588218291"><ele>140.0</ele><time>2026-04-10T09:15:57.862Z</time></trkpt><trkpt lat="42.60699784639349" lon="2.7669549558698923"><ele>140.0</ele><time>2026-04-10T09:15:58.862Z</time></trkpt><trkpt lat="42.606968096864314" lon="2.7668281469106835"><ele>140.0</ele><time>2026-04-10T09:15:59.863Z</time></trkpt><trkpt lat="42.60693380340919" lon="2.7667007139318343"><ele>139.8</ele><time>2026-04-10T09:16:00.863Z</time></trkpt><trkpt lat="42.6068982855889" lon="2.7665795550843124"><ele>139.6</ele><time>2026-04-10T09:16:01.863Z</time></trkpt><trkpt lat="42.60683676636265" lon="2.7664799595254257"><ele>139.4</ele><time>2026-04-10T09:16:02.863Z</time></trkpt><trkpt lat="42.60676501401578" lon="2.7663870498300187"><ele>139.2</ele><time>2026-04-10T09:16:03.863Z</time></trkpt><trkpt lat="42.60666008231333" lon="2.766335736583644"><ele>139.0</ele><time>2026-04-10T09:16:04.863Z</time></trkpt><trkpt lat="42.60655298744617" lon="2.766294085534139"><ele>139.0</ele><time>2026-04-10T09:16:05.863Z</time></trkpt><trkpt lat="42.60645336367323" lon="2.766241414445908"><ele>139.0</ele><time>2026-04-10T09:16:06.863Z</time></trkpt><trkpt lat="42.60637047594318" lon="2.7661362986247564"><ele>139.0</ele><time>2026-04-10T09:16:07.863Z</time></trkpt><trkpt lat="42.606301236505566" lon="2.766018242020344"><ele>139.0</ele><time>2026-04-10T09:16:08.863Z</time></trkpt><trkpt lat="42.60623400309179" lon="2.765889186282245"><ele>139.0</ele><time>2026-04-10T09:16:09.863Z</time></trkpt><trkpt lat="42.606169894426195" lon="2.7657521898827055"><ele>138.75</ele><time>2026-04-10T09:16:10.863Z</time></trkpt><trkpt lat="42.60610291747387" lon="2.765605168927431"><ele>138.5</ele><time>2026-04-10T09:16:11.863Z</time></trkpt><trkpt lat="42.60603386859022" lon="2.765451745049973"><ele>138.25</ele><time>2026-04-10T09:16:12.863Z</time></trkpt><trkpt lat="42.605968843378676" lon="2.765290679121788"><ele>138.0</ele><time>2026-04-10T09:16:13.863Z</time></trkpt><trkpt lat="42.605909733221246" lon="2.7651172203577072"><ele>138.0</ele><time>2026-04-10T09:16:14.863Z</time></trkpt><trkpt lat="42.60585413805542" lon="2.7649372539199017"><ele>138.0</ele><time>2026-04-10T09:16:15.863Z</time></trkpt><trkpt lat="42.60580712584003" lon="2.76475104960944"><ele>138.0</ele><time>2026-04-10T09:16:16.863Z</time></trkpt><trkpt lat="42.605767537679974" lon="2.764562984321739"><ele>138.0</ele><time>2026-04-10T09:16:17.863Z</time></trkpt><trkpt lat="42.605736880755515" lon="2.7643664872316385"><ele>138.66666666666666</ele><time>2026-04-10T09:16:18.863Z</time></trkpt><trkpt lat="42.60573198665181" lon="2.764169752331558"><ele>139.33333333333331</ele><time>2026-04-10T09:16:19.863Z</time></trkpt><trkpt lat="42.6057348055184" lon="2.76396559159901"><ele>140.0</ele><time>2026-04-10T09:16:20.863Z</time></trkpt><trkpt lat="42.60574298367772" lon="2.7637517075168314"><ele>140.0</ele><time>2026-04-10T09:16:21.863Z</time></trkpt><trkpt lat="42.6057510724333" lon="2.7635469052167445"><ele>140.0</ele><time>2026-04-10T09:16:22.863Z</time></trkpt><trkpt lat="42.60574501689893" lon="2.763332254004358"><ele>140.0</ele><time>2026-04-10T09:16:23.863Z</time></trkpt><trkpt lat="42.60575281913751" lon="2.7631130379502933"><ele>139.66666666666666</ele><time>2026-04-10T09:16:24.863Z</time></trkpt><trkpt lat="42.60576083704435" lon="2.7628945829149116"><ele>139.33333333333334</ele><time>2026-04-10T09:16:25.863Z</time></trkpt><trkpt lat="42.6057686064155" lon="2.762679204795587"><ele>139.0</ele><time>2026-04-10T09:16:26.863Z</time></trkpt><trkpt lat="42.60578112714448" lon="2.762452896084328"><ele>139.0</ele><time>2026-04-10T09:16:27.863Z</time></trkpt><trkpt lat="42.60578349817194" lon="2.7622076462539367"><ele>139.0</ele><time>2026-04-10T09:16:28.863Z</time></trkpt><trkpt lat="42.60577092241941" lon="2.7619579940052414"><ele>139.0</ele><time>2026-04-10T09:16:29.863Z</time></trkpt><trkpt lat="42.60575083223208" lon="2.761711842368388"><ele>139.33333333333334</ele><time>2026-04-10T09:16:30.863Z</time></trkpt><trkpt lat="42.6056963492798" lon="2.7614840832996945"><ele>139.66666666666666</ele><time>2026-04-10T09:16:31.863Z</time></trkpt><trkpt lat="42.60562124426593" lon="2.7612616111498465"><ele>140.0</ele><time>2026-04-10T09:16:32.863Z</time></trkpt><trkpt lat="42.60554552035929" lon="2.7610155228042297"><ele>141.0</ele><time>2026-04-10T09:16:33.863Z</time></trkpt><trkpt lat="42.60548898358972" lon="2.7607750776581548"><ele>142.0</ele><time>2026-04-10T09:16:34.863Z</time></trkpt><trkpt lat="42.605422590588375" lon="2.760537109736508"><ele>143.0</ele><time>2026-04-10T09:16:35.863Z</time></trkpt><trkpt lat="42.605332418965205" lon="2.7603095768113928"><ele>141.25</ele><time>2026-04-10T09:16:36.863Z</time></trkpt><trkpt lat="42.60523837129871" lon="2.7601370254986497"><ele>139.5</ele><time>2026-04-10T09:16:37.863Z</time></trkpt><trkpt lat="42.60517622514125" lon="2.7599636764255657"><ele>137.75</ele><time>2026-04-10T09:16:38.863Z</time></trkpt><trkpt lat="42.605117311028366" lon="2.759793375298726"><ele>136.0</ele><time>2026-04-10T09:16:39.863Z</time></trkpt><trkpt lat="42.60506823719037" lon="2.7596157215757526"><ele>136.0</ele><time>2026-04-10T09:16:40.863Z</time></trkpt><trkpt lat="42.60500742444439" lon="2.759459613476668"><ele>136.0</ele><time>2026-04-10T09:16:41.863Z</time></trkpt><trkpt lat="42.604955929863166" lon="2.759307517415241"><ele>136.0</ele><time>2026-04-10T09:16:42.863Z</time></trkpt><trkpt lat="42.604885847863294" lon="2.7591743104572313"><ele>136.0</ele><time>2026-04-10T09:16:43.863Z</time></trkpt><trkpt lat="42.604801604511294" lon="2.7590400484400464"><ele>136.75</ele><time>2026-04-10T09:16:44.863Z</time></trkpt><trkpt lat="42.60470064927394" lon="2.758913459849431"><ele>137.5</ele><time>2026-04-10T09:16:45.863Z</time></trkpt><trkpt lat="42.60457919058783" lon="2.7587970442842153"><ele>138.25</ele><time>2026-04-10T09:16:46.863Z</time></trkpt><trkpt lat="42.60447217372379" lon="2.7587031641134754"><ele>139.0</ele><time>2026-04-10T09:16:47.863Z</time></trkpt><trkpt lat="42.60434200687693" lon="2.7586071326416426"><ele>136.6</ele><time>2026-04-10T09:16:48.863Z</time></trkpt><trkpt lat="42.60424462844326" lon="2.758507117662114"><ele>134.2</ele><time>2026-04-10T09:16:49.863Z</time></trkpt><trkpt lat="42.60416448068266" lon="2.758426227580778"><ele>131.79999999999998</ele><time>2026-04-10T09:16:50.863Z</time></trkpt><trkpt lat="42.60408692431899" lon="2.758325434797358"><ele>129.4</ele><time>2026-04-10T09:16:51.863Z</time></trkpt><trkpt lat="42.60402243819971" lon="2.758226746177931"><ele>127.0</ele><time>2026-04-10T09:16:52.863Z</time></trkpt><trkpt lat="42.60393716664022" lon="2.7581841067559973"><ele>127.0</ele><time>2026-04-10T09:16:53.863Z</time></trkpt><trkpt lat="42.603830113635574" lon="2.75816842925838"><ele>126.99999999999999</ele><time>2026-04-10T09:16:54.863Z</time></trkpt><trkpt lat="42.6037223028752" lon="2.7581508637672556"><ele>126.99999999999999</ele><time>2026-04-10T09:16:55.863Z</time></trkpt><trkpt lat="42.60362864960883" lon="2.7581155931665036"><ele>127.0</ele><time>2026-04-10T09:16:56.863Z</time></trkpt><trkpt lat="42.60356740656421" lon="2.7580168214199463"><ele>127.0</ele><time>2026-04-10T09:16:57.863Z</time></trkpt><trkpt lat="42.60354422601627" lon="2.757865015042816"><ele>125.25</ele><time>2026-04-10T09:16:58.863Z</time></trkpt><trkpt lat="42.60351061373791" lon="2.7577106203409527"><ele>123.5</ele><time>2026-04-10T09:16:59.863Z</time></trkpt><trkpt lat="42.603470137875576" lon="2.7575422394600273"><ele>121.75</ele><time>2026-04-10T09:17:00.863Z</time></trkpt><trkpt lat="42.60342941432907" lon="2.7573696888638146"><ele>120.0</ele><time>2026-04-10T09:17:01.863Z</time></trkpt><trkpt lat="42.60338732048942" lon="2.7571872343725867"><ele>120.0</ele><time>2026-04-10T09:17:02.863Z</time></trkpt><trkpt lat="42.603339675610194" lon="2.75700250649748"><ele>120.0</ele><time>2026-04-10T09:17:03.863Z</time></trkpt><trkpt lat="42.603302905597104" lon="2.7568009094738564"><ele>120.0</ele><time>2026-04-10T09:17:04.863Z</time></trkpt><trkpt lat="42.603255565288336" lon="2.7566158087032937"><ele>120.0</ele><time>2026-04-10T09:17:05.863Z</time></trkpt><trkpt lat="42.6031909192008" lon="2.7564224142218396"><ele>120.33333333333334</ele><time>2026-04-10T09:17:06.863Z</time></trkpt><trkpt lat="42.603112632398634" lon="2.756238717106962"><ele>120.66666666666667</ele><time>2026-04-10T09:17:07.863Z</time></trkpt><trkpt lat="42.60303169112395" lon="2.7560589575349654"><ele>121.0</ele><time>2026-04-10T09:17:08.863Z</time></trkpt><trkpt lat="42.60295765752904" lon="2.755866574159448"><ele>121.0</ele><time>2026-04-10T09:17:09.863Z</time></trkpt><trkpt lat="42.60290078053013" lon="2.7556609385422175"><ele>121.0</ele><time>2026-04-10T09:17:10.863Z</time></trkpt><trkpt lat="42.60281521449991" lon="2.7554778298614058"><ele>121.0</ele><time>2026-04-10T09:17:11.863Z</time></trkpt><trkpt lat="42.60275668367656" lon="2.7552803600241416"><ele>120.66666666666667</ele><time>2026-04-10T09:17:12.863Z</time></trkpt><trkpt lat="42.60268265231045" lon="2.7550813635967337"><ele>120.33333333333334</ele><time>2026-04-10T09:17:13.863Z</time></trkpt><trkpt lat="42.60261013062451" lon="2.7548842677184155"><ele>120.0</ele><time>2026-04-10T09:17:14.863Z</time></trkpt><trkpt lat="42.60252489159993" lon="2.7547131559874147"><ele>120.0</ele><time>2026-04-10T09:17:15.863Z</time></trkpt><trkpt lat="42.60246383793566" lon="2.7545413530964824"><ele>120.0</ele><time>2026-04-10T09:17:16.863Z</time></trkpt><trkpt lat="42.602404937270414" lon="2.754422580253774"><ele>120.0</ele><time>2026-04-10T09:17:17.863Z</time></trkpt><trkpt lat="42.60237045361514" lon="2.754314744303623"><ele>120.0</ele><time>2026-04-10T09:17:18.863Z</time></trkpt><trkpt lat="42.602316904618014" lon="2.7542197886108633"><ele>120.0</ele><time>2026-04-10T09:17:19.863Z</time></trkpt><trkpt lat="42.602273205217394" lon="2.7541266150320496"><ele>120.16666666666667</ele><time>2026-04-10T09:17:20.863Z</time></trkpt><trkpt lat="42.602220441590156" lon="2.754075830186154"><ele>120.33333333333334</ele><time>2026-04-10T09:17:21.863Z</time></trkpt><trkpt lat="42.602152226690464" lon="2.7540565890134787"><ele>120.5</ele><time>2026-04-10T09:17:23.863Z</time></trkpt><trkpt lat="42.602078357121705" lon="2.754027739098364"><ele>120.66666666666667</ele><time>2026-04-10T09:17:26.863Z</time></trkpt><trkpt lat="42.60199987647697" lon="2.753968721418121"><ele>120.83333333333334</ele><time>2026-04-10T09:17:28.863Z</time></trkpt><trkpt lat="42.60190814679657" lon="2.7539321853658287"><ele>121.0</ele><time>2026-04-10T09:17:30.863Z</time></trkpt><trkpt lat="42.601833074261194" lon="2.753799139613827"><ele>121.00000000000001</ele><time>2026-04-10T09:17:32.861Z</time></trkpt><trkpt lat="42.60183756526032" lon="2.7537057416110997"><ele>121.0</ele><time>2026-04-10T09:17:33.86Z</time></trkpt><trkpt lat="42.601855965130795" lon="2.753611353232025"><ele>121.0</ele><time>2026-04-10T09:17:34.86Z</time></trkpt><trkpt lat="42.6018744007533" lon="2.7535009197836553"><ele>121.0</ele><time>2026-04-10T09:17:35.86Z</time></trkpt><trkpt lat="42.60190433136445" lon="2.7533902447585956"><ele>121.00000000000001</ele><time>2026-04-10T09:17:36.861Z</time></trkpt><trkpt lat="42.601929045235615" lon="2.753275456738993"><ele>121.0</ele><time>2026-04-10T09:17:37.861Z</time></trkpt><trkpt lat="42.6019262592967" lon="2.7531502095283975"><ele>121.0</ele><time>2026-04-10T09:17:38.861Z</time></trkpt><trkpt lat="42.60189724823286" lon="2.753023045175838"><ele>121.0</ele><time>2026-04-10T09:17:39.861Z</time></trkpt><trkpt lat="42.60185688541863" lon="2.7528998688920354"><ele>121.0</ele><time>2026-04-10T09:17:40.861Z</time></trkpt><trkpt lat="42.601812663968865" lon="2.752777752282205"><ele>121.0</ele><time>2026-04-10T09:17:41.86Z</time></trkpt><trkpt lat="42.60176423498514" lon="2.7526569383858384"><ele>121.0</ele><time>2026-04-10T09:17:42.86Z</time></trkpt><trkpt lat="42.60171192740836" lon="2.7525264491463863"><ele>121.19999999999999</ele><time>2026-04-10T09:17:43.86Z</time></trkpt><trkpt lat="42.60165836338589" lon="2.752399535725468"><ele>121.39999999999999</ele><time>2026-04-10T09:17:44.86Z</time></trkpt><trkpt lat="42.60161378106811" lon="2.7522586130126587"><ele>121.6</ele><time>2026-04-10T09:17:45.86Z</time></trkpt><trkpt lat="42.60156208844628" lon="2.7521217555291577"><ele>121.8</ele><time>2026-04-10T09:17:46.86Z</time></trkpt><trkpt lat="42.60150962035601" lon="2.751989659806342"><ele>122.0</ele><time>2026-04-10T09:17:47.86Z</time></trkpt><trkpt lat="42.60144053739213" lon="2.7518653473080943"><ele>122.19999999999999</ele><time>2026-04-10T09:17:48.861Z</time></trkpt><trkpt lat="42.60138292202806" lon="2.7517328645982664"><ele>122.39999999999999</ele><time>2026-04-10T09:17:49.861Z</time></trkpt><trkpt lat="42.601327301604066" lon="2.7516033121282524"><ele>122.60000000000001</ele><time>2026-04-10T09:17:50.861Z</time></trkpt><trkpt lat="42.60127449169998" lon="2.7514706255436234"><ele>122.80000000000001</ele><time>2026-04-10T09:17:51.861Z</time></trkpt><trkpt lat="42.601223322264396" lon="2.7513329291761424"><ele>123.0</ele><time>2026-04-10T09:17:52.861Z</time></trkpt><trkpt lat="42.60116744349853" lon="2.7512029574483328"><ele>123.0</ele><time>2026-04-10T09:17:53.861Z</time></trkpt><trkpt lat="42.60109172177809" lon="2.751072788870296"><ele>123.0</ele><time>2026-04-10T09:17:54.861Z</time></trkpt><trkpt lat="42.6010152365583" lon="2.750946509735559"><ele>123.0</ele><time>2026-04-10T09:17:55.861Z</time></trkpt><trkpt lat="42.600924019476466" lon="2.7508257367392686"><ele>123.0</ele><time>2026-04-10T09:17:56.861Z</time></trkpt><trkpt lat="42.600841911152344" lon="2.7507144389890428"><ele>123.5</ele><time>2026-04-10T09:17:57.861Z</time></trkpt><trkpt lat="42.600754308288714" lon="2.75058832733032"><ele>124.0</ele><time>2026-04-10T09:17:58.861Z</time></trkpt><trkpt lat="42.60067787185782" lon="2.7504708605435044"><ele>124.5</ele><time>2026-04-10T09:17:59.861Z</time></trkpt><trkpt lat="42.6005975456042" lon="2.7503499258106894"><ele>125.0</ele><time>2026-04-10T09:18:00.861Z</time></trkpt><trkpt lat="42.60052396451057" lon="2.750238894298431"><ele>125.2</ele><time>2026-04-10T09:18:01.861Z</time></trkpt><trkpt lat="42.60045699095764" lon="2.7501415089056307"><ele>125.4</ele><time>2026-04-10T09:18:02.861Z</time></trkpt><trkpt lat="42.6003985128949" lon="2.750037241933792"><ele>125.6</ele><time>2026-04-10T09:18:03.861Z</time></trkpt><trkpt lat="42.600349579315015" lon="2.7499345768937835"><ele>125.8</ele><time>2026-04-10T09:18:04.861Z</time></trkpt><trkpt lat="42.600296355048656" lon="2.749834282551771"><ele>126.0</ele><time>2026-04-10T09:18:05.861Z</time></trkpt><trkpt lat="42.60026428124783" lon="2.749727807209081"><ele>126.0</ele><time>2026-04-10T09:18:06.861Z</time></trkpt><trkpt lat="42.60023079896444" lon="2.7496385408927613"><ele>126.0</ele><time>2026-04-10T09:18:07.861Z</time></trkpt><trkpt lat="42.60018192082902" lon="2.749543563567498"><ele>126.0</ele><time>2026-04-10T09:18:08.861Z</time></trkpt><trkpt lat="42.60013504363319" lon="2.7494487997609856"><ele>126.0</ele><time>2026-04-10T09:18:09.861Z</time></trkpt><trkpt lat="42.600087447694236" lon="2.749370312302923"><ele>126.0</ele><time>2026-04-10T09:18:10.861Z</time></trkpt><trkpt lat="42.60004673181175" lon="2.7492850582890687"><ele>126.0</ele><time>2026-04-10T09:18:11.861Z</time></trkpt><trkpt lat="42.60000846097249" lon="2.7492048683714496"><ele>126.14285714285714</ele><time>2026-04-10T09:18:12.861Z</time></trkpt><trkpt lat="42.59996975465906" lon="2.749121305098936"><ele>126.28571428571428</ele><time>2026-04-10T09:18:13.861Z</time></trkpt><trkpt lat="42.59992727878836" lon="2.7490406913436645"><ele>126.42857142857143</ele><time>2026-04-10T09:18:14.861Z</time></trkpt><trkpt lat="42.59988887292354" lon="2.7489633798357382"><ele>126.57142857142857</ele><time>2026-04-10T09:18:15.861Z</time></trkpt><trkpt lat="42.59985230885668" lon="2.74888608746318"><ele>126.71428571428571</ele><time>2026-04-10T09:18:16.861Z</time></trkpt><trkpt lat="42.599813656604894" lon="2.748812668116173"><ele>126.85714285714286</ele><time>2026-04-10T09:18:17.861Z</time></trkpt><trkpt lat="42.599777196958385" lon="2.7487407659043472"><ele>127.0</ele><time>2026-04-10T09:18:18.861Z</time></trkpt><trkpt lat="42.59972819153125" lon="2.7486193390258475"><ele>127.50000000000001</ele><time>2026-04-10T09:18:20.861Z</time></trkpt><trkpt lat="42.599686939704405" lon="2.7485300923071954"><ele>128.0</ele><time>2026-04-10T09:18:22.861Z</time></trkpt><trkpt lat="42.599654295892286" lon="2.7484467857977943"><ele>128.5</ele><time>2026-04-10T09:18:24.861Z</time></trkpt><trkpt lat="42.59959636120607" lon="2.748336099555344"><ele>129.0</ele><time>2026-04-10T09:18:26.861Z</time></trkpt><trkpt lat="42.59954254367672" lon="2.7481903308775566"><ele>129.5</ele><time>2026-04-10T09:18:28.861Z</time></trkpt><trkpt lat="42.59950506091093" lon="2.74810823487606"><ele>130.0</ele><time>2026-04-10T09:18:29.861Z</time></trkpt><trkpt lat="42.59946623587305" lon="2.748022593365903"><ele>130.5</ele><time>2026-04-10T09:18:30.861Z</time></trkpt><trkpt lat="42.599430083296895" lon="2.747928645284741"><ele>131.0</ele><time>2026-04-10T09:18:31.861Z</time></trkpt><trkpt lat="42.59939244346604" lon="2.747823982861951"><ele>131.5</ele><time>2026-04-10T09:18:32.861Z</time></trkpt><trkpt lat="42.59934802546884" lon="2.7477124036383245"><ele>132.0</ele><time>2026-04-10T09:18:33.861Z</time></trkpt><trkpt lat="42.59931130103096" lon="2.747598144079931"><ele>132.5</ele><time>2026-04-10T09:18:34.861Z</time></trkpt><trkpt lat="42.59927638584036" lon="2.7474799358666533"><ele>133.0</ele><time>2026-04-10T09:18:35.861Z</time></trkpt><trkpt lat="42.59925981391087" lon="2.7473455975432306"><ele>133.0</ele><time>2026-04-10T09:18:36.861Z</time></trkpt><trkpt lat="42.59924052814385" lon="2.747215362970799"><ele>133.0</ele><time>2026-04-10T09:18:37.861Z</time></trkpt><trkpt lat="42.599206531314465" lon="2.7470826721723163"><ele>133.0</ele><time>2026-04-10T09:18:38.861Z</time></trkpt><trkpt lat="42.5991663420609" lon="2.746957879060946"><ele>133.0</ele><time>2026-04-10T09:18:39.861Z</time></trkpt><trkpt lat="42.59911643494475" lon="2.746831186592884"><ele>133.0</ele><time>2026-04-10T09:18:40.861Z</time></trkpt><trkpt lat="42.599077214982096" lon="2.7466949322192398"><ele>133.5</ele><time>2026-04-10T09:18:41.861Z</time></trkpt><trkpt lat="42.59902839985925" lon="2.7465669089150193"><ele>134.0</ele><time>2026-04-10T09:18:42.861Z</time></trkpt><trkpt lat="42.59897937568291" lon="2.7464240425977477"><ele>134.5</ele><time>2026-04-10T09:18:43.861Z</time></trkpt><trkpt lat="42.59892818044977" lon="2.746284698341763"><ele>135.0</ele><time>2026-04-10T09:18:44.861Z</time></trkpt><trkpt lat="42.59887870624152" lon="2.7461403051616364"><ele>135.5</ele><time>2026-04-10T09:18:45.861Z</time></trkpt><trkpt lat="42.598842008625134" lon="2.7459928492172354"><ele>136.0</ele><time>2026-04-10T09:18:46.861Z</time></trkpt><trkpt lat="42.59881261865275" lon="2.7458399416245607"><ele>136.5</ele><time>2026-04-10T09:18:47.861Z</time></trkpt><trkpt lat="42.598794614147984" lon="2.7456808484500317"><ele>137.0</ele><time>2026-04-10T09:18:48.861Z</time></trkpt><trkpt lat="42.59877203809573" lon="2.7455401664021815"><ele>137.0</ele><time>2026-04-10T09:18:49.861Z</time></trkpt><trkpt lat="42.598729119186764" lon="2.7454115627940276"><ele>137.0</ele><time>2026-04-10T09:18:50.861Z</time></trkpt><trkpt lat="42.598673221486955" lon="2.745304627868196"><ele>137.0</ele><time>2026-04-10T09:18:51.861Z</time></trkpt><trkpt lat="42.59860615080527" lon="2.745205408850376"><ele>137.0</ele><time>2026-04-10T09:18:52.861Z</time></trkpt><trkpt lat="42.59852013757177" lon="2.74514187165493"><ele>137.0</ele><time>2026-04-10T09:18:53.861Z</time></trkpt><trkpt lat="42.59842337085894" lon="2.7451045499732203"><ele>139.0</ele><time>2026-04-10T09:18:54.861Z</time></trkpt><trkpt lat="42.598323379298016" lon="2.745084362627065"><ele>141.0</ele><time>2026-04-10T09:18:55.861Z</time></trkpt><trkpt lat="42.59821875324754" lon="2.745068220509127"><ele>143.0</ele><time>2026-04-10T09:18:56.861Z</time></trkpt><trkpt lat="42.59811401088123" lon="2.7450195922888416"><ele>145.0</ele><time>2026-04-10T09:18:57.861Z</time></trkpt><trkpt lat="42.59801078975902" lon="2.7449813529720246"><ele>147.0</ele><time>2026-04-10T09:18:58.861Z</time></trkpt><trkpt lat="42.59790769940367" lon="2.744940563721077"><ele>148.66666666666666</ele><time>2026-04-10T09:18:59.861Z</time></trkpt><trkpt lat="42.59781723618915" lon="2.7448667539510243"><ele>150.33333333333334</ele><time>2026-04-10T09:19:00.861Z</time></trkpt><trkpt lat="42.59773257640836" lon="2.744813142558668"><ele>152.0</ele><time>2026-04-10T09:19:01.861Z</time></trkpt><trkpt lat="42.5976588888681" lon="2.744756915808945"><ele>153.66666666666669</ele><time>2026-04-10T09:19:02.861Z</time></trkpt><trkpt lat="42.59760880478662" lon="2.7446818488521925"><ele>155.33333333333334</ele><time>2026-04-10T09:19:03.861Z</time></trkpt><trkpt lat="42.597605834445844" lon="2.744589107159666"><ele>157.0</ele><time>2026-04-10T09:19:04.861Z</time></trkpt><trkpt lat="42.59755817912138" lon="2.7444812644334506"><ele>157.0</ele><time>2026-04-10T09:19:05.861Z</time></trkpt><trkpt lat="42.59748772452423" lon="2.744409790828552"><ele>157.0</ele><time>2026-04-10T09:19:06.861Z</time></trkpt><trkpt lat="42.597433209875774" lon="2.7443470525588696"><ele>157.0</ele><time>2026-04-10T09:19:07.861Z</time></trkpt><trkpt lat="42.597385827730555" lon="2.7442728791825877"><ele>157.0</ele><time>2026-04-10T09:19:08.861Z</time></trkpt><trkpt lat="42.59733628428968" lon="2.7441761437435734"><ele>157.0</ele><time>2026-04-10T09:19:09.861Z</time></trkpt><trkpt lat="42.59728015071797" lon="2.744072816789409"><ele>157.0</ele><time>2026-04-10T09:19:10.861Z</time></trkpt><trkpt lat="42.59721234111495" lon="2.7439761046539166"><ele>157.4</ele><time>2026-04-10T09:19:11.861Z</time></trkpt><trkpt lat="42.59715922698499" lon="2.743868084568338"><ele>157.79999999999998</ele><time>2026-04-10T09:19:12.861Z</time></trkpt><trkpt lat="42.59708900410738" lon="2.7437820923987"><ele>158.2</ele><time>2026-04-10T09:19:13.861Z</time></trkpt><trkpt lat="42.59703662304674" lon="2.74368380265559"><ele>158.6</ele><time>2026-04-10T09:19:14.861Z</time></trkpt><trkpt lat="42.596977204487686" lon="2.7435683356549814"><ele>159.0</ele><time>2026-04-10T09:19:15.861Z</time></trkpt><trkpt lat="42.596925739073775" lon="2.7434327844286113"><ele>160.5</ele><time>2026-04-10T09:19:16.861Z</time></trkpt><trkpt lat="42.59686074102911" lon="2.74329747254535"><ele>162.0</ele><time>2026-04-10T09:19:17.861Z</time></trkpt><trkpt lat="42.59678595306277" lon="2.743175061486028"><ele>163.5</ele><time>2026-04-10T09:19:18.861Z</time></trkpt><trkpt lat="42.59672917707743" lon="2.7430326723462697"><ele>165.0</ele><time>2026-04-10T09:19:19.861Z</time></trkpt><trkpt lat="42.596681600671076" lon="2.742873185522085"><ele>165.0</ele><time>2026-04-10T09:19:20.861Z</time></trkpt><trkpt lat="42.596630158588376" lon="2.742737220782815"><ele>165.0</ele><time>2026-04-10T09:19:21.861Z</time></trkpt><trkpt lat="42.59656699104609" lon="2.742611543814457"><ele>165.0</ele><time>2026-04-10T09:19:22.861Z</time></trkpt><trkpt lat="42.59650896086552" lon="2.742462670557498"><ele>165.0</ele><time>2026-04-10T09:19:23.861Z</time></trkpt><trkpt lat="42.59645656435878" lon="2.742304602840633"><ele>165.25</ele><time>2026-04-10T09:19:24.861Z</time></trkpt><trkpt lat="42.5964217042856" lon="2.74214384359608"><ele>165.5</ele><time>2026-04-10T09:19:25.861Z</time></trkpt><trkpt lat="42.59637438377847" lon="2.741989732705664"><ele>165.75</ele><time>2026-04-10T09:19:26.861Z</time></trkpt><trkpt lat="42.59630712542385" lon="2.7418470850799244"><ele>166.0</ele><time>2026-04-10T09:19:27.861Z</time></trkpt><trkpt lat="42.59622871327907" lon="2.741730272347749"><ele>167.75</ele><time>2026-04-10T09:19:28.861Z</time></trkpt><trkpt lat="42.596148460618586" lon="2.7416197156754847"><ele>169.5</ele><time>2026-04-10T09:19:29.861Z</time></trkpt><trkpt lat="42.59607567282718" lon="2.7415067242160642"><ele>171.25</ele><time>2026-04-10T09:19:30.861Z</time></trkpt><trkpt lat="42.59599776098054" lon="2.74138232541176"><ele>173.0</ele><time>2026-04-10T09:19:31.861Z</time></trkpt><trkpt lat="42.595907882206674" lon="2.7412631904656672"><ele>173.0</ele><time>2026-04-10T09:19:32.861Z</time></trkpt><trkpt lat="42.595830884446364" lon="2.7411228959189478"><ele>173.0</ele><time>2026-04-10T09:19:33.861Z</time></trkpt><trkpt lat="42.59574946708282" lon="2.7409979349648848"><ele>173.0</ele><time>2026-04-10T09:19:34.861Z</time></trkpt><trkpt lat="42.59566348859255" lon="2.7408576042097406"><ele>173.0</ele><time>2026-04-10T09:19:35.861Z</time></trkpt><trkpt lat="42.595581430936974" lon="2.740706434369537"><ele>173.25</ele><time>2026-04-10T09:19:36.861Z</time></trkpt><trkpt lat="42.59549665924729" lon="2.7405738135747315"><ele>173.5</ele><time>2026-04-10T09:19:37.861Z</time></trkpt><trkpt lat="42.59542035292993" lon="2.740443930842498"><ele>173.75</ele><time>2026-04-10T09:19:38.858Z</time></trkpt><trkpt lat="42.59535610772969" lon="2.7402972510536427"><ele>174.0</ele><time>2026-04-10T09:19:39.858Z</time></trkpt><trkpt lat="42.59530068636786" lon="2.7401459906855856"><ele>176.5</ele><time>2026-04-10T09:19:40.858Z</time></trkpt><trkpt lat="42.59524264405932" lon="2.739997567130521"><ele>179.0</ele><time>2026-04-10T09:19:41.858Z</time></trkpt><trkpt lat="42.595198413513415" lon="2.739836417706603"><ele>181.5</ele><time>2026-04-10T09:19:42.858Z</time></trkpt><trkpt lat="42.595158300949855" lon="2.7396813848977937"><ele>184.0</ele><time>2026-04-10T09:19:43.858Z</time></trkpt><trkpt lat="42.59511544784798" lon="2.73956337839123"><ele>184.0</ele><time>2026-04-10T09:19:44.858Z</time></trkpt><trkpt lat="42.595083170138146" lon="2.7394810361365556"><ele>184.0</ele><time>2026-04-10T09:19:45.857Z</time></trkpt><trkpt lat="42.59497232614718" lon="2.7394136908425137"><ele>184.0</ele><time>2026-04-10T09:19:47.858Z</time></trkpt><trkpt lat="42.594880909697146" lon="2.7394358045676284"><ele>184.0</ele><time>2026-04-10T09:19:48.858Z</time></trkpt><trkpt lat="42.59477834037746" lon="2.7394771075081623"><ele>184.0</ele><time>2026-04-10T09:19:49.858Z</time></trkpt><trkpt lat="42.59465824137528" lon="2.739495048810219"><ele>184.0</ele><time>2026-04-10T09:19:50.858Z</time></trkpt><trkpt lat="42.59453537378069" lon="2.7395086022026005"><ele>184.0</ele><time>2026-04-10T09:19:51.858Z</time></trkpt><trkpt lat="42.59440656354193" lon="2.7395175784699974"><ele>184.0</ele><time>2026-04-10T09:19:52.858Z</time></trkpt><trkpt lat="42.59427856173504" lon="2.7395232623743206"><ele>184.0</ele><time>2026-04-10T09:19:53.858Z</time></trkpt><trkpt lat="42.59415590887496" lon="2.739549742218929"><ele>185.0</ele><time>2026-04-10T09:19:54.858Z</time></trkpt><trkpt lat="42.59403294348361" lon="2.739576475596919"><ele>186.0</ele><time>2026-04-10T09:19:55.858Z</time></trkpt><trkpt lat="42.59390333269374" lon="2.73958780594132"><ele>187.0</ele><time>2026-04-10T09:19:56.858Z</time></trkpt><trkpt lat="42.59377432615417" lon="2.739596452634573"><ele>188.0</ele><time>2026-04-10T09:19:57.858Z</time></trkpt><trkpt lat="42.593642166161395" lon="2.739599985004949"><ele>190.0</ele><time>2026-04-10T09:19:58.858Z</time></trkpt><trkpt lat="42.59350794948325" lon="2.7395999806951643"><ele>192.0</ele><time>2026-04-10T09:19:59.858Z</time></trkpt><trkpt lat="42.59337553584103" lon="2.7395963512585184"><ele>194.0</ele><time>2026-04-10T09:20:00.858Z</time></trkpt><trkpt lat="42.59325197551963" lon="2.7396112804209363"><ele>196.0</ele><time>2026-04-10T09:20:01.858Z</time></trkpt><trkpt lat="42.59315259669298" lon="2.73962583446767"><ele>195.99999999999997</ele><time>2026-04-10T09:20:02.858Z</time></trkpt><trkpt lat="42.59308836935793" lon="2.7396000083240866"><ele>196.0</ele><time>2026-04-10T09:20:03.858Z</time></trkpt><trkpt lat="42.59302949873206" lon="2.7395376305258194"><ele>196.0</ele><time>2026-04-10T09:20:05.858Z</time></trkpt><trkpt lat="42.59308518909026" lon="2.7393688977018775"><ele>196.0</ele><time>2026-04-10T09:20:07.858Z</time></trkpt><trkpt lat="42.593103647852324" lon="2.739267401359093"><ele>195.99999999999997</ele><time>2026-04-10T09:20:08.858Z</time></trkpt><trkpt lat="42.593124393185754" lon="2.7391533324442108"><ele>196.0</ele><time>2026-04-10T09:20:09.858Z</time></trkpt><trkpt lat="42.59314704988416" lon="2.739028576640876"><ele>196.8</ele><time>2026-04-10T09:20:10.858Z</time></trkpt><trkpt lat="42.593169128788524" lon="2.738903508568391"><ele>197.60000000000002</ele><time>2026-04-10T09:20:11.858Z</time></trkpt><trkpt lat="42.593193296694594" lon="2.738766607105431"><ele>198.4</ele><time>2026-04-10T09:20:12.858Z</time></trkpt><trkpt lat="42.59320196002494" lon="2.7386182479164622"><ele>199.2</ele><time>2026-04-10T09:20:13.858Z</time></trkpt><trkpt lat="42.59321929596973" lon="2.738467941935208"><ele>200.0</ele><time>2026-04-10T09:20:14.858Z</time></trkpt><trkpt lat="42.59321955642229" lon="2.738312150441721"><ele>200.5</ele><time>2026-04-10T09:20:15.858Z</time></trkpt><trkpt lat="42.5932074270864" lon="2.738149085465901"><ele>201.0</ele><time>2026-04-10T09:20:16.858Z</time></trkpt><trkpt lat="42.59318117914271" lon="2.7379844727221094"><ele>201.5</ele><time>2026-04-10T09:20:17.858Z</time></trkpt><trkpt lat="42.59319813827858" lon="2.7378091279373424"><ele>202.0</ele><time>2026-04-10T09:20:18.858Z</time></trkpt><trkpt lat="42.593206374614795" lon="2.73763961940864"><ele>203.25</ele><time>2026-04-10T09:20:19.858Z</time></trkpt><trkpt lat="42.593198851730676" lon="2.7374636744648697"><ele>204.5</ele><time>2026-04-10T09:20:20.858Z</time></trkpt><trkpt lat="42.593211541139716" lon="2.7372847106032885"><ele>205.75</ele><time>2026-04-10T09:20:21.858Z</time></trkpt><trkpt lat="42.593203885250716" lon="2.737104248203934"><ele>207.0</ele><time>2026-04-10T09:20:22.858Z</time></trkpt><trkpt lat="42.59319801388467" lon="2.736930407069294"><ele>207.75</ele><time>2026-04-10T09:20:23.858Z</time></trkpt><trkpt lat="42.59317217245405" lon="2.736772570914951"><ele>208.5</ele><time>2026-04-10T09:20:24.858Z</time></trkpt><trkpt lat="42.5931425789729" lon="2.7366136609983025"><ele>209.25</ele><time>2026-04-10T09:20:25.858Z</time></trkpt><trkpt lat="42.59311956182362" lon="2.7364542905145104"><ele>210.0</ele><time>2026-04-10T09:20:26.858Z</time></trkpt><trkpt lat="42.593092214985475" lon="2.7362905674620364"><ele>210.0</ele><time>2026-04-10T09:20:27.858Z</time></trkpt><trkpt lat="42.593064583836664" lon="2.7361251681851115"><ele>210.0</ele><time>2026-04-10T09:20:28.858Z</time></trkpt><trkpt lat="42.593018877620445" lon="2.735956370857483"><ele>210.0</ele><time>2026-04-10T09:20:29.858Z</time></trkpt><trkpt lat="42.59297696678181" lon="2.735781795272058"><ele>210.0</ele><time>2026-04-10T09:20:30.858Z</time></trkpt><trkpt lat="42.59294189161218" lon="2.7355920636825766"><ele>210.75</ele><time>2026-04-10T09:20:31.858Z</time></trkpt><trkpt lat="42.592907795921896" lon="2.7354032589940918"><ele>211.5</ele><time>2026-04-10T09:20:32.858Z</time></trkpt><trkpt lat="42.592852660802606" lon="2.7352256935984234"><ele>212.25</ele><time>2026-04-10T09:20:33.858Z</time></trkpt><trkpt lat="42.59279861461028" lon="2.735036653545767"><ele>213.0</ele><time>2026-04-10T09:20:34.858Z</time></trkpt><trkpt lat="42.59273845681663" lon="2.734841580796968"><ele>213.66666666666669</ele><time>2026-04-10T09:20:35.858Z</time></trkpt><trkpt lat="42.592667807738614" lon="2.734653863841395"><ele>214.33333333333334</ele><time>2026-04-10T09:20:36.858Z</time></trkpt><trkpt lat="42.59258962639804" lon="2.7344599409176764"><ele>215.0</ele><time>2026-04-10T09:20:37.858Z</time></trkpt><trkpt lat="42.59249854378527" lon="2.734277397954381"><ele>215.0</ele><time>2026-04-10T09:20:38.858Z</time></trkpt><trkpt lat="42.592419922588036" lon="2.73408144880495"><ele>215.0</ele><time>2026-04-10T09:20:39.858Z</time></trkpt><trkpt lat="42.59235433228675" lon="2.7338751730815085"><ele>215.0</ele><time>2026-04-10T09:20:40.858Z</time></trkpt><trkpt lat="42.59229615419266" lon="2.733666367235583"><ele>216.0</ele><time>2026-04-10T09:20:41.858Z</time></trkpt><trkpt lat="42.592236917830576" lon="2.7334557237009736"><ele>217.0</ele><time>2026-04-10T09:20:42.858Z</time></trkpt><trkpt lat="42.59216849354671" lon="2.73325734425465"><ele>218.0</ele><time>2026-04-10T09:20:43.858Z</time></trkpt><trkpt lat="42.59209860448029" lon="2.733034224392208"><ele>218.0</ele><time>2026-04-10T09:20:44.86Z</time></trkpt><trkpt lat="42.592039671087726" lon="2.7328127181463477"><ele>218.0</ele><time>2026-04-10T09:20:45.863Z</time></trkpt><trkpt lat="42.5919888395593" lon="2.7326132286000298"><ele>218.0</ele><time>2026-04-10T09:20:46.866Z</time></trkpt><trkpt lat="42.59194416724772" lon="2.7324097031027876"><ele>217.75</ele><time>2026-04-10T09:20:47.868Z</time></trkpt><trkpt lat="42.59190309783394" lon="2.7322107349916465"><ele>217.5</ele><time>2026-04-10T09:20:48.87Z</time></trkpt><trkpt lat="42.591875509525316" lon="2.7320246331315454"><ele>217.25</ele><time>2026-04-10T09:20:49.872Z</time></trkpt><trkpt lat="42.59183713813539" lon="2.731859958565753"><ele>217.0</ele><time>2026-04-10T09:20:50.874Z</time></trkpt><trkpt lat="42.59181184800547" lon="2.7316972906225105"><ele>218.25</ele><time>2026-04-10T09:20:51.876Z</time></trkpt><trkpt lat="42.591761526868396" lon="2.731546541315095"><ele>219.5</ele><time>2026-04-10T09:20:52.878Z</time></trkpt><trkpt lat="42.59173434041232" lon="2.7313867138429218"><ele>220.75</ele><time>2026-04-10T09:20:53.88Z</time></trkpt><trkpt lat="42.59170112176388" lon="2.7312239595669725"><ele>222.0</ele><time>2026-04-10T09:20:54.881Z</time></trkpt><trkpt lat="42.59166809764764" lon="2.731061217619489"><ele>222.75</ele><time>2026-04-10T09:20:55.883Z</time></trkpt><trkpt lat="42.591620238823" lon="2.730903639592721"><ele>223.5</ele><time>2026-04-10T09:20:56.884Z</time></trkpt><trkpt lat="42.591599267681126" lon="2.73073880713706"><ele>224.25</ele><time>2026-04-10T09:20:57.885Z</time></trkpt><trkpt lat="42.59156230100924" lon="2.7305861222768333"><ele>225.0</ele><time>2026-04-10T09:20:58.886Z</time></trkpt><trkpt lat="42.59152515715474" lon="2.730440487995835"><ele>225.0</ele><time>2026-04-10T09:20:59.888Z</time></trkpt><trkpt lat="42.59150295651056" lon="2.7302842239799605"><ele>225.0</ele><time>2026-04-10T09:21:00.889Z</time></trkpt><trkpt lat="42.591478858709664" lon="2.7301314637802254"><ele>225.0</ele><time>2026-04-10T09:21:01.89Z</time></trkpt><trkpt lat="42.59145530722596" lon="2.729981762116259"><ele>225.0</ele><time>2026-04-10T09:21:02.891Z</time></trkpt><trkpt lat="42.59143122957178" lon="2.729834734904091"><ele>224.75</ele><time>2026-04-10T09:21:03.891Z</time></trkpt><trkpt lat="42.59139653066444" lon="2.72969021238847"><ele>224.5</ele><time>2026-04-10T09:21:04.892Z</time></trkpt><trkpt lat="42.59137010555122" lon="2.729544396897424"><ele>224.25</ele><time>2026-04-10T09:21:05.893Z</time></trkpt><trkpt lat="42.59134952492601" lon="2.72938400228459"><ele>224.0</ele><time>2026-04-10T09:21:06.894Z</time></trkpt><trkpt lat="42.59132255673712" lon="2.729224687528283"><ele>223.75</ele><time>2026-04-10T09:21:07.894Z</time></trkpt><trkpt lat="42.591291772699975" lon="2.7290628241029813"><ele>223.5</ele><time>2026-04-10T09:21:08.895Z</time></trkpt><trkpt lat="42.5912635262209" lon="2.728897293128549"><ele>223.25</ele><time>2026-04-10T09:21:09.896Z</time></trkpt><trkpt lat="42.591247982522276" lon="2.728737491066652"><ele>223.0</ele><time>2026-04-10T09:21:10.896Z</time></trkpt><trkpt lat="42.59121789337021" lon="2.728586978232746"><ele>224.0</ele><time>2026-04-10T09:21:11.897Z</time></trkpt><trkpt lat="42.591151179453966" lon="2.728446070514785"><ele>225.0</ele><time>2026-04-10T09:21:12.897Z</time></trkpt><trkpt lat="42.59108188244818" lon="2.7283186280026825"><ele>226.0</ele><time>2026-04-10T09:21:13.898Z</time></trkpt><trkpt lat="42.591006068034005" lon="2.7281919092417737"><ele>227.0</ele><time>2026-04-10T09:21:14.898Z</time></trkpt><trkpt lat="42.59094336257276" lon="2.72807287525947"><ele>227.0</ele><time>2026-04-10T09:21:15.898Z</time></trkpt><trkpt lat="42.59086305973985" lon="2.72797499704742"><ele>227.0</ele><time>2026-04-10T09:21:16.899Z</time></trkpt><trkpt lat="42.59077116057079" lon="2.7279185379113335"><ele>227.0</ele><time>2026-04-10T09:21:17.899Z</time></trkpt><trkpt lat="42.590665737542814" lon="2.727898531980738"><ele>227.0</ele><time>2026-04-10T09:21:18.9Z</time></trkpt><trkpt lat="42.59055589432142" lon="2.727914752094638"><ele>227.0</ele><time>2026-04-10T09:21:19.9Z</time></trkpt><trkpt lat="42.59046268558601" lon="2.7279370311670905"><ele>227.00000000000003</ele><time>2026-04-10T09:21:20.9Z</time></trkpt><trkpt lat="42.59037327471776" lon="2.7278831848959455"><ele>227.0</ele><time>2026-04-10T09:21:21.9Z</time></trkpt><trkpt lat="42.590310631479014" lon="2.727828778790757"><ele>227.0</ele><time>2026-04-10T09:21:22.901Z</time></trkpt><trkpt lat="42.59025552781344" lon="2.7277577781490256"><ele>227.0</ele><time>2026-04-10T09:21:23.901Z</time></trkpt><trkpt lat="42.5902296762177" lon="2.7276487873135262"><ele>227.00000000000003</ele><time>2026-04-10T09:21:24.901Z</time></trkpt><trkpt lat="42.59024501774439" lon="2.7275249570157003"><ele>227.0</ele><time>2026-04-10T09:21:25.901Z</time></trkpt><trkpt lat="42.590232107779286" lon="2.7273791763653152"><ele>227.6</ele><time>2026-04-10T09:21:26.902Z</time></trkpt><trkpt lat="42.59018219006183" lon="2.7272785886852593"><ele>228.2</ele><time>2026-04-10T09:21:27.902Z</time></trkpt><trkpt lat="42.590098718100116" lon="2.727222548005969"><ele>228.8</ele><time>2026-04-10T09:21:28.902Z</time></trkpt><trkpt lat="42.58998853638181" lon="2.72718156065988"><ele>229.4</ele><time>2026-04-10T09:21:29.902Z</time></trkpt><trkpt lat="42.58988435673763" lon="2.7271259126222107"><ele>230.0</ele><time>2026-04-10T09:21:30.902Z</time></trkpt><trkpt lat="42.589774140738086" lon="2.7270662719756733"><ele>230.0</ele><time>2026-04-10T09:21:31.903Z</time></trkpt><trkpt lat="42.589667429993135" lon="2.727011640116221"><ele>230.0</ele><time>2026-04-10T09:21:32.903Z</time></trkpt><trkpt lat="42.58956867931433" lon="2.7269468403049433"><ele>230.0</ele><time>2026-04-10T09:21:33.903Z</time></trkpt><trkpt lat="42.589473387460835" lon="2.7268835882288895"><ele>230.0</ele><time>2026-04-10T09:21:34.903Z</time></trkpt><trkpt lat="42.58937040435074" lon="2.7268158083636083"><ele>230.0</ele><time>2026-04-10T09:21:35.903Z</time></trkpt><trkpt lat="42.589268938235236" lon="2.726783537657982"><ele>231.0</ele><time>2026-04-10T09:21:36.903Z</time></trkpt><trkpt lat="42.5891600131409" lon="2.7267534312577597"><ele>232.0</ele><time>2026-04-10T09:21:37.903Z</time></trkpt><trkpt lat="42.58905775136069" lon="2.7267393477581074"><ele>233.0</ele><time>2026-04-10T09:21:38.903Z</time></trkpt><trkpt lat="42.58895950715148" lon="2.7266998287322637"><ele>234.0</ele><time>2026-04-10T09:21:39.904Z</time></trkpt><trkpt lat="42.5888681648354" lon="2.7266429802571284"><ele>235.0</ele><time>2026-04-10T09:21:40.904Z</time></trkpt><trkpt lat="42.58876246971401" lon="2.7266175336659835"><ele>235.6</ele><time>2026-04-10T09:21:41.904Z</time></trkpt><trkpt lat="42.588669804622675" lon="2.7265664227157025"><ele>236.2</ele><time>2026-04-10T09:21:42.904Z</time></trkpt><trkpt lat="42.58857443651734" lon="2.7265189237428715"><ele>236.8</ele><time>2026-04-10T09:21:43.904Z</time></trkpt><trkpt lat="42.58847831414077" lon="2.726454370970259"><ele>237.4</ele><time>2026-04-10T09:21:44.901Z</time></trkpt><trkpt lat="42.58837654466917" lon="2.7264026906362617"><ele>238.0</ele><time>2026-04-10T09:21:45.901Z</time></trkpt><trkpt lat="42.58826896963494" lon="2.7263423279099595"><ele>238.0</ele><time>2026-04-10T09:21:46.901Z</time></trkpt><trkpt lat="42.58815190067288" lon="2.7262975013170667"><ele>238.0</ele><time>2026-04-10T09:21:47.901Z</time></trkpt><trkpt lat="42.5880273202676" lon="2.726241119924744"><ele>238.0</ele><time>2026-04-10T09:21:48.901Z</time></trkpt><trkpt lat="42.587906746733466" lon="2.7261780082757867"><ele>238.0</ele><time>2026-04-10T09:21:49.901Z</time></trkpt><trkpt lat="42.58778532726845" lon="2.7261134724877323"><ele>236.5</ele><time>2026-04-10T09:21:50.901Z</time></trkpt><trkpt lat="42.587656991137344" lon="2.726060143125901"><ele>235.0</ele><time>2026-04-10T09:21:51.901Z</time></trkpt><trkpt lat="42.58753296141175" lon="2.726027308941743"><ele>233.5</ele><time>2026-04-10T09:21:52.901Z</time></trkpt><trkpt lat="42.587402281535994" lon="2.7259863056632976"><ele>232.0</ele><time>2026-04-10T09:21:53.901Z</time></trkpt><trkpt lat="42.587282526989284" lon="2.7259413642573027"><ele>232.0</ele><time>2026-04-10T09:21:54.901Z</time></trkpt><trkpt lat="42.58716120510879" lon="2.725901080233983"><ele>232.0</ele><time>2026-04-10T09:21:55.901Z</time></trkpt><trkpt lat="42.58704894567704" lon="2.72584429314094"><ele>232.0</ele><time>2026-04-10T09:21:56.901Z</time></trkpt><trkpt lat="42.5869460186657" lon="2.7257796623469552"><ele>232.0</ele><time>2026-04-10T09:21:57.901Z</time></trkpt><trkpt lat="42.58686021144226" lon="2.72568842572768"><ele>232.39999999999998</ele><time>2026-04-10T09:21:58.901Z</time></trkpt><trkpt lat="42.58677543818642" lon="2.7256019315590447"><ele>232.79999999999998</ele><time>2026-04-10T09:21:59.901Z</time></trkpt><trkpt lat="42.5866910022882" lon="2.72550781044375"><ele>233.2</ele><time>2026-04-10T09:22:00.901Z</time></trkpt><trkpt lat="42.5866056141748" lon="2.7254125602961508"><ele>233.6</ele><time>2026-04-10T09:22:01.901Z</time></trkpt><trkpt lat="42.58650368391782" lon="2.72532293156928"><ele>234.0</ele><time>2026-04-10T09:22:02.901Z</time></trkpt><trkpt lat="42.586419195154306" lon="2.725215939257899"><ele>235.5</ele><time>2026-04-10T09:22:03.902Z</time></trkpt><trkpt lat="42.58633498659248" lon="2.7251043328621787"><ele>237.0</ele><time>2026-04-10T09:22:04.902Z</time></trkpt><trkpt lat="42.58624375801155" lon="2.7249988942401866"><ele>238.5</ele><time>2026-04-10T09:22:05.902Z</time></trkpt><trkpt lat="42.58615283134464" lon="2.7248926047853375"><ele>240.0</ele><time>2026-04-10T09:22:06.902Z</time></trkpt><trkpt lat="42.586059691269575" lon="2.7247889659854323"><ele>240.0</ele><time>2026-04-10T09:22:07.902Z</time></trkpt><trkpt lat="42.58596878028298" lon="2.7246787559326973"><ele>240.0</ele><time>2026-04-10T09:22:08.902Z</time></trkpt><trkpt lat="42.58587559730732" lon="2.7245822357673926"><ele>240.0</ele><time>2026-04-10T09:22:09.902Z</time></trkpt><trkpt lat="42.585792853577885" lon="2.7244678345545355"><ele>240.0</ele><time>2026-04-10T09:22:10.902Z</time></trkpt><trkpt lat="42.585717149914146" lon="2.7243531161523378"><ele>240.0</ele><time>2026-04-10T09:22:11.902Z</time></trkpt><trkpt lat="42.58563289057015" lon="2.724258473817435"><ele>240.0</ele><time>2026-04-10T09:22:12.902Z</time></trkpt><trkpt lat="42.585540810718" lon="2.7241696323994113"><ele>240.0</ele><time>2026-04-10T09:22:13.902Z</time></trkpt><trkpt lat="42.58545432284052" lon="2.7240675390873395"><ele>240.0</ele><time>2026-04-10T09:22:14.902Z</time></trkpt><trkpt lat="42.58537040150028" lon="2.72397211159348"><ele>240.0</ele><time>2026-04-10T09:22:15.902Z</time></trkpt><trkpt lat="42.58528527710761" lon="2.7238787496356203"><ele>240.0</ele><time>2026-04-10T09:22:16.902Z</time></trkpt><trkpt lat="42.58519466782419" lon="2.7237816702733832"><ele>240.0</ele><time>2026-04-10T09:22:17.902Z</time></trkpt><trkpt lat="42.58511359557417" lon="2.7236660279389744"><ele>240.0</ele><time>2026-04-10T09:22:18.902Z</time></trkpt><trkpt lat="42.585025942057236" lon="2.7235502108956107"><ele>240.0</ele><time>2026-04-10T09:22:19.902Z</time></trkpt><trkpt lat="42.58495808098138" lon="2.7234164723519054"><ele>241.25</ele><time>2026-04-10T09:22:20.902Z</time></trkpt><trkpt lat="42.584873603168425" lon="2.7233048760249665"><ele>242.5</ele><time>2026-04-10T09:22:21.902Z</time></trkpt><trkpt lat="42.58481083291036" lon="2.723157468622916"><ele>243.75</ele><time>2026-04-10T09:22:22.902Z</time></trkpt><trkpt lat="42.58472057323623" lon="2.723038629938249"><ele>245.0</ele><time>2026-04-10T09:22:23.902Z</time></trkpt><trkpt lat="42.58464623532235" lon="2.7229068999005026"><ele>245.0</ele><time>2026-04-10T09:22:24.902Z</time></trkpt><trkpt lat="42.58456159187036" lon="2.722784940836924"><ele>245.0</ele><time>2026-04-10T09:22:25.902Z</time></trkpt><trkpt lat="42.584471213949065" lon="2.72267134006763"><ele>245.0</ele><time>2026-04-10T09:22:26.902Z</time></trkpt><trkpt lat="42.58438433587948" lon="2.7225536873047913"><ele>245.0</ele><time>2026-04-10T09:22:27.902Z</time></trkpt><trkpt lat="42.584291183907894" lon="2.722438954022415"><ele>246.25</ele><time>2026-04-10T09:22:28.902Z</time></trkpt><trkpt lat="42.58419122365226" lon="2.7223544086509257"><ele>247.5</ele><time>2026-04-10T09:22:29.902Z</time></trkpt><trkpt lat="42.58409295197327" lon="2.7222712253199344"><ele>248.75</ele><time>2026-04-10T09:22:30.902Z</time></trkpt><trkpt lat="42.58399905458019" lon="2.7221746895964674"><ele>250.0</ele><time>2026-04-10T09:22:31.902Z</time></trkpt><trkpt lat="42.583911452722674" lon="2.7220607340578726"><ele>250.0</ele><time>2026-04-10T09:22:32.902Z</time></trkpt><trkpt lat="42.583857420378195" lon="2.7219283186192755"><ele>250.0</ele><time>2026-04-10T09:22:33.902Z</time></trkpt><trkpt lat="42.58379261314122" lon="2.7218033542082667"><ele>250.0</ele><time>2026-04-10T09:22:34.902Z</time></trkpt><trkpt lat="42.58373869815856" lon="2.7216731429143226"><ele>250.0</ele><time>2026-04-10T09:22:35.902Z</time></trkpt><trkpt lat="42.583689891463905" lon="2.7215387317237094"><ele>250.0</ele><time>2026-04-10T09:22:36.902Z</time></trkpt><trkpt lat="42.58364528552879" lon="2.721393327414456"><ele>251.25</ele><time>2026-04-10T09:22:37.902Z</time></trkpt><trkpt lat="42.58360301065861" lon="2.721243992173136"><ele>252.5</ele><time>2026-04-10T09:22:38.902Z</time></trkpt><trkpt lat="42.5835634556292" lon="2.7211067232368715"><ele>253.75</ele><time>2026-04-10T09:22:39.902Z</time></trkpt><trkpt lat="42.583518245159695" lon="2.7209646166484602"><ele>255.0</ele><time>2026-04-10T09:22:40.902Z</time></trkpt><trkpt lat="42.583495109868075" lon="2.720816516434652"><ele>256.0</ele><time>2026-04-10T09:22:41.902Z</time></trkpt><trkpt lat="42.58343722887865" lon="2.720689879358676"><ele>257.0</ele><time>2026-04-10T09:22:42.902Z</time></trkpt><trkpt lat="42.58339924170617" lon="2.7205407292521744"><ele>258.0</ele><time>2026-04-10T09:22:43.902Z</time></trkpt><trkpt lat="42.58334016254478" lon="2.720406776109271"><ele>259.0</ele><time>2026-04-10T09:22:44.902Z</time></trkpt><trkpt lat="42.58326325912352" lon="2.720280213773251"><ele>259.0</ele><time>2026-04-10T09:22:45.902Z</time></trkpt><trkpt lat="42.583208631940316" lon="2.7201304284839476"><ele>259.0</ele><time>2026-04-10T09:22:46.903Z</time></trkpt><trkpt lat="42.58314450015231" lon="2.7199955626999452"><ele>259.0</ele><time>2026-04-10T09:22:47.903Z</time></trkpt><trkpt lat="42.583079358245996" lon="2.7198585727299807"><ele>259.0</ele><time>2026-04-10T09:22:48.903Z</time></trkpt><trkpt lat="42.58302253375417" lon="2.7197394851403307"><ele>259.0</ele><time>2026-04-10T09:22:49.903Z</time></trkpt><trkpt lat="42.582972068783874" lon="2.7196188133330605"><ele>259.0</ele><time>2026-04-10T09:22:50.903Z</time></trkpt><trkpt lat="42.58292863916572" lon="2.7195297521404176"><ele>259.0</ele><time>2026-04-10T09:22:51.903Z</time></trkpt><trkpt lat="42.582888512441606" lon="2.719454700513181"><ele>259.0</ele><time>2026-04-10T09:22:52.903Z</time></trkpt><trkpt lat="42.58285785543795" lon="2.7193763778438598"><ele>259.0</ele><time>2026-04-10T09:22:53.903Z</time></trkpt><trkpt lat="42.58281176729312" lon="2.7193083632256196"><ele>259.0</ele><time>2026-04-10T09:22:54.903Z</time></trkpt><trkpt lat="42.58278054269876" lon="2.7192299251132255"><ele>259.0</ele><time>2026-04-10T09:22:55.903Z</time></trkpt><trkpt lat="42.58274171967828" lon="2.7191537286228593"><ele>258.8333333333333</ele><time>2026-04-10T09:22:56.903Z</time></trkpt><trkpt lat="42.58270440294981" lon="2.7190802658614732"><ele>258.66666666666663</ele><time>2026-04-10T09:22:57.903Z</time></trkpt><trkpt lat="42.58267008189094" lon="2.719004280908559"><ele>258.5</ele><time>2026-04-10T09:22:58.903Z</time></trkpt><trkpt lat="42.58264226196816" lon="2.718925247422551"><ele>258.3333333333333</ele><time>2026-04-10T09:22:59.903Z</time></trkpt><trkpt lat="42.58258517616331" lon="2.718788920260203"><ele>258.1666666666667</ele><time>2026-04-10T09:23:01.903Z</time></trkpt><trkpt lat="42.58254672921988" lon="2.7186666293733657"><ele>258.0</ele><time>2026-04-10T09:23:03.903Z</time></trkpt><trkpt lat="42.58248993615216" lon="2.7185320960307684"><ele>258.0</ele><time>2026-04-10T09:23:05.903Z</time></trkpt><trkpt lat="42.582431559951765" lon="2.718395085566552"><ele>258.0</ele><time>2026-04-10T09:23:07.903Z</time></trkpt><trkpt lat="42.5823733409362" lon="2.7182433552086276"><ele>258.0</ele><time>2026-04-10T09:23:09.903Z</time></trkpt><trkpt lat="42.58233688870572" lon="2.718157577741357"><ele>258.0</ele><time>2026-04-10T09:23:10.903Z</time></trkpt><trkpt lat="42.58230492848322" lon="2.7180687958862104"><ele>258.0</ele><time>2026-04-10T09:23:11.903Z</time></trkpt><trkpt lat="42.582269980860175" lon="2.717975636084362"><ele>258.0</ele><time>2026-04-10T09:23:12.903Z</time></trkpt><trkpt lat="42.58223791562949" lon="2.7178777922219806"><ele>258.0</ele><time>2026-04-10T09:23:13.903Z</time></trkpt><trkpt lat="42.58221566913959" lon="2.7177747282659936"><ele>258.0</ele><time>2026-04-10T09:23:14.903Z</time></trkpt><trkpt lat="42.58220333044054" lon="2.717663534072938"><ele>258.0</ele><time>2026-04-10T09:23:15.903Z</time></trkpt><trkpt lat="42.58219775964442" lon="2.7175403453673255"><ele>258.0</ele><time>2026-04-10T09:23:16.903Z</time></trkpt><trkpt lat="42.58219031814716" lon="2.7174332532831933"><ele>258.0</ele><time>2026-04-10T09:23:17.903Z</time></trkpt><trkpt lat="42.58217398071575" lon="2.7173063033477454"><ele>257.8333333333333</ele><time>2026-04-10T09:23:18.903Z</time></trkpt><trkpt lat="42.582157781214356" lon="2.7171911792358125"><ele>257.6666666666667</ele><time>2026-04-10T09:23:19.903Z</time></trkpt><trkpt lat="42.58213298894139" lon="2.7170942257102295"><ele>257.5</ele><time>2026-04-10T09:23:20.903Z</time></trkpt><trkpt lat="42.58208527515923" lon="2.7170006487284084"><ele>257.33333333333337</ele><time>2026-04-10T09:23:21.903Z</time></trkpt><trkpt lat="42.58203432459023" lon="2.7169100160303197"><ele>257.1666666666667</ele><time>2026-04-10T09:23:22.903Z</time></trkpt><trkpt lat="42.58194053579672" lon="2.716877068599801"><ele>257.0</ele><time>2026-04-10T09:23:23.903Z</time></trkpt><trkpt lat="42.58184494031231" lon="2.716851604105549"><ele>255.8</ele><time>2026-04-10T09:23:24.903Z</time></trkpt><trkpt lat="42.58174383871426" lon="2.7168738467388702"><ele>254.6</ele><time>2026-04-10T09:23:25.903Z</time></trkpt><trkpt lat="42.581644371436816" lon="2.7168734778418573"><ele>253.40000000000003</ele><time>2026-04-10T09:23:26.903Z</time></trkpt><trkpt lat="42.581550633604145" lon="2.7168789365062893"><ele>252.20000000000002</ele><time>2026-04-10T09:23:27.903Z</time></trkpt><trkpt lat="42.58145290004467" lon="2.716878195306423"><ele>251.0</ele><time>2026-04-10T09:23:28.903Z</time></trkpt><trkpt lat="42.58134985297866" lon="2.7168719763734455"><ele>251.0</ele><time>2026-04-10T09:23:29.903Z</time></trkpt><trkpt lat="42.581249341716635" lon="2.7168820786648276"><ele>251.00000000000003</ele><time>2026-04-10T09:23:30.903Z</time></trkpt><trkpt lat="42.58114635890135" lon="2.7168887760708946"><ele>251.00000000000003</ele><time>2026-04-10T09:23:31.903Z</time></trkpt><trkpt lat="42.58105119091981" lon="2.71691978314394"><ele>251.0</ele><time>2026-04-10T09:23:32.903Z</time></trkpt><trkpt lat="42.58095897869298" lon="2.71694669129383"><ele>251.0</ele><time>2026-04-10T09:23:33.903Z</time></trkpt><trkpt lat="42.58086895087508" lon="2.7169694775650477"><ele>251.33333333333334</ele><time>2026-04-10T09:23:34.903Z</time></trkpt><trkpt lat="42.58078855728679" lon="2.7169617016698036"><ele>251.66666666666669</ele><time>2026-04-10T09:23:35.903Z</time></trkpt><trkpt lat="42.58072462080872" lon="2.716959065278204"><ele>252.0</ele><time>2026-04-10T09:23:36.903Z</time></trkpt><trkpt lat="42.58066063494721" lon="2.716847679836358"><ele>252.33333333333331</ele><time>2026-04-10T09:23:38.903Z</time></trkpt><trkpt lat="42.580635606692155" lon="2.7166783432779837"><ele>252.66666666666666</ele><time>2026-04-10T09:23:40.903Z</time></trkpt><trkpt lat="42.58062581499032" lon="2.716584854285936"><ele>253.0</ele><time>2026-04-10T09:23:41.903Z</time></trkpt><trkpt lat="42.58061652617019" lon="2.716474406626031"><ele>252.99999999999997</ele><time>2026-04-10T09:23:42.904Z</time></trkpt><trkpt lat="42.58060964112117" lon="2.7163709710617865"><ele>253.0</ele><time>2026-04-10T09:23:43.904Z</time></trkpt><trkpt lat="42.58058824355035" lon="2.716254784641191"><ele>253.0</ele><time>2026-04-10T09:23:44.904Z</time></trkpt><trkpt lat="42.580582892688" lon="2.7161476148339276"><ele>253.0</ele><time>2026-04-10T09:23:45.904Z</time></trkpt><trkpt lat="42.58058794526232" lon="2.7160352591049994"><ele>252.99999999999997</ele><time>2026-04-10T09:23:46.904Z</time></trkpt><trkpt lat="42.58057910092747" lon="2.715911596759"><ele>253.0</ele><time>2026-04-10T09:23:47.904Z</time></trkpt><trkpt lat="42.580573984772606" lon="2.7157938556480694"><ele>254.60000000000002</ele><time>2026-04-10T09:23:48.904Z</time></trkpt><trkpt lat="42.58055902739485" lon="2.7156624325973264"><ele>256.20000000000005</ele><time>2026-04-10T09:23:49.904Z</time></trkpt><trkpt lat="42.58056042716371" lon="2.715533939181023"><ele>257.8</ele><time>2026-04-10T09:23:50.9Z</time></trkpt><trkpt lat="42.580546433151916" lon="2.7154030410092167"><ele>259.40000000000003</ele><time>2026-04-10T09:23:51.9Z</time></trkpt><trkpt lat="42.58052830370341" lon="2.7152847140448033"><ele>261.0</ele><time>2026-04-10T09:23:52.9Z</time></trkpt><trkpt lat="42.58046479653533" lon="2.715200440803095"><ele>261.40000000000003</ele><time>2026-04-10T09:23:53.9Z</time></trkpt><trkpt lat="42.58038001749749" lon="2.7151639347940706"><ele>261.8</ele><time>2026-04-10T09:23:54.9Z</time></trkpt><trkpt lat="42.58027334084634" lon="2.7151527724022237"><ele>262.20000000000005</ele><time>2026-04-10T09:23:55.9Z</time></trkpt><trkpt lat="42.580178091856645" lon="2.715098658037181"><ele>262.6</ele><time>2026-04-10T09:23:56.9Z</time></trkpt><trkpt lat="42.58008442665892" lon="2.7150532812460137"><ele>263.0</ele><time>2026-04-10T09:23:57.9Z</time></trkpt><trkpt lat="42.579998768963186" lon="2.714984417697604"><ele>263.0</ele><time>2026-04-10T09:23:58.9Z</time></trkpt><trkpt lat="42.57992402649842" lon="2.714905574270927"><ele>263.0</ele><time>2026-04-10T09:23:59.9Z</time></trkpt><trkpt lat="42.57984136761475" lon="2.7148245640553905"><ele>263.0</ele><time>2026-04-10T09:24:00.9Z</time></trkpt><trkpt lat="42.57975887640713" lon="2.7147429143239883"><ele>263.0</ele><time>2026-04-10T09:24:01.9Z</time></trkpt><trkpt lat="42.57966836006291" lon="2.7146856514346536"><ele>263.0</ele><time>2026-04-10T09:24:02.9Z</time></trkpt><trkpt lat="42.57956559847159" lon="2.7146757187006667"><ele>263.8</ele><time>2026-04-10T09:24:03.9Z</time></trkpt><trkpt lat="42.57946074580547" lon="2.7146589768532214"><ele>264.6</ele><time>2026-04-10T09:24:04.9Z</time></trkpt><trkpt lat="42.57938217956255" lon="2.7146097213372564"><ele>265.4</ele><time>2026-04-10T09:24:05.9Z</time></trkpt><trkpt lat="42.579316868201936" lon="2.7145408668015"><ele>266.2</ele><time>2026-04-10T09:24:06.9Z</time></trkpt><trkpt lat="42.57929262139693" lon="2.7144309601288366"><ele>267.0</ele><time>2026-04-10T09:24:07.9Z</time></trkpt><trkpt lat="42.57926217791451" lon="2.7142927463900675"><ele>267.0</ele><time>2026-04-10T09:24:08.9Z</time></trkpt><trkpt lat="42.57927498814522" lon="2.7141461284993347"><ele>267.0</ele><time>2026-04-10T09:24:09.9Z</time></trkpt><trkpt lat="42.57935510483884" lon="2.714037616161357"><ele>267.0</ele><time>2026-04-10T09:24:10.9Z</time></trkpt><trkpt lat="42.57939520735577" lon="2.713924690905511"><ele>267.0</ele><time>2026-04-10T09:24:11.9Z</time></trkpt><trkpt lat="42.57944335390839" lon="2.7138437046894652"><ele>267.0</ele><time>2026-04-10T09:24:12.9Z</time></trkpt><trkpt lat="42.57944821168908" lon="2.713754251630052"><ele>267.0</ele><time>2026-04-10T09:24:13.9Z</time></trkpt><trkpt lat="42.57934075174751" lon="2.7136590198218578"><ele>267.0</ele><time>2026-04-10T09:24:15.9Z</time></trkpt><trkpt lat="42.57927064833864" lon="2.7136810478007782"><ele>267.0</ele><time>2026-04-10T09:24:16.9Z</time></trkpt><trkpt lat="42.57921567206325" lon="2.713754477788521"><ele>267.0</ele><time>2026-04-10T09:24:17.9Z</time></trkpt><trkpt lat="42.57915801473817" lon="2.713838805111624"><ele>267.0</ele><time>2026-04-10T09:24:18.9Z</time></trkpt><trkpt lat="42.579092072201824" lon="2.713894032059815"><ele>267.0</ele><time>2026-04-10T09:24:19.9Z</time></trkpt><trkpt lat="42.57902711548636" lon="2.713941476934858"><ele>267.0</ele><time>2026-04-10T09:24:20.9Z</time></trkpt><trkpt lat="42.578952301888684" lon="2.71399577358518"><ele>267.0</ele><time>2026-04-10T09:24:21.9Z</time></trkpt><trkpt lat="42.578879042988085" lon="2.714050140102126"><ele>267.0</ele><time>2026-04-10T09:24:22.9Z</time></trkpt><trkpt lat="42.57880627429355" lon="2.714129800753664"><ele>267.0</ele><time>2026-04-10T09:24:23.9Z</time></trkpt><trkpt lat="42.5787292851733" lon="2.714187977157149"><ele>267.0</ele><time>2026-04-10T09:24:24.9Z</time></trkpt><trkpt lat="42.57864718960227" lon="2.714252236979121"><ele>267.0</ele><time>2026-04-10T09:24:25.9Z</time></trkpt><trkpt lat="42.5785581439665" lon="2.714281375463135"><ele>268.4</ele><time>2026-04-10T09:24:26.9Z</time></trkpt><trkpt lat="42.57847389096854" lon="2.7143057957114407"><ele>269.79999999999995</ele><time>2026-04-10T09:24:27.9Z</time></trkpt><trkpt lat="42.57838331549087" lon="2.7143101214570264"><ele>271.2</ele><time>2026-04-10T09:24:28.901Z</time></trkpt><trkpt lat="42.578287538486634" lon="2.714303386388209"><ele>272.59999999999997</ele><time>2026-04-10T09:24:29.901Z</time></trkpt><trkpt lat="42.578185299119866" lon="2.7142989580430217"><ele>274.0</ele><time>2026-04-10T09:24:30.901Z</time></trkpt><trkpt lat="42.57808576461201" lon="2.7142927891583373"><ele>274.0</ele><time>2026-04-10T09:24:31.901Z</time></trkpt><trkpt lat="42.577998091265776" lon="2.714287265337598"><ele>274.0</ele><time>2026-04-10T09:24:32.901Z</time></trkpt><trkpt lat="42.57791618680614" lon="2.714290296333341"><ele>274.0</ele><time>2026-04-10T09:24:33.901Z</time></trkpt><trkpt lat="42.57782726216127" lon="2.714328447428529"><ele>274.0</ele><time>2026-04-10T09:24:34.901Z</time></trkpt><trkpt lat="42.57772939414376" lon="2.7143444132428294"><ele>274.0</ele><time>2026-04-10T09:24:35.901Z</time></trkpt><trkpt lat="42.57763411354725" lon="2.714356861587719"><ele>273.4</ele><time>2026-04-10T09:24:36.901Z</time></trkpt><trkpt lat="42.577532326980645" lon="2.714372114741362"><ele>272.79999999999995</ele><time>2026-04-10T09:24:37.901Z</time></trkpt><trkpt lat="42.57742759032043" lon="2.7143782518469832"><ele>272.20000000000005</ele><time>2026-04-10T09:24:38.901Z</time></trkpt><trkpt lat="42.57731823416496" lon="2.714391128016828"><ele>271.6</ele><time>2026-04-10T09:24:39.901Z</time></trkpt><trkpt lat="42.57720904723211" lon="2.7144200860705743"><ele>271.0</ele><time>2026-04-10T09:24:40.901Z</time></trkpt><trkpt lat="42.57710123896519" lon="2.7144569295822696"><ele>268.2</ele><time>2026-04-10T09:24:41.901Z</time></trkpt><trkpt lat="42.57699220617935" lon="2.714473985971145"><ele>265.40000000000003</ele><time>2026-04-10T09:24:42.901Z</time></trkpt><trkpt lat="42.576891367640755" lon="2.714487351662957"><ele>262.6</ele><time>2026-04-10T09:24:43.901Z</time></trkpt><trkpt lat="42.57679507319624" lon="2.7144812200272015"><ele>259.8</ele><time>2026-04-10T09:24:44.901Z</time></trkpt><trkpt lat="42.57671158473348" lon="2.714448606550377"><ele>257.0</ele><time>2026-04-10T09:24:45.901Z</time></trkpt><trkpt lat="42.57665224150307" lon="2.7143830093126464"><ele>257.0</ele><time>2026-04-10T09:24:46.901Z</time></trkpt><trkpt lat="42.576613757493185" lon="2.714290133955903"><ele>257.0</ele><time>2026-04-10T09:24:47.901Z</time></trkpt><trkpt lat="42.576639625954186" lon="2.714171943036912"><ele>257.0</ele><time>2026-04-10T09:24:48.901Z</time></trkpt><trkpt lat="42.576629557968154" lon="2.7140401499101956"><ele>257.0</ele><time>2026-04-10T09:24:49.901Z</time></trkpt><trkpt lat="42.5766076542892" lon="2.71390146395658"><ele>257.0</ele><time>2026-04-10T09:24:50.901Z</time></trkpt><trkpt lat="42.57659299851596" lon="2.713766212821693"><ele>257.0</ele><time>2026-04-10T09:24:51.901Z</time></trkpt><trkpt lat="42.576602623085336" lon="2.713629824899352"><ele>257.0</ele><time>2026-04-10T09:24:52.901Z</time></trkpt><trkpt lat="42.57659300619499" lon="2.713488975756652"><ele>257.0</ele><time>2026-04-10T09:24:53.901Z</time></trkpt><trkpt lat="42.57657605507281" lon="2.7133504120279115"><ele>257.0</ele><time>2026-04-10T09:24:54.901Z</time></trkpt><trkpt lat="42.57657315113698" lon="2.713203133371121"><ele>257.0</ele><time>2026-04-10T09:24:55.901Z</time></trkpt><trkpt lat="42.57658917491147" lon="2.7130571790873024"><ele>256.8</ele><time>2026-04-10T09:24:56.901Z</time></trkpt><trkpt lat="42.57660474661655" lon="2.712917584469073"><ele>256.6</ele><time>2026-04-10T09:24:57.901Z</time></trkpt><trkpt lat="42.57660802271261" lon="2.712760791612588"><ele>256.40000000000003</ele><time>2026-04-10T09:24:58.901Z</time></trkpt><trkpt lat="42.576619583096075" lon="2.712610059115043"><ele>256.2</ele><time>2026-04-10T09:24:59.901Z</time></trkpt><trkpt lat="42.576623621628414" lon="2.7124543982930285"><ele>256.0</ele><time>2026-04-10T09:25:00.901Z</time></trkpt><trkpt lat="42.57664281230003" lon="2.712308107651651"><ele>255.49999999999997</ele><time>2026-04-10T09:25:01.901Z</time></trkpt><trkpt lat="42.57663984943169" lon="2.7121701568969927"><ele>255.0</ele><time>2026-04-10T09:25:02.901Z</time></trkpt><trkpt lat="42.57662621847794" lon="2.7120508308018496"><ele>254.5</ele><time>2026-04-10T09:25:03.901Z</time></trkpt><trkpt lat="42.57661142396523" lon="2.711954528451601"><ele>254.0</ele><time>2026-04-10T09:25:04.901Z</time></trkpt><trkpt lat="42.57660533845657" lon="2.7118691187252413"><ele>253.49999999999997</ele><time>2026-04-10T09:25:05.901Z</time></trkpt><trkpt lat="42.57660409004272" lon="2.7117458589327037"><ele>253.0</ele><time>2026-04-10T09:25:07.901Z</time></trkpt><trkpt lat="42.57658779400368" lon="2.711619080364203"><ele>252.0</ele><time>2026-04-10T09:25:09.901Z</time></trkpt><trkpt lat="42.57657340204194" lon="2.71148565967992"><ele>251.0</ele><time>2026-04-10T09:25:11.901Z</time></trkpt><trkpt lat="42.57653728602131" lon="2.71136613476626"><ele>250.0</ele><time>2026-04-10T09:25:13.901Z</time></trkpt><trkpt lat="42.576496671783005" lon="2.7112413494550203"><ele>249.0</ele><time>2026-04-10T09:25:15.901Z</time></trkpt><trkpt lat="42.57643544370103" lon="2.7111327954902524"><ele>248.0</ele><time>2026-04-10T09:25:17.901Z</time></trkpt><trkpt lat="42.57638049938768" lon="2.711033091839483"><ele>246.85714285714286</ele><time>2026-04-10T09:25:19.901Z</time></trkpt><trkpt lat="42.576368453665594" lon="2.7109392205063583"><ele>245.71428571428572</ele><time>2026-04-10T09:25:21.901Z</time></trkpt><trkpt lat="42.57633311828481" lon="2.7108601531953216"><ele>244.57142857142858</ele><time>2026-04-10T09:25:24.902Z</time></trkpt><trkpt lat="42.576308184865965" lon="2.71073294935309"><ele>243.42857142857144</ele><time>2026-04-10T09:25:26.902Z</time></trkpt><trkpt lat="42.576297582167086" lon="2.710644046328934"><ele>242.28571428571428</ele><time>2026-04-10T09:25:27.902Z</time></trkpt><trkpt lat="42.57627805844816" lon="2.7105465769110917"><ele>241.14285714285717</ele><time>2026-04-10T09:25:28.902Z</time></trkpt><trkpt lat="42.5762637432831" lon="2.7104502963155053"><ele>240.0</ele><time>2026-04-10T09:25:29.902Z</time></trkpt><trkpt lat="42.57624874353676" lon="2.7103415373771416"><ele>240.0</ele><time>2026-04-10T09:25:30.902Z</time></trkpt><trkpt lat="42.57623018906454" lon="2.7102303942838524"><ele>240.0</ele><time>2026-04-10T09:25:31.902Z</time></trkpt><trkpt lat="42.57621499859476" lon="2.7101254955651224"><ele>240.0</ele><time>2026-04-10T09:25:32.902Z</time></trkpt><trkpt lat="42.57620170984986" lon="2.7100056855244707"><ele>240.0</ele><time>2026-04-10T09:25:33.902Z</time></trkpt><trkpt lat="42.57617997569412" lon="2.709892516273479"><ele>240.0</ele><time>2026-04-10T09:25:34.902Z</time></trkpt><trkpt lat="42.57616094221818" lon="2.7097752718451473"><ele>240.0</ele><time>2026-04-10T09:25:35.902Z</time></trkpt><trkpt lat="42.576131882941034" lon="2.709660443958588"><ele>240.0</ele><time>2026-04-10T09:25:36.902Z</time></trkpt><trkpt lat="42.57610040537407" lon="2.7095519255566742"><ele>240.0</ele><time>2026-04-10T09:25:37.902Z</time></trkpt><trkpt lat="42.57607993009513" lon="2.7094497499664643"><ele>240.0</ele><time>2026-04-10T09:25:38.902Z</time></trkpt><trkpt lat="42.5760596252605" lon="2.7093642774340014"><ele>240.0</ele><time>2026-04-10T09:25:39.902Z</time></trkpt><trkpt lat="42.57601659739339" lon="2.709266605096231"><ele>240.0</ele><time>2026-04-10T09:25:41.902Z</time></trkpt><trkpt lat="42.576003453931385" lon="2.7091476909003123"><ele>240.0</ele><time>2026-04-10T09:25:47.902Z</time></trkpt><trkpt lat="42.57597769262388" lon="2.708989245815477"><ele>240.83333333333334</ele><time>2026-04-10T09:25:49.902Z</time></trkpt><trkpt lat="42.57594289896376" lon="2.7088183271652033"><ele>241.66666666666669</ele><time>2026-04-10T09:25:51.902Z</time></trkpt><trkpt lat="42.57593077467538" lon="2.7087173652778023"><ele>242.5</ele><time>2026-04-10T09:25:52.902Z</time></trkpt><trkpt lat="42.57593341708244" lon="2.7086118304151308"><ele>243.33333333333334</ele><time>2026-04-10T09:25:53.902Z</time></trkpt><trkpt lat="42.575925853326254" lon="2.7084962953310763"><ele>244.16666666666669</ele><time>2026-04-10T09:25:54.902Z</time></trkpt><trkpt lat="42.575924272562894" lon="2.708390661266406"><ele>245.0</ele><time>2026-04-10T09:25:55.902Z</time></trkpt><trkpt lat="42.575921913906924" lon="2.7082661794480516"><ele>245.2</ele><time>2026-04-10T09:25:56.899Z</time></trkpt><trkpt lat="42.57592131455301" lon="2.7081495178830823"><ele>245.4</ele><time>2026-04-10T09:25:57.899Z</time></trkpt><trkpt lat="42.575928242240956" lon="2.708024700301299"><ele>245.60000000000002</ele><time>2026-04-10T09:25:58.899Z</time></trkpt><trkpt lat="42.575932021892946" lon="2.707898549613444"><ele>245.8</ele><time>2026-04-10T09:25:59.899Z</time></trkpt><trkpt lat="42.57591763694316" lon="2.7077717407843327"><ele>246.0</ele><time>2026-04-10T09:26:00.899Z</time></trkpt><trkpt lat="42.57591870290288" lon="2.707654660469215"><ele>246.20000000000002</ele><time>2026-04-10T09:26:01.899Z</time></trkpt><trkpt lat="42.57592945758286" lon="2.7075475334107444"><ele>246.40000000000003</ele><time>2026-04-10T09:26:02.898Z</time></trkpt><trkpt lat="42.575928123837926" lon="2.7074126519778536"><ele>246.6</ele><time>2026-04-10T09:26:03.899Z</time></trkpt><trkpt lat="42.57593571753335" lon="2.7072838759808966"><ele>246.8</ele><time>2026-04-10T09:26:04.899Z</time></trkpt><trkpt lat="42.575938571107955" lon="2.707170983971659"><ele>247.0</ele><time>2026-04-10T09:26:05.899Z</time></trkpt><trkpt lat="42.575940157301496" lon="2.7070424552893106"><ele>247.0</ele><time>2026-04-10T09:26:06.898Z</time></trkpt><trkpt lat="42.575929106356945" lon="2.706915018551036"><ele>247.0</ele><time>2026-04-10T09:26:07.898Z</time></trkpt><trkpt lat="42.57593491478345" lon="2.706781610847503"><ele>247.0</ele><time>2026-04-10T09:26:08.899Z</time></trkpt><trkpt lat="42.57592027007657" lon="2.706657074984548"><ele>247.0</ele><time>2026-04-10T09:26:09.898Z</time></trkpt><trkpt lat="42.57589758532474" lon="2.7065380632033156"><ele>247.0</ele><time>2026-04-10T09:26:10.898Z</time></trkpt><trkpt lat="42.57588054484159" lon="2.7064209132277477"><ele>247.33333333333331</ele><time>2026-04-10T09:26:11.898Z</time></trkpt><trkpt lat="42.5758537872374" lon="2.7063048712206914"><ele>247.66666666666666</ele><time>2026-04-10T09:26:12.898Z</time></trkpt><trkpt lat="42.575827838665575" lon="2.706194143926714"><ele>248.0</ele><time>2026-04-10T09:26:13.898Z</time></trkpt><trkpt lat="42.57579446992088" lon="2.706084691077325"><ele>248.33333333333331</ele><time>2026-04-10T09:26:14.898Z</time></trkpt><trkpt lat="42.57575387453115" lon="2.705978434013462"><ele>248.66666666666666</ele><time>2026-04-10T09:26:15.898Z</time></trkpt><trkpt lat="42.57571899175496" lon="2.7058661906257058"><ele>249.0</ele><time>2026-04-10T09:26:16.898Z</time></trkpt><trkpt lat="42.57568706938638" lon="2.705756954344778"><ele>249.0</ele><time>2026-04-10T09:26:17.898Z</time></trkpt><trkpt lat="42.57564426681407" lon="2.705649333033271"><ele>248.99999999999997</ele><time>2026-04-10T09:26:18.898Z</time></trkpt><trkpt lat="42.57561155850812" lon="2.7055283224298194"><ele>248.99999999999997</ele><time>2026-04-10T09:26:19.898Z</time></trkpt><trkpt lat="42.5755861487317" lon="2.705403821231519"><ele>249.0</ele><time>2026-04-10T09:26:20.898Z</time></trkpt><trkpt lat="42.57558895779997" lon="2.705279173893254"><ele>249.0</ele><time>2026-04-10T09:26:21.898Z</time></trkpt><trkpt lat="42.57559276193067" lon="2.7051523900141867"><ele>248.83333333333334</ele><time>2026-04-10T09:26:22.898Z</time></trkpt><trkpt lat="42.575617570776195" lon="2.705031938475904"><ele>248.66666666666669</ele><time>2026-04-10T09:26:23.898Z</time></trkpt><trkpt lat="42.57564821173702" lon="2.7049233664652523"><ele>248.5</ele><time>2026-04-10T09:26:24.898Z</time></trkpt><trkpt lat="42.575679389417886" lon="2.7048158906238244"><ele>248.33333333333334</ele><time>2026-04-10T09:26:25.898Z</time></trkpt><trkpt lat="42.57570863623446" lon="2.7047047793986168"><ele>248.16666666666669</ele><time>2026-04-10T09:26:26.898Z</time></trkpt><trkpt lat="42.57572238478624" lon="2.7046047157297894"><ele>248.0</ele><time>2026-04-10T09:26:27.898Z</time></trkpt><trkpt lat="42.57573465662127" lon="2.7044948349773366"><ele>248.66666666666669</ele><time>2026-04-10T09:26:28.899Z</time></trkpt><trkpt lat="42.575746419025776" lon="2.704376341794896"><ele>249.33333333333334</ele><time>2026-04-10T09:26:29.899Z</time></trkpt><trkpt lat="42.57575269362745" lon="2.704254547255412"><ele>250.0</ele><time>2026-04-10T09:26:30.899Z</time></trkpt><trkpt lat="42.575761838051335" lon="2.7041302372317277"><ele>250.66666666666669</ele><time>2026-04-10T09:26:31.899Z</time></trkpt><trkpt lat="42.57577001565853" lon="2.7040071654714515"><ele>251.33333333333334</ele><time>2026-04-10T09:26:32.899Z</time></trkpt><trkpt lat="42.57576599181185" lon="2.7038922632762143"><ele>252.0</ele><time>2026-04-10T09:26:33.899Z</time></trkpt><trkpt lat="42.57574932940659" lon="2.7037610258843925"><ele>252.0</ele><time>2026-04-10T09:26:34.899Z</time></trkpt><trkpt lat="42.57572551479733" lon="2.7036326679946336"><ele>252.0</ele><time>2026-04-10T09:26:35.899Z</time></trkpt><trkpt lat="42.57569461793973" lon="2.7035116303640034"><ele>252.0</ele><time>2026-04-10T09:26:36.899Z</time></trkpt><trkpt lat="42.57567224883272" lon="2.7033856892618453"><ele>252.0</ele><time>2026-04-10T09:26:37.899Z</time></trkpt><trkpt lat="42.57563213418995" lon="2.7032736631419234"><ele>252.0</ele><time>2026-04-10T09:26:38.899Z</time></trkpt><trkpt lat="42.575594287815875" lon="2.7031606175881095"><ele>251.66666666666666</ele><time>2026-04-10T09:26:39.899Z</time></trkpt><trkpt lat="42.57553635973095" lon="2.7030831407653744"><ele>251.33333333333331</ele><time>2026-04-10T09:26:40.899Z</time></trkpt><trkpt lat="42.575476422794964" lon="2.7030015607245725"><ele>251.0</ele><time>2026-04-10T09:26:41.899Z</time></trkpt><trkpt lat="42.57544337978116" lon="2.702898586471593"><ele>250.66666666666666</ele><time>2026-04-10T09:26:42.899Z</time></trkpt><trkpt lat="42.575440073931546" lon="2.7027846788474066"><ele>250.33333333333331</ele><time>2026-04-10T09:26:43.899Z</time></trkpt><trkpt lat="42.57549276456886" lon="2.702671802579112"><ele>250.0</ele><time>2026-04-10T09:26:44.899Z</time></trkpt><trkpt lat="42.57549017667722" lon="2.7025391910557253"><ele>250.0</ele><time>2026-04-10T09:26:45.899Z</time></trkpt><trkpt lat="42.57549555754276" lon="2.7024158554089315"><ele>250.0</ele><time>2026-04-10T09:26:46.899Z</time></trkpt><trkpt lat="42.5754769640105" lon="2.7022821655345015"><ele>250.0</ele><time>2026-04-10T09:26:47.899Z</time></trkpt><trkpt lat="42.57546477288629" lon="2.7021467545314866"><ele>250.0</ele><time>2026-04-10T09:26:48.899Z</time></trkpt><trkpt lat="42.57544719468469" lon="2.7020119224782864"><ele>250.0</ele><time>2026-04-10T09:26:49.899Z</time></trkpt><trkpt lat="42.57541309923319" lon="2.7019036137036814"><ele>250.33333333333331</ele><time>2026-04-10T09:26:50.899Z</time></trkpt><trkpt lat="42.57539485988441" lon="2.7017963126817035"><ele>250.66666666666666</ele><time>2026-04-10T09:26:52.899Z</time></trkpt><trkpt lat="42.575379183788904" lon="2.701697345598797"><ele>251.0</ele><time>2026-04-10T09:27:55.9Z</time></trkpt><trkpt lat="42.57533801306818" lon="2.701564084538709"><ele>251.33333333333331</ele><time>2026-04-10T09:27:57.9Z</time></trkpt><trkpt lat="42.57530968262118" lon="2.701481422603663"><ele>251.66666666666666</ele><time>2026-04-10T09:27:58.9Z</time></trkpt><trkpt lat="42.575276567997854" lon="2.701390726808897"><ele>252.0</ele><time>2026-04-10T09:27:59.9Z</time></trkpt><trkpt lat="42.57524750561927" lon="2.701298415331159"><ele>252.0</ele><time>2026-04-10T09:28:00.9Z</time></trkpt><trkpt lat="42.575232033529254" lon="2.701196301683825"><ele>252.0</ele><time>2026-04-10T09:28:01.9Z</time></trkpt><trkpt lat="42.57519951948168" lon="2.7011024391558527"><ele>252.0</ele><time>2026-04-10T09:28:02.899Z</time></trkpt><trkpt lat="42.575163162919566" lon="2.7010045695916474"><ele>252.0</ele><time>2026-04-10T09:28:03.898Z</time></trkpt><trkpt lat="42.57512488556718" lon="2.700908494807338"><ele>252.0</ele><time>2026-04-10T09:28:04.898Z</time></trkpt><trkpt lat="42.575082570624616" lon="2.7008076087965804"><ele>252.0</ele><time>2026-04-10T09:28:05.899Z</time></trkpt><trkpt lat="42.57503757643119" lon="2.7007174027013425"><ele>252.57142857142856</ele><time>2026-04-10T09:28:06.898Z</time></trkpt><trkpt lat="42.57499368021998" lon="2.7006283215926823"><ele>253.14285714285714</ele><time>2026-04-10T09:28:07.898Z</time></trkpt><trkpt lat="42.574955518635534" lon="2.700542098913682"><ele>253.71428571428572</ele><time>2026-04-10T09:28:08.898Z</time></trkpt><trkpt lat="42.57491967897133" lon="2.70046669108425"><ele>254.28571428571428</ele><time>2026-04-10T09:28:09.898Z</time></trkpt><trkpt lat="42.574879527622336" lon="2.700394184499456"><ele>254.85714285714283</ele><time>2026-04-10T09:28:10.898Z</time></trkpt><trkpt lat="42.57484048457576" lon="2.700317895686002"><ele>255.42857142857142</ele><time>2026-04-10T09:28:11.898Z</time></trkpt><trkpt lat="42.57480484219127" lon="2.7002419929121015"><ele>256.0</ele><time>2026-04-10T09:28:12.897Z</time></trkpt><trkpt lat="42.57476834976899" lon="2.7001633975949075"><ele>256.2857142857143</ele><time>2026-04-10T09:28:13.897Z</time></trkpt><trkpt lat="42.57473823928909" lon="2.70007748345744"><ele>256.57142857142856</ele><time>2026-04-10T09:28:14.898Z</time></trkpt><trkpt lat="42.57469481901289" lon="2.7000013016894147"><ele>256.85714285714283</ele><time>2026-04-10T09:28:15.897Z</time></trkpt><trkpt lat="42.57462788255054" lon="2.6999378346763376"><ele>257.1428571428571</ele><time>2026-04-10T09:28:16.898Z</time></trkpt><trkpt lat="42.57457210537279" lon="2.699878331656951"><ele>257.42857142857144</ele><time>2026-04-10T09:28:17.898Z</time></trkpt><trkpt lat="42.574517559215494" lon="2.699827855295725"><ele>257.71428571428567</ele><time>2026-04-10T09:28:18.898Z</time></trkpt><trkpt lat="42.57445633619447" lon="2.6997839820134937"><ele>258.0</ele><time>2026-04-10T09:28:19.898Z</time></trkpt><trkpt lat="42.57438113382314" lon="2.6997225262940994"><ele>258.2</ele><time>2026-04-10T09:28:20.898Z</time></trkpt><trkpt lat="42.574281877224344" lon="2.6996237836736543"><ele>258.4</ele><time>2026-04-10T09:28:22.898Z</time></trkpt><trkpt lat="42.5742060156116" lon="2.6995752087427274"><ele>258.59999999999997</ele><time>2026-04-10T09:28:23.898Z</time></trkpt><trkpt lat="42.574140980700584" lon="2.6995239105046522"><ele>258.8</ele><time>2026-04-10T09:28:24.898Z</time></trkpt><trkpt lat="42.57407885590751" lon="2.699460650705716"><ele>259.0</ele><time>2026-04-10T09:28:25.898Z</time></trkpt><trkpt lat="42.57394655357516" lon="2.6993636571040356"><ele>259.0</ele><time>2026-04-10T09:28:27.898Z</time></trkpt><trkpt lat="42.573873331397536" lon="2.6992960877887517"><ele>259.0</ele><time>2026-04-10T09:28:28.898Z</time></trkpt><trkpt lat="42.57379418990745" lon="2.6992731325917614"><ele>259.0</ele><time>2026-04-10T09:28:29.898Z</time></trkpt><trkpt lat="42.573715638051915" lon="2.699211373564811"><ele>259.0</ele><time>2026-04-10T09:28:31.898Z</time></trkpt><trkpt lat="42.573686753749975" lon="2.6990476514599377"><ele>259.0</ele><time>2026-04-10T09:28:33.898Z</time></trkpt><trkpt lat="42.573578666340644" lon="2.6989653088261494"><ele>259.8333333333333</ele><time>2026-04-10T09:28:35.898Z</time></trkpt><trkpt lat="42.57351003069977" lon="2.698943665914485"><ele>260.66666666666663</ele><time>2026-04-10T09:28:36.898Z</time></trkpt><trkpt lat="42.573441561622744" lon="2.6988966013784856"><ele>261.5</ele><time>2026-04-10T09:28:37.898Z</time></trkpt><trkpt lat="42.573379789850634" lon="2.698834260427185"><ele>262.3333333333333</ele><time>2026-04-10T09:28:38.898Z</time></trkpt><trkpt lat="42.57330461352939" lon="2.6987650316040024"><ele>263.1666666666667</ele><time>2026-04-10T09:28:39.898Z</time></trkpt><trkpt lat="42.573230127933854" lon="2.698732829999761"><ele>264.0</ele><time>2026-04-10T09:28:40.898Z</time></trkpt><trkpt lat="42.57315089091979" lon="2.6986814411407942"><ele>264.0</ele><time>2026-04-10T09:28:41.898Z</time></trkpt><trkpt lat="42.57306724403368" lon="2.6986305117714444"><ele>264.0</ele><time>2026-04-10T09:28:42.898Z</time></trkpt><trkpt lat="42.57298504884964" lon="2.6985736055307656"><ele>264.0</ele><time>2026-04-10T09:28:43.898Z</time></trkpt><trkpt lat="42.57289353313163" lon="2.698523484982677"><ele>264.0</ele><time>2026-04-10T09:28:44.898Z</time></trkpt><trkpt lat="42.5728080543593" lon="2.6984615070075435"><ele>264.0</ele><time>2026-04-10T09:28:45.898Z</time></trkpt><trkpt lat="42.57273336785551" lon="2.698383176628162"><ele>263.8</ele><time>2026-04-10T09:28:46.898Z</time></trkpt><trkpt lat="42.57265223495385" lon="2.6982982751800475"><ele>263.59999999999997</ele><time>2026-04-10T09:28:47.898Z</time></trkpt><trkpt lat="42.572575274295296" lon="2.698221768448762"><ele>263.4</ele><time>2026-04-10T09:28:48.898Z</time></trkpt><trkpt lat="42.5725011246924" lon="2.698142039036778"><ele>263.2</ele><time>2026-04-10T09:28:49.898Z</time></trkpt><trkpt lat="42.57241086455682" lon="2.698070569747494"><ele>263.0</ele><time>2026-04-10T09:28:50.898Z</time></trkpt><trkpt lat="42.57232151787885" lon="2.6980014018362444"><ele>263.0</ele><time>2026-04-10T09:28:51.898Z</time></trkpt><trkpt lat="42.57223543898096" lon="2.697927862538765"><ele>263.0</ele><time>2026-04-10T09:28:52.898Z</time></trkpt><trkpt lat="42.572151142459646" lon="2.6978519424622993"><ele>263.0</ele><time>2026-04-10T09:28:53.898Z</time></trkpt><trkpt lat="42.57207757202323" lon="2.697761985273772"><ele>263.0</ele><time>2026-04-10T09:28:54.898Z</time></trkpt><trkpt lat="42.57200748619296" lon="2.69767981671324"><ele>263.0</ele><time>2026-04-10T09:28:55.898Z</time></trkpt><trkpt lat="42.5719207939182" lon="2.697603388690477"><ele>264.4</ele><time>2026-04-10T09:28:56.898Z</time></trkpt><trkpt lat="42.571848024648396" lon="2.697502730149665"><ele>265.8</ele><time>2026-04-10T09:28:57.898Z</time></trkpt><trkpt lat="42.571786826591904" lon="2.697388597937537"><ele>267.2</ele><time>2026-04-10T09:28:58.898Z</time></trkpt><trkpt lat="42.571715526997295" lon="2.6972817458443137"><ele>268.6</ele><time>2026-04-10T09:28:59.898Z</time></trkpt><trkpt lat="42.571648152947496" lon="2.697178994297542"><ele>270.0</ele><time>2026-04-10T09:29:00.898Z</time></trkpt><trkpt lat="42.57158409342656" lon="2.6970842178374346"><ele>270.0</ele><time>2026-04-10T09:29:01.898Z</time></trkpt><trkpt lat="42.571507626046184" lon="2.696976006278014"><ele>270.0</ele><time>2026-04-10T09:29:02.898Z</time></trkpt><trkpt lat="42.57141902861597" lon="2.6969151758308234"><ele>270.0</ele><time>2026-04-10T09:29:03.898Z</time></trkpt><trkpt lat="42.571322184271885" lon="2.6969185602758565"><ele>270.0</ele><time>2026-04-10T09:29:04.898Z</time></trkpt><trkpt lat="42.571226328851985" lon="2.696915978778044"><ele>270.0</ele><time>2026-04-10T09:29:05.898Z</time></trkpt><trkpt lat="42.57112162826725" lon="2.6969095654100306"><ele>270.6</ele><time>2026-04-10T09:29:06.898Z</time></trkpt><trkpt lat="42.57102072695159" lon="2.6969134419803047"><ele>271.2</ele><time>2026-04-10T09:29:07.898Z</time></trkpt><trkpt lat="42.57091053168861" lon="2.6968677485093213"><ele>271.8</ele><time>2026-04-10T09:29:08.898Z</time></trkpt><trkpt lat="42.57080680819154" lon="2.6968265770532303"><ele>272.4</ele><time>2026-04-10T09:29:09.898Z</time></trkpt><trkpt lat="42.570697696255586" lon="2.6967981621256665"><ele>273.0</ele><time>2026-04-10T09:29:10.898Z</time></trkpt><trkpt lat="42.57060422183118" lon="2.6967658709062676"><ele>273.0</ele><time>2026-04-10T09:29:11.898Z</time></trkpt><trkpt lat="42.570516283130914" lon="2.6966928367193765"><ele>273.0</ele><time>2026-04-10T09:29:35.899Z</time></trkpt><trkpt lat="42.5704096333869" lon="2.696647487688674"><ele>273.0</ele><time>2026-04-10T09:29:37.899Z</time></trkpt><trkpt lat="42.570354916072276" lon="2.6965868021955006"><ele>273.0</ele><time>2026-04-10T09:29:38.899Z</time></trkpt><trkpt lat="42.57029194350678" lon="2.6964899140857534"><ele>273.0</ele><time>2026-04-10T09:29:39.899Z</time></trkpt><trkpt lat="42.57026375889606" lon="2.69639315482873"><ele>273.0</ele><time>2026-04-10T09:29:40.899Z</time></trkpt><trkpt lat="42.57024890659265" lon="2.696292106390486"><ele>273.0</ele><time>2026-04-10T09:29:41.899Z</time></trkpt><trkpt lat="42.5706046248314" lon="2.696291629323758"><ele>273.0</ele><time>2026-04-10T09:29:43.899Z</time></trkpt><trkpt lat="42.57066948161061" lon="2.696355232723903"><ele>273.0</ele><time>2026-04-10T09:29:44.899Z</time></trkpt><trkpt lat="42.57078019006088" lon="2.6963933361403845"><ele>273.0</ele><time>2026-04-10T09:29:46.899Z</time></trkpt><trkpt lat="42.57087456367898" lon="2.6963901178988117"><ele>273.0</ele><time>2026-04-10T09:29:48.899Z</time></trkpt><trkpt lat="42.5709529534124" lon="2.696309195194972"><ele>273.0</ele><time>2026-04-10T09:29:50.899Z</time></trkpt><trkpt lat="42.57097084234587" lon="2.6961815396596926"><ele>273.0</ele><time>2026-04-10T09:29:52.899Z</time></trkpt><trkpt lat="42.570982588226386" lon="2.6960138305714683"><ele>275.0</ele><time>2026-04-10T09:29:54.899Z</time></trkpt><trkpt lat="42.5710120733122" lon="2.6958858286637892"><ele>277.0</ele><time>2026-04-10T09:29:56.899Z</time></trkpt><trkpt lat="42.57094787725983" lon="2.6958979420334788"><ele>279.0</ele><time>2026-04-10T09:29:59.899Z</time></trkpt><trkpt lat="42.57086564772252" lon="2.695968575385231"><ele>281.0</ele><time>2026-04-10T09:30:08.898Z</time></trkpt><trkpt lat="42.570769444492996" lon="2.69598400371145"><ele>283.0</ele><time>2026-04-10T09:30:10.898Z</time></trkpt><trkpt lat="42.57068438976812" lon="2.695902283475238"><ele>283.0</ele><time>2026-04-10T09:30:12.898Z</time></trkpt><trkpt lat="42.57071299987762" lon="2.6957514017219126"><ele>283.0</ele><time>2026-04-10T09:30:14.897Z</time></trkpt><trkpt lat="42.57073677988725" lon="2.6956307924598977"><ele>283.0</ele><time>2026-04-10T09:30:16.897Z</time></trkpt><trkpt lat="42.57082410646578" lon="2.6955164531593594"><ele>283.0</ele><time>2026-04-10T09:30:18.897Z</time></trkpt><trkpt lat="42.570860986702186" lon="2.6954223077252633"><ele>283.0</ele><time>2026-04-10T09:30:20.898Z</time></trkpt><trkpt lat="42.57088639248281" lon="2.6953227990208926"><ele>285.0</ele><time>2026-04-10T09:30:23.897Z</time></trkpt><trkpt lat="42.57093812397176" lon="2.6952258955789956"><ele>287.0</ele><time>2026-04-10T09:30:25.897Z</time></trkpt><trkpt lat="42.57097419959501" lon="2.6950982710441314"><ele>289.0</ele><time>2026-04-10T09:30:27.897Z</time></trkpt><trkpt lat="42.57103730617161" lon="2.694974943259998"><ele>291.0</ele><time>2026-04-10T09:30:29.898Z</time></trkpt><trkpt lat="42.57106465453108" lon="2.6948936317848164"><ele>293.0</ele><time>2026-04-10T09:30:30.898Z</time></trkpt><trkpt lat="42.57111453555821" lon="2.694783439719036"><ele>293.0</ele><time>2026-04-10T09:30:32.898Z</time></trkpt><trkpt lat="42.57113041150226" lon="2.6946970169090316"><ele>293.0</ele><time>2026-04-10T09:30:33.898Z</time></trkpt><trkpt lat="42.57116370710906" lon="2.6945495861679976"><ele>293.0</ele><time>2026-04-10T09:30:35.898Z</time></trkpt><trkpt lat="42.57121894732463" lon="2.694496951177667"><ele>293.0</ele><time>2026-04-10T09:30:36.898Z</time></trkpt><trkpt lat="42.57128171802546" lon="2.69446658368006"><ele>293.0</ele><time>2026-04-10T09:30:37.898Z</time></trkpt><trkpt lat="42.57134427728109" lon="2.69442583059775"><ele>293.0</ele><time>2026-04-10T09:30:38.898Z</time></trkpt><trkpt lat="42.5714484338951" lon="2.6943247023100545"><ele>295.33333333333337</ele><time>2026-04-10T09:30:40.898Z</time></trkpt><trkpt lat="42.57150897960062" lon="2.6942779556357905"><ele>297.6666666666667</ele><time>2026-04-10T09:30:41.898Z</time></trkpt><trkpt lat="42.571579568061665" lon="2.6941553990639675"><ele>300.0</ele><time>2026-04-10T09:30:43.898Z</time></trkpt><trkpt lat="42.57160191411187" lon="2.69406740501662"><ele>302.3333333333333</ele><time>2026-04-10T09:30:44.898Z</time></trkpt><trkpt lat="42.571620699448225" lon="2.6939807507177114"><ele>304.66666666666663</ele><time>2026-04-10T09:30:45.898Z</time></trkpt><trkpt lat="42.57162728881795" lon="2.693885889478845"><ele>307.0</ele><time>2026-04-10T09:30:46.898Z</time></trkpt><trkpt lat="42.571655258961485" lon="2.6938012842418337"><ele>307.0</ele><time>2026-04-10T09:30:47.898Z</time></trkpt><trkpt lat="42.57166212474557" lon="2.6937086037726634"><ele>307.0</ele><time>2026-04-10T09:30:48.898Z</time></trkpt><trkpt lat="42.571670770633645" lon="2.6936192937406584"><ele>307.0</ele><time>2026-04-10T09:30:49.898Z</time></trkpt><trkpt lat="42.57167536945216" lon="2.6934560547983875"><ele>307.0</ele><time>2026-04-10T09:30:51.898Z</time></trkpt><trkpt lat="42.571689893116385" lon="2.6933543016583723"><ele>307.0</ele><time>2026-04-10T09:30:52.898Z</time></trkpt><trkpt lat="42.571687681525596" lon="2.6932613016469844"><ele>307.0</ele><time>2026-04-10T09:30:53.898Z</time></trkpt><trkpt lat="42.57169119261908" lon="2.6931619512900595"><ele>308.3333333333333</ele><time>2026-04-10T09:30:54.898Z</time></trkpt><trkpt lat="42.57171250725477" lon="2.6930640036786833"><ele>309.66666666666663</ele><time>2026-04-10T09:30:55.898Z</time></trkpt><trkpt lat="42.5717190244624" lon="2.6929783614988443"><ele>311.0</ele><time>2026-04-10T09:30:56.898Z</time></trkpt><trkpt lat="42.57177452256113" lon="2.6929044471322054"><ele>312.3333333333333</ele><time>2026-04-10T09:30:58.898Z</time></trkpt><trkpt lat="42.571868412379196" lon="2.6927954552406783"><ele>313.6666666666667</ele><time>2026-04-10T09:31:00.898Z</time></trkpt><trkpt lat="42.57190146990361" lon="2.692705077287625"><ele>315.0</ele><time>2026-04-10T09:31:01.898Z</time></trkpt><trkpt lat="42.57192689748583" lon="2.6926116196688112"><ele>315.85714285714283</ele><time>2026-04-10T09:31:02.898Z</time></trkpt><trkpt lat="42.57194641353308" lon="2.6925203858681623"><ele>316.7142857142857</ele><time>2026-04-10T09:31:03.898Z</time></trkpt><trkpt lat="42.57198063087573" lon="2.6924225675289524"><ele>317.57142857142856</ele><time>2026-04-10T09:31:04.898Z</time></trkpt><trkpt lat="42.572026617084944" lon="2.6923354544846707"><ele>318.42857142857144</ele><time>2026-04-10T09:31:05.898Z</time></trkpt><trkpt lat="42.57204430856019" lon="2.6922514121978907"><ele>319.2857142857143</ele><time>2026-04-10T09:31:06.898Z</time></trkpt><trkpt lat="42.57203369512025" lon="2.692153168410201"><ele>320.1428571428571</ele><time>2026-04-10T09:31:07.898Z</time></trkpt><trkpt lat="42.571978574577656" lon="2.6920715765350582"><ele>321.0</ele><time>2026-04-10T09:31:08.898Z</time></trkpt><trkpt lat="42.57191433537331" lon="2.6920259977335577"><ele>321.0</ele><time>2026-04-10T09:31:09.898Z</time></trkpt><trkpt lat="42.571852049099505" lon="2.6919744477921324"><ele>321.0</ele><time>2026-04-10T09:31:10.898Z</time></trkpt><trkpt lat="42.571783535354065" lon="2.6918389259850386"><ele>321.0</ele><time>2026-04-10T09:31:12.898Z</time></trkpt><trkpt lat="42.57176235747266" lon="2.691750500933973"><ele>321.0</ele><time>2026-04-10T09:31:13.898Z</time></trkpt><trkpt lat="42.57178188438318" lon="2.691662562022435"><ele>321.0</ele><time>2026-04-10T09:31:14.898Z</time></trkpt><trkpt lat="42.57183502113687" lon="2.6915145334142787"><ele>322.3333333333333</ele><time>2026-04-10T09:31:16.898Z</time></trkpt><trkpt lat="42.57187799017672" lon="2.691378301297051"><ele>323.6666666666667</ele><time>2026-04-10T09:31:18.898Z</time></trkpt><trkpt lat="42.57192906408935" lon="2.6913167355972973"><ele>325.0</ele><time>2026-04-10T09:31:19.898Z</time></trkpt><trkpt lat="42.571981609735815" lon="2.6912513157296183"><ele>326.33333333333337</ele><time>2026-04-10T09:31:20.898Z</time></trkpt><trkpt lat="42.57201702832313" lon="2.6911779766269395"><ele>327.6666666666667</ele><time>2026-04-10T09:31:21.898Z</time></trkpt><trkpt lat="42.572072372511585" lon="2.691133815995236"><ele>329.0</ele><time>2026-04-10T09:31:22.898Z</time></trkpt><trkpt lat="42.57214551841911" lon="2.691103968043214"><ele>331.1666666666667</ele><time>2026-04-10T09:31:23.898Z</time></trkpt><trkpt lat="42.57220729810143" lon="2.691075235732406"><ele>333.33333333333337</ele><time>2026-04-10T09:31:24.898Z</time></trkpt><trkpt lat="42.57225902158147" lon="2.691016058114554"><ele>335.5</ele><time>2026-04-10T09:31:25.899Z</time></trkpt><trkpt lat="42.57231250752411" lon="2.690944556463357"><ele>337.6666666666667</ele><time>2026-04-10T09:31:26.899Z</time></trkpt><trkpt lat="42.57236816102604" lon="2.690898736080915"><ele>339.8333333333333</ele><time>2026-04-10T09:31:27.899Z</time></trkpt><trkpt lat="42.572439301488856" lon="2.690759735746917"><ele>342.0</ele><time>2026-04-10T09:31:29.899Z</time></trkpt><trkpt lat="42.572487303093645" lon="2.6906823940731224"><ele>342.0</ele><time>2026-04-10T09:31:30.899Z</time></trkpt><trkpt lat="42.57251743144391" lon="2.690598688855637"><ele>342.0</ele><time>2026-04-10T09:31:31.899Z</time></trkpt><trkpt lat="42.57257531790933" lon="2.690529441922043"><ele>342.0</ele><time>2026-04-10T09:31:32.899Z</time></trkpt><trkpt lat="42.57262610191336" lon="2.690452620090618"><ele>342.0</ele><time>2026-04-10T09:31:33.899Z</time></trkpt><trkpt lat="42.57267087226197" lon="2.6903626981172404"><ele>342.0</ele><time>2026-04-10T09:31:34.899Z</time></trkpt><trkpt lat="42.57272140620313" lon="2.6902716830599815"><ele>342.0</ele><time>2026-04-10T09:31:35.899Z</time></trkpt><trkpt lat="42.57276912628984" lon="2.690189411609264"><ele>342.8333333333333</ele><time>2026-04-10T09:31:36.899Z</time></trkpt><trkpt lat="42.57281615253816" lon="2.690097714358248"><ele>343.6666666666667</ele><time>2026-04-10T09:31:37.899Z</time></trkpt><trkpt lat="42.57287093564538" lon="2.690020190076124"><ele>344.5</ele><time>2026-04-10T09:31:38.899Z</time></trkpt><trkpt lat="42.572930458159895" lon="2.689932102496983"><ele>345.33333333333337</ele><time>2026-04-10T09:31:39.899Z</time></trkpt><trkpt lat="42.57298894768123" lon="2.689855068954102"><ele>346.1666666666667</ele><time>2026-04-10T09:31:40.899Z</time></trkpt><trkpt lat="42.57302652609283" lon="2.6897616539867557"><ele>347.0</ele><time>2026-04-10T09:31:41.899Z</time></trkpt><trkpt lat="42.57307184359024" lon="2.6896642551284597"><ele>347.6666666666667</ele><time>2026-04-10T09:31:42.899Z</time></trkpt><trkpt lat="42.57312681046554" lon="2.6895723432345924"><ele>348.33333333333337</ele><time>2026-04-10T09:31:43.899Z</time></trkpt><trkpt lat="42.573180133301655" lon="2.689490065275666"><ele>349.0</ele><time>2026-04-10T09:31:44.899Z</time></trkpt><trkpt lat="42.57322098333278" lon="2.689395240279748"><ele>349.6666666666667</ele><time>2026-04-10T09:31:45.899Z</time></trkpt><trkpt lat="42.57326818085936" lon="2.6892987675088715"><ele>350.3333333333333</ele><time>2026-04-10T09:31:46.899Z</time></trkpt><trkpt lat="42.57332341327633" lon="2.689208333110149"><ele>351.0</ele><time>2026-04-10T09:31:47.899Z</time></trkpt><trkpt lat="42.57337563466639" lon="2.689129783989983"><ele>351.5</ele><time>2026-04-10T09:31:48.899Z</time></trkpt><trkpt lat="42.57343292112348" lon="2.6890538961619317"><ele>352.0</ele><time>2026-04-10T09:31:49.899Z</time></trkpt><trkpt lat="42.57350480156836" lon="2.6889719586195673"><ele>352.5</ele><time>2026-04-10T09:31:50.899Z</time></trkpt><trkpt lat="42.57356110329286" lon="2.6888821231981686"><ele>353.0</ele><time>2026-04-10T09:31:51.899Z</time></trkpt><trkpt lat="42.57362983128466" lon="2.6888062468654823"><ele>353.5</ele><time>2026-04-10T09:31:52.899Z</time></trkpt><trkpt lat="42.57369102476028" lon="2.6887203109873434"><ele>354.0</ele><time>2026-04-10T09:31:53.899Z</time></trkpt><trkpt lat="42.573723897459004" lon="2.6886114354213997"><ele>356.2</ele><time>2026-04-10T09:31:54.899Z</time></trkpt><trkpt lat="42.573723516790295" lon="2.6884885973222348"><ele>358.4</ele><time>2026-04-10T09:31:55.899Z</time></trkpt><trkpt lat="42.57374283619389" lon="2.6883659229747647"><ele>360.6</ele><time>2026-04-10T09:31:56.899Z</time></trkpt><trkpt lat="42.57376298129806" lon="2.688236395138826"><ele>362.8</ele><time>2026-04-10T09:31:57.899Z</time></trkpt><trkpt lat="42.57379491091105" lon="2.6881241971916716"><ele>365.0</ele><time>2026-04-10T09:31:58.899Z</time></trkpt><trkpt lat="42.57382977701935" lon="2.688004683443057"><ele>365.0</ele><time>2026-04-10T09:31:59.899Z</time></trkpt><trkpt lat="42.57387160706678" lon="2.6878825821346983"><ele>365.0</ele><time>2026-04-10T09:32:00.899Z</time></trkpt><trkpt lat="42.57393152815225" lon="2.687785039425498"><ele>365.0</ele><time>2026-04-10T09:32:01.899Z</time></trkpt><trkpt lat="42.57400007793698" lon="2.6876881767724967"><ele>365.0</ele><time>2026-04-10T09:32:02.899Z</time></trkpt><trkpt lat="42.57404829467734" lon="2.6875895656305926"><ele>365.0</ele><time>2026-04-10T09:32:03.899Z</time></trkpt><trkpt lat="42.57409083246547" lon="2.6874819306128215"><ele>364.83333333333337</ele><time>2026-04-10T09:32:04.899Z</time></trkpt><trkpt lat="42.57413265645866" lon="2.6873844107956057"><ele>364.6666666666667</ele><time>2026-04-10T09:32:05.899Z</time></trkpt><trkpt lat="42.57417984127265" lon="2.687277606707414"><ele>364.5</ele><time>2026-04-10T09:32:06.899Z</time></trkpt><trkpt lat="42.57423140752144" lon="2.6871820648536873"><ele>364.3333333333333</ele><time>2026-04-10T09:32:07.899Z</time></trkpt><trkpt lat="42.5742849454194" lon="2.687083384936551"><ele>364.16666666666663</ele><time>2026-04-10T09:32:08.899Z</time></trkpt><trkpt lat="42.57432759203145" lon="2.68696595477145"><ele>364.0</ele><time>2026-04-10T09:32:09.899Z</time></trkpt><trkpt lat="42.57434821218211" lon="2.686854557793709"><ele>364.0</ele><time>2026-04-10T09:32:10.899Z</time></trkpt><trkpt lat="42.574396429219924" lon="2.6867629589743434"><ele>364.0</ele><time>2026-04-10T09:32:11.899Z</time></trkpt><trkpt lat="42.574439050248685" lon="2.6866919628906167"><ele>364.0</ele><time>2026-04-10T09:32:12.899Z</time></trkpt><trkpt lat="42.57449263951504" lon="2.6866103020417222"><ele>364.0</ele><time>2026-04-10T09:32:13.899Z</time></trkpt><trkpt lat="42.57454462058133" lon="2.6865317213083113"><ele>364.0</ele><time>2026-04-10T09:32:14.897Z</time></trkpt><trkpt lat="42.57459623523613" lon="2.686451554835773"><ele>364.0</ele><time>2026-04-10T09:32:15.896Z</time></trkpt><trkpt lat="42.574625049485455" lon="2.686361210476458"><ele>368.3333333333333</ele><time>2026-04-10T09:32:16.896Z</time></trkpt><trkpt lat="42.5746423011843" lon="2.6862563277368636"><ele>372.66666666666663</ele><time>2026-04-10T09:32:17.897Z</time></trkpt><trkpt lat="42.574656064080855" lon="2.6861417431365178"><ele>377.0</ele><time>2026-04-10T09:32:18.897Z</time></trkpt><trkpt lat="42.574664759079596" lon="2.6860307514850894"><ele>381.3333333333333</ele><time>2026-04-10T09:32:19.897Z</time></trkpt><trkpt lat="42.57466572425838" lon="2.6859169072135485"><ele>385.6666666666667</ele><time>2026-04-10T09:32:20.897Z</time></trkpt><trkpt lat="42.574679835706185" lon="2.685816306619157"><ele>390.0</ele><time>2026-04-10T09:32:21.896Z</time></trkpt><trkpt lat="42.5747056170303" lon="2.685715265388587"><ele>390.5</ele><time>2026-04-10T09:32:22.896Z</time></trkpt><trkpt lat="42.57472774091581" lon="2.685603776209725"><ele>391.0</ele><time>2026-04-10T09:32:23.896Z</time></trkpt><trkpt lat="42.57477279518164" lon="2.6855140946349545"><ele>391.5</ele><time>2026-04-10T09:32:24.896Z</time></trkpt><trkpt lat="42.574806905198805" lon="2.6854229514877366"><ele>392.0</ele><time>2026-04-10T09:32:25.896Z</time></trkpt><trkpt lat="42.574850618385824" lon="2.685313999650931"><ele>392.5</ele><time>2026-04-10T09:32:26.896Z</time></trkpt><trkpt lat="42.57489774959632" lon="2.685214453575135"><ele>393.0</ele><time>2026-04-10T09:32:27.897Z</time></trkpt><trkpt lat="42.574937339973125" lon="2.6851087634820563"><ele>393.0</ele><time>2026-04-10T09:32:28.897Z</time></trkpt><trkpt lat="42.57497295680418" lon="2.6849998449677224"><ele>393.0</ele><time>2026-04-10T09:32:29.897Z</time></trkpt><trkpt lat="42.57498128808632" lon="2.6848980910755125"><ele>393.0</ele><time>2026-04-10T09:32:30.897Z</time></trkpt><trkpt lat="42.574981296801035" lon="2.6848042990999956"><ele>393.0</ele><time>2026-04-10T09:32:31.897Z</time></trkpt><trkpt lat="42.57499303218516" lon="2.684700360605086"><ele>393.0</ele><time>2026-04-10T09:32:32.897Z</time></trkpt><trkpt lat="42.57500827184707" lon="2.684608438054592"><ele>393.0</ele><time>2026-04-10T09:32:33.897Z</time></trkpt><trkpt lat="42.57503465100693" lon="2.68451949528228"><ele>393.0</ele><time>2026-04-10T09:32:34.897Z</time></trkpt><trkpt lat="42.575066044951" lon="2.6844392244402178"><ele>393.0</ele><time>2026-04-10T09:32:35.897Z</time></trkpt><trkpt lat="42.575098654614585" lon="2.6843559316608165"><ele>393.0</ele><time>2026-04-10T09:32:36.897Z</time></trkpt><trkpt lat="42.575102914114865" lon="2.6842510002034943"><ele>393.0</ele><time>2026-04-10T09:32:37.897Z</time></trkpt><trkpt lat="42.57510512808346" lon="2.684142635886635"><ele>393.0</ele><time>2026-04-10T09:32:38.897Z</time></trkpt><trkpt lat="42.575093323480594" lon="2.684036370648144"><ele>393.0</ele><time>2026-04-10T09:32:39.897Z</time></trkpt><trkpt lat="42.57504531017428" lon="2.6839531587463834"><ele>393.3333333333333</ele><time>2026-04-10T09:32:40.897Z</time></trkpt><trkpt lat="42.574987208801794" lon="2.6838989136336897"><ele>393.66666666666663</ele><time>2026-04-10T09:32:41.897Z</time></trkpt><trkpt lat="42.57491715132352" lon="2.683822942704622"><ele>394.0</ele><time>2026-04-10T09:32:42.897Z</time></trkpt><trkpt lat="42.574890387070745" lon="2.683709540066383"><ele>394.3333333333333</ele><time>2026-04-10T09:32:43.897Z</time></trkpt><trkpt lat="42.57485504732885" lon="2.683596096843494"><ele>394.66666666666663</ele><time>2026-04-10T09:32:44.897Z</time></trkpt><trkpt lat="42.57480774542423" lon="2.6835127447629756"><ele>395.0</ele><time>2026-04-10T09:32:45.897Z</time></trkpt><trkpt lat="42.574745109190566" lon="2.6834403459385596"><ele>396.66666666666663</ele><time>2026-04-10T09:32:46.897Z</time></trkpt><trkpt lat="42.57467699469535" lon="2.6833898599555153"><ele>398.3333333333333</ele><time>2026-04-10T09:32:47.897Z</time></trkpt><trkpt lat="42.57459388712961" lon="2.6833615089773244"><ele>400.0</ele><time>2026-04-10T09:32:48.897Z</time></trkpt><trkpt lat="42.57450946641855" lon="2.6833560042940534"><ele>401.66666666666663</ele><time>2026-04-10T09:32:49.897Z</time></trkpt><trkpt lat="42.57442781785507" lon="2.6833844745389483"><ele>403.3333333333333</ele><time>2026-04-10T09:32:50.897Z</time></trkpt><trkpt lat="42.57433517452371" lon="2.68341248985873"><ele>405.0</ele><time>2026-04-10T09:32:51.897Z</time></trkpt><trkpt lat="42.57424113249284" lon="2.683425304427654"><ele>405.99999999999994</ele><time>2026-04-10T09:32:52.897Z</time></trkpt><trkpt lat="42.57416686232869" lon="2.6834193106218684"><ele>407.0</ele><time>2026-04-10T09:32:53.897Z</time></trkpt><trkpt lat="42.57408998893367" lon="2.683413427460779"><ele>408.0</ele><time>2026-04-10T09:32:54.897Z</time></trkpt><trkpt lat="42.574030268622735" lon="2.6834483664323443"><ele>409.0</ele><time>2026-04-10T09:32:55.897Z</time></trkpt><trkpt lat="42.57396038943397" lon="2.6834678355162205"><ele>410.0</ele><time>2026-04-10T09:32:56.897Z</time></trkpt><trkpt lat="42.57389669746929" lon="2.683442493078663"><ele>410.99999999999994</ele><time>2026-04-10T09:32:58.897Z</time></trkpt><trkpt lat="42.57388996498068" lon="2.6833352166438247"><ele>412.0</ele><time>2026-04-10T09:33:01.897Z</time></trkpt><trkpt lat="42.5739029444998" lon="2.6832445802501264"><ele>412.00000000000006</ele><time>2026-04-10T09:33:02.897Z</time></trkpt><trkpt lat="42.573896430020184" lon="2.683102217378969"><ele>412.0</ele><time>2026-04-10T09:33:04.897Z</time></trkpt><trkpt lat="42.573889757183004" lon="2.683006355123631"><ele>412.0</ele><time>2026-04-10T09:33:06.897Z</time></trkpt><trkpt lat="42.573878871564524" lon="2.682884105262671"><ele>412.0</ele><time>2026-04-10T09:33:16.897Z</time></trkpt><trkpt lat="42.57387409401432" lon="2.682790062752526"><ele>412.00000000000006</ele><time>2026-04-10T09:33:17.897Z</time></trkpt><trkpt lat="42.57389013308952" lon="2.6827050396609633"><ele>412.0</ele><time>2026-04-10T09:33:18.897Z</time></trkpt><trkpt lat="42.57390886095541" lon="2.682613423713404"><ele>413.83333333333337</ele><time>2026-04-10T09:33:19.897Z</time></trkpt><trkpt lat="42.573931542935874" lon="2.682511604991166"><ele>415.6666666666667</ele><time>2026-04-10T09:33:20.897Z</time></trkpt><trkpt lat="42.57394560727952" lon="2.6824075914806733"><ele>417.5</ele><time>2026-04-10T09:33:21.897Z</time></trkpt><trkpt lat="42.573973381642396" lon="2.682239046327224"><ele>419.33333333333337</ele><time>2026-04-10T09:33:23.897Z</time></trkpt><trkpt lat="42.573961004378276" lon="2.682136249825314"><ele>421.1666666666667</ele><time>2026-04-10T09:33:24.898Z</time></trkpt><trkpt lat="42.57393743526357" lon="2.6820372712846536"><ele>423.0</ele><time>2026-04-10T09:33:25.898Z</time></trkpt><trkpt lat="42.57390415486201" lon="2.6819345605034486"><ele>422.8333333333333</ele><time>2026-04-10T09:33:26.898Z</time></trkpt><trkpt lat="42.5738957787354" lon="2.681836846511988"><ele>422.66666666666663</ele><time>2026-04-10T09:33:27.898Z</time></trkpt><trkpt lat="42.57389412050824" lon="2.681719071935612"><ele>422.5</ele><time>2026-04-10T09:33:28.898Z</time></trkpt><trkpt lat="42.573893686026324" lon="2.6815971844744477"><ele>422.3333333333333</ele><time>2026-04-10T09:33:29.898Z</time></trkpt><trkpt lat="42.57387746490284" lon="2.6814843769354484"><ele>422.16666666666663</ele><time>2026-04-10T09:33:30.898Z</time></trkpt><trkpt lat="42.57385707930414" lon="2.6813791595285066"><ele>422.0</ele><time>2026-04-10T09:33:31.898Z</time></trkpt><trkpt lat="42.573844752995036" lon="2.681278343979483"><ele>421.99999999999994</ele><time>2026-04-10T09:33:32.898Z</time></trkpt><trkpt lat="42.573812882877135" lon="2.681171582078246"><ele>422.0</ele><time>2026-04-10T09:33:33.898Z</time></trkpt><trkpt lat="42.57376627306984" lon="2.6810741587771907"><ele>422.0</ele><time>2026-04-10T09:33:34.898Z</time></trkpt><trkpt lat="42.57372506018032" lon="2.680971191115608"><ele>422.0</ele><time>2026-04-10T09:33:35.898Z</time></trkpt><trkpt lat="42.57367576396279" lon="2.6808676133393163"><ele>421.99999999999994</ele><time>2026-04-10T09:33:36.898Z</time></trkpt><trkpt lat="42.57364630055613" lon="2.680775743587033"><ele>422.0</ele><time>2026-04-10T09:33:37.898Z</time></trkpt><trkpt lat="42.5736086174327" lon="2.6806948222841425"><ele>421.99999999999994</ele><time>2026-04-10T09:33:38.898Z</time></trkpt><trkpt lat="42.57357501292764" lon="2.680593551365307"><ele>422.0</ele><time>2026-04-10T09:33:39.898Z</time></trkpt><trkpt lat="42.573548624031666" lon="2.680485097109607"><ele>422.0</ele><time>2026-04-10T09:33:40.898Z</time></trkpt><trkpt lat="42.57356089750589" lon="2.6803559949368996"><ele>422.0</ele><time>2026-04-10T09:33:41.898Z</time></trkpt><trkpt lat="42.57355953063135" lon="2.6802480068778216"><ele>421.99999999999994</ele><time>2026-04-10T09:33:42.898Z</time></trkpt><trkpt lat="42.573549797682674" lon="2.680148512270678"><ele>422.0</ele><time>2026-04-10T09:33:43.898Z</time></trkpt><trkpt lat="42.573572291489036" lon="2.680043202898605"><ele>422.7142857142857</ele><time>2026-04-10T09:33:44.898Z</time></trkpt><trkpt lat="42.573595104403736" lon="2.6799462521349873"><ele>423.42857142857144</ele><time>2026-04-10T09:33:45.898Z</time></trkpt><trkpt lat="42.57359345102252" lon="2.679846388078272"><ele>424.1428571428571</ele><time>2026-04-10T09:33:46.898Z</time></trkpt><trkpt lat="42.57358362803438" lon="2.679733509674043"><ele>424.8571428571429</ele><time>2026-04-10T09:33:47.898Z</time></trkpt><trkpt lat="42.57357511382833" lon="2.679636002067292"><ele>425.57142857142856</ele><time>2026-04-10T09:33:48.898Z</time></trkpt><trkpt lat="42.573561849026234" lon="2.679547859789215"><ele>426.2857142857143</ele><time>2026-04-10T09:33:49.898Z</time></trkpt><trkpt lat="42.57353802118739" lon="2.6794526383852646"><ele>427.0</ele><time>2026-04-10T09:33:50.898Z</time></trkpt><trkpt lat="42.57352026217993" lon="2.679290887880419"><ele>428.20000000000005</ele><time>2026-04-10T09:33:52.898Z</time></trkpt><trkpt lat="42.57352297781456" lon="2.679190045730314"><ele>429.40000000000003</ele><time>2026-04-10T09:33:53.898Z</time></trkpt><trkpt lat="42.573537259261116" lon="2.679015394973001"><ele>430.59999999999997</ele><time>2026-04-10T09:33:55.898Z</time></trkpt><trkpt lat="42.57355663171898" lon="2.678928992455721"><ele>431.79999999999995</ele><time>2026-04-10T09:33:56.898Z</time></trkpt><trkpt lat="42.57357402708343" lon="2.6787981627983135"><ele>433.0</ele><time>2026-04-10T09:33:58.898Z</time></trkpt><trkpt lat="42.57357997864778" lon="2.6786773057098885"><ele>433.0</ele><time>2026-04-10T09:34:00.898Z</time></trkpt><trkpt lat="42.5736368384516" lon="2.6786048256922834"><ele>432.99999999999994</ele><time>2026-04-10T09:34:03.898Z</time></trkpt><trkpt lat="42.57372451645045" lon="2.6785608969273436"><ele>432.99999999999994</ele><time>2026-04-10T09:34:06.898Z</time></trkpt><trkpt lat="42.57379073180224" lon="2.6784495642069066"><ele>433.0</ele><time>2026-04-10T09:34:08.898Z</time></trkpt><trkpt lat="42.573832189075475" lon="2.678339259817487"><ele>433.0</ele><time>2026-04-10T09:34:09.898Z</time></trkpt><trkpt lat="42.5738732178039" lon="2.678235802456464"><ele>434.4</ele><time>2026-04-10T09:34:10.898Z</time></trkpt><trkpt lat="42.57390588318363" lon="2.6781205160203085"><ele>435.79999999999995</ele><time>2026-04-10T09:34:11.898Z</time></trkpt><trkpt lat="42.5739382963534" lon="2.6779791764252594"><ele>437.2</ele><time>2026-04-10T09:34:12.898Z</time></trkpt><trkpt lat="42.57394650795522" lon="2.677845455996971"><ele>438.6</ele><time>2026-04-10T09:34:13.898Z</time></trkpt><trkpt lat="42.573962465126456" lon="2.6777231117508866"><ele>440.0</ele><time>2026-04-10T09:34:14.898Z</time></trkpt><trkpt lat="42.573966002460054" lon="2.6776068229409757"><ele>442.6</ele><time>2026-04-10T09:34:15.898Z</time></trkpt><trkpt lat="42.57397996217804" lon="2.6775095160196614"><ele>445.2</ele><time>2026-04-10T09:34:16.898Z</time></trkpt><trkpt lat="42.573990137136946" lon="2.677419410556599"><ele>447.79999999999995</ele><time>2026-04-10T09:34:17.898Z</time></trkpt><trkpt lat="42.574019724081445" lon="2.6772740552951646"><ele>450.4</ele><time>2026-04-10T09:34:19.898Z</time></trkpt><trkpt lat="42.57409765517621" lon="2.6771404956948257"><ele>453.0</ele><time>2026-04-10T09:34:21.895Z</time></trkpt><trkpt lat="42.57414196127114" lon="2.6770591887410595"><ele>453.0</ele><time>2026-04-10T09:34:24.895Z</time></trkpt><trkpt lat="42.57407997127283" lon="2.6770745967404292"><ele>452.99999999999994</ele><time>2026-04-10T09:34:27.896Z</time></trkpt><trkpt lat="42.574003927745935" lon="2.6771853172097853"><ele>452.99999999999994</ele><time>2026-04-10T09:34:29.895Z</time></trkpt><trkpt lat="42.57393684951803" lon="2.6773056094068863"><ele>453.0</ele><time>2026-04-10T09:34:31.895Z</time></trkpt><trkpt lat="42.57388751659573" lon="2.6774412908735896"><ele>453.0</ele><time>2026-04-10T09:34:33.896Z</time></trkpt><trkpt lat="42.573865815843725" lon="2.677523760728599"><ele>453.0</ele><time>2026-04-10T09:34:34.896Z</time></trkpt><trkpt lat="42.573853672798734" lon="2.6776294292967076"><ele>452.99999999999994</ele><time>2026-04-10T09:34:35.896Z</time></trkpt><trkpt lat="42.57382470415953" lon="2.677737571364074"><ele>452.99999999999994</ele><time>2026-04-10T09:34:36.896Z</time></trkpt><trkpt lat="42.57379871485845" lon="2.677841097427015"><ele>453.0</ele><time>2026-04-10T09:34:37.896Z</time></trkpt><trkpt lat="42.57375976989136" lon="2.67803090387185"><ele>453.0</ele><time>2026-04-10T09:34:39.896Z</time></trkpt><trkpt lat="42.57371046255465" lon="2.6781742649651945"><ele>452.0</ele><time>2026-04-10T09:34:41.896Z</time></trkpt><trkpt lat="42.57360004747016" lon="2.67823526896562"><ele>451.0</ele><time>2026-04-10T09:34:43.896Z</time></trkpt><trkpt lat="42.57355430584665" lon="2.6781581957634066"><ele>450.0</ele><time>2026-04-10T09:34:44.896Z</time></trkpt><trkpt lat="42.57352528520009" lon="2.6780780972875795"><ele>449.0</ele><time>2026-04-10T09:34:45.896Z</time></trkpt><trkpt lat="42.57350129498112" lon="2.6779936672511635"><ele>448.0</ele><time>2026-04-10T09:34:46.896Z</time></trkpt><trkpt lat="42.57346458222549" lon="2.6779020844046335"><ele>447.0</ele><time>2026-04-10T09:34:47.896Z</time></trkpt><trkpt lat="42.573385043563356" lon="2.6777473388480297"><ele>450.3333333333333</ele><time>2026-04-10T09:34:49.896Z</time></trkpt><trkpt lat="42.57331760680723" lon="2.6776787959921062"><ele>453.66666666666663</ele><time>2026-04-10T09:34:50.896Z</time></trkpt><trkpt lat="42.573247985813715" lon="2.6776062331345467"><ele>457.0</ele><time>2026-04-10T09:34:51.896Z</time></trkpt><trkpt lat="42.573191437362084" lon="2.6775472708750683"><ele>460.3333333333333</ele><time>2026-04-10T09:34:52.896Z</time></trkpt><trkpt lat="42.57313358958759" lon="2.677479635917722"><ele>463.66666666666663</ele><time>2026-04-10T09:34:53.896Z</time></trkpt><trkpt lat="42.57307267791437" lon="2.6773962818258417"><ele>467.0</ele><time>2026-04-10T09:34:54.896Z</time></trkpt><trkpt lat="42.573006298222744" lon="2.677324195589713"><ele>467.0</ele><time>2026-04-10T09:34:55.896Z</time></trkpt><trkpt lat="42.57292663344467" lon="2.6772545181008014"><ele>467.00000000000006</ele><time>2026-04-10T09:34:56.896Z</time></trkpt><trkpt lat="42.57285097680986" lon="2.677192263823554"><ele>467.00000000000006</ele><time>2026-04-10T09:34:57.896Z</time></trkpt><trkpt lat="42.572767302063916" lon="2.6771304755136525"><ele>467.0</ele><time>2026-04-10T09:34:58.896Z</time></trkpt><trkpt lat="42.57269432842735" lon="2.6770806033220746"><ele>467.0</ele><time>2026-04-10T09:34:59.896Z</time></trkpt><trkpt lat="42.5726152027759" lon="2.677017450218966"><ele>466.16666666666663</ele><time>2026-04-10T09:35:00.896Z</time></trkpt><trkpt lat="42.572540461227455" lon="2.6769630058553164"><ele>465.3333333333333</ele><time>2026-04-10T09:35:01.896Z</time></trkpt><trkpt lat="42.57247755690883" lon="2.676912291130099"><ele>464.5</ele><time>2026-04-10T09:35:02.896Z</time></trkpt><trkpt lat="42.57236405262238" lon="2.676882150236372"><ele>463.66666666666663</ele><time>2026-04-10T09:35:04.896Z</time></trkpt><trkpt lat="42.572300771932916" lon="2.676954450162004"><ele>462.8333333333333</ele><time>2026-04-10T09:35:05.896Z</time></trkpt><trkpt lat="42.57225583818751" lon="2.677055351799288"><ele>462.0</ele><time>2026-04-10T09:35:06.896Z</time></trkpt><trkpt lat="42.57220444191156" lon="2.677148589976599"><ele>462.0</ele><time>2026-04-10T09:35:07.896Z</time></trkpt><trkpt lat="42.57216953888375" lon="2.6772698579299745"><ele>462.00000000000006</ele><time>2026-04-10T09:35:08.896Z</time></trkpt><trkpt lat="42.57214458783503" lon="2.677389794589126"><ele>462.00000000000006</ele><time>2026-04-10T09:35:09.896Z</time></trkpt><trkpt lat="42.57209770525948" lon="2.6775048452072707"><ele>462.0</ele><time>2026-04-10T09:35:10.896Z</time></trkpt><trkpt lat="42.57202884491769" lon="2.677600335830336"><ele>462.0</ele><time>2026-04-10T09:35:11.896Z</time></trkpt><trkpt lat="42.57194214394373" lon="2.6776791332109253"><ele>463.40000000000003</ele><time>2026-04-10T09:35:12.896Z</time></trkpt><trkpt lat="42.57185542414746" lon="2.6777573209543952"><ele>464.80000000000007</ele><time>2026-04-10T09:35:13.896Z</time></trkpt><trkpt lat="42.57176217634039" lon="2.6778098933455516"><ele>466.2</ele><time>2026-04-10T09:35:14.896Z</time></trkpt><trkpt lat="42.57167281029048" lon="2.677858837985977"><ele>467.6</ele><time>2026-04-10T09:35:15.896Z</time></trkpt><trkpt lat="42.57157222168312" lon="2.6779058115293535"><ele>469.0</ele><time>2026-04-10T09:35:16.896Z</time></trkpt><trkpt lat="42.57147007791477" lon="2.6779596610639946"><ele>469.0</ele><time>2026-04-10T09:35:17.896Z</time></trkpt><trkpt lat="42.57138186141707" lon="2.6780239448619354"><ele>469.0</ele><time>2026-04-10T09:35:18.896Z</time></trkpt><trkpt lat="42.571283712313516" lon="2.6780988576705766"><ele>469.0</ele><time>2026-04-10T09:35:19.896Z</time></trkpt><trkpt lat="42.57119391305724" lon="2.67816567784497"><ele>469.0</ele><time>2026-04-10T09:35:20.896Z</time></trkpt><trkpt lat="42.5710838726154" lon="2.678193024941737"><ele>469.0</ele><time>2026-04-10T09:35:21.897Z</time></trkpt><trkpt lat="42.57099126760445" lon="2.678265059789284"><ele>473.0</ele><time>2026-04-10T09:35:22.897Z</time></trkpt><trkpt lat="42.57090627739387" lon="2.6783294992038287"><ele>477.0</ele><time>2026-04-10T09:35:23.897Z</time></trkpt><trkpt lat="42.57083102012104" lon="2.6783807789774445"><ele>481.0</ele><time>2026-04-10T09:35:24.897Z</time></trkpt><trkpt lat="42.57075753915062" lon="2.6784130552611742"><ele>485.0</ele><time>2026-04-10T09:35:25.897Z</time></trkpt><trkpt lat="42.570619665716876" lon="2.6783564011226395"><ele>489.0</ele><time>2026-04-10T09:35:27.897Z</time></trkpt><trkpt lat="42.570523303715454" lon="2.678363098532174"><ele>489.0</ele><time>2026-04-10T09:35:28.897Z</time></trkpt><trkpt lat="42.57042465585803" lon="2.678407704795675"><ele>489.0</ele><time>2026-04-10T09:35:29.897Z</time></trkpt><trkpt lat="42.570329823176515" lon="2.6784593096955542"><ele>489.0</ele><time>2026-04-10T09:35:30.897Z</time></trkpt><trkpt lat="42.570233927864116" lon="2.6785177822526696"><ele>489.0</ele><time>2026-04-10T09:35:31.897Z</time></trkpt><trkpt lat="42.57014449241949" lon="2.6785802254201267"><ele>489.0</ele><time>2026-04-10T09:35:32.897Z</time></trkpt><trkpt lat="42.57006038246448" lon="2.678647166898842"><ele>488.8333333333333</ele><time>2026-04-10T09:35:33.897Z</time></trkpt><trkpt lat="42.569994065036795" lon="2.67873413482045"><ele>488.66666666666663</ele><time>2026-04-10T09:35:34.897Z</time></trkpt><trkpt lat="42.56994062062825" lon="2.678783502323544"><ele>488.5</ele><time>2026-04-10T09:35:35.897Z</time></trkpt><trkpt lat="42.56984376402974" lon="2.678822887860139"><ele>488.3333333333333</ele><time>2026-04-10T09:35:37.897Z</time></trkpt><trkpt lat="42.56977122550239" lon="2.678783541340441"><ele>488.16666666666663</ele><time>2026-04-10T09:35:39.897Z</time></trkpt><trkpt lat="42.56985487747275" lon="2.6788102207923497"><ele>488.0</ele><time>2026-04-10T09:35:44.897Z</time></trkpt><trkpt lat="42.56997161049433" lon="2.678772868278416"><ele>488.0</ele><time>2026-04-10T09:35:46.897Z</time></trkpt><trkpt lat="42.570050648013336" lon="2.678775993749685"><ele>487.99999999999994</ele><time>2026-04-10T09:35:47.897Z</time></trkpt><trkpt lat="42.57012065733715" lon="2.6786320578664613"><ele>487.99999999999994</ele><time>2026-04-10T09:35:48.897Z</time></trkpt><trkpt lat="42.570209315609716" lon="2.6785592045932907"><ele>488.0</ele><time>2026-04-10T09:35:49.897Z</time></trkpt><trkpt lat="42.570303218512606" lon="2.678489502062463"><ele>488.0</ele><time>2026-04-10T09:35:50.897Z</time></trkpt><trkpt lat="42.57040965402206" lon="2.678425111148358"><ele>488.16666666666663</ele><time>2026-04-10T09:35:51.897Z</time></trkpt><trkpt lat="42.57051273242656" lon="2.678387280896777"><ele>488.3333333333333</ele><time>2026-04-10T09:35:52.897Z</time></trkpt><trkpt lat="42.570603622824585" lon="2.678372291033636"><ele>488.5</ele><time>2026-04-10T09:35:53.897Z</time></trkpt><trkpt lat="42.570677347908884" lon="2.67839558364969"><ele>488.66666666666663</ele><time>2026-04-10T09:35:54.897Z</time></trkpt><trkpt lat="42.570746600104236" lon="2.6784197871514013"><ele>488.8333333333333</ele><time>2026-04-10T09:35:55.897Z</time></trkpt><trkpt lat="42.57081027946147" lon="2.678443063448615"><ele>489.0</ele><time>2026-04-10T09:35:57.897Z</time></trkpt><trkpt lat="42.57087136845052" lon="2.678394805325027"><ele>489.0</ele><time>2026-04-10T09:36:00.897Z</time></trkpt><trkpt lat="42.57093487093035" lon="2.6783392789382816"><ele>489.0</ele><time>2026-04-10T09:36:02.897Z</time></trkpt><trkpt lat="42.57103567034779" lon="2.678247235356866"><ele>489.0</ele><time>2026-04-10T09:36:04.897Z</time></trkpt><trkpt lat="42.57114253646635" lon="2.6781895567825784"><ele>489.0</ele><time>2026-04-10T09:36:06.897Z</time></trkpt><trkpt lat="42.57120290908987" lon="2.6781337345858804"><ele>489.0</ele><time>2026-04-10T09:36:07.897Z</time></trkpt><trkpt lat="42.57126868294115" lon="2.678061987428426"><ele>485.0</ele><time>2026-04-10T09:36:08.897Z</time></trkpt><trkpt lat="42.571348179883756" lon="2.677999355296054"><ele>481.0</ele><time>2026-04-10T09:36:09.897Z</time></trkpt><trkpt lat="42.57144384181071" lon="2.677944589047724"><ele>477.0</ele><time>2026-04-10T09:36:10.897Z</time></trkpt><trkpt lat="42.57154115838021" lon="2.6778893247883806"><ele>473.0</ele><time>2026-04-10T09:36:11.897Z</time></trkpt><trkpt lat="42.5716413465012" lon="2.6778498326082367"><ele>469.0</ele><time>2026-04-10T09:36:12.897Z</time></trkpt><trkpt lat="42.5717335790903" lon="2.677802304558949"><ele>467.83333333333337</ele><time>2026-04-10T09:36:13.897Z</time></trkpt><trkpt lat="42.571820045929954" lon="2.6777614058285963"><ele>466.6666666666667</ele><time>2026-04-10T09:36:14.897Z</time></trkpt><trkpt lat="42.57189335952654" lon="2.6777183961610076"><ele>465.5</ele><time>2026-04-10T09:36:15.897Z</time></trkpt><trkpt lat="42.571959411263606" lon="2.6776564299680397"><ele>464.33333333333337</ele><time>2026-04-10T09:36:16.897Z</time></trkpt><trkpt lat="42.572024710000946" lon="2.677580579407884"><ele>463.1666666666667</ele><time>2026-04-10T09:36:17.897Z</time></trkpt><trkpt lat="42.572097485203976" lon="2.6774889282004986"><ele>462.0</ele><time>2026-04-10T09:36:18.898Z</time></trkpt><trkpt lat="42.57215766168887" lon="2.6773893094702554"><ele>462.0</ele><time>2026-04-10T09:36:19.898Z</time></trkpt><trkpt lat="42.57219513719428" lon="2.6772747775202905"><ele>462.0</ele><time>2026-04-10T09:36:20.898Z</time></trkpt><trkpt lat="42.57221689181655" lon="2.677170459587959"><ele>462.0</ele><time>2026-04-10T09:36:22.898Z</time></trkpt><trkpt lat="42.572191499210284" lon="2.6772772958442577"><ele>462.0</ele><time>2026-04-10T09:36:33.895Z</time></trkpt><trkpt lat="42.57216104887137" lon="2.677389026420263"><ele>462.0</ele><time>2026-04-10T09:36:35.894Z</time></trkpt><trkpt lat="42.572124373774244" lon="2.677461463287984"><ele>462.0</ele><time>2026-04-10T09:36:36.894Z</time></trkpt><trkpt lat="42.57212005637724" lon="2.6775968109792028"><ele>463.40000000000003</ele><time>2026-04-10T09:36:37.894Z</time></trkpt><trkpt lat="42.57196051191748" lon="2.6776415884300384"><ele>464.80000000000007</ele><time>2026-04-10T09:36:38.894Z</time></trkpt><trkpt lat="42.57189685835102" lon="2.6777174218266366"><ele>466.2</ele><time>2026-04-10T09:36:39.894Z</time></trkpt><trkpt lat="42.57181576782012" lon="2.677775285413534"><ele>467.6</ele><time>2026-04-10T09:36:40.894Z</time></trkpt><trkpt lat="42.57171957967139" lon="2.6778092431951217"><ele>469.0</ele><time>2026-04-10T09:36:41.894Z</time></trkpt><trkpt lat="42.57163104356248" lon="2.677854625597247"><ele>469.0</ele><time>2026-04-10T09:36:42.894Z</time></trkpt><trkpt lat="42.57154414540942" lon="2.6779027615926103"><ele>469.0</ele><time>2026-04-10T09:36:43.894Z</time></trkpt><trkpt lat="42.57145657079555" lon="2.67795986401366"><ele>469.0</ele><time>2026-04-10T09:36:44.894Z</time></trkpt><trkpt lat="42.571367721777214" lon="2.6780150549697095"><ele>469.0</ele><time>2026-04-10T09:36:45.894Z</time></trkpt><trkpt lat="42.57128048398868" lon="2.678078459233164"><ele>469.0</ele><time>2026-04-10T09:36:46.894Z</time></trkpt><trkpt lat="42.57119581626695" lon="2.6781376804140193"><ele>472.33333333333337</ele><time>2026-04-10T09:36:47.894Z</time></trkpt><trkpt lat="42.571114864025596" lon="2.678201318953058"><ele>475.6666666666667</ele><time>2026-04-10T09:36:48.894Z</time></trkpt><trkpt lat="42.571042029422934" lon="2.678261662387905"><ele>479.0</ele><time>2026-04-10T09:36:49.894Z</time></trkpt><trkpt lat="42.57097814075536" lon="2.67831685121"><ele>482.33333333333337</ele><time>2026-04-10T09:36:50.894Z</time></trkpt><trkpt lat="42.57091791930474" lon="2.6783650559873893"><ele>485.6666666666667</ele><time>2026-04-10T09:36:51.894Z</time></trkpt><trkpt lat="42.5708138525919" lon="2.6784312251356868"><ele>489.0</ele><time>2026-04-10T09:36:53.894Z</time></trkpt><trkpt lat="42.570726918945965" lon="2.6784241771939508"><ele>489.0</ele><time>2026-04-10T09:36:55.894Z</time></trkpt><trkpt lat="42.570660032569876" lon="2.6783962843828273"><ele>489.00000000000006</ele><time>2026-04-10T09:36:57.894Z</time></trkpt><trkpt lat="42.57058285352098" lon="2.6783859327285704"><ele>489.0</ele><time>2026-04-10T09:37:00.895Z</time></trkpt><trkpt lat="42.57052132333868" lon="2.6784049211244416"><ele>489.0</ele><time>2026-04-10T09:37:02.895Z</time></trkpt><trkpt lat="42.5704584340583" lon="2.6784258993940115"><ele>489.00000000000006</ele><time>2026-04-10T09:37:05.895Z</time></trkpt><trkpt lat="42.57037126394821" lon="2.6784609303490927"><ele>489.0</ele><time>2026-04-10T09:37:08.895Z</time></trkpt><trkpt lat="42.57031129594368" lon="2.6784947063329567"><ele>489.0</ele><time>2026-04-10T09:37:09.895Z</time></trkpt><trkpt lat="42.570239609798065" lon="2.678513988574064"><ele>488.8333333333333</ele><time>2026-04-10T09:37:10.895Z</time></trkpt><trkpt lat="42.57016520365496" lon="2.6785650096990095"><ele>488.66666666666663</ele><time>2026-04-10T09:37:11.895Z</time></trkpt><trkpt lat="42.570085819501756" lon="2.6786264309470846"><ele>488.5</ele><time>2026-04-10T09:37:12.895Z</time></trkpt><trkpt lat="42.57001434327435" lon="2.678717641943698"><ele>488.3333333333333</ele><time>2026-04-10T09:37:13.895Z</time></trkpt><trkpt lat="42.5699391434092" lon="2.67878233253948"><ele>488.16666666666663</ele><time>2026-04-10T09:37:14.895Z</time></trkpt><trkpt lat="42.56987062210479" lon="2.678818054198011"><ele>488.0</ele><time>2026-04-10T09:37:15.895Z</time></trkpt><trkpt lat="42.569800181492866" lon="2.6788011978192365"><ele>488.0</ele><time>2026-04-10T09:37:16.895Z</time></trkpt><trkpt lat="42.569757861444444" lon="2.678653177107797"><ele>487.99999999999994</ele><time>2026-04-10T09:37:18.895Z</time></trkpt><trkpt lat="42.569736208459524" lon="2.6785414799950593"><ele>487.99999999999994</ele><time>2026-04-10T09:37:19.895Z</time></trkpt><trkpt lat="42.569707856743236" lon="2.6784150584089597"><ele>488.0</ele><time>2026-04-10T09:37:20.895Z</time></trkpt><trkpt lat="42.569690708738065" lon="2.678292530455248"><ele>488.0</ele><time>2026-04-10T09:37:21.895Z</time></trkpt><trkpt lat="42.569715667974506" lon="2.6781502822426173"><ele>490.59999999999997</ele><time>2026-04-10T09:37:22.895Z</time></trkpt><trkpt lat="42.56973926034189" lon="2.6780122239419653"><ele>493.19999999999993</ele><time>2026-04-10T09:37:23.895Z</time></trkpt><trkpt lat="42.56975144563403" lon="2.6778947705479825"><ele>495.8</ele><time>2026-04-10T09:37:24.895Z</time></trkpt><trkpt lat="42.569749485904104" lon="2.6777699505288726"><ele>498.4</ele><time>2026-04-10T09:37:25.895Z</time></trkpt><trkpt lat="42.56972149784645" lon="2.677631232143125"><ele>501.0</ele><time>2026-04-10T09:37:26.895Z</time></trkpt><trkpt lat="42.56966583684116" lon="2.677502961176539"><ele>503.20000000000005</ele><time>2026-04-10T09:37:27.895Z</time></trkpt><trkpt lat="42.56960117918803" lon="2.677388481564757"><ele>505.40000000000003</ele><time>2026-04-10T09:37:28.895Z</time></trkpt><trkpt lat="42.56955197759605" lon="2.6772720245561934"><ele>507.6</ele><time>2026-04-10T09:37:29.895Z</time></trkpt><trkpt lat="42.5695562164268" lon="2.6771340871325955"><ele>509.8</ele><time>2026-04-10T09:37:30.895Z</time></trkpt><trkpt lat="42.56954024550777" lon="2.676985515595191"><ele>512.0</ele><time>2026-04-10T09:37:31.895Z</time></trkpt><trkpt lat="42.569508306125144" lon="2.6768540399600877"><ele>512.0</ele><time>2026-04-10T09:37:32.895Z</time></trkpt><trkpt lat="42.569432516599115" lon="2.676722371961035"><ele>512.0</ele><time>2026-04-10T09:37:33.895Z</time></trkpt><trkpt lat="42.56934889027705" lon="2.6766110851942813"><ele>512.0</ele><time>2026-04-10T09:37:34.895Z</time></trkpt><trkpt lat="42.569276154136055" lon="2.6764865167716327"><ele>512.0</ele><time>2026-04-10T09:37:35.895Z</time></trkpt><trkpt lat="42.56926363039265" lon="2.676319660945157"><ele>512.0</ele><time>2026-04-10T09:37:36.895Z</time></trkpt><trkpt lat="42.56919164405746" lon="2.676190773895874"><ele>512.0</ele><time>2026-04-10T09:37:37.895Z</time></trkpt><trkpt lat="42.56913747012615" lon="2.6760569476795855"><ele>512.0</ele><time>2026-04-10T09:37:38.895Z</time></trkpt><trkpt lat="42.569086664739494" lon="2.6759324525822143"><ele>512.0</ele><time>2026-04-10T09:37:39.895Z</time></trkpt><trkpt lat="42.56904439421967" lon="2.675835529144035"><ele>512.0</ele><time>2026-04-10T09:37:40.895Z</time></trkpt><trkpt lat="42.56904161398008" lon="2.6756757814376044"><ele>514.0</ele><time>2026-04-10T09:37:42.895Z</time></trkpt><trkpt lat="42.56906266226551" lon="2.6755377164636616"><ele>516.0</ele><time>2026-04-10T09:37:44.895Z</time></trkpt><trkpt lat="42.56904537661427" lon="2.6756930581133633"><ele>518.0</ele><time>2026-04-10T09:37:51.895Z</time></trkpt><trkpt lat="42.56905411606084" lon="2.6757820890487367"><ele>520.0</ele><time>2026-04-10T09:37:57.896Z</time></trkpt><trkpt lat="42.56904530839837" lon="2.6756934689530465"><ele>522.0</ele><time>2026-04-10T09:38:05.896Z</time></trkpt><trkpt lat="42.56906362475908" lon="2.675542544701794"><ele>522.0</ele><time>2026-04-10T09:38:07.896Z</time></trkpt><trkpt lat="42.569077075146815" lon="2.6754349567699696"><ele>522.0</ele><time>2026-04-10T09:38:08.896Z</time></trkpt><trkpt lat="42.56909225922143" lon="2.675295985729585"><ele>522.0</ele><time>2026-04-10T09:38:09.896Z</time></trkpt><trkpt lat="42.569098737260624" lon="2.675183669306529"><ele>522.0</ele><time>2026-04-10T09:38:10.896Z</time></trkpt><trkpt lat="42.569097723064104" lon="2.675057125676556"><ele>522.0</ele><time>2026-04-10T09:38:11.896Z</time></trkpt><trkpt lat="42.56910663766947" lon="2.674929454566516"><ele>522.8000000000001</ele><time>2026-04-10T09:38:12.896Z</time></trkpt><trkpt lat="42.56912191491396" lon="2.6748004258438733"><ele>523.6</ele><time>2026-04-10T09:38:13.896Z</time></trkpt><trkpt lat="42.569121517183554" lon="2.6746664116967627"><ele>524.4000000000001</ele><time>2026-04-10T09:38:14.896Z</time></trkpt><trkpt lat="42.569134835992685" lon="2.6745362651727316"><ele>525.2</ele><time>2026-04-10T09:38:15.896Z</time></trkpt><trkpt lat="42.569159595724855" lon="2.6744095280420326"><ele>526.0</ele><time>2026-04-10T09:38:16.896Z</time></trkpt><trkpt lat="42.569208977422555" lon="2.674294650878713"><ele>528.0</ele><time>2026-04-10T09:38:17.896Z</time></trkpt><trkpt lat="42.5692463503773" lon="2.6742035181812684"><ele>530.0</ele><time>2026-04-10T09:38:18.896Z</time></trkpt><trkpt lat="42.56925268128384" lon="2.6740694631845674"><ele>532.0</ele><time>2026-04-10T09:38:20.896Z</time></trkpt><trkpt lat="42.56916450938592" lon="2.6739994765870967"><ele>534.0</ele><time>2026-04-10T09:38:23.896Z</time></trkpt><trkpt lat="42.56905058625414" lon="2.673906135626679"><ele>536.0</ele><time>2026-04-10T09:38:25.896Z</time></trkpt><trkpt lat="42.56897611736647" lon="2.673864020484449"><ele>536.0</ele><time>2026-04-10T09:38:26.896Z</time></trkpt><trkpt lat="42.56889304303173" lon="2.673841266012015"><ele>536.0</ele><time>2026-04-10T09:38:27.896Z</time></trkpt><trkpt lat="42.56881793672093" lon="2.673774562988671"><ele>536.0</ele><time>2026-04-10T09:38:28.896Z</time></trkpt><trkpt lat="42.5687297740561" lon="2.6737247034699334"><ele>536.0</ele><time>2026-04-10T09:38:29.896Z</time></trkpt><trkpt lat="42.56863678182032" lon="2.673672112628759"><ele>536.0</ele><time>2026-04-10T09:38:30.896Z</time></trkpt><trkpt lat="42.56854257357053" lon="2.6736188340848175"><ele>536.0</ele><time>2026-04-10T09:38:31.896Z</time></trkpt><trkpt lat="42.56845514957246" lon="2.6735646009308525"><ele>536.0</ele><time>2026-04-10T09:38:32.893Z</time></trkpt><trkpt lat="42.56837166583388" lon="2.673492289201523"><ele>536.0</ele><time>2026-04-10T09:38:33.893Z</time></trkpt><trkpt lat="42.56829418301512" lon="2.673424300335641"><ele>536.0</ele><time>2026-04-10T09:38:34.893Z</time></trkpt><trkpt lat="42.56825959133116" lon="2.673314270165264"><ele>536.0</ele><time>2026-04-10T09:38:35.893Z</time></trkpt><trkpt lat="42.568271053129706" lon="2.6731979470746485"><ele>536.0</ele><time>2026-04-10T09:38:36.894Z</time></trkpt><trkpt lat="42.56829656904517" lon="2.673089691223971"><ele>536.0</ele><time>2026-04-10T09:38:37.894Z</time></trkpt><trkpt lat="42.56833698852531" lon="2.6729786619361064"><ele>536.0</ele><time>2026-04-10T09:38:38.893Z</time></trkpt><trkpt lat="42.56835939715728" lon="2.672849436415492"><ele>536.0</ele><time>2026-04-10T09:38:39.894Z</time></trkpt><trkpt lat="42.56838045068176" lon="2.672718489318414"><ele>536.0</ele><time>2026-04-10T09:38:40.894Z</time></trkpt><trkpt lat="42.56838425556779" lon="2.6725925687630596"><ele>537.3333333333333</ele><time>2026-04-10T09:38:41.893Z</time></trkpt><trkpt lat="42.568371396898485" lon="2.6724808993940066"><ele>538.6666666666666</ele><time>2026-04-10T09:38:42.893Z</time></trkpt><trkpt lat="42.568372227488936" lon="2.6723736833257963"><ele>540.0</ele><time>2026-04-10T09:38:43.893Z</time></trkpt><trkpt lat="42.568351530954374" lon="2.672278548933769"><ele>541.3333333333334</ele><time>2026-04-10T09:38:44.893Z</time></trkpt><trkpt lat="42.56832024217597" lon="2.6721797079228873"><ele>542.6666666666667</ele><time>2026-04-10T09:38:45.893Z</time></trkpt><trkpt lat="42.56830286195783" lon="2.672063359774042"><ele>544.0</ele><time>2026-04-10T09:38:46.893Z</time></trkpt><trkpt lat="42.568306752043846" lon="2.6719413259693514"><ele>546.0</ele><time>2026-04-10T09:38:47.893Z</time></trkpt><trkpt lat="42.568321329424855" lon="2.671818362920913"><ele>548.0</ele><time>2026-04-10T09:38:48.893Z</time></trkpt><trkpt lat="42.56834303174538" lon="2.671709426428736"><ele>550.0</ele><time>2026-04-10T09:38:49.893Z</time></trkpt><trkpt lat="42.56835582422618" lon="2.671587111303658"><ele>552.0</ele><time>2026-04-10T09:38:50.893Z</time></trkpt><trkpt lat="42.56837272385063" lon="2.6714484309303717"><ele>554.0</ele><time>2026-04-10T09:38:51.893Z</time></trkpt><trkpt lat="42.56836982954454" lon="2.6713254158519795"><ele>554.0</ele><time>2026-04-10T09:38:52.893Z</time></trkpt><trkpt lat="42.56834121864713" lon="2.671195103339347"><ele>554.0</ele><time>2026-04-10T09:38:53.893Z</time></trkpt><trkpt lat="42.56832585277909" lon="2.67108794501313"><ele>554.0</ele><time>2026-04-10T09:38:54.893Z</time></trkpt><trkpt lat="42.56830959987225" lon="2.6709874498782464"><ele>554.0</ele><time>2026-04-10T09:38:55.893Z</time></trkpt><trkpt lat="42.56829503534128" lon="2.670887458188987"><ele>554.0</ele><time>2026-04-10T09:38:56.893Z</time></trkpt><trkpt lat="42.56827963555187" lon="2.670792018971828"><ele>554.0</ele><time>2026-04-10T09:38:57.893Z</time></trkpt><trkpt lat="42.568234990446626" lon="2.6706440782268652"><ele>555.2</ele><time>2026-04-10T09:38:59.893Z</time></trkpt><trkpt lat="42.5682142823054" lon="2.6705030568020427"><ele>556.4</ele><time>2026-04-10T09:39:01.893Z</time></trkpt><trkpt lat="42.568157407268785" lon="2.670385216750761"><ele>557.6</ele><time>2026-04-10T09:39:03.893Z</time></trkpt><trkpt lat="42.56807351167995" lon="2.6702837046224226"><ele>558.8</ele><time>2026-04-10T09:39:05.893Z</time></trkpt><trkpt lat="42.56801417930225" lon="2.6702500317467295"><ele>560.0</ele><time>2026-04-10T09:39:06.893Z</time></trkpt><trkpt lat="42.56793976600111" lon="2.6702431192709137"><ele>562.1666666666666</ele><time>2026-04-10T09:39:07.893Z</time></trkpt><trkpt lat="42.567876637595376" lon="2.6702636912421793"><ele>564.3333333333333</ele><time>2026-04-10T09:39:08.893Z</time></trkpt><trkpt lat="42.56780386321052" lon="2.670326147961225"><ele>566.5</ele><time>2026-04-10T09:39:09.893Z</time></trkpt><trkpt lat="42.56771197779941" lon="2.670389030797317"><ele>568.6666666666666</ele><time>2026-04-10T09:39:11.894Z</time></trkpt><trkpt lat="42.567628272243944" lon="2.67036369990168"><ele>570.8333333333334</ele><time>2026-04-10T09:39:13.894Z</time></trkpt><trkpt lat="42.56754753394531" lon="2.6703481801377675"><ele>573.0</ele><time>2026-04-10T09:39:14.894Z</time></trkpt><trkpt lat="42.567456604284686" lon="2.6703022076468756"><ele>571.3333333333334</ele><time>2026-04-10T09:39:15.894Z</time></trkpt><trkpt lat="42.56738283243298" lon="2.670251203646799"><ele>569.6666666666666</ele><time>2026-04-10T09:39:16.894Z</time></trkpt><trkpt lat="42.56731375203817" lon="2.6701944322825133"><ele>568.0</ele><time>2026-04-10T09:39:17.894Z</time></trkpt><trkpt lat="42.567257678431346" lon="2.6701114355162225"><ele>566.3333333333333</ele><time>2026-04-10T09:39:18.894Z</time></trkpt><trkpt lat="42.567204432143114" lon="2.6700007474695733"><ele>564.6666666666666</ele><time>2026-04-10T09:39:19.894Z</time></trkpt><trkpt lat="42.56718279423369" lon="2.669893668867611"><ele>563.0</ele><time>2026-04-10T09:39:20.894Z</time></trkpt><trkpt lat="42.5671879442787" lon="2.6697828791429146"><ele>563.0</ele><time>2026-04-10T09:39:21.894Z</time></trkpt><trkpt lat="42.56721097480556" lon="2.669667241863876"><ele>563.0</ele><time>2026-04-10T09:39:22.894Z</time></trkpt><trkpt lat="42.56725376298093" lon="2.6695607319702157"><ele>563.0</ele><time>2026-04-10T09:39:23.894Z</time></trkpt><trkpt lat="42.567329133359884" lon="2.669469400802681"><ele>563.0</ele><time>2026-04-10T09:39:24.894Z</time></trkpt><trkpt lat="42.5674132107187" lon="2.6693971033569466"><ele>563.0</ele><time>2026-04-10T09:39:25.894Z</time></trkpt><trkpt lat="42.567497085812946" lon="2.6693208774671966"><ele>563.8</ele><time>2026-04-10T09:39:26.894Z</time></trkpt><trkpt lat="42.56757485451381" lon="2.669239058399267"><ele>564.5999999999999</ele><time>2026-04-10T09:39:27.894Z</time></trkpt><trkpt lat="42.567650873723196" lon="2.66916150254138"><ele>565.4000000000001</ele><time>2026-04-10T09:39:28.894Z</time></trkpt><trkpt lat="42.56773878150093" lon="2.6690923141576355"><ele>566.2</ele><time>2026-04-10T09:39:29.894Z</time></trkpt><trkpt lat="42.56782057424527" lon="2.6690457501652975"><ele>567.0</ele><time>2026-04-10T09:39:30.894Z</time></trkpt><trkpt lat="42.56790913854767" lon="2.6690305632736706"><ele>569.5</ele><time>2026-04-10T09:39:31.894Z</time></trkpt><trkpt lat="42.56798500610522" lon="2.6690377167264114"><ele>572.0</ele><time>2026-04-10T09:39:32.894Z</time></trkpt><trkpt lat="42.56804180114635" lon="2.6691267483002235"><ele>574.5</ele><time>2026-04-10T09:39:35.895Z</time></trkpt><trkpt lat="42.56809263027968" lon="2.6691930244604767"><ele>577.0</ele><time>2026-04-10T09:39:37.895Z</time></trkpt><trkpt lat="42.56819881739026" lon="2.6692125982207786"><ele>579.5</ele><time>2026-04-10T09:39:40.895Z</time></trkpt><trkpt lat="42.56827558782674" lon="2.669128974774826"><ele>582.0</ele><time>2026-04-10T09:39:42.895Z</time></trkpt><trkpt lat="42.56828997313957" lon="2.6689621960096104"><ele>582.0</ele><time>2026-04-10T09:39:44.895Z</time></trkpt><trkpt lat="42.56831802264904" lon="2.6688072848489752"><ele>582.0</ele><time>2026-04-10T09:39:46.895Z</time></trkpt><trkpt lat="42.56834186529843" lon="2.6687079934560383"><ele>582.0</ele><time>2026-04-10T09:39:47.895Z</time></trkpt><trkpt lat="42.56838092259125" lon="2.668618636543273"><ele>582.0</ele><time>2026-04-10T09:39:48.895Z</time></trkpt><trkpt lat="42.568437690442735" lon="2.668497102767237"><ele>582.0</ele><time>2026-04-10T09:39:49.895Z</time></trkpt><trkpt lat="42.568503632040475" lon="2.668383795702392"><ele>581.75</ele><time>2026-04-10T09:39:50.895Z</time></trkpt><trkpt lat="42.56856325573635" lon="2.6682505758445596"><ele>581.5</ele><time>2026-04-10T09:39:51.895Z</time></trkpt><trkpt lat="42.56862484303934" lon="2.66811296857123"><ele>581.25</ele><time>2026-04-10T09:39:52.895Z</time></trkpt><trkpt lat="42.56868777085945" lon="2.6679785805178304"><ele>581.0</ele><time>2026-04-10T09:39:53.895Z</time></trkpt><trkpt lat="42.56874599122162" lon="2.6678590486968976"><ele>585.8</ele><time>2026-04-10T09:39:54.895Z</time></trkpt><trkpt lat="42.56879634259928" lon="2.6677244032499"><ele>590.6</ele><time>2026-04-10T09:39:55.895Z</time></trkpt><trkpt lat="42.56886992221647" lon="2.667639031920002"><ele>595.4</ele><time>2026-04-10T09:39:56.895Z</time></trkpt><trkpt lat="42.568883765614885" lon="2.6675115220839487"><ele>600.2</ele><time>2026-04-10T09:39:57.895Z</time></trkpt><trkpt lat="42.56883657057041" lon="2.66737597634749"><ele>605.0</ele><time>2026-04-10T09:39:58.895Z</time></trkpt><trkpt lat="42.568822727770254" lon="2.6672409817277307"><ele>605.0</ele><time>2026-04-10T09:39:59.895Z</time></trkpt><trkpt lat="42.568853954831006" lon="2.6671239699870024"><ele>605.0</ele><time>2026-04-10T09:40:00.895Z</time></trkpt><trkpt lat="42.56893282547167" lon="2.66703640227528"><ele>605.0</ele><time>2026-04-10T09:40:01.895Z</time></trkpt><trkpt lat="42.568982783661085" lon="2.666947104751793"><ele>605.0</ele><time>2026-04-10T09:40:02.895Z</time></trkpt><trkpt lat="42.56904370357642" lon="2.6668431117967013"><ele>605.0</ele><time>2026-04-10T09:40:04.895Z</time></trkpt><trkpt lat="42.56907784518962" lon="2.6667589934581475"><ele>605.0</ele><time>2026-04-10T09:40:06.895Z</time></trkpt><trkpt lat="42.56905903274835" lon="2.6665893575386423"><ele>605.3333333333333</ele><time>2026-04-10T09:40:08.895Z</time></trkpt><trkpt lat="42.569016160989875" lon="2.6665078069898698"><ele>605.6666666666666</ele><time>2026-04-10T09:40:09.895Z</time></trkpt><trkpt lat="42.568925152255495" lon="2.666478103734644"><ele>606.0</ele><time>2026-04-10T09:40:10.895Z</time></trkpt><trkpt lat="42.568887675444124" lon="2.6664074159992133"><ele>606.3333333333334</ele><time>2026-04-10T09:40:11.895Z</time></trkpt><trkpt lat="42.56885557340475" lon="2.666277610070651"><ele>606.6666666666667</ele><time>2026-04-10T09:40:13.895Z</time></trkpt><trkpt lat="42.56889120797911" lon="2.666128952968439"><ele>607.0</ele><time>2026-04-10T09:40:15.895Z</time></trkpt><trkpt lat="42.56894923744661" lon="2.666061298610502"><ele>607.4</ele><time>2026-04-10T09:40:16.895Z</time></trkpt><trkpt lat="42.56901457886546" lon="2.6659979060784336"><ele>607.8000000000001</ele><time>2026-04-10T09:40:17.895Z</time></trkpt><trkpt lat="42.56907093659026" lon="2.6659459429588988"><ele>608.2</ele><time>2026-04-10T09:40:18.895Z</time></trkpt><trkpt lat="42.56920868134951" lon="2.6659132270401065"><ele>608.6</ele><time>2026-04-10T09:40:20.896Z</time></trkpt><trkpt lat="42.569310248865875" lon="2.6658295624693187"><ele>609.0</ele><time>2026-04-10T09:40:22.896Z</time></trkpt><trkpt lat="42.569311610827334" lon="2.665713765832924"><ele>609.0</ele><time>2026-04-10T09:40:23.896Z</time></trkpt><trkpt lat="42.56928244970658" lon="2.665589316781435"><ele>609.0</ele><time>2026-04-10T09:40:24.896Z</time></trkpt><trkpt lat="42.569269019373294" lon="2.665479637496172"><ele>609.0</ele><time>2026-04-10T09:40:25.896Z</time></trkpt><trkpt lat="42.569225772373905" lon="2.6653695885046"><ele>609.0</ele><time>2026-04-10T09:40:26.896Z</time></trkpt><trkpt lat="42.56914007062103" lon="2.6652994845346414"><ele>609.0</ele><time>2026-04-10T09:40:27.896Z</time></trkpt><trkpt lat="42.56908354416882" lon="2.665129635988241"><ele>610.0</ele><time>2026-04-10T09:40:29.896Z</time></trkpt><trkpt lat="42.56911990256255" lon="2.6650429696185"><ele>611.0</ele><time>2026-04-10T09:40:30.896Z</time></trkpt><trkpt lat="42.56917933095369" lon="2.664954858756351"><ele>612.0</ele><time>2026-04-10T09:40:31.896Z</time></trkpt><trkpt lat="42.56922298732168" lon="2.6648285633933804"><ele>613.0</ele><time>2026-04-10T09:40:32.896Z</time></trkpt><trkpt lat="42.56924102413976" lon="2.6646764418801276"><ele>614.0</ele><time>2026-04-10T09:40:33.896Z</time></trkpt><trkpt lat="42.56925635372094" lon="2.6645464558836"><ele>615.0</ele><time>2026-04-10T09:40:34.896Z</time></trkpt><trkpt lat="42.56928294921236" lon="2.664393845601718"><ele>616.0</ele><time>2026-04-10T09:40:35.896Z</time></trkpt><trkpt lat="42.56931168770843" lon="2.6642424615845854"><ele>617.0</ele><time>2026-04-10T09:40:36.896Z</time></trkpt><trkpt lat="42.569322849901006" lon="2.66409383999705"><ele>618.0</ele><time>2026-04-10T09:40:37.896Z</time></trkpt><trkpt lat="42.56930045059743" lon="2.663929815346445"><ele>618.0</ele><time>2026-04-10T09:40:38.893Z</time></trkpt><trkpt lat="42.5692964290187" lon="2.6637581566594655"><ele>618.0</ele><time>2026-04-10T09:40:39.893Z</time></trkpt><trkpt lat="42.569260095523525" lon="2.6635873855128684"><ele>618.0</ele><time>2026-04-10T09:40:40.893Z</time></trkpt><trkpt lat="42.56926387925502" lon="2.6634222563751724"><ele>618.0</ele><time>2026-04-10T09:40:41.894Z</time></trkpt><trkpt lat="42.56923592417845" lon="2.663274329016456"><ele>619.6</ele><time>2026-04-10T09:40:42.893Z</time></trkpt><trkpt lat="42.569231829873445" lon="2.663143523531542"><ele>621.1999999999999</ele><time>2026-04-10T09:40:43.893Z</time></trkpt><trkpt lat="42.569218291873" lon="2.6630393121047264"><ele>622.8</ele><time>2026-04-10T09:40:44.893Z</time></trkpt><trkpt lat="42.569198982965766" lon="2.662929971973111"><ele>624.4</ele><time>2026-04-10T09:40:46.894Z</time></trkpt><trkpt lat="42.56918871423248" lon="2.6628179818970086"><ele>626.0</ele><time>2026-04-10T09:40:48.893Z</time></trkpt><trkpt lat="42.56918949776209" lon="2.6626566715807174"><ele>626.3333333333333</ele><time>2026-04-10T09:40:50.893Z</time></trkpt><trkpt lat="42.56917337155452" lon="2.662552829080564"><ele>626.6666666666666</ele><time>2026-04-10T09:40:51.894Z</time></trkpt><trkpt lat="42.56917681745296" lon="2.662425997745098"><ele>627.0</ele><time>2026-04-10T09:40:52.894Z</time></trkpt><trkpt lat="42.569172472927995" lon="2.6623188629777723"><ele>627.3333333333334</ele><time>2026-04-10T09:40:53.894Z</time></trkpt><trkpt lat="42.56917958871489" lon="2.6622070481598956"><ele>627.6666666666667</ele><time>2026-04-10T09:40:54.894Z</time></trkpt><trkpt lat="42.56919079896533" lon="2.6620907961939864"><ele>628.0</ele><time>2026-04-10T09:40:55.894Z</time></trkpt><trkpt lat="42.56920317478519" lon="2.6619945931339455"><ele>627.8</ele><time>2026-04-10T09:40:56.894Z</time></trkpt><trkpt lat="42.56922706476696" lon="2.661875591622141"><ele>627.5999999999999</ele><time>2026-04-10T09:40:57.894Z</time></trkpt><trkpt lat="42.56924243232199" lon="2.6617465105374887"><ele>627.4000000000001</ele><time>2026-04-10T09:40:58.894Z</time></trkpt><trkpt lat="42.569260579884954" lon="2.6616099066047187"><ele>627.2</ele><time>2026-04-10T09:40:59.894Z</time></trkpt><trkpt lat="42.569285535782264" lon="2.6614808275878583"><ele>627.0</ele><time>2026-04-10T09:41:00.894Z</time></trkpt><trkpt lat="42.569322399868405" lon="2.6613511086648707"><ele>627.0</ele><time>2026-04-10T09:41:01.894Z</time></trkpt><trkpt lat="42.569362884653344" lon="2.6612159955915162"><ele>627.0</ele><time>2026-04-10T09:41:02.894Z</time></trkpt><trkpt lat="42.56941660780026" lon="2.661104412709163"><ele>627.0</ele><time>2026-04-10T09:41:03.894Z</time></trkpt><trkpt lat="42.569470100312536" lon="2.660976146198672"><ele>627.0</ele><time>2026-04-10T09:41:04.894Z</time></trkpt><trkpt lat="42.56951336430855" lon="2.660838653002907"><ele>627.0</ele><time>2026-04-10T09:41:05.894Z</time></trkpt><trkpt lat="42.56952494339887" lon="2.660667205165619"><ele>628.0</ele><time>2026-04-10T09:41:06.894Z</time></trkpt><trkpt lat="42.56952003004859" lon="2.66050520457402"><ele>629.0</ele><time>2026-04-10T09:41:07.894Z</time></trkpt><trkpt lat="42.569493515680264" lon="2.6603403631964273"><ele>630.0</ele><time>2026-04-10T09:41:08.894Z</time></trkpt><trkpt lat="42.56947457796937" lon="2.660174914830122"><ele>631.0</ele><time>2026-04-10T09:41:09.894Z</time></trkpt><trkpt lat="42.56944916345907" lon="2.660012131891161"><ele>631.0</ele><time>2026-04-10T09:41:10.894Z</time></trkpt><trkpt lat="42.56943015536292" lon="2.6598461450254325"><ele>631.0</ele><time>2026-04-10T09:41:11.894Z</time></trkpt><trkpt lat="42.56940832933002" lon="2.65969553819638"><ele>631.0</ele><time>2026-04-10T09:41:12.894Z</time></trkpt><trkpt lat="42.569394261185515" lon="2.6595362068282795"><ele>631.0</ele><time>2026-04-10T09:41:13.894Z</time></trkpt><trkpt lat="42.569353405856795" lon="2.659386361765418"><ele>629.25</ele><time>2026-04-10T09:41:14.894Z</time></trkpt><trkpt lat="42.569311807278915" lon="2.6592310070078358"><ele>627.5</ele><time>2026-04-10T09:41:15.894Z</time></trkpt><trkpt lat="42.56925817999801" lon="2.6590705700606816"><ele>625.75</ele><time>2026-04-10T09:41:16.894Z</time></trkpt><trkpt lat="42.569216209382994" lon="2.6589145082921912"><ele>624.0</ele><time>2026-04-10T09:41:17.894Z</time></trkpt><trkpt lat="42.569159199881334" lon="2.6587515507327604"><ele>620.25</ele><time>2026-04-10T09:41:18.894Z</time></trkpt><trkpt lat="42.56911794572" lon="2.658605143769333"><ele>616.5</ele><time>2026-04-10T09:41:19.894Z</time></trkpt><trkpt lat="42.569050745762084" lon="2.6584787564571797"><ele>612.75</ele><time>2026-04-10T09:41:20.894Z</time></trkpt><trkpt lat="42.568961832352066" lon="2.658362957611646"><ele>609.0</ele><time>2026-04-10T09:41:21.894Z</time></trkpt><trkpt lat="42.56887833405529" lon="2.658249823818899"><ele>609.0</ele><time>2026-04-10T09:41:22.894Z</time></trkpt><trkpt lat="42.56879150354949" lon="2.658157883295536"><ele>609.0</ele><time>2026-04-10T09:41:23.894Z</time></trkpt><trkpt lat="42.56873926295733" lon="2.6580495058130484"><ele>609.0</ele><time>2026-04-10T09:41:24.894Z</time></trkpt><trkpt lat="42.56869833693624" lon="2.6579725301992"><ele>609.0</ele><time>2026-04-10T09:41:25.894Z</time></trkpt><trkpt lat="42.56866551356933" lon="2.6578974810399627"><ele>609.0</ele><time>2026-04-10T09:41:26.894Z</time></trkpt><trkpt lat="42.568669102613974" lon="2.6577999731454183"><ele>609.0</ele><time>2026-04-10T09:41:27.894Z</time></trkpt><trkpt lat="42.56870900904611" lon="2.6577125841193916"><ele>608.1666666666666</ele><time>2026-04-10T09:41:28.894Z</time></trkpt><trkpt lat="42.56880049066158" lon="2.6576199964050495"><ele>607.3333333333334</ele><time>2026-04-10T09:41:30.894Z</time></trkpt><trkpt lat="42.56886477708155" lon="2.6575596487984816"><ele>606.5</ele><time>2026-04-10T09:41:31.894Z</time></trkpt><trkpt lat="42.5689388189445" lon="2.6575020014464314"><ele>605.6666666666667</ele><time>2026-04-10T09:41:32.894Z</time></trkpt><trkpt lat="42.56901177769733" lon="2.6574536760327985"><ele>604.8333333333334</ele><time>2026-04-10T09:41:33.894Z</time></trkpt><trkpt lat="42.569061914303994" lon="2.657372378826076"><ele>604.0</ele><time>2026-04-10T09:41:34.894Z</time></trkpt><trkpt lat="42.569077709610546" lon="2.657263205179411"><ele>604.0</ele><time>2026-04-10T09:41:35.894Z</time></trkpt><trkpt lat="42.56905521854606" lon="2.6571402454634203"><ele>604.0</ele><time>2026-04-10T09:41:36.894Z</time></trkpt><trkpt lat="42.56901469159037" lon="2.6570231271157945"><ele>604.0</ele><time>2026-04-10T09:41:37.894Z</time></trkpt><trkpt lat="42.56897473535153" lon="2.6569032879833157"><ele>604.0</ele><time>2026-04-10T09:41:38.894Z</time></trkpt><trkpt lat="42.568950445347696" lon="2.6567556577723503"><ele>604.0</ele><time>2026-04-10T09:41:39.894Z</time></trkpt><trkpt lat="42.56890717062054" lon="2.656631800540951"><ele>606.2</ele><time>2026-04-10T09:41:40.894Z</time></trkpt><trkpt lat="42.568867305531505" lon="2.6564762380479467"><ele>608.4</ele><time>2026-04-10T09:41:41.894Z</time></trkpt><trkpt lat="42.56882989700138" lon="2.6563548950655624"><ele>610.6</ele><time>2026-04-10T09:41:42.894Z</time></trkpt><trkpt lat="42.56879515778792" lon="2.656271363433453"><ele>612.8</ele><time>2026-04-10T09:41:43.894Z</time></trkpt><trkpt lat="42.568828347149505" lon="2.6561525382357853"><ele>615.0</ele><time>2026-04-10T09:41:45.894Z</time></trkpt><trkpt lat="42.56890651900564" lon="2.656128087970566"><ele>615.0</ele><time>2026-04-10T09:41:46.895Z</time></trkpt><trkpt lat="42.56900604803756" lon="2.656158495619343"><ele>615.0</ele><time>2026-04-10T09:41:47.895Z</time></trkpt><trkpt lat="42.56907868109829" lon="2.6562131050660143"><ele>615.0</ele><time>2026-04-10T09:41:48.895Z</time></trkpt><trkpt lat="42.56915505172609" lon="2.656255758807142"><ele>615.0</ele><time>2026-04-10T09:41:49.895Z</time></trkpt><trkpt lat="42.56924290730177" lon="2.6563388486672896"><ele>615.0</ele><time>2026-04-10T09:41:50.895Z</time></trkpt><trkpt lat="42.56934083028267" lon="2.656424334551043"><ele>615.0</ele><time>2026-04-10T09:41:51.895Z</time></trkpt><trkpt lat="42.569441451588496" lon="2.6565162623609226"><ele>615.0</ele><time>2026-04-10T09:41:52.895Z</time></trkpt><trkpt lat="42.569538996752904" lon="2.6566141073232314"><ele>615.0</ele><time>2026-04-10T09:41:53.895Z</time></trkpt><trkpt lat="42.56962440402688" lon="2.6567343763594367"><ele>615.0</ele><time>2026-04-10T09:41:54.895Z</time></trkpt><trkpt lat="42.56972066123691" lon="2.6568362300355752"><ele>615.6</ele><time>2026-04-10T09:41:55.895Z</time></trkpt><trkpt lat="42.56981523802811" lon="2.656930070300474"><ele>616.2</ele><time>2026-04-10T09:41:56.895Z</time></trkpt><trkpt lat="42.56990640776587" lon="2.657016361758747"><ele>616.8</ele><time>2026-04-10T09:41:57.895Z</time></trkpt><trkpt lat="42.5700015061788" lon="2.6570989583828846"><ele>617.4</ele><time>2026-04-10T09:41:58.895Z</time></trkpt><trkpt lat="42.57009586091272" lon="2.657145434069491"><ele>618.0</ele><time>2026-04-10T09:41:59.895Z</time></trkpt><trkpt lat="42.57018561810385" lon="2.657150273824399"><ele>614.4</ele><time>2026-04-10T09:42:00.895Z</time></trkpt><trkpt lat="42.57027049730875" lon="2.6571166602021465"><ele>610.8</ele><time>2026-04-10T09:42:01.895Z</time></trkpt><trkpt lat="42.57035954433514" lon="2.657058195144603"><ele>607.2</ele><time>2026-04-10T09:42:02.895Z</time></trkpt><trkpt lat="42.570455295102214" lon="2.6569635432524215"><ele>603.6</ele><time>2026-04-10T09:42:03.895Z</time></trkpt><trkpt lat="42.57054069614445" lon="2.6568639797028766"><ele>600.0</ele><time>2026-04-10T09:42:04.895Z</time></trkpt><trkpt lat="42.570618121786325" lon="2.6567593905154854"><ele>600.0</ele><time>2026-04-10T09:42:05.895Z</time></trkpt><trkpt lat="42.57069189136903" lon="2.656625951595284"><ele>600.0</ele><time>2026-04-10T09:42:06.895Z</time></trkpt><trkpt lat="42.57074548589375" lon="2.6564696380097748"><ele>600.0</ele><time>2026-04-10T09:42:07.895Z</time></trkpt><trkpt lat="42.57080118572518" lon="2.656313471876104"><ele>600.0</ele><time>2026-04-10T09:42:08.895Z</time></trkpt><trkpt lat="42.57085235306979" lon="2.656157768487005"><ele>603.5</ele><time>2026-04-10T09:42:09.895Z</time></trkpt><trkpt lat="42.570924005463226" lon="2.6559864851062147"><ele>607.0</ele><time>2026-04-10T09:42:10.895Z</time></trkpt><trkpt lat="42.57098553088738" lon="2.655846159419951"><ele>610.5</ele><time>2026-04-10T09:42:11.895Z</time></trkpt><trkpt lat="42.57105769512031" lon="2.655727697896316"><ele>614.0</ele><time>2026-04-10T09:42:12.895Z</time></trkpt><trkpt lat="42.57112063999116" lon="2.6556136128261714"><ele>614.0</ele><time>2026-04-10T09:42:13.895Z</time></trkpt><trkpt lat="42.57114420298928" lon="2.655450660671953"><ele>614.0</ele><time>2026-04-10T09:42:14.895Z</time></trkpt><trkpt lat="42.57117050010449" lon="2.6552962896813264"><ele>614.0</ele><time>2026-04-10T09:42:15.895Z</time></trkpt><trkpt lat="42.5711956247465" lon="2.655126843082026"><ele>614.0</ele><time>2026-04-10T09:42:16.895Z</time></trkpt><trkpt lat="42.57120125242615" lon="2.6549577645950153"><ele>616.0</ele><time>2026-04-10T09:42:17.895Z</time></trkpt><trkpt lat="42.571183884262645" lon="2.65480489799835"><ele>618.0</ele><time>2026-04-10T09:42:18.895Z</time></trkpt><trkpt lat="42.57120026550418" lon="2.654649427929412"><ele>620.0</ele><time>2026-04-10T09:42:19.895Z</time></trkpt><trkpt lat="42.57121755717507" lon="2.65451240150682"><ele>622.0</ele><time>2026-04-10T09:42:20.895Z</time></trkpt><trkpt lat="42.571235059279125" lon="2.6543925076765262"><ele>624.0</ele><time>2026-04-10T09:42:21.895Z</time></trkpt><trkpt lat="42.571252794637225" lon="2.6542805903292352"><ele>620.8</ele><time>2026-04-10T09:42:22.895Z</time></trkpt><trkpt lat="42.5712690281549" lon="2.6541795216302697"><ele>617.5999999999999</ele><time>2026-04-10T09:42:23.895Z</time></trkpt><trkpt lat="42.571278760186566" lon="2.654041967524631"><ele>614.4</ele><time>2026-04-10T09:42:25.895Z</time></trkpt><trkpt lat="42.5713099578271" lon="2.6538948582188877"><ele>611.1999999999999</ele><time>2026-04-10T09:42:27.895Z</time></trkpt><trkpt lat="42.57132824531803" lon="2.6537505721090002"><ele>608.0</ele><time>2026-04-10T09:42:29.895Z</time></trkpt><trkpt lat="42.57137084285624" lon="2.653597085397319"><ele>608.0</ele><time>2026-04-10T09:42:31.895Z</time></trkpt><trkpt lat="42.57137556174284" lon="2.6535092602006163"><ele>608.0</ele><time>2026-04-10T09:42:32.895Z</time></trkpt><trkpt lat="42.57138345242617" lon="2.6534205501267896"><ele>608.0</ele><time>2026-04-10T09:42:33.895Z</time></trkpt><trkpt lat="42.57140270206204" lon="2.6533244582740534"><ele>608.0</ele><time>2026-04-10T09:42:34.895Z</time></trkpt><trkpt lat="42.571474462464856" lon="2.6531606990491756"><ele>608.0</ele><time>2026-04-10T09:42:36.895Z</time></trkpt><trkpt lat="42.571503351690914" lon="2.6530756400976387"><ele>608.0</ele><time>2026-04-10T09:42:37.895Z</time></trkpt><trkpt lat="42.57151753983832" lon="2.6529826689377187"><ele>608.0</ele><time>2026-04-10T09:42:38.895Z</time></trkpt><trkpt lat="42.57150831592805" lon="2.6528350325761307"><ele>608.0</ele><time>2026-04-10T09:42:40.895Z</time></trkpt><trkpt lat="42.5714360418051" lon="2.6527846527036214"><ele>608.0</ele><time>2026-04-10T09:42:41.895Z</time></trkpt><trkpt lat="42.57135092044119" lon="2.652794344954522"><ele>608.0</ele><time>2026-04-10T09:42:42.896Z</time></trkpt><trkpt lat="42.57128435583935" lon="2.6528075346334616"><ele>608.0</ele><time>2026-04-10T09:42:43.896Z</time></trkpt><trkpt lat="42.571163191371966" lon="2.652810410568962"><ele>610.3333333333333</ele><time>2026-04-10T09:42:45.893Z</time></trkpt><trkpt lat="42.571092118112816" lon="2.6527948395575858"><ele>612.6666666666666</ele><time>2026-04-10T09:42:46.893Z</time></trkpt><trkpt lat="42.57098639145166" lon="2.652703522365323"><ele>615.0</ele><time>2026-04-10T09:42:48.892Z</time></trkpt><trkpt lat="42.570933126847216" lon="2.6526279632295005"><ele>617.3333333333334</ele><time>2026-04-10T09:42:49.892Z</time></trkpt><trkpt lat="42.57087241732455" lon="2.6525586520830213"><ele>619.6666666666667</ele><time>2026-04-10T09:42:50.892Z</time></trkpt><trkpt lat="42.57083021325607" lon="2.6524619057053456"><ele>622.0</ele><time>2026-04-10T09:42:51.892Z</time></trkpt><trkpt lat="42.57077997374166" lon="2.6523615932437408"><ele>622.0</ele><time>2026-04-10T09:42:52.892Z</time></trkpt><trkpt lat="42.5707313056961" lon="2.652260982681346"><ele>622.0</ele><time>2026-04-10T09:42:53.892Z</time></trkpt><trkpt lat="42.5707035340229" lon="2.65216775523242"><ele>622.0</ele><time>2026-04-10T09:42:54.892Z</time></trkpt><trkpt lat="42.57070595883264" lon="2.652046000417656"><ele>622.0</ele><time>2026-04-10T09:42:55.892Z</time></trkpt><trkpt lat="42.57072835839275" lon="2.651918490880219"><ele>622.0</ele><time>2026-04-10T09:42:56.892Z</time></trkpt><trkpt lat="42.570777430810594" lon="2.6518020455358218"><ele>622.0</ele><time>2026-04-10T09:42:57.892Z</time></trkpt><trkpt lat="42.570834752986926" lon="2.6516978787156815"><ele>621.1666666666667</ele><time>2026-04-10T09:42:58.892Z</time></trkpt><trkpt lat="42.57085498866701" lon="2.6515829600090997"><ele>620.3333333333334</ele><time>2026-04-10T09:42:59.892Z</time></trkpt><trkpt lat="42.57086012987959" lon="2.6514722690315264"><ele>619.5</ele><time>2026-04-10T09:43:00.892Z</time></trkpt><trkpt lat="42.570816935662826" lon="2.651394524528029"><ele>618.6666666666666</ele><time>2026-04-10T09:43:01.892Z</time></trkpt><trkpt lat="42.57075000080114" lon="2.6513167401575926"><ele>617.8333333333333</ele><time>2026-04-10T09:43:02.892Z</time></trkpt><trkpt lat="42.57067115368934" lon="2.651268165487816"><ele>617.0</ele><time>2026-04-10T09:43:03.892Z</time></trkpt><trkpt lat="42.57057533433909" lon="2.651250470645549"><ele>617.0</ele><time>2026-04-10T09:43:04.892Z</time></trkpt><trkpt lat="42.57047798828435" lon="2.6512624648359684"><ele>617.0</ele><time>2026-04-10T09:43:05.892Z</time></trkpt><trkpt lat="42.57039297686461" lon="2.651272197463499"><ele>617.0</ele><time>2026-04-10T09:43:06.892Z</time></trkpt><trkpt lat="42.570314962203504" lon="2.6512676378923152"><ele>617.0</ele><time>2026-04-10T09:43:07.892Z</time></trkpt><trkpt lat="42.57023238696367" lon="2.6512523117739635"><ele>617.0</ele><time>2026-04-10T09:43:09.892Z</time></trkpt><trkpt lat="42.57019573356102" lon="2.6511496311666325"><ele>617.0</ele><time>2026-04-10T09:43:11.892Z</time></trkpt><trkpt lat="42.57017844023611" lon="2.651047046868984"><ele>621.2</ele><time>2026-04-10T09:43:12.892Z</time></trkpt><trkpt lat="42.57017261185486" lon="2.6508940001195165"><ele>625.4000000000001</ele><time>2026-04-10T09:43:13.892Z</time></trkpt><trkpt lat="42.57019195817419" lon="2.6507605758982415"><ele>629.5999999999999</ele><time>2026-04-10T09:43:14.892Z</time></trkpt><trkpt lat="42.570237076986395" lon="2.650635739220636"><ele>633.8</ele><time>2026-04-10T09:43:15.892Z</time></trkpt><trkpt lat="42.57028769292877" lon="2.650489912433576"><ele>638.0</ele><time>2026-04-10T09:43:16.892Z</time></trkpt><trkpt lat="42.570324418003985" lon="2.6503542898274524"><ele>629.25</ele><time>2026-04-10T09:43:17.892Z</time></trkpt><trkpt lat="42.570359486874" lon="2.6502115090772667"><ele>620.5</ele><time>2026-04-10T09:43:18.892Z</time></trkpt><trkpt lat="42.57040501773166" lon="2.6500798906247303"><ele>611.75</ele><time>2026-04-10T09:43:19.892Z</time></trkpt><trkpt lat="42.570425108297066" lon="2.6499325208487816"><ele>603.0</ele><time>2026-04-10T09:43:20.892Z</time></trkpt><trkpt lat="42.57046682270348" lon="2.649776790109004"><ele>603.0</ele><time>2026-04-10T09:43:21.892Z</time></trkpt><trkpt lat="42.57048637923944" lon="2.6496204320294376"><ele>603.0</ele><time>2026-04-10T09:43:22.892Z</time></trkpt><trkpt lat="42.57050707728698" lon="2.6494983772530487"><ele>603.0</ele><time>2026-04-10T09:43:23.892Z</time></trkpt><trkpt lat="42.570525767126284" lon="2.649408490366252"><ele>603.0</ele><time>2026-04-10T09:43:24.892Z</time></trkpt><trkpt lat="42.57047754668897" lon="2.649333459733591"><ele>603.0</ele><time>2026-04-10T09:43:25.892Z</time></trkpt><trkpt lat="42.57039748182341" lon="2.649286710952193"><ele>603.0</ele><time>2026-04-10T09:43:26.892Z</time></trkpt><trkpt lat="42.57033750720166" lon="2.649198577483906"><ele>607.5</ele><time>2026-04-10T09:43:27.892Z</time></trkpt><trkpt lat="42.57028541697213" lon="2.649138797913129"><ele>612.0</ele><time>2026-04-10T09:43:28.892Z</time></trkpt><trkpt lat="42.570205185824975" lon="2.649046723334846"><ele>616.5</ele><time>2026-04-10T09:43:30.892Z</time></trkpt><trkpt lat="42.57013570674208" lon="2.648985382846615"><ele>621.0</ele><time>2026-04-10T09:43:32.892Z</time></trkpt><trkpt lat="42.57006965760699" lon="2.6488689501123166"><ele>625.5</ele><time>2026-04-10T09:43:34.893Z</time></trkpt><trkpt lat="42.570012375407266" lon="2.648815128010776"><ele>630.0</ele><time>2026-04-10T09:43:35.893Z</time></trkpt><trkpt lat="42.56998368050815" lon="2.6487204147050027"><ele>630.0</ele><time>2026-04-10T09:43:36.893Z</time></trkpt><trkpt lat="42.569951805068676" lon="2.6486318451764235"><ele>630.0</ele><time>2026-04-10T09:43:37.893Z</time></trkpt><trkpt lat="42.56990756026594" lon="2.6485533684715983"><ele>630.0</ele><time>2026-04-10T09:43:38.893Z</time></trkpt><trkpt lat="42.56985330058954" lon="2.6484819299146722"><ele>630.0</ele><time>2026-04-10T09:43:39.893Z</time></trkpt><trkpt lat="42.569797878768526" lon="2.6484091805844137"><ele>630.0</ele><time>2026-04-10T09:43:40.893Z</time></trkpt><trkpt lat="42.56975281749699" lon="2.6482248039743834"><ele>630.0</ele><time>2026-04-10T09:43:42.893Z</time></trkpt><trkpt lat="42.569740831694666" lon="2.6481332217972042"><ele>631.0</ele><time>2026-04-10T09:43:43.893Z</time></trkpt><trkpt lat="42.5697159812251" lon="2.6480108776352225"><ele>632.0</ele><time>2026-04-10T09:43:45.893Z</time></trkpt><trkpt lat="42.569632882637904" lon="2.647940846022088"><ele>633.0</ele><time>2026-04-10T09:43:47.893Z</time></trkpt><trkpt lat="42.56955155027991" lon="2.6479457120598164"><ele>634.0</ele><time>2026-04-10T09:43:48.893Z</time></trkpt><trkpt lat="42.56948471116795" lon="2.6479700938173014"><ele>635.0</ele><time>2026-04-10T09:43:49.893Z</time></trkpt><trkpt lat="42.5693930118324" lon="2.6480622185264258"><ele>635.0</ele><time>2026-04-10T09:43:51.893Z</time></trkpt><trkpt lat="42.569275491646145" lon="2.648089750800425"><ele>635.0</ele><time>2026-04-10T09:43:53.893Z</time></trkpt><trkpt lat="42.56921369895293" lon="2.648028950592119"><ele>635.0</ele><time>2026-04-10T09:43:54.893Z</time></trkpt><trkpt lat="42.569148753221455" lon="2.647983711945015"><ele>635.0</ele><time>2026-04-10T09:43:55.893Z</time></trkpt><trkpt lat="42.5690758984297" lon="2.6479496696204827"><ele>635.0</ele><time>2026-04-10T09:43:56.893Z</time></trkpt><trkpt lat="42.56899456220889" lon="2.6479329893388264"><ele>635.0</ele><time>2026-04-10T09:43:57.893Z</time></trkpt><trkpt lat="42.568912365997456" lon="2.6479341994011967"><ele>635.0</ele><time>2026-04-10T09:43:58.893Z</time></trkpt><trkpt lat="42.56882556232312" lon="2.6479536446772203"><ele>635.0</ele><time>2026-04-10T09:43:59.893Z</time></trkpt><trkpt lat="42.568744271578765" lon="2.6479699162229493"><ele>635.0</ele><time>2026-04-10T09:44:00.893Z</time></trkpt><trkpt lat="42.56866670715135" lon="2.6479631524086207"><ele>635.0</ele><time>2026-04-10T09:44:01.893Z</time></trkpt><trkpt lat="42.5685775449215" lon="2.6479401205616195"><ele>635.0</ele><time>2026-04-10T09:44:02.893Z</time></trkpt><trkpt lat="42.56848640919224" lon="2.6479206664057213"><ele>635.0</ele><time>2026-04-10T09:44:03.893Z</time></trkpt><trkpt lat="42.56840285083256" lon="2.6479264884120837"><ele>635.2</ele><time>2026-04-10T09:44:04.893Z</time></trkpt><trkpt lat="42.56830863545736" lon="2.6479819986232367"><ele>635.4</ele><time>2026-04-10T09:44:05.893Z</time></trkpt><trkpt lat="42.568223649416254" lon="2.6480539427963286"><ele>635.6</ele><time>2026-04-10T09:44:06.893Z</time></trkpt><trkpt lat="42.56814197880257" lon="2.6481325345335813"><ele>635.8</ele><time>2026-04-10T09:44:07.893Z</time></trkpt><trkpt lat="42.56805334886821" lon="2.6482205306328797"><ele>636.0</ele><time>2026-04-10T09:44:08.893Z</time></trkpt><trkpt lat="42.56796654571009" lon="2.6483082585916264"><ele>636.0</ele><time>2026-04-10T09:44:09.893Z</time></trkpt><trkpt lat="42.56787657889612" lon="2.6483876486892477"><ele>636.0</ele><time>2026-04-10T09:44:10.893Z</time></trkpt><trkpt lat="42.56778754073176" lon="2.648470689127937"><ele>636.0</ele><time>2026-04-10T09:44:11.893Z</time></trkpt><trkpt lat="42.56772243950699" lon="2.648554377500262"><ele>636.0</ele><time>2026-04-10T09:44:12.893Z</time></trkpt><trkpt lat="42.567676690961925" lon="2.648634459412878"><ele>636.0</ele><time>2026-04-10T09:44:13.893Z</time></trkpt><trkpt lat="42.56765998429091" lon="2.648756781011961"><ele>635.0</ele><time>2026-04-10T09:44:14.893Z</time></trkpt><trkpt lat="42.56769012601388" lon="2.648876229597032"><ele>634.0</ele><time>2026-04-10T09:44:15.893Z</time></trkpt><trkpt lat="42.567707269284696" lon="2.649000033986793"><ele>633.0</ele><time>2026-04-10T09:44:16.893Z</time></trkpt><trkpt lat="42.56767673797173" lon="2.649124609007508"><ele>632.0</ele><time>2026-04-10T09:44:17.893Z</time></trkpt><trkpt lat="42.567626999637945" lon="2.649248348648852"><ele>631.0</ele><time>2026-04-10T09:44:18.893Z</time></trkpt><trkpt lat="42.56759044880314" lon="2.649385376118494"><ele>633.25</ele><time>2026-04-10T09:44:19.893Z</time></trkpt><trkpt lat="42.567562530316835" lon="2.649531120234844"><ele>635.5</ele><time>2026-04-10T09:44:20.893Z</time></trkpt><trkpt lat="42.567535999917176" lon="2.6496744104827"><ele>637.75</ele><time>2026-04-10T09:44:21.893Z</time></trkpt><trkpt lat="42.56750174920413" lon="2.649835917811058"><ele>640.0</ele><time>2026-04-10T09:44:22.893Z</time></trkpt><trkpt lat="42.56749852139634" lon="2.649997998336248"><ele>640.0</ele><time>2026-04-10T09:44:23.893Z</time></trkpt><trkpt lat="42.56747824789322" lon="2.650149836085676"><ele>640.0</ele><time>2026-04-10T09:44:24.893Z</time></trkpt><trkpt lat="42.56745799884967" lon="2.6502909509956716"><ele>640.0</ele><time>2026-04-10T09:44:25.893Z</time></trkpt><trkpt lat="42.5674226388893" lon="2.6504205878748444"><ele>640.0</ele><time>2026-04-10T09:44:26.893Z</time></trkpt><trkpt lat="42.56735365967562" lon="2.6505343210796335"><ele>640.0</ele><time>2026-04-10T09:44:27.893Z</time></trkpt><trkpt lat="42.56728192059715" lon="2.6506452562202907"><ele>643.0</ele><time>2026-04-10T09:44:28.893Z</time></trkpt><trkpt lat="42.567205833890036" lon="2.6507750363706792"><ele>646.0</ele><time>2026-04-10T09:44:29.894Z</time></trkpt><trkpt lat="42.56712003868611" lon="2.6508941983585386"><ele>649.0</ele><time>2026-04-10T09:44:30.894Z</time></trkpt><trkpt lat="42.56706203866197" lon="2.651045701280533"><ele>652.0</ele><time>2026-04-10T09:44:31.894Z</time></trkpt><trkpt lat="42.56699852505739" lon="2.6511746984187843"><ele>652.0</ele><time>2026-04-10T09:44:32.894Z</time></trkpt><trkpt lat="42.56693112945754" lon="2.6512647107125726"><ele>652.0</ele><time>2026-04-10T09:44:33.894Z</time></trkpt><trkpt lat="42.56682950584299" lon="2.65128625415021"><ele>652.0</ele><time>2026-04-10T09:44:35.894Z</time></trkpt><trkpt lat="42.56677083503025" lon="2.6511672346381197"><ele>652.0</ele><time>2026-04-10T09:44:37.894Z</time></trkpt><trkpt lat="42.56673011595505" lon="2.651094311761394"><ele>652.0</ele><time>2026-04-10T09:44:38.894Z</time></trkpt><trkpt lat="42.56668222851156" lon="2.6510031459772163"><ele>649.8333333333334</ele><time>2026-04-10T09:44:39.894Z</time></trkpt><trkpt lat="42.566612461450156" lon="2.6509291061545817"><ele>647.6666666666667</ele><time>2026-04-10T09:44:40.894Z</time></trkpt><trkpt lat="42.56654762692464" lon="2.6508462289654307"><ele>645.5</ele><time>2026-04-10T09:44:41.894Z</time></trkpt><trkpt lat="42.56645981947136" lon="2.650807199642503"><ele>643.3333333333334</ele><time>2026-04-10T09:44:42.894Z</time></trkpt><trkpt lat="42.566374085141966" lon="2.650765248613003"><ele>641.1666666666666</ele><time>2026-04-10T09:44:43.894Z</time></trkpt><trkpt lat="42.566313072077136" lon="2.65073461514565"><ele>639.0</ele><time>2026-04-10T09:44:44.894Z</time></trkpt><trkpt lat="42.566238744419266" lon="2.6507104019221153"><ele>639.0</ele><time>2026-04-10T09:44:46.894Z</time></trkpt><trkpt lat="42.56623561711383" lon="2.650618341983697"><ele>639.0</ele><time>2026-04-10T09:44:48.894Z</time></trkpt><trkpt lat="42.56624205480369" lon="2.6504824646298655"><ele>639.0</ele><time>2026-04-10T09:44:51.891Z</time></trkpt><trkpt lat="42.56622430880469" lon="2.650361953234751"><ele>639.0</ele><time>2026-04-10T09:44:53.892Z</time></trkpt><trkpt lat="42.56618163432645" lon="2.650271209947855"><ele>639.0</ele><time>2026-04-10T09:44:54.892Z</time></trkpt><trkpt lat="42.566137261825816" lon="2.650178572164787"><ele>639.0</ele><time>2026-04-10T09:44:55.892Z</time></trkpt><trkpt lat="42.56606343561567" lon="2.650098379704494"><ele>638.6666666666666</ele><time>2026-04-10T09:44:56.891Z</time></trkpt><trkpt lat="42.56599253382619" lon="2.6500547168778574"><ele>638.3333333333334</ele><time>2026-04-10T09:44:57.891Z</time></trkpt><trkpt lat="42.565979371161916" lon="2.6499591001484126"><ele>638.0</ele><time>2026-04-10T09:44:58.891Z</time></trkpt><trkpt lat="42.56599492851249" lon="2.6498492896973462"><ele>637.6666666666667</ele><time>2026-04-10T09:44:59.892Z</time></trkpt><trkpt lat="42.566005457881765" lon="2.6497212917039827"><ele>637.3333333333334</ele><time>2026-04-10T09:45:00.892Z</time></trkpt><trkpt lat="42.566011667418756" lon="2.6495908273007664"><ele>637.0</ele><time>2026-04-10T09:45:01.892Z</time></trkpt><trkpt lat="42.56599296382031" lon="2.649447886603522"><ele>637.0</ele><time>2026-04-10T09:45:02.891Z</time></trkpt><trkpt lat="42.56594600115943" lon="2.6493156135971585"><ele>637.0</ele><time>2026-04-10T09:45:03.891Z</time></trkpt><trkpt lat="42.565902091650145" lon="2.649203237621407"><ele>637.0</ele><time>2026-04-10T09:45:04.891Z</time></trkpt><trkpt lat="42.56583840342389" lon="2.6490991110777604"><ele>637.0</ele><time>2026-04-10T09:45:05.891Z</time></trkpt><trkpt lat="42.5657538863089" lon="2.6490312912465037"><ele>637.0</ele><time>2026-04-10T09:45:06.891Z</time></trkpt><trkpt lat="42.56564692535441" lon="2.6489697784046435"><ele>637.0</ele><time>2026-04-10T09:45:07.891Z</time></trkpt><trkpt lat="42.56554279552278" lon="2.6489031571779473"><ele>637.0</ele><time>2026-04-10T09:45:08.891Z</time></trkpt><trkpt lat="42.565446938764836" lon="2.648826811128686"><ele>637.0</ele><time>2026-04-10T09:45:09.891Z</time></trkpt><trkpt lat="42.56534522816146" lon="2.6487655685540723"><ele>637.0</ele><time>2026-04-10T09:45:10.891Z</time></trkpt><trkpt lat="42.56523279181851" lon="2.6487146826254078"><ele>639.2</ele><time>2026-04-10T09:45:11.891Z</time></trkpt><trkpt lat="42.56510561979035" lon="2.64868816695414"><ele>641.4000000000001</ele><time>2026-04-10T09:45:12.891Z</time></trkpt><trkpt lat="42.56501038848866" lon="2.6486318344539272"><ele>643.5999999999999</ele><time>2026-04-10T09:45:13.891Z</time></trkpt><trkpt lat="42.56491580841225" lon="2.648589743812289"><ele>645.8</ele><time>2026-04-10T09:45:14.891Z</time></trkpt><trkpt lat="42.56484260909255" lon="2.648536131363586"><ele>648.0</ele><time>2026-04-10T09:45:15.891Z</time></trkpt><trkpt lat="42.56481129763833" lon="2.6484509906923295"><ele>648.0</ele><time>2026-04-10T09:45:16.891Z</time></trkpt><trkpt lat="42.564845204745616" lon="2.6483567124462835"><ele>648.0</ele><time>2026-04-10T09:45:17.891Z</time></trkpt><trkpt lat="42.56490316548978" lon="2.648252127022186"><ele>648.0</ele><time>2026-04-10T09:45:18.891Z</time></trkpt><trkpt lat="42.56497927256628" lon="2.6481547331506974"><ele>648.0</ele><time>2026-04-10T09:45:19.891Z</time></trkpt><trkpt lat="42.56507106921434" lon="2.648054306323717"><ele>648.0</ele><time>2026-04-10T09:45:20.891Z</time></trkpt><trkpt lat="42.565150377367594" lon="2.6479787774562507"><ele>648.0</ele><time>2026-04-10T09:45:21.892Z</time></trkpt><trkpt lat="42.565204765403706" lon="2.647880141960937"><ele>648.0</ele><time>2026-04-10T09:45:22.892Z</time></trkpt><trkpt lat="42.5652280613293" lon="2.6477277399982424"><ele>648.0</ele><time>2026-04-10T09:45:23.892Z</time></trkpt><trkpt lat="42.565270155003255" lon="2.6475755478669685"><ele>648.0</ele><time>2026-04-10T09:45:24.892Z</time></trkpt><trkpt lat="42.565312326315535" lon="2.647444348463081"><ele>648.0</ele><time>2026-04-10T09:45:25.892Z</time></trkpt><trkpt lat="42.56536370642941" lon="2.6473050798886493"><ele>644.5</ele><time>2026-04-10T09:45:26.892Z</time></trkpt><trkpt lat="42.565426384039114" lon="2.6471730192707406"><ele>641.0</ele><time>2026-04-10T09:45:27.892Z</time></trkpt><trkpt lat="42.56543120310861" lon="2.647001139895469"><ele>637.5</ele><time>2026-04-10T09:45:28.892Z</time></trkpt><trkpt lat="42.56546649497345" lon="2.6468495308988342"><ele>634.0</ele><time>2026-04-10T09:45:29.892Z</time></trkpt><trkpt lat="42.56545775552029" lon="2.6466908195705323"><ele>634.0</ele><time>2026-04-10T09:45:30.892Z</time></trkpt><trkpt lat="42.565450639589585" lon="2.6465403875955293"><ele>634.0</ele><time>2026-04-10T09:45:31.892Z</time></trkpt><trkpt lat="42.565427652402974" lon="2.6464186249005217"><ele>634.0</ele><time>2026-04-10T09:45:32.892Z</time></trkpt><trkpt lat="42.56535852513429" lon="2.6463222994229914"><ele>634.0</ele><time>2026-04-10T09:45:33.892Z</time></trkpt><trkpt lat="42.565266768364886" lon="2.6462475875009863"><ele>634.0</ele><time>2026-04-10T09:45:34.892Z</time></trkpt><trkpt lat="42.56518374644518" lon="2.646160614614388"><ele>636.8</ele><time>2026-04-10T09:45:35.892Z</time></trkpt><trkpt lat="42.56510162918516" lon="2.646098307780064"><ele>639.5999999999999</ele><time>2026-04-10T09:45:36.892Z</time></trkpt><trkpt lat="42.56501818168162" lon="2.6460720545191236"><ele>642.4</ele><time>2026-04-10T09:45:38.892Z</time></trkpt><trkpt lat="42.56490187062782" lon="2.6460603239244604"><ele>645.1999999999999</ele><time>2026-04-10T09:45:52.892Z</time></trkpt><trkpt lat="42.56486150038069" lon="2.6461841443394905"><ele>648.0</ele><time>2026-04-10T09:45:53.892Z</time></trkpt><trkpt lat="42.56481366248207" lon="2.6462547814496147"><ele>648.0</ele><time>2026-04-10T09:45:54.892Z</time></trkpt><trkpt lat="42.56475953455663" lon="2.646332239543862"><ele>648.0</ele><time>2026-04-10T09:45:55.892Z</time></trkpt><trkpt lat="42.56469154528946" lon="2.6463898890622217"><ele>648.0</ele><time>2026-04-10T09:45:56.892Z</time></trkpt><trkpt lat="42.56461817885784" lon="2.6464386185953104"><ele>648.0</ele><time>2026-04-10T09:45:57.892Z</time></trkpt><trkpt lat="42.564527638575115" lon="2.6464762197006113"><ele>648.0</ele><time>2026-04-10T09:45:58.892Z</time></trkpt><trkpt lat="42.564428830660574" lon="2.6465051554588648"><ele>648.0</ele><time>2026-04-10T09:45:59.892Z</time></trkpt><trkpt lat="42.56432972836818" lon="2.6465257224714014"><ele>648.0</ele><time>2026-04-10T09:46:00.892Z</time></trkpt><trkpt lat="42.56422910455346" lon="2.646566054793856"><ele>648.0</ele><time>2026-04-10T09:46:01.892Z</time></trkpt><trkpt lat="42.564128320473856" lon="2.646628291917587"><ele>648.0</ele><time>2026-04-10T09:46:02.892Z</time></trkpt><trkpt lat="42.56402331047704" lon="2.6467090633745376"><ele>648.0</ele><time>2026-04-10T09:46:03.892Z</time></trkpt><trkpt lat="42.56392355980088" lon="2.646789371711384"><ele>648.0</ele><time>2026-04-10T09:46:04.892Z</time></trkpt><trkpt lat="42.563819236735334" lon="2.6468883698830514"><ele>648.0</ele><time>2026-04-10T09:46:05.892Z</time></trkpt><trkpt lat="42.56372841365592" lon="2.646995563545793"><ele>648.0</ele><time>2026-04-10T09:46:06.892Z</time></trkpt><trkpt lat="42.56363890769401" lon="2.6471173967438406"><ele>648.0</ele><time>2026-04-10T09:46:07.892Z</time></trkpt><trkpt lat="42.56355573553752" lon="2.6472451413027644"><ele>645.75</ele><time>2026-04-10T09:46:08.892Z</time></trkpt><trkpt lat="42.56348062856171" lon="2.6473888725672947"><ele>643.5</ele><time>2026-04-10T09:46:09.892Z</time></trkpt><trkpt lat="42.56341321489852" lon="2.647534211432632"><ele>641.25</ele><time>2026-04-10T09:46:10.892Z</time></trkpt><trkpt lat="42.5633510748041" lon="2.6476828665982834"><ele>639.0</ele><time>2026-04-10T09:46:11.892Z</time></trkpt><trkpt lat="42.56331239145529" lon="2.6478286390655335"><ele>638.8</ele><time>2026-04-10T09:46:12.892Z</time></trkpt><trkpt lat="42.56329982397714" lon="2.6479652020561715"><ele>638.5999999999999</ele><time>2026-04-10T09:46:13.892Z</time></trkpt><trkpt lat="42.56331348084182" lon="2.6480906069047316"><ele>638.4</ele><time>2026-04-10T09:46:14.892Z</time></trkpt><trkpt lat="42.56336922831951" lon="2.648196234585221"><ele>638.1999999999999</ele><time>2026-04-10T09:46:15.892Z</time></trkpt><trkpt lat="42.56344279319718" lon="2.6482832437958037"><ele>638.0</ele><time>2026-04-10T09:46:16.892Z</time></trkpt><trkpt lat="42.56352143807489" lon="2.6483608223868567"><ele>638.0</ele><time>2026-04-10T09:46:17.893Z</time></trkpt><trkpt lat="42.56358176876934" lon="2.648454659704333"><ele>638.0</ele><time>2026-04-10T09:46:18.893Z</time></trkpt><trkpt lat="42.56359145447582" lon="2.648581825522363"><ele>638.0</ele><time>2026-04-10T09:46:19.893Z</time></trkpt><trkpt lat="42.563577394941184" lon="2.648721254306217"><ele>638.0</ele><time>2026-04-10T09:46:20.893Z</time></trkpt><trkpt lat="42.56352341950618" lon="2.6488394205458747"><ele>638.0</ele><time>2026-04-10T09:46:21.893Z</time></trkpt><trkpt lat="42.5634461026829" lon="2.6489346245128025"><ele>641.0</ele><time>2026-04-10T09:46:22.893Z</time></trkpt><trkpt lat="42.56334603831307" lon="2.6489766633527223"><ele>644.0</ele><time>2026-04-10T09:46:23.893Z</time></trkpt><trkpt lat="42.5632382541713" lon="2.6489942337268166"><ele>647.0</ele><time>2026-04-10T09:46:24.893Z</time></trkpt><trkpt lat="42.56312488487908" lon="2.649043250326352"><ele>650.0</ele><time>2026-04-10T09:46:25.893Z</time></trkpt><trkpt lat="42.56300917872487" lon="2.649071784629288"><ele>650.0</ele><time>2026-04-10T09:46:26.893Z</time></trkpt><trkpt lat="42.562888927030244" lon="2.649109523451471"><ele>650.0</ele><time>2026-04-10T09:46:27.893Z</time></trkpt><trkpt lat="42.56276188674641" lon="2.649144944608663"><ele>650.0</ele><time>2026-04-10T09:46:28.893Z</time></trkpt><trkpt lat="42.562639966808646" lon="2.6491824804470845"><ele>650.0</ele><time>2026-04-10T09:46:29.893Z</time></trkpt><trkpt lat="42.56251456067595" lon="2.649218150052984"><ele>646.5</ele><time>2026-04-10T09:46:30.893Z</time></trkpt><trkpt lat="42.56238844265783" lon="2.64925328440193"><ele>643.0</ele><time>2026-04-10T09:46:31.893Z</time></trkpt><trkpt lat="42.562258919694244" lon="2.6492930101457706"><ele>639.5</ele><time>2026-04-10T09:46:32.893Z</time></trkpt><trkpt lat="42.56214124899253" lon="2.649370547621019"><ele>636.0</ele><time>2026-04-10T09:46:33.893Z</time></trkpt><trkpt lat="42.56202627512642" lon="2.649463299727328"><ele>635.75</ele><time>2026-04-10T09:46:34.893Z</time></trkpt><trkpt lat="42.56191557720188" lon="2.649568374017892"><ele>635.5</ele><time>2026-04-10T09:46:35.893Z</time></trkpt><trkpt lat="42.56181232913691" lon="2.6496894511330695"><ele>635.25</ele><time>2026-04-10T09:46:36.893Z</time></trkpt><trkpt lat="42.56171997470157" lon="2.6498297952062755"><ele>635.0</ele><time>2026-04-10T09:46:37.893Z</time></trkpt><trkpt lat="42.56162866736697" lon="2.6499773545123864"><ele>635.0</ele><time>2026-04-10T09:46:38.893Z</time></trkpt><trkpt lat="42.561532429044256" lon="2.6501216652999804"><ele>635.0</ele><time>2026-04-10T09:46:39.893Z</time></trkpt><trkpt lat="42.56144255631883" lon="2.6502699127743297"><ele>635.0</ele><time>2026-04-10T09:46:40.893Z</time></trkpt><trkpt lat="42.56136010335802" lon="2.650435149696493"><ele>635.0</ele><time>2026-04-10T09:46:41.893Z</time></trkpt><trkpt lat="42.56128971181781" lon="2.6506059855655155"><ele>638.25</ele><time>2026-04-10T09:46:42.893Z</time></trkpt><trkpt lat="42.56124356518779" lon="2.6507832000817917"><ele>641.5</ele><time>2026-04-10T09:46:43.893Z</time></trkpt><trkpt lat="42.561227377289256" lon="2.650961057502387"><ele>644.75</ele><time>2026-04-10T09:46:44.893Z</time></trkpt><trkpt lat="42.56123515778218" lon="2.65115698335198"><ele>648.0</ele><time>2026-04-10T09:46:45.893Z</time></trkpt><trkpt lat="42.56124039668938" lon="2.651355167585071"><ele>649.75</ele><time>2026-04-10T09:46:46.893Z</time></trkpt><trkpt lat="42.561242793745386" lon="2.651552337015781"><ele>651.5</ele><time>2026-04-10T09:46:47.893Z</time></trkpt><trkpt lat="42.56124420626111" lon="2.651746055378513"><ele>653.25</ele><time>2026-04-10T09:46:48.893Z</time></trkpt><trkpt lat="42.56124253415435" lon="2.651914790656232"><ele>655.0</ele><time>2026-04-10T09:46:49.893Z</time></trkpt><trkpt lat="42.56120313108568" lon="2.6520432482927614"><ele>652.8</ele><time>2026-04-10T09:46:50.893Z</time></trkpt><trkpt lat="42.561154409322576" lon="2.652131591953108"><ele>650.6</ele><time>2026-04-10T09:46:51.893Z</time></trkpt><trkpt lat="42.56108248249579" lon="2.6521832443066704"><ele>648.4000000000001</ele><time>2026-04-10T09:46:52.893Z</time></trkpt><trkpt lat="42.56098977245033" lon="2.652187100608181"><ele>646.2</ele><time>2026-04-10T09:46:53.893Z</time></trkpt><trkpt lat="42.560887279100996" lon="2.652163702317207"><ele>644.0</ele><time>2026-04-10T09:46:54.893Z</time></trkpt><trkpt lat="42.560775684383415" lon="2.6521383222323744"><ele>644.0</ele><time>2026-04-10T09:46:55.893Z</time></trkpt><trkpt lat="42.56065554422021" lon="2.6521194559332435"><ele>644.0</ele><time>2026-04-10T09:46:56.891Z</time></trkpt><trkpt lat="42.56052978589294" lon="2.652138423764848"><ele>644.0</ele><time>2026-04-10T09:46:57.891Z</time></trkpt><trkpt lat="42.56039319115956" lon="2.6521455492109047"><ele>644.0</ele><time>2026-04-10T09:46:58.891Z</time></trkpt><trkpt lat="42.56027307263431" lon="2.6522113554073306"><ele>640.0</ele><time>2026-04-10T09:46:59.891Z</time></trkpt><trkpt lat="42.560153731637804" lon="2.6522614123744694"><ele>636.0</ele><time>2026-04-10T09:47:00.891Z</time></trkpt><trkpt lat="42.56004251136856" lon="2.652351215123407"><ele>632.0</ele><time>2026-04-10T09:47:01.891Z</time></trkpt><trkpt lat="42.55994374537276" lon="2.652463264191269"><ele>628.0</ele><time>2026-04-10T09:47:02.891Z</time></trkpt><trkpt lat="42.559855622397016" lon="2.652606912196777"><ele>628.0</ele><time>2026-04-10T09:47:03.891Z</time></trkpt><trkpt lat="42.55976614138824" lon="2.6527504780379143"><ele>628.0</ele><time>2026-04-10T09:47:04.891Z</time></trkpt><trkpt lat="42.55967910511995" lon="2.6528994629805567"><ele>628.0</ele><time>2026-04-10T09:47:05.891Z</time></trkpt><trkpt lat="42.559583182147335" lon="2.653044674235719"><ele>628.0</ele><time>2026-04-10T09:47:06.891Z</time></trkpt><trkpt lat="42.559491970976666" lon="2.6531808916319553"><ele>627.8</ele><time>2026-04-10T09:47:07.891Z</time></trkpt><trkpt lat="42.559412766997724" lon="2.65330726014974"><ele>627.5999999999999</ele><time>2026-04-10T09:47:08.891Z</time></trkpt><trkpt lat="42.55936579736295" lon="2.6534487185112225"><ele>627.4000000000001</ele><time>2026-04-10T09:47:09.89Z</time></trkpt><trkpt lat="42.55934480962946" lon="2.653580428894953"><ele>627.2</ele><time>2026-04-10T09:47:10.89Z</time></trkpt><trkpt lat="42.55936219498864" lon="2.653700893288052"><ele>627.0</ele><time>2026-04-10T09:47:11.89Z</time></trkpt><trkpt lat="42.55939010724423" lon="2.6537970908951074"><ele>627.0</ele><time>2026-04-10T09:47:12.89Z</time></trkpt><trkpt lat="42.55942037523971" lon="2.653883918918353"><ele>627.0</ele><time>2026-04-10T09:47:13.89Z</time></trkpt><trkpt lat="42.55945163384315" lon="2.6539889425204497"><ele>627.0</ele><time>2026-04-10T09:47:14.89Z</time></trkpt><trkpt lat="42.55946111987505" lon="2.654094306058367"><ele>627.0</ele><time>2026-04-10T09:47:15.89Z</time></trkpt><trkpt lat="42.55941362722469" lon="2.654187450466982"><ele>627.0</ele><time>2026-04-10T09:47:16.89Z</time></trkpt><trkpt lat="42.55935183284164" lon="2.6542797202320894"><ele>627.0</ele><time>2026-04-10T09:47:17.891Z</time></trkpt><trkpt lat="42.55925011746086" lon="2.6542830260417807"><ele>627.0</ele><time>2026-04-10T09:47:18.891Z</time></trkpt><trkpt lat="42.55915848799832" lon="2.654341890433053"><ele>627.0</ele><time>2026-04-10T09:47:19.891Z</time></trkpt><trkpt lat="42.55906915761834" lon="2.654425886749169"><ele>627.0</ele><time>2026-04-10T09:47:20.891Z</time></trkpt><trkpt lat="42.55896848590608" lon="2.6545067020555684"><ele>627.0</ele><time>2026-04-10T09:47:21.891Z</time></trkpt><trkpt lat="42.55886205916701" lon="2.6545917822642204"><ele>624.25</ele><time>2026-04-10T09:47:22.891Z</time></trkpt><trkpt lat="42.558755071952014" lon="2.6546804635795818"><ele>621.5</ele><time>2026-04-10T09:47:23.891Z</time></trkpt><trkpt lat="42.558650702218095" lon="2.6547758337498517"><ele>618.75</ele><time>2026-04-10T09:47:24.891Z</time></trkpt><trkpt lat="42.55854687603919" lon="2.6548628708245525"><ele>616.0</ele><time>2026-04-10T09:47:25.891Z</time></trkpt><trkpt lat="42.55845990313234" lon="2.6549359997390893"><ele>616.0</ele><time>2026-04-10T09:47:26.891Z</time></trkpt><trkpt lat="42.5583979481763" lon="2.655032746744884"><ele>616.0</ele><time>2026-04-10T09:47:27.891Z</time></trkpt><trkpt lat="42.558365802503616" lon="2.655165978526414"><ele>616.0</ele><time>2026-04-10T09:47:28.891Z</time></trkpt><trkpt lat="42.558366651754426" lon="2.6553166060569113"><ele>616.0</ele><time>2026-04-10T09:47:29.891Z</time></trkpt><trkpt lat="42.55836414030596" lon="2.655438825357873"><ele>616.0</ele><time>2026-04-10T09:47:30.891Z</time></trkpt><trkpt lat="42.55834310764523" lon="2.6555213923350656"><ele>616.8</ele><time>2026-04-10T09:47:31.891Z</time></trkpt><trkpt lat="42.55827270739293" lon="2.655586429470266"><ele>617.6</ele><time>2026-04-10T09:47:32.891Z</time></trkpt><trkpt lat="42.55815278044029" lon="2.6555470099967695"><ele>618.4</ele><time>2026-04-10T09:47:33.891Z</time></trkpt><trkpt lat="42.55805092776681" lon="2.655572864781425"><ele>619.2</ele><time>2026-04-10T09:47:34.891Z</time></trkpt><trkpt lat="42.557957917646924" lon="2.6555621248258725"><ele>620.0</ele><time>2026-04-10T09:47:35.891Z</time></trkpt><trkpt lat="42.55785352982594" lon="2.655599153285185"><ele>620.0</ele><time>2026-04-10T09:47:36.891Z</time></trkpt><trkpt lat="42.55776410113545" lon="2.6556792697131484"><ele>620.0</ele><time>2026-04-10T09:47:37.891Z</time></trkpt><trkpt lat="42.55768870674624" lon="2.655797653740984"><ele>620.0</ele><time>2026-04-10T09:47:38.891Z</time></trkpt><trkpt lat="42.55763513353437" lon="2.6559283492259804"><ele>620.0</ele><time>2026-04-10T09:47:39.891Z</time></trkpt><trkpt lat="42.557594660051585" lon="2.656038822941876"><ele>620.0</ele><time>2026-04-10T09:47:40.891Z</time></trkpt><trkpt lat="42.55753318122682" lon="2.65611280431553"><ele>620.0</ele><time>2026-04-10T09:47:41.891Z</time></trkpt><trkpt lat="42.557429543141694" lon="2.6561107299662"><ele>620.0</ele><time>2026-04-10T09:47:42.891Z</time></trkpt><trkpt lat="42.55734137251546" lon="2.6560618253223547"><ele>620.0</ele><time>2026-04-10T09:47:43.891Z</time></trkpt><trkpt lat="42.55730820522483" lon="2.655962459104201"><ele>620.0</ele><time>2026-04-10T09:47:44.891Z</time></trkpt><trkpt lat="42.55721060382841" lon="2.6558689506248205"><ele>620.0</ele><time>2026-04-10T09:47:46.891Z</time></trkpt><trkpt lat="42.55712420260079" lon="2.6558205242381026"><ele>620.0</ele><time>2026-04-10T09:47:47.891Z</time></trkpt><trkpt lat="42.557035117290944" lon="2.6557674686539157"><ele>620.0</ele><time>2026-04-10T09:47:48.891Z</time></trkpt><trkpt lat="42.55695524976746" lon="2.655722337205045"><ele>620.0</ele><time>2026-04-10T09:47:49.891Z</time></trkpt><trkpt lat="42.556851569733375" lon="2.655664389278399"><ele>620.0</ele><time>2026-04-10T09:47:50.891Z</time></trkpt><trkpt lat="42.556740035657526" lon="2.655645713951943"><ele>620.0</ele><time>2026-04-10T09:47:51.891Z</time></trkpt><trkpt lat="42.55663470169107" lon="2.6556236739594614"><ele>620.0</ele><time>2026-04-10T09:47:52.891Z</time></trkpt><trkpt lat="42.556508647124396" lon="2.6556155875530942"><ele>620.0</ele><time>2026-04-10T09:47:53.891Z</time></trkpt><trkpt lat="42.556372811237516" lon="2.655620999505686"><ele>620.0</ele><time>2026-04-10T09:47:54.891Z</time></trkpt><trkpt lat="42.556251235043796" lon="2.655637365798067"><ele>620.0</ele><time>2026-04-10T09:47:55.891Z</time></trkpt><trkpt lat="42.556119376464444" lon="2.655640496829935"><ele>619.0</ele><time>2026-04-10T09:47:56.891Z</time></trkpt><trkpt lat="42.55599189898217" lon="2.6556620759198526"><ele>618.0</ele><time>2026-04-10T09:47:57.891Z</time></trkpt><trkpt lat="42.55585937610506" lon="2.6556842141453862"><ele>617.0</ele><time>2026-04-10T09:47:58.891Z</time></trkpt><trkpt lat="42.55573372888814" lon="2.655709602089623"><ele>616.0</ele><time>2026-04-10T09:47:59.891Z</time></trkpt><trkpt lat="42.55560775522384" lon="2.655715288469632"><ele>616.0</ele><time>2026-04-10T09:48:00.891Z</time></trkpt><trkpt lat="42.55550193879314" lon="2.655740790696867"><ele>616.0</ele><time>2026-04-10T09:48:01.891Z</time></trkpt><trkpt lat="42.555389212806794" lon="2.6557634552737017"><ele>616.0</ele><time>2026-04-10T09:48:02.891Z</time></trkpt><trkpt lat="42.5552876181848" lon="2.6558188008430323"><ele>616.0</ele><time>2026-04-10T09:48:03.891Z</time></trkpt><trkpt lat="42.55519786248803" lon="2.655922804303712"><ele>616.0</ele><time>2026-04-10T09:48:04.891Z</time></trkpt><trkpt lat="42.555110294257666" lon="2.656042076639663"><ele>616.75</ele><time>2026-04-10T09:48:05.891Z</time></trkpt><trkpt lat="42.55502211771951" lon="2.656167238363867"><ele>617.5</ele><time>2026-04-10T09:48:06.891Z</time></trkpt><trkpt lat="42.5549298380979" lon="2.6562794806729193"><ele>618.25</ele><time>2026-04-10T09:48:07.891Z</time></trkpt><trkpt lat="42.55483922590027" lon="2.656396387627216"><ele>619.0</ele><time>2026-04-10T09:48:08.891Z</time></trkpt><trkpt lat="42.55474615555233" lon="2.6565091884775"><ele>619.0</ele><time>2026-04-10T09:48:09.891Z</time></trkpt><trkpt lat="42.55465086883706" lon="2.6566302789746756"><ele>619.0</ele><time>2026-04-10T09:48:10.891Z</time></trkpt><trkpt lat="42.55454396426057" lon="2.6567286238103462"><ele>619.0</ele><time>2026-04-10T09:48:11.891Z</time></trkpt><trkpt lat="42.55444595894662" lon="2.6568422723441567"><ele>619.0</ele><time>2026-04-10T09:48:12.891Z</time></trkpt><trkpt lat="42.55435769034822" lon="2.656959918881728"><ele>616.0</ele><time>2026-04-10T09:48:13.892Z</time></trkpt><trkpt lat="42.55426563028647" lon="2.6570741711609425"><ele>613.0</ele><time>2026-04-10T09:48:14.892Z</time></trkpt><trkpt lat="42.554172149277235" lon="2.6571806892012737"><ele>610.0</ele><time>2026-04-10T09:48:15.892Z</time></trkpt><trkpt lat="42.554068265219655" lon="2.657254881013157"><ele>607.0</ele><time>2026-04-10T09:48:16.892Z</time></trkpt><trkpt lat="42.553975109757005" lon="2.657291496891272"><ele>607.0</ele><time>2026-04-10T09:48:17.892Z</time></trkpt><trkpt lat="42.55387563150051" lon="2.6573474640527364"><ele>607.0</ele><time>2026-04-10T09:48:18.892Z</time></trkpt><trkpt lat="42.55378891322078" lon="2.6573711508443876"><ele>607.0</ele><time>2026-04-10T09:48:19.892Z</time></trkpt><trkpt lat="42.5537230203711" lon="2.6574517024786757"><ele>607.0</ele><time>2026-04-10T09:48:20.892Z</time></trkpt><trkpt lat="42.55367823981246" lon="2.6575693390986714"><ele>607.0</ele><time>2026-04-10T09:48:21.892Z</time></trkpt><trkpt lat="42.55365646013625" lon="2.6576926060024357"><ele>604.4</ele><time>2026-04-10T09:48:22.892Z</time></trkpt><trkpt lat="42.55366630131639" lon="2.657804287777453"><ele>601.8000000000001</ele><time>2026-04-10T09:48:23.892Z</time></trkpt><trkpt lat="42.553718891116326" lon="2.6579000797687296"><ele>599.2</ele><time>2026-04-10T09:48:24.892Z</time></trkpt><trkpt lat="42.553788374318856" lon="2.657963983965915"><ele>596.6</ele><time>2026-04-10T09:48:25.892Z</time></trkpt><trkpt lat="42.55388349557808" lon="2.657980005480284"><ele>594.0</ele><time>2026-04-10T09:48:26.892Z</time></trkpt><trkpt lat="42.5539890820719" lon="2.6579569869405546"><ele>594.0</ele><time>2026-04-10T09:48:27.892Z</time></trkpt><trkpt lat="42.55409076434139" lon="2.6579393848593753"><ele>594.0</ele><time>2026-04-10T09:48:28.892Z</time></trkpt><trkpt lat="42.55417850518564" lon="2.657942741325024"><ele>594.0</ele><time>2026-04-10T09:48:29.892Z</time></trkpt><trkpt lat="42.554276615970444" lon="2.6579235442860174"><ele>594.0</ele><time>2026-04-10T09:48:30.892Z</time></trkpt><trkpt lat="42.5543748301736" lon="2.6579031149603094"><ele>594.0</ele><time>2026-04-10T09:48:31.892Z</time></trkpt><trkpt lat="42.554467029439074" lon="2.657866483208535"><ele>595.5</ele><time>2026-04-10T09:48:32.892Z</time></trkpt><trkpt lat="42.55456651717706" lon="2.657836125714073"><ele>597.0</ele><time>2026-04-10T09:48:33.892Z</time></trkpt><trkpt lat="42.55465921993237" lon="2.657810454657525"><ele>598.5</ele><time>2026-04-10T09:48:34.892Z</time></trkpt><trkpt lat="42.554740861805726" lon="2.6577891972840826"><ele>600.0</ele><time>2026-04-10T09:48:35.892Z</time></trkpt><trkpt lat="42.55482480973205" lon="2.657782210015403"><ele>601.5</ele><time>2026-04-10T09:48:36.892Z</time></trkpt><trkpt lat="42.55489471422341" lon="2.657793093474034"><ele>603.0</ele><time>2026-04-10T09:48:37.892Z</time></trkpt><trkpt lat="42.55496380550069" lon="2.6578339550572183"><ele>603.0</ele><time>2026-04-10T09:48:38.892Z</time></trkpt><trkpt lat="42.55502044053129" lon="2.6578985928063084"><ele>603.0</ele><time>2026-04-10T09:48:39.892Z</time></trkpt><trkpt lat="42.55506156446853" lon="2.6579743378607668"><ele>603.0</ele><time>2026-04-10T09:48:40.892Z</time></trkpt><trkpt lat="42.55507965419962" lon="2.658063799789588"><ele>603.0</ele><time>2026-04-10T09:48:41.892Z</time></trkpt><trkpt lat="42.55505335470898" lon="2.658173345790377"><ele>603.0</ele><time>2026-04-10T09:48:42.892Z</time></trkpt><trkpt lat="42.5549739706474" lon="2.658247723623722"><ele>603.0</ele><time>2026-04-10T09:48:43.892Z</time></trkpt><trkpt lat="42.5548935091304" lon="2.658342616721272"><ele>603.0</ele><time>2026-04-10T09:48:44.892Z</time></trkpt><trkpt lat="42.55481185949153" lon="2.6584586541732347"><ele>603.0</ele><time>2026-04-10T09:48:45.892Z</time></trkpt><trkpt lat="42.55473093365843" lon="2.65860301971583"><ele>603.0</ele><time>2026-04-10T09:48:46.892Z</time></trkpt><trkpt lat="42.554655846631334" lon="2.6587469718573584"><ele>603.0</ele><time>2026-04-10T09:48:47.892Z</time></trkpt><trkpt lat="42.55459649434666" lon="2.6589106619240512"><ele>599.75</ele><time>2026-04-10T09:48:48.892Z</time></trkpt><trkpt lat="42.55451321019595" lon="2.6590572088366793"><ele>596.5</ele><time>2026-04-10T09:48:49.892Z</time></trkpt><trkpt lat="42.554435230530615" lon="2.65920843944729"><ele>593.25</ele><time>2026-04-10T09:48:50.892Z</time></trkpt><trkpt lat="42.554362837990624" lon="2.659358200147355"><ele>590.0</ele><time>2026-04-10T09:48:51.892Z</time></trkpt><trkpt lat="42.554289475162186" lon="2.6595179711189023"><ele>590.0</ele><time>2026-04-10T09:48:52.892Z</time></trkpt><trkpt lat="42.55423906162751" lon="2.659698311035304"><ele>590.0</ele><time>2026-04-10T09:48:53.892Z</time></trkpt><trkpt lat="42.5542040220142" lon="2.6598869377660135"><ele>590.0</ele><time>2026-04-10T09:48:54.892Z</time></trkpt><trkpt lat="42.55417579725096" lon="2.6600868837565037"><ele>590.0</ele><time>2026-04-10T09:48:55.892Z</time></trkpt><trkpt lat="42.554150111622604" lon="2.6602921974405827"><ele>589.5</ele><time>2026-04-10T09:48:56.892Z</time></trkpt><trkpt lat="42.554116149311646" lon="2.6604680629305153"><ele>589.0</ele><time>2026-04-10T09:48:57.892Z</time></trkpt><trkpt lat="42.55408990811102" lon="2.660683043990795"><ele>588.5</ele><time>2026-04-10T09:48:58.892Z</time></trkpt><trkpt lat="42.55407045437511" lon="2.660881906954223"><ele>588.0</ele><time>2026-04-10T09:48:59.892Z</time></trkpt><trkpt lat="42.55405055040396" lon="2.661064998760263"><ele>586.25</ele><time>2026-04-10T09:49:00.892Z</time></trkpt><trkpt lat="42.554031261368266" lon="2.661236202329685"><ele>584.5</ele><time>2026-04-10T09:49:01.892Z</time></trkpt><trkpt lat="42.55407079587375" lon="2.661388791495408"><ele>582.75</ele><time>2026-04-10T09:49:02.891Z</time></trkpt><trkpt lat="42.55413330737108" lon="2.6615039323984786"><ele>581.0</ele><time>2026-04-10T09:49:03.89Z</time></trkpt><trkpt lat="42.554213784928656" lon="2.6616077848292448"><ele>581.0</ele><time>2026-04-10T09:49:04.89Z</time></trkpt><trkpt lat="42.55429090233318" lon="2.6617400238194935"><ele>581.0</ele><time>2026-04-10T09:49:05.89Z</time></trkpt><trkpt lat="42.55437505417585" lon="2.6618790117397917"><ele>581.0</ele><time>2026-04-10T09:49:06.891Z</time></trkpt><trkpt lat="42.554465339063036" lon="2.662020312698628"><ele>581.0</ele><time>2026-04-10T09:49:07.891Z</time></trkpt><trkpt lat="42.554552325279694" lon="2.662175575755642"><ele>581.25</ele><time>2026-04-10T09:49:08.89Z</time></trkpt><trkpt lat="42.55463650331678" lon="2.662322934382481"><ele>581.5</ele><time>2026-04-10T09:49:09.891Z</time></trkpt><trkpt lat="42.55473609797711" lon="2.6624374528246824"><ele>581.75</ele><time>2026-04-10T09:49:10.891Z</time></trkpt><trkpt lat="42.55486447608849" lon="2.662490014873188"><ele>582.0</ele><time>2026-04-10T09:49:11.89Z</time></trkpt><trkpt lat="42.55500485114822" lon="2.6625534849937567"><ele>582.0</ele><time>2026-04-10T09:49:12.891Z</time></trkpt><trkpt lat="42.5551530504183" lon="2.662613706819314"><ele>582.0</ele><time>2026-04-10T09:49:13.891Z</time></trkpt><trkpt lat="42.55528691289759" lon="2.662722811539588"><ele>582.0</ele><time>2026-04-10T09:49:14.891Z</time></trkpt><trkpt lat="42.55541088082838" lon="2.6628512603858803"><ele>582.25</ele><time>2026-04-10T09:49:15.891Z</time></trkpt><trkpt lat="42.555492147594535" lon="2.662992424148245"><ele>582.5</ele><time>2026-04-10T09:49:16.891Z</time></trkpt><trkpt lat="42.55553887684887" lon="2.663153659709488"><ele>582.75</ele><time>2026-04-10T09:49:17.891Z</time></trkpt><trkpt lat="42.55557629498729" lon="2.6633012202310433"><ele>583.0</ele><time>2026-04-10T09:49:18.891Z</time></trkpt><trkpt lat="42.55557642754476" lon="2.6634524479565496"><ele>583.0</ele><time>2026-04-10T09:49:19.891Z</time></trkpt><trkpt lat="42.55553659847595" lon="2.6635848217971096"><ele>583.0</ele><time>2026-04-10T09:49:20.891Z</time></trkpt><trkpt lat="42.55549630187738" lon="2.6637127033245953"><ele>583.0</ele><time>2026-04-10T09:49:21.891Z</time></trkpt><trkpt lat="42.555448683062224" lon="2.663830547990975"><ele>583.0</ele><time>2026-04-10T09:49:22.891Z</time></trkpt><trkpt lat="42.55538696142671" lon="2.6639290529314654"><ele>583.0</ele><time>2026-04-10T09:49:23.891Z</time></trkpt><trkpt lat="42.555313615620115" lon="2.664036364621073"><ele>581.5</ele><time>2026-04-10T09:49:24.891Z</time></trkpt><trkpt lat="42.55524126528813" lon="2.6641393331959704"><ele>580.0</ele><time>2026-04-10T09:49:25.891Z</time></trkpt><trkpt lat="42.55519414083277" lon="2.6642886480070844"><ele>578.5</ele><time>2026-04-10T09:49:26.891Z</time></trkpt><trkpt lat="42.55510388825472" lon="2.6643857052901088"><ele>577.0</ele><time>2026-04-10T09:49:27.891Z</time></trkpt><trkpt lat="42.55501253260973" lon="2.664482336704042"><ele>572.25</ele><time>2026-04-10T09:49:28.891Z</time></trkpt><trkpt lat="42.554906165921" lon="2.6645699224549624"><ele>567.5</ele><time>2026-04-10T09:49:29.891Z</time></trkpt><trkpt lat="42.55479129661086" lon="2.6646551865703554"><ele>562.75</ele><time>2026-04-10T09:49:30.891Z</time></trkpt><trkpt lat="42.55466065892462" lon="2.6646709817928413"><ele>558.0</ele><time>2026-04-10T09:49:31.891Z</time></trkpt><trkpt lat="42.55456180033618" lon="2.6647221963931838"><ele>559.4</ele><time>2026-04-10T09:49:32.891Z</time></trkpt><trkpt lat="42.55446855779714" lon="2.6647162798716266"><ele>560.8</ele><time>2026-04-10T09:49:33.891Z</time></trkpt><trkpt lat="42.554369573667415" lon="2.664679076455474"><ele>562.2</ele><time>2026-04-10T09:49:34.891Z</time></trkpt><trkpt lat="42.55427139180891" lon="2.6646790764522628"><ele>563.6</ele><time>2026-04-10T09:49:35.891Z</time></trkpt><trkpt lat="42.55415443998629" lon="2.6647397957612635"><ele>565.0</ele><time>2026-04-10T09:49:36.891Z</time></trkpt><trkpt lat="42.554049783875946" lon="2.664841268895759"><ele>565.0</ele><time>2026-04-10T09:49:37.891Z</time></trkpt><trkpt lat="42.55395000679321" lon="2.664929345249431"><ele>565.0</ele><time>2026-04-10T09:49:38.891Z</time></trkpt><trkpt lat="42.55387257393782" lon="2.6650651624626267"><ele>565.0</ele><time>2026-04-10T09:49:39.891Z</time></trkpt><trkpt lat="42.553814547235234" lon="2.6652341476721784"><ele>565.0</ele><time>2026-04-10T09:49:40.891Z</time></trkpt><trkpt lat="42.553784031931166" lon="2.665421233976744"><ele>566.25</ele><time>2026-04-10T09:49:41.891Z</time></trkpt><trkpt lat="42.553711216109065" lon="2.665551023063808"><ele>567.5</ele><time>2026-04-10T09:49:42.891Z</time></trkpt><trkpt lat="42.553616957646184" lon="2.665687286513147"><ele>568.75</ele><time>2026-04-10T09:49:43.891Z</time></trkpt><trkpt lat="42.55355451682886" lon="2.665835569313301"><ele>570.0</ele><time>2026-04-10T09:49:44.891Z</time></trkpt><trkpt lat="42.55351969885657" lon="2.6660079678046107"><ele>566.25</ele><time>2026-04-10T09:49:45.891Z</time></trkpt><trkpt lat="42.553512133265635" lon="2.666192146242969"><ele>562.5</ele><time>2026-04-10T09:49:46.891Z</time></trkpt><trkpt lat="42.55348906882803" lon="2.666380350548533"><ele>558.75</ele><time>2026-04-10T09:49:47.891Z</time></trkpt><trkpt lat="42.55344320740024" lon="2.666560553077669"><ele>555.0</ele><time>2026-04-10T09:49:48.891Z</time></trkpt><trkpt lat="42.55337850108238" lon="2.6667154838199743"><ele>555.0</ele><time>2026-04-10T09:49:49.891Z</time></trkpt><trkpt lat="42.55328214745528" lon="2.6668646867242782"><ele>555.0</ele><time>2026-04-10T09:49:50.891Z</time></trkpt><trkpt lat="42.55317050056308" lon="2.6669956621999567"><ele>555.0</ele><time>2026-04-10T09:49:51.891Z</time></trkpt><trkpt lat="42.5530498340497" lon="2.6671308378749914"><ele>556.3333333333334</ele><time>2026-04-10T09:49:52.891Z</time></trkpt><trkpt lat="42.5529622897339" lon="2.6673058033446044"><ele>557.6666666666667</ele><time>2026-04-10T09:49:53.891Z</time></trkpt><trkpt lat="42.5528900913907" lon="2.667492052875779"><ele>559.0</ele><time>2026-04-10T09:49:54.892Z</time></trkpt><trkpt lat="42.552826342383426" lon="2.6676786669649277"><ele>553.25</ele><time>2026-04-10T09:49:55.892Z</time></trkpt><trkpt lat="42.55276568696222" lon="2.667854908264385"><ele>547.5</ele><time>2026-04-10T09:49:56.892Z</time></trkpt><trkpt lat="42.55268875699509" lon="2.6679908698017103"><ele>541.75</ele><time>2026-04-10T09:49:57.892Z</time></trkpt><trkpt lat="42.55258684106364" lon="2.6680686861995"><ele>536.0</ele><time>2026-04-10T09:49:58.892Z</time></trkpt><trkpt lat="42.55245926907793" lon="2.6681841659656524"><ele>536.0</ele><time>2026-04-10T09:49:59.892Z</time></trkpt><trkpt lat="42.552328226378954" lon="2.6682922255441133"><ele>536.0</ele><time>2026-04-10T09:50:00.892Z</time></trkpt><trkpt lat="42.55218475221149" lon="2.6683998062133814"><ele>536.0</ele><time>2026-04-10T09:50:01.892Z</time></trkpt><trkpt lat="42.55204919099546" lon="2.6685296594758627"><ele>533.75</ele><time>2026-04-10T09:50:02.892Z</time></trkpt><trkpt lat="42.55194440769108" lon="2.668679211896004"><ele>531.5</ele><time>2026-04-10T09:50:03.892Z</time></trkpt><trkpt lat="42.55184206013948" lon="2.6687983045676473"><ele>529.25</ele><time>2026-04-10T09:50:04.892Z</time></trkpt><trkpt lat="42.55173479978798" lon="2.668890820740212"><ele>527.0</ele><time>2026-04-10T09:50:05.892Z</time></trkpt><trkpt lat="42.55161120934032" lon="2.6689302977499314"><ele>527.0</ele><time>2026-04-10T09:50:06.892Z</time></trkpt><trkpt lat="42.551488965998814" lon="2.6689297536601484"><ele>527.0</ele><time>2026-04-10T09:50:07.892Z</time></trkpt><trkpt lat="42.55134953609769" lon="2.6689090493006997"><ele>527.0</ele><time>2026-04-10T09:50:08.892Z</time></trkpt><trkpt lat="42.55122327871047" lon="2.6688737425341116"><ele>527.0</ele><time>2026-04-10T09:50:09.892Z</time></trkpt><trkpt lat="42.55112310340638" lon="2.668812521791929"><ele>528.5</ele><time>2026-04-10T09:50:10.892Z</time></trkpt><trkpt lat="42.5510436793168" lon="2.668717386328273"><ele>530.0</ele><time>2026-04-10T09:50:11.892Z</time></trkpt><trkpt lat="42.550975525254394" lon="2.6685872919858475"><ele>531.5</ele><time>2026-04-10T09:50:12.892Z</time></trkpt><trkpt lat="42.55089811026407" lon="2.668420923867335"><ele>533.0</ele><time>2026-04-10T09:50:13.892Z</time></trkpt><trkpt lat="42.55079275929847" lon="2.668266864335646"><ele>533.0</ele><time>2026-04-10T09:50:14.892Z</time></trkpt><trkpt lat="42.5506818255205" lon="2.668129846800489"><ele>533.0</ele><time>2026-04-10T09:50:15.892Z</time></trkpt><trkpt lat="42.550590652623264" lon="2.668006390567667"><ele>533.0</ele><time>2026-04-10T09:50:16.892Z</time></trkpt><trkpt lat="42.55050086105399" lon="2.667929771144565"><ele>533.0</ele><time>2026-04-10T09:50:17.892Z</time></trkpt><trkpt lat="42.55043404544297" lon="2.66788673554583"><ele>533.5</ele><time>2026-04-10T09:50:18.892Z</time></trkpt><trkpt lat="42.55036517534372" lon="2.6678865949706503"><ele>534.0</ele><time>2026-04-10T09:50:19.892Z</time></trkpt><trkpt lat="42.55030201399925" lon="2.6679427309472183"><ele>534.5</ele><time>2026-04-10T09:50:20.892Z</time></trkpt><trkpt lat="42.550224905698535" lon="2.6680105329955373"><ele>535.0</ele><time>2026-04-10T09:50:21.892Z</time></trkpt><trkpt lat="42.55018588635271" lon="2.6681392724302424"><ele>535.5</ele><time>2026-04-10T09:50:22.892Z</time></trkpt><trkpt lat="42.55017229134216" lon="2.6682742249346307"><ele>536.0</ele><time>2026-04-10T09:50:23.892Z</time></trkpt><trkpt lat="42.55015047191637" lon="2.6684410362636415"><ele>532.6666666666666</ele><time>2026-04-10T09:50:24.892Z</time></trkpt><trkpt lat="42.5500996559379" lon="2.6686148062676587"><ele>529.3333333333334</ele><time>2026-04-10T09:50:25.892Z</time></trkpt><trkpt lat="42.55006736351846" lon="2.6688049374351492"><ele>526.0</ele><time>2026-04-10T09:50:26.892Z</time></trkpt><trkpt lat="42.550049867581" lon="2.669037330097691"><ele>526.0</ele><time>2026-04-10T09:50:27.892Z</time></trkpt><trkpt lat="42.550008243437574" lon="2.6692890356902432"><ele>526.0</ele><time>2026-04-10T09:50:28.892Z</time></trkpt><trkpt lat="42.54999974649724" lon="2.669560135503162"><ele>526.0</ele><time>2026-04-10T09:50:29.892Z</time></trkpt><trkpt lat="42.54999614354164" lon="2.6698064579071343"><ele>523.6666666666667</ele><time>2026-04-10T09:50:30.892Z</time></trkpt><trkpt lat="42.54999083559249" lon="2.670021956758633"><ele>521.3333333333334</ele><time>2026-04-10T09:50:31.892Z</time></trkpt><trkpt lat="42.549976739619815" lon="2.6702268756381504"><ele>519.0</ele><time>2026-04-10T09:50:32.892Z</time></trkpt><trkpt lat="42.54997995772443" lon="2.6704305277985823"><ele>516.6666666666666</ele><time>2026-04-10T09:50:33.892Z</time></trkpt><trkpt lat="42.55002823378987" lon="2.670621592190037"><ele>514.3333333333333</ele><time>2026-04-10T09:50:34.892Z</time></trkpt><trkpt lat="42.55009256536521" lon="2.670832080425494"><ele>512.0</ele><time>2026-04-10T09:50:35.892Z</time></trkpt><trkpt lat="42.55015833436999" lon="2.6710500259491714"><ele>511.0</ele><time>2026-04-10T09:50:36.892Z</time></trkpt><trkpt lat="42.55022278771147" lon="2.671271816089708"><ele>510.0</ele><time>2026-04-10T09:50:37.892Z</time></trkpt><trkpt lat="42.55027962662344" lon="2.671471094079401"><ele>509.0</ele><time>2026-04-10T09:50:38.892Z</time></trkpt><trkpt lat="42.55033367553993" lon="2.6716659125868287"><ele>509.0</ele><time>2026-04-10T09:50:39.892Z</time></trkpt><trkpt lat="42.55037201646136" lon="2.671843971680867"><ele>509.0</ele><time>2026-04-10T09:50:40.892Z</time></trkpt><trkpt lat="42.55041322309688" lon="2.6719932411799716"><ele>509.0</ele><time>2026-04-10T09:50:41.892Z</time></trkpt><trkpt lat="42.550421991655405" lon="2.672127785727108"><ele>509.0</ele><time>2026-04-10T09:50:42.892Z</time></trkpt><trkpt lat="42.55038879387148" lon="2.6723120489247347"><ele>509.0</ele><time>2026-04-10T09:50:43.892Z</time></trkpt><trkpt lat="42.55035713511179" lon="2.6725148374355783"><ele>509.0</ele><time>2026-04-10T09:50:44.892Z</time></trkpt><trkpt lat="42.550321837376124" lon="2.672707873297485"><ele>509.0</ele><time>2026-04-10T09:50:45.892Z</time></trkpt><trkpt lat="42.55027903574265" lon="2.672883392963813"><ele>509.0</ele><time>2026-04-10T09:50:46.892Z</time></trkpt><trkpt lat="42.550252296418414" lon="2.6730553794755267"><ele>508.8333333333333</ele><time>2026-04-10T09:50:47.892Z</time></trkpt><trkpt lat="42.550243965502446" lon="2.6732007277542182"><ele>508.66666666666663</ele><time>2026-04-10T09:50:48.892Z</time></trkpt><trkpt lat="42.55025224607365" lon="2.6733137713783157"><ele>508.5</ele><time>2026-04-10T09:50:49.892Z</time></trkpt><trkpt lat="42.55024708142206" lon="2.67340614986445"><ele>508.33333333333337</ele><time>2026-04-10T09:50:50.893Z</time></trkpt><trkpt lat="42.55024466954309" lon="2.6735186630143195"><ele>508.1666666666667</ele><time>2026-04-10T09:50:52.893Z</time></trkpt><trkpt lat="42.55025816573465" lon="2.6736148641425506"><ele>508.0</ele><time>2026-04-10T09:50:57.893Z</time></trkpt><trkpt lat="42.55030137349699" lon="2.673761985901439"><ele>508.0</ele><time>2026-04-10T09:51:01.893Z</time></trkpt><trkpt lat="42.5503477897199" lon="2.6738528311577614"><ele>507.99999999999994</ele><time>2026-04-10T09:51:02.893Z</time></trkpt><trkpt lat="42.5504119970088" lon="2.6739436005987387"><ele>507.99999999999994</ele><time>2026-04-10T09:51:03.893Z</time></trkpt><trkpt lat="42.55047728996274" lon="2.674055886172535"><ele>508.0</ele><time>2026-04-10T09:51:04.893Z</time></trkpt><trkpt lat="42.55053628520925" lon="2.6741775477435965"><ele>508.0</ele><time>2026-04-10T09:51:05.893Z</time></trkpt><trkpt lat="42.55061110629326" lon="2.6743388733536397"><ele>503.75</ele><time>2026-04-10T09:51:06.893Z</time></trkpt><trkpt lat="42.55065825250631" lon="2.6744960864138214"><ele>499.5</ele><time>2026-04-10T09:51:07.893Z</time></trkpt><trkpt lat="42.550732058737594" lon="2.6746312725003825"><ele>495.25</ele><time>2026-04-10T09:51:08.89Z</time></trkpt><trkpt lat="42.550792782898014" lon="2.67475274576601"><ele>491.0</ele><time>2026-04-10T09:51:09.89Z</time></trkpt><trkpt lat="42.55084621482962" lon="2.674862933121165"><ele>491.0</ele><time>2026-04-10T09:51:10.89Z</time></trkpt><trkpt lat="42.55091145352153" lon="2.6749695239731035"><ele>491.0</ele><time>2026-04-10T09:51:11.891Z</time></trkpt><trkpt lat="42.550961283084796" lon="2.6750704096575144"><ele>491.0</ele><time>2026-04-10T09:51:12.89Z</time></trkpt><trkpt lat="42.55098647991204" lon="2.675201722212897"><ele>491.0</ele><time>2026-04-10T09:51:13.89Z</time></trkpt><trkpt lat="42.550951309367775" lon="2.6753211492520776"><ele>491.0</ele><time>2026-04-10T09:51:14.89Z</time></trkpt><trkpt lat="42.55087045197236" lon="2.6754113412297023"><ele>490.0</ele><time>2026-04-10T09:51:15.89Z</time></trkpt><trkpt lat="42.55083870343736" lon="2.675525673985829"><ele>489.0</ele><time>2026-04-10T09:51:16.89Z</time></trkpt><trkpt lat="42.550727490831356" lon="2.675581332729847"><ele>488.0</ele><time>2026-04-10T09:51:17.891Z</time></trkpt><trkpt lat="42.550657469666014" lon="2.675642954143092"><ele>487.0</ele><time>2026-04-10T09:51:18.891Z</time></trkpt><trkpt lat="42.55058214151038" lon="2.6757141670150144"><ele>486.0</ele><time>2026-04-10T09:51:19.891Z</time></trkpt><trkpt lat="42.55051557733669" lon="2.6757926543919472"><ele>486.0</ele><time>2026-04-10T09:51:20.891Z</time></trkpt><trkpt lat="42.55044198449145" lon="2.675875255748779"><ele>486.0</ele><time>2026-04-10T09:51:21.891Z</time></trkpt><trkpt lat="42.550359291643495" lon="2.675953280505658"><ele>486.0</ele><time>2026-04-10T09:51:22.891Z</time></trkpt><trkpt lat="42.550305044127974" lon="2.676075711055541"><ele>486.0</ele><time>2026-04-10T09:51:23.891Z</time></trkpt><trkpt lat="42.550240760512935" lon="2.6761939804943506"><ele>486.0</ele><time>2026-04-10T09:51:24.891Z</time></trkpt><trkpt lat="42.55019226573875" lon="2.6763292127263334"><ele>489.5</ele><time>2026-04-10T09:51:25.891Z</time></trkpt><trkpt lat="42.550116401009205" lon="2.676485247693016"><ele>493.0</ele><time>2026-04-10T09:51:26.891Z</time></trkpt><trkpt lat="42.55003830965551" lon="2.67662938843705"><ele>496.5</ele><time>2026-04-10T09:51:27.891Z</time></trkpt><trkpt lat="42.549947804568106" lon="2.676771545482028"><ele>500.0</ele><time>2026-04-10T09:51:28.891Z</time></trkpt><trkpt lat="42.54984270042983" lon="2.676930699025408"><ele>495.66666666666663</ele><time>2026-04-10T09:51:29.891Z</time></trkpt><trkpt lat="42.549742063317204" lon="2.6771148084945415"><ele>491.33333333333337</ele><time>2026-04-10T09:51:30.891Z</time></trkpt><trkpt lat="42.549628668758004" lon="2.677286934123948"><ele>487.0</ele><time>2026-04-10T09:51:31.891Z</time></trkpt><trkpt lat="42.54951056651291" lon="2.6774646395906467"><ele>492.6666666666667</ele><time>2026-04-10T09:51:32.891Z</time></trkpt><trkpt lat="42.54938286279277" lon="2.6776434981807453"><ele>498.33333333333337</ele><time>2026-04-10T09:51:33.891Z</time></trkpt><trkpt lat="42.54928157991197" lon="2.6778505532027954"><ele>504.0</ele><time>2026-04-10T09:51:34.891Z</time></trkpt><trkpt lat="42.54915536078757" lon="2.678003435717586"><ele>504.0</ele><time>2026-04-10T09:51:35.891Z</time></trkpt><trkpt lat="42.54901010810944" lon="2.678163378253086"><ele>504.0</ele><time>2026-04-10T09:51:36.891Z</time></trkpt><trkpt lat="42.54885557498571" lon="2.6783250969387415"><ele>504.0</ele><time>2026-04-10T09:51:37.891Z</time></trkpt><trkpt lat="42.5487507135977" lon="2.6784998738306514"><ele>509.0</ele><time>2026-04-10T09:51:38.891Z</time></trkpt><trkpt lat="42.548620426047606" lon="2.678704014517424"><ele>514.0</ele><time>2026-04-10T09:51:39.891Z</time></trkpt><trkpt lat="42.548515095147984" lon="2.6788940205339116"><ele>519.0</ele><time>2026-04-10T09:51:40.891Z</time></trkpt><trkpt lat="42.548425425356" lon="2.6790492520185714"><ele>519.0</ele><time>2026-04-10T09:51:41.891Z</time></trkpt><trkpt lat="42.548342026532595" lon="2.679191123932138"><ele>519.0</ele><time>2026-04-10T09:51:42.891Z</time></trkpt><trkpt lat="42.54828501857167" lon="2.679319161108573"><ele>519.0</ele><time>2026-04-10T09:51:43.891Z</time></trkpt><trkpt lat="42.54821921088049" lon="2.679422641256576"><ele>519.0</ele><time>2026-04-10T09:51:44.891Z</time></trkpt><trkpt lat="42.5481749705896" lon="2.679542115647604"><ele>519.0</ele><time>2026-04-10T09:51:45.891Z</time></trkpt><trkpt lat="42.54817086002166" lon="2.6796929560214893"><ele>519.5</ele><time>2026-04-10T09:51:46.891Z</time></trkpt><trkpt lat="42.548267491412936" lon="2.679845613769092"><ele>520.0</ele><time>2026-04-10T09:51:47.891Z</time></trkpt><trkpt lat="42.54828124788387" lon="2.680004637196141"><ele>520.5</ele><time>2026-04-10T09:51:48.891Z</time></trkpt><trkpt lat="42.548285319528205" lon="2.680160027711925"><ele>521.0</ele><time>2026-04-10T09:51:49.891Z</time></trkpt><trkpt lat="42.548273243516505" lon="2.680339898270799"><ele>520.0</ele><time>2026-04-10T09:51:50.891Z</time></trkpt><trkpt lat="42.54824822554243" lon="2.6805105290628934"><ele>519.0</ele><time>2026-04-10T09:51:51.891Z</time></trkpt><trkpt lat="42.54821151262132" lon="2.6806678698910726"><ele>518.0</ele><time>2026-04-10T09:51:52.891Z</time></trkpt><trkpt lat="42.54815702439006" lon="2.6807926025244377"><ele>517.0</ele><time>2026-04-10T09:51:53.891Z</time></trkpt><trkpt lat="42.54807885179583" lon="2.6808834604519776"><ele>517.0</ele><time>2026-04-10T09:51:54.891Z</time></trkpt><trkpt lat="42.54798490118621" lon="2.6809732703846683"><ele>517.0</ele><time>2026-04-10T09:51:55.891Z</time></trkpt><trkpt lat="42.54788524579585" lon="2.6810526571432303"><ele>517.0</ele><time>2026-04-10T09:51:56.891Z</time></trkpt><trkpt lat="42.54776965426604" lon="2.681113529371979"><ele>517.0</ele><time>2026-04-10T09:51:57.891Z</time></trkpt><trkpt lat="42.54764167224257" lon="2.6811600008339567"><ele>520.25</ele><time>2026-04-10T09:51:58.891Z</time></trkpt><trkpt lat="42.547517915006836" lon="2.681201810761129"><ele>523.5</ele><time>2026-04-10T09:51:59.891Z</time></trkpt><trkpt lat="42.54738519106668" lon="2.681246649896127"><ele>526.75</ele><time>2026-04-10T09:52:00.891Z</time></trkpt><trkpt lat="42.54725864018837" lon="2.681308203865151"><ele>530.0</ele><time>2026-04-10T09:52:01.891Z</time></trkpt><trkpt lat="42.547125227810454" lon="2.6813339212524085"><ele>534.0</ele><time>2026-04-10T09:52:02.891Z</time></trkpt><trkpt lat="42.54698662825747" lon="2.681383625969801"><ele>538.0</ele><time>2026-04-10T09:52:03.891Z</time></trkpt><trkpt lat="42.54683776913262" lon="2.681437552771396"><ele>542.0</ele><time>2026-04-10T09:52:04.891Z</time></trkpt><trkpt lat="42.546689826193514" lon="2.6815310405046318"><ele>542.0</ele><time>2026-04-10T09:52:05.891Z</time></trkpt><trkpt lat="42.546547221693274" lon="2.6816314598650686"><ele>542.0</ele><time>2026-04-10T09:52:06.891Z</time></trkpt><trkpt lat="42.5464357484526" lon="2.6817198615306923"><ele>542.0</ele><time>2026-04-10T09:52:07.891Z</time></trkpt><trkpt lat="42.54634527531022" lon="2.681801432395107"><ele>542.0</ele><time>2026-04-10T09:52:08.891Z</time></trkpt><trkpt lat="42.546278792624875" lon="2.681876002591468"><ele>543.6</ele><time>2026-04-10T09:52:09.891Z</time></trkpt><trkpt lat="42.546256841992346" lon="2.681987752123013"><ele>545.2</ele><time>2026-04-10T09:52:10.891Z</time></trkpt><trkpt lat="42.546250853578556" lon="2.6821164159866178"><ele>546.8</ele><time>2026-04-10T09:52:11.891Z</time></trkpt><trkpt lat="42.54632155331823" lon="2.682263612358531"><ele>548.4</ele><time>2026-04-10T09:52:12.891Z</time></trkpt><trkpt lat="42.54640043060714" lon="2.682366688386513"><ele>550.0</ele><time>2026-04-10T09:52:13.892Z</time></trkpt><trkpt lat="42.54650430807205" lon="2.682430251120622"><ele>550.0</ele><time>2026-04-10T09:52:14.892Z</time></trkpt><trkpt lat="42.54663114829189" lon="2.6824214207200745"><ele>550.0</ele><time>2026-04-10T09:52:15.892Z</time></trkpt><trkpt lat="42.54676022905025" lon="2.6823722318668137"><ele>550.0</ele><time>2026-04-10T09:52:16.892Z</time></trkpt><trkpt lat="42.54689093455492" lon="2.682314341585869"><ele>550.0</ele><time>2026-04-10T09:52:17.892Z</time></trkpt><trkpt lat="42.54702236449285" lon="2.6822782699486183"><ele>549.5</ele><time>2026-04-10T09:52:18.892Z</time></trkpt><trkpt lat="42.54713614148055" lon="2.6822800793802233"><ele>549.0</ele><time>2026-04-10T09:52:19.892Z</time></trkpt><trkpt lat="42.54729501719845" lon="2.6823070339180233"><ele>548.5</ele><time>2026-04-10T09:52:20.892Z</time></trkpt><trkpt lat="42.547442212628496" lon="2.6823360348517613"><ele>548.0</ele><time>2026-04-10T09:52:21.892Z</time></trkpt><trkpt lat="42.54760475234499" lon="2.6823624275125515"><ele>548.0</ele><time>2026-04-10T09:52:22.892Z</time></trkpt><trkpt lat="42.547760930771155" lon="2.682414357172817"><ele>548.0</ele><time>2026-04-10T09:52:23.892Z</time></trkpt><trkpt lat="42.54792409785725" lon="2.6824442503212578"><ele>548.0</ele><time>2026-04-10T09:52:24.892Z</time></trkpt><trkpt lat="42.54809558035249" lon="2.6824320986570553"><ele>547.75</ele><time>2026-04-10T09:52:25.892Z</time></trkpt><trkpt lat="42.54825361693312" lon="2.682387654264301"><ele>547.5</ele><time>2026-04-10T09:52:26.892Z</time></trkpt><trkpt lat="42.54838748145286" lon="2.682346541008609"><ele>547.25</ele><time>2026-04-10T09:52:27.892Z</time></trkpt><trkpt lat="42.54850282662573" lon="2.682331690571629"><ele>547.0</ele><time>2026-04-10T09:52:28.892Z</time></trkpt><trkpt lat="42.54861071178699" lon="2.6823930100272944"><ele>547.0</ele><time>2026-04-10T09:52:29.892Z</time></trkpt><trkpt lat="42.54870809841884" lon="2.6824852428979535"><ele>547.0</ele><time>2026-04-10T09:52:30.892Z</time></trkpt><trkpt lat="42.548810275811675" lon="2.682582125904837"><ele>547.0</ele><time>2026-04-10T09:52:31.892Z</time></trkpt><trkpt lat="42.54891916814851" lon="2.682694702795321"><ele>547.0</ele><time>2026-04-10T09:52:32.892Z</time></trkpt><trkpt lat="42.54902909150254" lon="2.6828035302937394"><ele>547.4</ele><time>2026-04-10T09:52:33.892Z</time></trkpt><trkpt lat="42.549093492358715" lon="2.682919100936799"><ele>547.8000000000001</ele><time>2026-04-10T09:52:34.892Z</time></trkpt><trkpt lat="42.54906667965131" lon="2.6830607204838866"><ele>548.2</ele><time>2026-04-10T09:52:35.892Z</time></trkpt><trkpt lat="42.54903486201077" lon="2.683179993229451"><ele>548.6</ele><time>2026-04-10T09:52:36.892Z</time></trkpt><trkpt lat="42.54894445614567" lon="2.683271601727739"><ele>549.0</ele><time>2026-04-10T09:52:37.892Z</time></trkpt><trkpt lat="42.548846310639746" lon="2.6833928405760847"><ele>549.0</ele><time>2026-04-10T09:52:38.892Z</time></trkpt><trkpt lat="42.54873945260994" lon="2.68352618507739"><ele>549.0</ele><time>2026-04-10T09:52:39.892Z</time></trkpt><trkpt lat="42.548625722256155" lon="2.6836712571020667"><ele>549.0</ele><time>2026-04-10T09:52:40.892Z</time></trkpt><trkpt lat="42.54852387788279" lon="2.683842682896025"><ele>549.3333333333334</ele><time>2026-04-10T09:52:41.892Z</time></trkpt><trkpt lat="42.54841753539815" lon="2.6840133998931335"><ele>549.6666666666667</ele><time>2026-04-10T09:52:42.892Z</time></trkpt><trkpt lat="42.54829640317975" lon="2.6841431082430556"><ele>550.0</ele><time>2026-04-10T09:52:43.892Z</time></trkpt><trkpt lat="42.548173741797335" lon="2.684229539808187"><ele>550.0</ele><time>2026-04-10T09:52:44.892Z</time></trkpt><trkpt lat="42.5480270142985" lon="2.684283393917641"><ele>550.0</ele><time>2026-04-10T09:52:45.892Z</time></trkpt><trkpt lat="42.547861833929026" lon="2.6843438356006333"><ele>550.0</ele><time>2026-04-10T09:52:46.892Z</time></trkpt><trkpt lat="42.547681879434904" lon="2.6844096833503612"><ele>547.0</ele><time>2026-04-10T09:52:47.892Z</time></trkpt><trkpt lat="42.547515876986374" lon="2.6844681044203096"><ele>544.0</ele><time>2026-04-10T09:52:48.892Z</time></trkpt><trkpt lat="42.547334407393535" lon="2.684527391808633"><ele>541.0</ele><time>2026-04-10T09:52:49.892Z</time></trkpt><trkpt lat="42.54714499218355" lon="2.6845860194536217"><ele>542.3333333333334</ele><time>2026-04-10T09:52:50.892Z</time></trkpt><trkpt lat="42.54695153533477" lon="2.6846324167586912"><ele>543.6666666666666</ele><time>2026-04-10T09:52:51.892Z</time></trkpt><trkpt lat="42.54675706210183" lon="2.68466764204089"><ele>545.0</ele><time>2026-04-10T09:52:52.892Z</time></trkpt><trkpt lat="42.546577715563814" lon="2.684696246094493"><ele>545.0</ele><time>2026-04-10T09:52:53.892Z</time></trkpt><trkpt lat="42.54641059293252" lon="2.684716642707499"><ele>545.0</ele><time>2026-04-10T09:52:54.892Z</time></trkpt><trkpt lat="42.546253051665474" lon="2.6846927125182445"><ele>545.0</ele><time>2026-04-10T09:52:55.892Z</time></trkpt><trkpt lat="42.54607610655455" lon="2.684663847266894"><ele>545.0</ele><time>2026-04-10T09:52:56.892Z</time></trkpt><trkpt lat="42.545897695712966" lon="2.6846756407290093"><ele>545.0</ele><time>2026-04-10T09:52:57.892Z</time></trkpt><trkpt lat="42.54571202480429" lon="2.6846626222012033"><ele>545.0</ele><time>2026-04-10T09:52:58.892Z</time></trkpt><trkpt lat="42.545524998017115" lon="2.6846555014581206"><ele>542.0</ele><time>2026-04-10T09:52:59.892Z</time></trkpt><trkpt lat="42.545344152298554" lon="2.684586888182998"><ele>539.0</ele><time>2026-04-10T09:53:00.892Z</time></trkpt><trkpt lat="42.54515835932305" lon="2.684539402721093"><ele>536.0</ele><time>2026-04-10T09:53:01.892Z</time></trkpt><trkpt lat="42.54499321436953" lon="2.6845158630567845"><ele>536.0</ele><time>2026-04-10T09:53:02.892Z</time></trkpt><trkpt lat="42.54485083783262" lon="2.6844713512735674"><ele>536.0</ele><time>2026-04-10T09:53:03.892Z</time></trkpt><trkpt lat="42.5447164918582" lon="2.6844274931415266"><ele>536.0</ele><time>2026-04-10T09:53:04.892Z</time></trkpt><trkpt lat="42.54461218144751" lon="2.6843768194165936"><ele>536.0</ele><time>2026-04-10T09:53:05.892Z</time></trkpt><trkpt lat="42.544516316665614" lon="2.684395311930089"><ele>536.25</ele><time>2026-04-10T09:53:06.892Z</time></trkpt><trkpt lat="42.54443015445745" lon="2.6844557052104134"><ele>536.5</ele><time>2026-04-10T09:53:07.892Z</time></trkpt><trkpt lat="42.54433775475445" lon="2.684581107497513"><ele>536.75</ele><time>2026-04-10T09:53:08.892Z</time></trkpt><trkpt lat="42.54423777746212" lon="2.6846880468356926"><ele>537.0</ele><time>2026-04-10T09:53:09.893Z</time></trkpt><trkpt lat="42.544124618251395" lon="2.6847491042653524"><ele>537.0</ele><time>2026-04-10T09:53:10.893Z</time></trkpt><trkpt lat="42.543988369603035" lon="2.6847669874550846"><ele>537.0</ele><time>2026-04-10T09:53:11.893Z</time></trkpt><trkpt lat="42.54383798578149" lon="2.6847734061937234"><ele>537.0</ele><time>2026-04-10T09:53:12.893Z</time></trkpt><trkpt lat="42.54370257460796" lon="2.684749075087966"><ele>537.0</ele><time>2026-04-10T09:53:13.893Z</time></trkpt><trkpt lat="42.54357284818736" lon="2.6846727784943236"><ele>538.0</ele><time>2026-04-10T09:53:14.892Z</time></trkpt><trkpt lat="42.54345273624669" lon="2.684583579714857"><ele>539.0</ele><time>2026-04-10T09:53:15.891Z</time></trkpt><trkpt lat="42.543350668629294" lon="2.684526472817653"><ele>540.0</ele><time>2026-04-10T09:53:16.891Z</time></trkpt><trkpt lat="42.54322222515468" lon="2.6845880909886533"><ele>541.0</ele><time>2026-04-10T09:53:17.891Z</time></trkpt><trkpt lat="42.54308849494636" lon="2.6846433168372066"><ele>541.0</ele><time>2026-04-10T09:53:18.892Z</time></trkpt><trkpt lat="42.542950212144895" lon="2.6846337343556685"><ele>541.0</ele><time>2026-04-10T09:53:19.892Z</time></trkpt><trkpt lat="42.54280003496444" lon="2.684630352913087"><ele>541.0</ele><time>2026-04-10T09:53:20.892Z</time></trkpt><trkpt lat="42.542644705773455" lon="2.684615471454503"><ele>541.0</ele><time>2026-04-10T09:53:21.891Z</time></trkpt><trkpt lat="42.54249262908004" lon="2.684595837533416"><ele>540.25</ele><time>2026-04-10T09:53:22.891Z</time></trkpt><trkpt lat="42.54235014801616" lon="2.684564178828824"><ele>539.5</ele><time>2026-04-10T09:53:23.891Z</time></trkpt><trkpt lat="42.542227825656994" lon="2.684529368337819"><ele>538.75</ele><time>2026-04-10T09:53:24.892Z</time></trkpt><trkpt lat="42.54213895139865" lon="2.684473646035834"><ele>538.0</ele><time>2026-04-10T09:53:25.892Z</time></trkpt><trkpt lat="42.542040858762014" lon="2.684404417668667"><ele>537.4</ele><time>2026-04-10T09:53:26.891Z</time></trkpt><trkpt lat="42.541959079723" lon="2.6843490716608605"><ele>536.8</ele><time>2026-04-10T09:53:27.892Z</time></trkpt><trkpt lat="42.54187517128987" lon="2.684331862797227"><ele>536.2</ele><time>2026-04-10T09:53:28.892Z</time></trkpt><trkpt lat="42.54177831573104" lon="2.6843551136111636"><ele>535.6</ele><time>2026-04-10T09:53:29.892Z</time></trkpt><trkpt lat="42.541670313204634" lon="2.6844593104269805"><ele>535.0</ele><time>2026-04-10T09:53:30.892Z</time></trkpt><trkpt lat="42.541586072357106" lon="2.6845683676662473"><ele>535.0</ele><time>2026-04-10T09:53:31.892Z</time></trkpt><trkpt lat="42.5415098281524" lon="2.68462187041624"><ele>535.0</ele><time>2026-04-10T09:53:32.892Z</time></trkpt><trkpt lat="42.54141183412007" lon="2.684591579970675"><ele>535.0</ele><time>2026-04-10T09:53:33.892Z</time></trkpt><trkpt lat="42.541339908375825" lon="2.684520252936733"><ele>535.0</ele><time>2026-04-10T09:53:34.892Z</time></trkpt><trkpt lat="42.54122954630147" lon="2.684448452971447"><ele>535.0</ele><time>2026-04-10T09:53:35.892Z</time></trkpt><trkpt lat="42.541115323453226" lon="2.6843849762100787"><ele>536.75</ele><time>2026-04-10T09:53:36.892Z</time></trkpt><trkpt lat="42.54099007062872" lon="2.68438957412519"><ele>538.5</ele><time>2026-04-10T09:53:37.892Z</time></trkpt><trkpt lat="42.54086863403876" lon="2.6844281608828657"><ele>540.25</ele><time>2026-04-10T09:53:38.892Z</time></trkpt><trkpt lat="42.540753387210714" lon="2.6845240207306014"><ele>542.0</ele><time>2026-04-10T09:53:39.892Z</time></trkpt><trkpt lat="42.54063861658327" lon="2.684644858078098"><ele>542.0</ele><time>2026-04-10T09:53:40.892Z</time></trkpt><trkpt lat="42.54052817456731" lon="2.684785243242609"><ele>542.0</ele><time>2026-04-10T09:53:41.892Z</time></trkpt><trkpt lat="42.540404128735304" lon="2.6848978053368264"><ele>542.0</ele><time>2026-04-10T09:53:42.892Z</time></trkpt><trkpt lat="42.54028885765942" lon="2.6850217054968963"><ele>542.0</ele><time>2026-04-10T09:53:43.892Z</time></trkpt><trkpt lat="42.54017662215288" lon="2.685139752699227"><ele>542.0</ele><time>2026-04-10T09:53:44.892Z</time></trkpt><trkpt lat="42.54008060490312" lon="2.685244034677253"><ele>542.0</ele><time>2026-04-10T09:53:45.892Z</time></trkpt><trkpt lat="42.539988366570114" lon="2.685354508376721"><ele>542.0</ele><time>2026-04-10T09:53:46.892Z</time></trkpt><trkpt lat="42.53990803276565" lon="2.6854860567400105"><ele>542.0</ele><time>2026-04-10T09:53:47.892Z</time></trkpt><trkpt lat="42.53986119078459" lon="2.6856403581797585"><ele>542.0</ele><time>2026-04-10T09:53:48.892Z</time></trkpt><trkpt lat="42.53982508318897" lon="2.685803600647498"><ele>542.0</ele><time>2026-04-10T09:53:49.892Z</time></trkpt><trkpt lat="42.53969356159488" lon="2.6860811645746967"><ele>542.0</ele><time>2026-04-10T09:53:51.892Z</time></trkpt><trkpt lat="42.53962462816027" lon="2.6861926129585454"><ele>541.5</ele><time>2026-04-10T09:53:52.892Z</time></trkpt><trkpt lat="42.53952931900669" lon="2.6862540249236657"><ele>541.0</ele><time>2026-04-10T09:53:53.892Z</time></trkpt><trkpt lat="42.539424721602956" lon="2.6863230760451753"><ele>540.5</ele><time>2026-04-10T09:53:54.893Z</time></trkpt><trkpt lat="42.5393118475723" lon="2.686401254185344"><ele>540.0</ele><time>2026-04-10T09:53:55.893Z</time></trkpt><trkpt lat="42.539207885731926" lon="2.686480030966691"><ele>540.0</ele><time>2026-04-10T09:53:56.893Z</time></trkpt><trkpt lat="42.539090819281775" lon="2.6865758717589174"><ele>540.0</ele><time>2026-04-10T09:53:57.893Z</time></trkpt><trkpt lat="42.538994733965545" lon="2.6866829501129175"><ele>540.0</ele><time>2026-04-10T09:53:58.893Z</time></trkpt><trkpt lat="42.53889896036836" lon="2.686758447946988"><ele>540.0</ele><time>2026-04-10T09:53:59.893Z</time></trkpt><trkpt lat="42.538808244516574" lon="2.6868743795524614"><ele>540.75</ele><time>2026-04-10T09:54:00.893Z</time></trkpt><trkpt lat="42.538733161428326" lon="2.6870065518466344"><ele>541.5</ele><time>2026-04-10T09:54:01.893Z</time></trkpt><trkpt lat="42.53867518519666" lon="2.6871532756932783"><ele>542.25</ele><time>2026-04-10T09:54:02.893Z</time></trkpt><trkpt lat="42.5386224289085" lon="2.6872847316821464"><ele>543.0</ele><time>2026-04-10T09:54:03.893Z</time></trkpt><trkpt lat="42.538517821835924" lon="2.6873807633503737"><ele>543.0</ele><time>2026-04-10T09:54:04.893Z</time></trkpt><trkpt lat="42.538447235721286" lon="2.687503175207453"><ele>543.0</ele><time>2026-04-10T09:54:05.893Z</time></trkpt><trkpt lat="42.53837416240325" lon="2.6876080155847206"><ele>543.0</ele><time>2026-04-10T09:54:06.893Z</time></trkpt><trkpt lat="42.53833395895831" lon="2.6877250410637834"><ele>543.0</ele><time>2026-04-10T09:54:07.893Z</time></trkpt><trkpt lat="42.53829527472954" lon="2.68781836523878"><ele>543.0</ele><time>2026-04-10T09:54:08.893Z</time></trkpt><trkpt lat="42.538218501339536" lon="2.6878940005547425"><ele>543.0</ele><time>2026-04-10T09:54:10.893Z</time></trkpt><trkpt lat="42.53814230013126" lon="2.687759382524026"><ele>543.0</ele><time>2026-04-10T09:54:12.893Z</time></trkpt><trkpt lat="42.53795866560509" lon="2.687829487793432"><ele>543.0</ele><time>2026-04-10T09:54:14.893Z</time></trkpt><trkpt lat="42.53789660021667" lon="2.6879276108689467"><ele>543.0</ele><time>2026-04-10T09:54:15.893Z</time></trkpt><trkpt lat="42.53788463403873" lon="2.688069491765367"><ele>542.4</ele><time>2026-04-10T09:54:16.893Z</time></trkpt><trkpt lat="42.5378964804584" lon="2.6882001644591185"><ele>541.8</ele><time>2026-04-10T09:54:17.893Z</time></trkpt><trkpt lat="42.5379097122386" lon="2.688352493537602"><ele>541.2</ele><time>2026-04-10T09:54:18.893Z</time></trkpt><trkpt lat="42.53786526680895" lon="2.688476468406227"><ele>540.6</ele><time>2026-04-10T09:54:19.893Z</time></trkpt><trkpt lat="42.53780176535698" lon="2.6885865513095903"><ele>540.0</ele><time>2026-04-10T09:54:20.893Z</time></trkpt><trkpt lat="42.53774543336105" lon="2.688723946647414"><ele>538.5</ele><time>2026-04-10T09:54:21.893Z</time></trkpt><trkpt lat="42.53769527867816" lon="2.688871208414795"><ele>537.0</ele><time>2026-04-10T09:54:22.893Z</time></trkpt><trkpt lat="42.53767646756935" lon="2.6890328511525334"><ele>535.5</ele><time>2026-04-10T09:54:23.893Z</time></trkpt><trkpt lat="42.53764220409741" lon="2.6891886273195515"><ele>534.0</ele><time>2026-04-10T09:54:24.893Z</time></trkpt><trkpt lat="42.53757964971688" lon="2.689331061937422"><ele>535.0</ele><time>2026-04-10T09:54:25.893Z</time></trkpt><trkpt lat="42.53751430246999" lon="2.6894838225875257"><ele>536.0</ele><time>2026-04-10T09:54:26.893Z</time></trkpt><trkpt lat="42.53743766090985" lon="2.6896222718040854"><ele>537.0</ele><time>2026-04-10T09:54:27.893Z</time></trkpt><trkpt lat="42.5373670315934" lon="2.6897556461072663"><ele>538.0</ele><time>2026-04-10T09:54:28.893Z</time></trkpt><trkpt lat="42.53730608425223" lon="2.689888059830572"><ele>538.0</ele><time>2026-04-10T09:54:29.893Z</time></trkpt><trkpt lat="42.5372919872457" lon="2.6900318389399023"><ele>538.0</ele><time>2026-04-10T09:54:30.893Z</time></trkpt><trkpt lat="42.53728218371414" lon="2.6901744919724693"><ele>538.0</ele><time>2026-04-10T09:54:31.893Z</time></trkpt><trkpt lat="42.53731096477716" lon="2.690334249999196"><ele>538.0</ele><time>2026-04-10T09:54:32.893Z</time></trkpt><trkpt lat="42.53734397538159" lon="2.690495197829203"><ele>538.5</ele><time>2026-04-10T09:54:33.893Z</time></trkpt><trkpt lat="42.537406457168366" lon="2.69065024011348"><ele>539.0</ele><time>2026-04-10T09:54:34.893Z</time></trkpt><trkpt lat="42.53746137777462" lon="2.690803381098289"><ele>539.5</ele><time>2026-04-10T09:54:35.893Z</time></trkpt><trkpt lat="42.53749718699697" lon="2.6909651197220104"><ele>540.0</ele><time>2026-04-10T09:54:36.893Z</time></trkpt><trkpt lat="42.537512119009634" lon="2.691123042319981"><ele>540.0</ele><time>2026-04-10T09:54:37.893Z</time></trkpt><trkpt lat="42.53748884485562" lon="2.6912740672081172"><ele>540.0</ele><time>2026-04-10T09:54:38.893Z</time></trkpt><trkpt lat="42.53740783764503" lon="2.6913998266397927"><ele>540.0</ele><time>2026-04-10T09:54:39.893Z</time></trkpt><trkpt lat="42.53736228221272" lon="2.6915292853680612"><ele>540.0</ele><time>2026-04-10T09:54:40.893Z</time></trkpt><trkpt lat="42.537319573248546" lon="2.6916794948635747"><ele>540.0</ele><time>2026-04-10T09:54:41.893Z</time></trkpt><trkpt lat="42.537284962728684" lon="2.6918256479031255"><ele>540.0</ele><time>2026-04-10T09:54:42.893Z</time></trkpt><trkpt lat="42.53724530082176" lon="2.6919695464551356"><ele>540.0</ele><time>2026-04-10T09:54:43.893Z</time></trkpt><trkpt lat="42.53720140494117" lon="2.6920952169007952"><ele>540.0</ele><time>2026-04-10T09:54:44.893Z</time></trkpt><trkpt lat="42.537199547320036" lon="2.6922337801112097"><ele>540.0</ele><time>2026-04-10T09:54:45.893Z</time></trkpt><trkpt lat="42.53720662225527" lon="2.6923809667216814"><ele>542.0</ele><time>2026-04-10T09:54:46.893Z</time></trkpt><trkpt lat="42.53725983385309" lon="2.6925299506208464"><ele>544.0</ele><time>2026-04-10T09:54:47.893Z</time></trkpt><trkpt lat="42.53730104429372" lon="2.6926755702785576"><ele>546.0</ele><time>2026-04-10T09:54:48.893Z</time></trkpt><trkpt lat="42.53734085433457" lon="2.692824563677678"><ele>548.0</ele><time>2026-04-10T09:54:49.893Z</time></trkpt><trkpt lat="42.537383381648354" lon="2.6929806268614573"><ele>548.5</ele><time>2026-04-10T09:54:50.894Z</time></trkpt><trkpt lat="42.537392255376695" lon="2.6931404820452283"><ele>549.0</ele><time>2026-04-10T09:54:51.894Z</time></trkpt><trkpt lat="42.53743259220503" lon="2.6932843352952363"><ele>549.5</ele><time>2026-04-10T09:54:52.894Z</time></trkpt><trkpt lat="42.53745814507294" lon="2.693444463918545"><ele>550.0</ele><time>2026-04-10T09:54:53.894Z</time></trkpt><trkpt lat="42.53748259892478" lon="2.6936112745561083"><ele>551.4</ele><time>2026-04-10T09:54:54.894Z</time></trkpt><trkpt lat="42.537464006583754" lon="2.693766310200305"><ele>552.8</ele><time>2026-04-10T09:54:55.894Z</time></trkpt><trkpt lat="42.5374212193307" lon="2.6939101742907674"><ele>554.2</ele><time>2026-04-10T09:54:56.894Z</time></trkpt><trkpt lat="42.53738937650022" lon="2.694056606174597"><ele>555.6</ele><time>2026-04-10T09:54:57.894Z</time></trkpt><trkpt lat="42.53737097390403" lon="2.6941895710176307"><ele>557.0</ele><time>2026-04-10T09:54:58.894Z</time></trkpt><trkpt lat="42.53731653170481" lon="2.6942964617686407"><ele>559.5</ele><time>2026-04-10T09:54:59.894Z</time></trkpt><trkpt lat="42.53725755532135" lon="2.6944270203462435"><ele>562.0</ele><time>2026-04-10T09:55:00.894Z</time></trkpt><trkpt lat="42.53720224042935" lon="2.6945762347651248"><ele>564.5</ele><time>2026-04-10T09:55:01.894Z</time></trkpt><trkpt lat="42.53713192121928" lon="2.694714228090808"><ele>567.0</ele><time>2026-04-10T09:55:02.894Z</time></trkpt><trkpt lat="42.537064267343176" lon="2.6948605238323124"><ele>563.5</ele><time>2026-04-10T09:55:03.894Z</time></trkpt><trkpt lat="42.53701170784754" lon="2.695028505456113"><ele>560.0</ele><time>2026-04-10T09:55:04.894Z</time></trkpt><trkpt lat="42.53695793704876" lon="2.6952076024260485"><ele>556.5</ele><time>2026-04-10T09:55:05.894Z</time></trkpt><trkpt lat="42.536901221249764" lon="2.69538784427322"><ele>553.0</ele><time>2026-04-10T09:55:06.894Z</time></trkpt><trkpt lat="42.53684492961632" lon="2.695565162093436"><ele>553.0</ele><time>2026-04-10T09:55:07.894Z</time></trkpt><trkpt lat="42.53678288543731" lon="2.6957585014004635"><ele>553.0</ele><time>2026-04-10T09:55:08.894Z</time></trkpt><trkpt lat="42.53673404996729" lon="2.695911022766172"><ele>553.0</ele><time>2026-04-10T09:55:09.894Z</time></trkpt><trkpt lat="42.53663492321961" lon="2.6959672413565516"><ele>553.0</ele><time>2026-04-10T09:55:10.894Z</time></trkpt><trkpt lat="42.53654703469509" lon="2.6960558071402274"><ele>553.8</ele><time>2026-04-10T09:55:11.894Z</time></trkpt><trkpt lat="42.53644235274006" lon="2.6961655085334986"><ele>554.5999999999999</ele><time>2026-04-10T09:55:12.894Z</time></trkpt><trkpt lat="42.53636393376647" lon="2.6962730092033103"><ele>555.4000000000001</ele><time>2026-04-10T09:55:13.894Z</time></trkpt><trkpt lat="42.536300316669724" lon="2.696370304941126"><ele>556.2</ele><time>2026-04-10T09:55:14.894Z</time></trkpt><trkpt lat="42.53625819860082" lon="2.6964972123909905"><ele>557.0</ele><time>2026-04-10T09:55:15.894Z</time></trkpt><trkpt lat="42.536243963550376" lon="2.6966467062557666"><ele>557.0</ele><time>2026-04-10T09:55:16.894Z</time></trkpt><trkpt lat="42.53624104017172" lon="2.6967885238270806"><ele>557.0</ele><time>2026-04-10T09:55:17.894Z</time></trkpt><trkpt lat="42.53623744040503" lon="2.6969004095058255"><ele>557.0</ele><time>2026-04-10T09:55:18.894Z</time></trkpt><trkpt lat="42.53620411828726" lon="2.6970130674231307"><ele>557.0</ele><time>2026-04-10T09:55:19.894Z</time></trkpt><trkpt lat="42.5361036394894" lon="2.697041259734592"><ele>557.0</ele><time>2026-04-10T09:55:20.892Z</time></trkpt><trkpt lat="42.536014633649074" lon="2.6971291357269647"><ele>554.25</ele><time>2026-04-10T09:55:21.891Z</time></trkpt><trkpt lat="42.53593497830671" lon="2.697248696639391"><ele>551.5</ele><time>2026-04-10T09:55:22.89Z</time></trkpt><trkpt lat="42.535846438631445" lon="2.697347399058579"><ele>548.75</ele><time>2026-04-10T09:55:23.888Z</time></trkpt><trkpt lat="42.53577716936403" lon="2.697463214599912"><ele>546.0</ele><time>2026-04-10T09:55:24.887Z</time></trkpt><trkpt lat="42.53573518718332" lon="2.6976127230442946"><ele>546.0</ele><time>2026-04-10T09:55:25.885Z</time></trkpt><trkpt lat="42.535692531396805" lon="2.6977242811516153"><ele>546.0</ele><time>2026-04-10T09:55:26.884Z</time></trkpt><trkpt lat="42.535663880142216" lon="2.6978064014337066"><ele>546.0</ele><time>2026-04-10T09:55:27.883Z</time></trkpt><trkpt lat="42.535636922882524" lon="2.6979287483748804"><ele>546.0</ele><time>2026-04-10T09:55:28.882Z</time></trkpt><trkpt lat="42.53564253147123" lon="2.698076347145107"><ele>546.0</ele><time>2026-04-10T09:55:29.882Z</time></trkpt><trkpt lat="42.535667301797574" lon="2.698236670571043"><ele>544.75</ele><time>2026-04-10T09:55:30.88Z</time></trkpt><trkpt lat="42.53569036035019" lon="2.698404615564428"><ele>543.5</ele><time>2026-04-10T09:55:31.879Z</time></trkpt><trkpt lat="42.53569043973357" lon="2.698575285435494"><ele>542.25</ele><time>2026-04-10T09:55:32.879Z</time></trkpt><trkpt lat="42.53565229717428" lon="2.698736637208152"><ele>541.0</ele><time>2026-04-10T09:55:33.878Z</time></trkpt><trkpt lat="42.5356044532917" lon="2.698905663532464"><ele>538.75</ele><time>2026-04-10T09:55:34.877Z</time></trkpt><trkpt lat="42.535554515176266" lon="2.69907380998314"><ele>536.5</ele><time>2026-04-10T09:55:35.877Z</time></trkpt><trkpt lat="42.53551188351689" lon="2.6992420633532883"><ele>534.25</ele><time>2026-04-10T09:55:36.876Z</time></trkpt><trkpt lat="42.53545448193023" lon="2.6994050136707606"><ele>532.0</ele><time>2026-04-10T09:55:37.876Z</time></trkpt><trkpt lat="42.53541372362273" lon="2.6995806762035928"><ele>526.75</ele><time>2026-04-10T09:55:38.875Z</time></trkpt><trkpt lat="42.53536953494688" lon="2.6997510974256103"><ele>521.5</ele><time>2026-04-10T09:55:39.875Z</time></trkpt><trkpt lat="42.53530908232682" lon="2.699917583170642"><ele>516.25</ele><time>2026-04-10T09:55:40.874Z</time></trkpt><trkpt lat="42.53524355158786" lon="2.7000811627923325"><ele>511.0</ele><time>2026-04-10T09:55:41.874Z</time></trkpt><trkpt lat="42.53516746055398" lon="2.7002551853559313"><ele>510.75</ele><time>2026-04-10T09:55:42.873Z</time></trkpt><trkpt lat="42.53508922426263" lon="2.700430739953553"><ele>510.5</ele><time>2026-04-10T09:55:43.873Z</time></trkpt><trkpt lat="42.53501288719147" lon="2.7005899181264463"><ele>510.25</ele><time>2026-04-10T09:55:44.872Z</time></trkpt><trkpt lat="42.534932371904446" lon="2.7007427006897564"><ele>510.0</ele><time>2026-04-10T09:55:45.872Z</time></trkpt><trkpt lat="42.53485187557066" lon="2.7008843002706153"><ele>510.0</ele><time>2026-04-10T09:55:46.872Z</time></trkpt><trkpt lat="42.534761077202596" lon="2.7010142309090286"><ele>510.0</ele><time>2026-04-10T09:55:47.871Z</time></trkpt><trkpt lat="42.534681629269706" lon="2.7011511804971198"><ele>510.0</ele><time>2026-04-10T09:55:48.871Z</time></trkpt><trkpt lat="42.53460325053736" lon="2.7012559478229203"><ele>510.0</ele><time>2026-04-10T09:55:49.871Z</time></trkpt><trkpt lat="42.534547472932054" lon="2.7013523868880833"><ele>509.0</ele><time>2026-04-10T09:55:50.871Z</time></trkpt><trkpt lat="42.53447462450902" lon="2.7014617491737596"><ele>508.0</ele><time>2026-04-10T09:55:51.87Z</time></trkpt><trkpt lat="42.53438637326232" lon="2.70156981012186"><ele>507.0</ele><time>2026-04-10T09:55:52.87Z</time></trkpt><trkpt lat="42.534311977049974" lon="2.7017066568585495"><ele>506.0</ele><time>2026-04-10T09:55:53.87Z</time></trkpt><trkpt lat="42.534237761418275" lon="2.7017972758284943"><ele>505.25</ele><time>2026-04-10T09:55:54.87Z</time></trkpt><trkpt lat="42.534168125058166" lon="2.701936943291079"><ele>504.5</ele><time>2026-04-10T09:55:55.87Z</time></trkpt><trkpt lat="42.534105010923376" lon="2.7020891490441277"><ele>503.75</ele><time>2026-04-10T09:55:56.87Z</time></trkpt><trkpt lat="42.534022471122256" lon="2.7022140473395213"><ele>503.0</ele><time>2026-04-10T09:55:57.869Z</time></trkpt><trkpt lat="42.53394807437833" lon="2.70234339830903"><ele>503.0</ele><time>2026-04-10T09:55:58.869Z</time></trkpt><trkpt lat="42.53386735104509" lon="2.7024783707811446"><ele>503.0</ele><time>2026-04-10T09:55:59.869Z</time></trkpt><trkpt lat="42.53379142378039" lon="2.702604628166372"><ele>503.0</ele><time>2026-04-10T09:56:00.869Z</time></trkpt><trkpt lat="42.53370817102103" lon="2.7027390825696607"><ele>503.0</ele><time>2026-04-10T09:56:01.869Z</time></trkpt><trkpt lat="42.533622207598654" lon="2.7028715416486917"><ele>504.5</ele><time>2026-04-10T09:56:02.869Z</time></trkpt><trkpt lat="42.53353193459731" lon="2.703006403343778"><ele>506.0</ele><time>2026-04-10T09:56:03.869Z</time></trkpt><trkpt lat="42.53345543819674" lon="2.70314446559169"><ele>507.5</ele><time>2026-04-10T09:56:04.869Z</time></trkpt><trkpt lat="42.533347895915576" lon="2.70326739523734"><ele>509.0</ele><time>2026-04-10T09:56:05.869Z</time></trkpt><trkpt lat="42.5332560507321" lon="2.7034109683770606"><ele>509.0</ele><time>2026-04-10T09:56:06.868Z</time></trkpt><trkpt lat="42.53316236095198" lon="2.7035514781642744"><ele>509.0</ele><time>2026-04-10T09:56:07.868Z</time></trkpt><trkpt lat="42.53306307015132" lon="2.7036815910756617"><ele>509.0</ele><time>2026-04-10T09:56:08.868Z</time></trkpt><trkpt lat="42.53294469509712" lon="2.7037798740635717"><ele>509.0</ele><time>2026-04-10T09:56:09.868Z</time></trkpt><trkpt lat="42.53283125708491" lon="2.703884380563541"><ele>508.25</ele><time>2026-04-10T09:56:10.868Z</time></trkpt><trkpt lat="42.53270908420164" lon="2.703975044846716"><ele>507.5</ele><time>2026-04-10T09:56:11.868Z</time></trkpt><trkpt lat="42.532578201815845" lon="2.7040338958402237"><ele>506.75</ele><time>2026-04-10T09:56:12.868Z</time></trkpt><trkpt lat="42.53245833599918" lon="2.7040866406623225"><ele>506.0</ele><time>2026-04-10T09:56:13.868Z</time></trkpt><trkpt lat="42.532337068520285" lon="2.7041613773623907"><ele>506.0</ele><time>2026-04-10T09:56:14.868Z</time></trkpt><trkpt lat="42.53221769371693" lon="2.7042547861061754"><ele>506.0</ele><time>2026-04-10T09:56:15.868Z</time></trkpt><trkpt lat="42.53208573724586" lon="2.704307000965466"><ele>506.0</ele><time>2026-04-10T09:56:16.868Z</time></trkpt><trkpt lat="42.53196121429859" lon="2.70434080294849"><ele>506.0</ele><time>2026-04-10T09:56:17.868Z</time></trkpt><trkpt lat="42.53182020150617" lon="2.704353880840614"><ele>506.25</ele><time>2026-04-10T09:56:18.868Z</time></trkpt><trkpt lat="42.53170886066188" lon="2.7043447711547572"><ele>506.5</ele><time>2026-04-10T09:56:19.868Z</time></trkpt><trkpt lat="42.53160199434524" lon="2.7043097774122504"><ele>506.75</ele><time>2026-04-10T09:56:20.868Z</time></trkpt><trkpt lat="42.531485200123605" lon="2.7042502682105147"><ele>507.0</ele><time>2026-04-10T09:56:21.868Z</time></trkpt><trkpt lat="42.53135624653462" lon="2.7041988069968728"><ele>507.0</ele><time>2026-04-10T09:56:22.868Z</time></trkpt><trkpt lat="42.531230418630166" lon="2.7041357034150746"><ele>507.0</ele><time>2026-04-10T09:56:23.868Z</time></trkpt><trkpt lat="42.531120975437084" lon="2.7040795990139372"><ele>507.0</ele><time>2026-04-10T09:56:24.868Z</time></trkpt><trkpt lat="42.53102326226911" lon="2.704013321502126"><ele>507.0</ele><time>2026-04-10T09:56:25.868Z</time></trkpt><trkpt lat="42.53091812674961" lon="2.7039577289836014"><ele>505.0</ele><time>2026-04-10T09:56:26.868Z</time></trkpt><trkpt lat="42.530809422759944" lon="2.7039697803969895"><ele>503.0</ele><time>2026-04-10T09:56:27.868Z</time></trkpt><trkpt lat="42.53068838353559" lon="2.703972260245449"><ele>501.0</ele><time>2026-04-10T09:56:28.868Z</time></trkpt><trkpt lat="42.53055783658597" lon="2.7039951093901387"><ele>499.0</ele><time>2026-04-10T09:56:29.868Z</time></trkpt><trkpt lat="42.53041539569514" lon="2.704015726581804"><ele>496.5</ele><time>2026-04-10T09:56:30.868Z</time></trkpt><trkpt lat="42.53028115342177" lon="2.7040158300503165"><ele>494.0</ele><time>2026-04-10T09:56:31.868Z</time></trkpt><trkpt lat="42.5301379055224" lon="2.7040253792567035"><ele>491.5</ele><time>2026-04-10T09:56:32.868Z</time></trkpt><trkpt lat="42.529994046342225" lon="2.704040535617502"><ele>489.0</ele><time>2026-04-10T09:56:33.868Z</time></trkpt><trkpt lat="42.52987160202928" lon="2.7040549246052366"><ele>489.0</ele><time>2026-04-10T09:56:34.868Z</time></trkpt><trkpt lat="42.52974605019355" lon="2.7040901606461256"><ele>489.0</ele><time>2026-04-10T09:56:35.868Z</time></trkpt><trkpt lat="42.52964286817136" lon="2.7041450571149728"><ele>489.0</ele><time>2026-04-10T09:56:36.868Z</time></trkpt><trkpt lat="42.52954688306001" lon="2.7042059695940592"><ele>489.0</ele><time>2026-04-10T09:56:37.868Z</time></trkpt><trkpt lat="42.52944978282912" lon="2.704276827833804"><ele>486.25</ele><time>2026-04-10T09:56:38.868Z</time></trkpt><trkpt lat="42.5293636387144" lon="2.7043799792369425"><ele>483.5</ele><time>2026-04-10T09:56:39.868Z</time></trkpt><trkpt lat="42.529279819734526" lon="2.704504960347967"><ele>480.75</ele><time>2026-04-10T09:56:40.868Z</time></trkpt><trkpt lat="42.52918278008793" lon="2.7046474202149824"><ele>478.0</ele><time>2026-04-10T09:56:41.868Z</time></trkpt><trkpt lat="42.52907557976042" lon="2.7048039012835425"><ele>477.33333333333337</ele><time>2026-04-10T09:56:42.868Z</time></trkpt><trkpt lat="42.528982025470015" lon="2.704966471836753"><ele>476.66666666666663</ele><time>2026-04-10T09:56:43.868Z</time></trkpt><trkpt lat="42.52890079525913" lon="2.7051283954080985"><ele>476.0</ele><time>2026-04-10T09:56:44.868Z</time></trkpt><trkpt lat="42.528811645549446" lon="2.705299906659678"><ele>475.3333333333333</ele><time>2026-04-10T09:56:45.868Z</time></trkpt><trkpt lat="42.5287067428846" lon="2.705474020578565"><ele>474.66666666666663</ele><time>2026-04-10T09:56:46.868Z</time></trkpt><trkpt lat="42.5286145445831" lon="2.705648786633284"><ele>474.0</ele><time>2026-04-10T09:56:47.868Z</time></trkpt><trkpt lat="42.52849568255812" lon="2.7057809235555723"><ele>474.0</ele><time>2026-04-10T09:56:48.868Z</time></trkpt><trkpt lat="42.528392220781555" lon="2.705943017940793"><ele>474.0</ele><time>2026-04-10T09:56:49.868Z</time></trkpt><trkpt lat="42.52827338668037" lon="2.70607348032319"><ele>474.0</ele><time>2026-04-10T09:56:50.868Z</time></trkpt><trkpt lat="42.52816216403448" lon="2.706171444650666"><ele>474.0</ele><time>2026-04-10T09:56:51.868Z</time></trkpt><trkpt lat="42.52806165984638" lon="2.706214861204454"><ele>473.2</ele><time>2026-04-10T09:56:52.868Z</time></trkpt><trkpt lat="42.527997103848605" lon="2.706256264435669"><ele>472.4</ele><time>2026-04-10T09:56:53.868Z</time></trkpt><trkpt lat="42.5279697394097" lon="2.706400013998153"><ele>471.6</ele><time>2026-04-10T09:56:55.868Z</time></trkpt><trkpt lat="42.527877094460536" lon="2.70639817321266"><ele>470.8</ele><time>2026-04-10T09:56:59.868Z</time></trkpt><trkpt lat="42.5278218804976" lon="2.706597685978476"><ele>470.0</ele><time>2026-04-10T09:57:01.868Z</time></trkpt><trkpt lat="42.527762645513654" lon="2.7066955490101807"><ele>470.0</ele><time>2026-04-10T09:57:02.868Z</time></trkpt><trkpt lat="42.52770919115547" lon="2.7067838618902904"><ele>470.0</ele><time>2026-04-10T09:57:03.868Z</time></trkpt><trkpt lat="42.52755057173982" lon="2.706759817049126"><ele>470.0</ele><time>2026-04-10T09:57:04.868Z</time></trkpt><trkpt lat="42.52747555442161" lon="2.7068321876212416"><ele>470.0</ele><time>2026-04-10T09:57:05.868Z</time></trkpt><trkpt lat="42.527405456025015" lon="2.7068507701175237"><ele>470.0</ele><time>2026-04-10T09:57:06.868Z</time></trkpt><trkpt lat="42.52733392204309" lon="2.7068470794969057"><ele>469.99999999999994</ele><time>2026-04-10T09:57:07.868Z</time></trkpt><trkpt lat="42.52726119427614" lon="2.70686322876952"><ele>470.0</ele><time>2026-04-10T09:57:08.868Z</time></trkpt><trkpt lat="42.52718501126443" lon="2.7068661546253607"><ele>470.0</ele><time>2026-04-10T09:57:09.868Z</time></trkpt><trkpt lat="42.527101375271506" lon="2.7068666941827613"><ele>470.0</ele><time>2026-04-10T09:57:10.868Z</time></trkpt><trkpt lat="42.527027731849" lon="2.706860072624004"><ele>469.99999999999994</ele><time>2026-04-10T09:57:11.868Z</time></trkpt><trkpt lat="42.526949161467456" lon="2.7068425556032354"><ele>470.0</ele><time>2026-04-10T09:57:12.868Z</time></trkpt><trkpt lat="42.526857519327315" lon="2.706836881024712"><ele>470.1428571428571</ele><time>2026-04-10T09:57:13.868Z</time></trkpt><trkpt lat="42.526788322791916" lon="2.706827523422737"><ele>470.2857142857142</ele><time>2026-04-10T09:57:14.868Z</time></trkpt><trkpt lat="42.52672057131894" lon="2.7068109665584528"><ele>470.42857142857144</ele><time>2026-04-10T09:57:15.868Z</time></trkpt><trkpt lat="42.52665068972985" lon="2.7067845432565267"><ele>470.57142857142856</ele><time>2026-04-10T09:57:16.868Z</time></trkpt><trkpt lat="42.52657933864956" lon="2.706746385803845"><ele>470.7142857142857</ele><time>2026-04-10T09:57:17.868Z</time></trkpt><trkpt lat="42.52651806018959" lon="2.7067105446195683"><ele>470.8571428571429</ele><time>2026-04-10T09:57:18.868Z</time></trkpt><trkpt lat="42.52644192481321" lon="2.7066744615791585"><ele>471.00000000000006</ele><time>2026-04-10T09:57:19.868Z</time></trkpt><trkpt lat="42.526383047115" lon="2.7066336347506414"><ele>471.0</ele><time>2026-04-10T09:57:20.868Z</time></trkpt><trkpt lat="42.52633185795791" lon="2.706559569598926"><ele>471.0</ele><time>2026-04-10T09:57:21.868Z</time></trkpt><trkpt lat="42.52631610529207" lon="2.706472118891546"><ele>471.0</ele><time>2026-04-10T09:57:22.868Z</time></trkpt><trkpt lat="42.526298690432135" lon="2.7063600377255757"><ele>471.0</ele><time>2026-04-10T09:57:23.868Z</time></trkpt><trkpt lat="42.52628352400131" lon="2.7062365120873784"><ele>471.0</ele><time>2026-04-10T09:57:24.868Z</time></trkpt><trkpt lat="42.52625127993201" lon="2.7061167151494327"><ele>471.0</ele><time>2026-04-10T09:57:25.868Z</time></trkpt><trkpt lat="42.526231469857514" lon="2.706005535999055"><ele>469.0</ele><time>2026-04-10T09:57:26.867Z</time></trkpt><trkpt lat="42.526197105022526" lon="2.705882253872956"><ele>467.0</ele><time>2026-04-10T09:57:27.867Z</time></trkpt><trkpt lat="42.52615517710146" lon="2.705762554685097"><ele>465.0</ele><time>2026-04-10T09:57:28.867Z</time></trkpt><trkpt lat="42.52610378529686" lon="2.7056449620258114"><ele>463.0</ele><time>2026-04-10T09:57:29.867Z</time></trkpt><trkpt lat="42.52606304084755" lon="2.7055437360447065"><ele>461.0</ele><time>2026-04-10T09:57:30.867Z</time></trkpt><trkpt lat="42.52600782669214" lon="2.7054442071742995"><ele>460.99999999999994</ele><time>2026-04-10T09:57:31.867Z</time></trkpt><trkpt lat="42.52595696387729" lon="2.705347851252504"><ele>461.0</ele><time>2026-04-10T09:57:32.868Z</time></trkpt><trkpt lat="42.52590076502657" lon="2.7052694104343304"><ele>461.0</ele><time>2026-04-10T09:57:33.867Z</time></trkpt><trkpt lat="42.52582469856419" lon="2.705224069987435"><ele>461.0</ele><time>2026-04-10T09:57:34.867Z</time></trkpt><trkpt lat="42.52573711249312" lon="2.7051900641876636"><ele>460.99999999999994</ele><time>2026-04-10T09:57:35.867Z</time></trkpt><trkpt lat="42.52564724022677" lon="2.70516773729724"><ele>461.0</ele><time>2026-04-10T09:57:36.867Z</time></trkpt><trkpt lat="42.5255645627047" lon="2.7051186860037655"><ele>459.66666666666663</ele><time>2026-04-10T09:57:37.867Z</time></trkpt><trkpt lat="42.525495544696525" lon="2.7050543161442824"><ele>458.3333333333333</ele><time>2026-04-10T09:57:38.868Z</time></trkpt><trkpt lat="42.52544012062606" lon="2.7049674520568026"><ele>457.0</ele><time>2026-04-10T09:57:39.867Z</time></trkpt><trkpt lat="42.52541224086251" lon="2.704859579721943"><ele>455.66666666666663</ele><time>2026-04-10T09:57:40.867Z</time></trkpt><trkpt lat="42.525389113084564" lon="2.7047481420836834"><ele>454.3333333333333</ele><time>2026-04-10T09:57:41.867Z</time></trkpt><trkpt lat="42.525380492681805" lon="2.704637199497489"><ele>453.0</ele><time>2026-04-10T09:57:42.867Z</time></trkpt><trkpt lat="42.525343594538654" lon="2.7045292442569946"><ele>455.0</ele><time>2026-04-10T09:57:43.867Z</time></trkpt><trkpt lat="42.52532086738428" lon="2.7044062260051605"><ele>457.0</ele><time>2026-04-10T09:57:44.867Z</time></trkpt><trkpt lat="42.52528292597397" lon="2.7043002088042822"><ele>459.0</ele><time>2026-04-10T09:57:45.867Z</time></trkpt><trkpt lat="42.52523360991862" lon="2.7041928403007267"><ele>461.0</ele><time>2026-04-10T09:57:46.867Z</time></trkpt><trkpt lat="42.52518078296544" lon="2.704096858301998"><ele>463.0</ele><time>2026-04-10T09:57:47.868Z</time></trkpt><trkpt lat="42.525115946637676" lon="2.7040208723877748"><ele>465.0</ele><time>2026-04-10T09:57:48.868Z</time></trkpt><trkpt lat="42.52506187989612" lon="2.7039451624976936"><ele>465.0</ele><time>2026-04-10T09:57:49.868Z</time></trkpt><trkpt lat="42.52501355573936" lon="2.703870455317981"><ele>465.0</ele><time>2026-04-10T09:57:50.868Z</time></trkpt><trkpt lat="42.52492719413517" lon="2.7038222917874983"><ele>465.0</ele><time>2026-04-10T09:57:52.868Z</time></trkpt><trkpt lat="42.524862528257216" lon="2.7038444151145495"><ele>465.0</ele><time>2026-04-10T09:57:53.868Z</time></trkpt><trkpt lat="42.52478385808508" lon="2.703887039589994"><ele>465.0</ele><time>2026-04-10T09:57:54.868Z</time></trkpt><trkpt lat="42.52471434437701" lon="2.7038942549548826"><ele>465.0</ele><time>2026-04-10T09:57:55.868Z</time></trkpt><trkpt lat="42.52462970013436" lon="2.703899511542755"><ele>465.0</ele><time>2026-04-10T09:57:56.868Z</time></trkpt><trkpt lat="42.52454831202012" lon="2.7038960595843595"><ele>465.0</ele><time>2026-04-10T09:57:57.868Z</time></trkpt><trkpt lat="42.52445014706451" lon="2.7038917510247065"><ele>465.0</ele><time>2026-04-10T09:57:58.868Z</time></trkpt><trkpt lat="42.52436622988468" lon="2.7038869153778187"><ele>465.0</ele><time>2026-04-10T09:57:59.868Z</time></trkpt><trkpt lat="42.52427834254643" lon="2.7038774356543342"><ele>465.0</ele><time>2026-04-10T09:58:00.868Z</time></trkpt><trkpt lat="42.52419123375165" lon="2.7038734476363215"><ele>465.0</ele><time>2026-04-10T09:58:01.868Z</time></trkpt><trkpt lat="42.52409525936516" lon="2.7038675001380232"><ele>465.0</ele><time>2026-04-10T09:58:02.868Z</time></trkpt><trkpt lat="42.52400719720083" lon="2.70386491449505"><ele>465.0</ele><time>2026-04-10T09:58:03.868Z</time></trkpt><trkpt lat="42.52392356839999" lon="2.703862457503487"><ele>465.0</ele><time>2026-04-10T09:58:04.868Z</time></trkpt><trkpt lat="42.52384599379922" lon="2.703878571041201"><ele>465.0</ele><time>2026-04-10T09:58:05.868Z</time></trkpt><trkpt lat="42.52376208550842" lon="2.7039031290306212"><ele>465.0</ele><time>2026-04-10T09:58:06.868Z</time></trkpt><trkpt lat="42.523688573809494" lon="2.7039182086106774"><ele>465.0</ele><time>2026-04-10T09:58:07.868Z</time></trkpt><trkpt lat="42.52361263763264" lon="2.703913566359987"><ele>465.3333333333333</ele><time>2026-04-10T09:58:08.868Z</time></trkpt><trkpt lat="42.52354432870694" lon="2.70392546954215"><ele>465.66666666666663</ele><time>2026-04-10T09:58:09.868Z</time></trkpt><trkpt lat="42.52341848659407" lon="2.7040076655128793"><ele>466.0</ele><time>2026-04-10T09:58:11.868Z</time></trkpt><trkpt lat="42.523372620276284" lon="2.7040875503731754"><ele>466.3333333333333</ele><time>2026-04-10T09:58:12.868Z</time></trkpt><trkpt lat="42.523310774794815" lon="2.7041537992394216"><ele>466.66666666666663</ele><time>2026-04-10T09:58:13.868Z</time></trkpt><trkpt lat="42.52324184536766" lon="2.704217957459761"><ele>467.0</ele><time>2026-04-10T09:58:14.868Z</time></trkpt><trkpt lat="42.523168287018834" lon="2.704269846477965"><ele>466.99999999999994</ele><time>2026-04-10T09:58:15.868Z</time></trkpt><trkpt lat="42.52309063581869" lon="2.7043148706961113"><ele>467.0</ele><time>2026-04-10T09:58:16.868Z</time></trkpt><trkpt lat="42.52300263610145" lon="2.7043394983392606"><ele>467.0</ele><time>2026-04-10T09:58:17.868Z</time></trkpt><trkpt lat="42.52290850268449" lon="2.704368699908777"><ele>467.0</ele><time>2026-04-10T09:58:18.868Z</time></trkpt><trkpt lat="42.522843599823055" lon="2.7044390669543894"><ele>466.99999999999994</ele><time>2026-04-10T09:58:19.868Z</time></trkpt><trkpt lat="42.522762859500894" lon="2.7045015174712406"><ele>467.0</ele><time>2026-04-10T09:58:20.868Z</time></trkpt><trkpt lat="42.52268802043738" lon="2.70457332880999"><ele>466.99999999999994</ele><time>2026-04-10T09:58:21.868Z</time></trkpt><trkpt lat="42.522616996480565" lon="2.7046502474856613"><ele>467.0</ele><time>2026-04-10T09:58:22.868Z</time></trkpt><trkpt lat="42.52256128422051" lon="2.70473482411113"><ele>467.0</ele><time>2026-04-10T09:58:23.868Z</time></trkpt><trkpt lat="42.52251331397947" lon="2.7048299297231426"><ele>467.0</ele><time>2026-04-10T09:58:24.868Z</time></trkpt><trkpt lat="42.52247019138865" lon="2.704928466010926"><ele>466.99999999999994</ele><time>2026-04-10T09:58:25.868Z</time></trkpt><trkpt lat="42.52242879395758" lon="2.7050237954694456"><ele>467.0</ele><time>2026-04-10T09:58:26.868Z</time></trkpt><trkpt lat="42.52236723750685" lon="2.7051047668945083"><ele>467.0</ele><time>2026-04-10T09:58:27.868Z</time></trkpt><trkpt lat="42.52229949562405" lon="2.7051827947822695"><ele>467.00000000000006</ele><time>2026-04-10T09:58:28.868Z</time></trkpt><trkpt lat="42.52222683114653" lon="2.7052646612790014"><ele>467.00000000000006</ele><time>2026-04-10T09:58:29.868Z</time></trkpt><trkpt lat="42.522141016912954" lon="2.70533323972823"><ele>467.0</ele><time>2026-04-10T09:58:30.868Z</time></trkpt><trkpt lat="42.5220630774631" lon="2.70539426769232"><ele>467.0</ele><time>2026-04-10T09:58:31.868Z</time></trkpt><trkpt lat="42.521980931058636" lon="2.705437601714214"><ele>466.16666666666663</ele><time>2026-04-10T09:58:32.868Z</time></trkpt><trkpt lat="42.52189278620091" lon="2.705459563031156"><ele>465.3333333333333</ele><time>2026-04-10T09:58:33.868Z</time></trkpt><trkpt lat="42.52181067585586" lon="2.7054626980090855"><ele>464.5</ele><time>2026-04-10T09:58:34.868Z</time></trkpt><trkpt lat="42.521739017742135" lon="2.705500600699229"><ele>463.66666666666663</ele><time>2026-04-10T09:58:35.868Z</time></trkpt><trkpt lat="42.52169275805043" lon="2.705592450844109"><ele>462.8333333333333</ele><time>2026-04-10T09:58:36.868Z</time></trkpt><trkpt lat="42.521671337340265" lon="2.7057176357113617"><ele>462.0</ele><time>2026-04-10T09:58:37.868Z</time></trkpt><trkpt lat="42.521661506675635" lon="2.7058906557445184"><ele>462.0</ele><time>2026-04-10T09:58:39.868Z</time></trkpt><trkpt lat="42.52171072489596" lon="2.7060387629583555"><ele>462.0</ele><time>2026-04-10T09:58:41.868Z</time></trkpt><trkpt lat="42.52177104735725" lon="2.7061124512603865"><ele>462.0</ele><time>2026-04-10T09:58:42.868Z</time></trkpt><trkpt lat="42.52182179537242" lon="2.7061967011649473"><ele>462.0</ele><time>2026-04-10T09:58:43.868Z</time></trkpt><trkpt lat="42.52187024966618" lon="2.706293765294664"><ele>462.0</ele><time>2026-04-10T09:58:44.868Z</time></trkpt><trkpt lat="42.52191696290166" lon="2.7063742744317283"><ele>462.0</ele><time>2026-04-10T09:58:45.868Z</time></trkpt><trkpt lat="42.52197537213795" lon="2.706424613055829"><ele>460.0</ele><time>2026-04-10T09:58:46.868Z</time></trkpt><trkpt lat="42.5220680102243" lon="2.7064535372919916"><ele>458.00000000000006</ele><time>2026-04-10T09:58:48.868Z</time></trkpt><trkpt lat="42.52210304146633" lon="2.706554111814731"><ele>456.00000000000006</ele><time>2026-04-10T09:58:50.868Z</time></trkpt><trkpt lat="42.52207114280033" lon="2.7066299243951546"><ele>454.0</ele><time>2026-04-10T09:58:51.868Z</time></trkpt><trkpt lat="42.52194043255896" lon="2.7066826985989954"><ele>452.0</ele><time>2026-04-10T09:58:53.868Z</time></trkpt><trkpt lat="42.52185819848846" lon="2.706688270888585"><ele>451.99999999999994</ele><time>2026-04-10T09:58:54.868Z</time></trkpt><trkpt lat="42.521789894041326" lon="2.7066954840232773"><ele>452.0</ele><time>2026-04-10T09:58:55.868Z</time></trkpt><trkpt lat="42.52171672178626" lon="2.7067034704960293"><ele>452.0</ele><time>2026-04-10T09:58:56.868Z</time></trkpt><trkpt lat="42.521632932218346" lon="2.7067290103725044"><ele>452.0</ele><time>2026-04-10T09:58:57.868Z</time></trkpt><trkpt lat="42.52153840882339" lon="2.7067308670178405"><ele>451.99999999999994</ele><time>2026-04-10T09:58:58.868Z</time></trkpt><trkpt lat="42.52144303121861" lon="2.706723192896659"><ele>452.0</ele><time>2026-04-10T09:58:59.868Z</time></trkpt><trkpt lat="42.521347741682156" lon="2.706717679567811"><ele>452.0</ele><time>2026-04-10T09:59:00.868Z</time></trkpt><trkpt lat="42.52125164350287" lon="2.706704151232352"><ele>452.00000000000006</ele><time>2026-04-10T09:59:01.868Z</time></trkpt><trkpt lat="42.52115953091366" lon="2.7066933844153533"><ele>452.00000000000006</ele><time>2026-04-10T09:59:02.868Z</time></trkpt><trkpt lat="42.52106478660133" lon="2.7066899311268364"><ele>452.0</ele><time>2026-04-10T09:59:03.868Z</time></trkpt><trkpt lat="42.52097110762919" lon="2.7067194945427047"><ele>452.0</ele><time>2026-04-10T09:59:04.868Z</time></trkpt><trkpt lat="42.52089367699262" lon="2.706743761606672"><ele>450.16666666666663</ele><time>2026-04-10T09:59:05.868Z</time></trkpt><trkpt lat="42.52081703393742" lon="2.706836720572331"><ele>448.3333333333333</ele><time>2026-04-10T09:59:07.868Z</time></trkpt><trkpt lat="42.520801752937686" lon="2.706927347258833"><ele>446.5</ele><time>2026-04-10T09:59:08.868Z</time></trkpt><trkpt lat="42.520799051558015" lon="2.7070493297078824"><ele>444.66666666666663</ele><time>2026-04-10T09:59:09.868Z</time></trkpt><trkpt lat="42.52079562219229" lon="2.7071566361235466"><ele>442.8333333333333</ele><time>2026-04-10T09:59:10.868Z</time></trkpt><trkpt lat="42.5207442279921" lon="2.7072664213324824"><ele>441.0</ele><time>2026-04-10T09:59:12.869Z</time></trkpt><trkpt lat="42.52068601471679" lon="2.7072278113400925"><ele>441.0</ele><time>2026-04-10T09:59:13.869Z</time></trkpt><trkpt lat="42.52064259016032" lon="2.707159453530962"><ele>441.0</ele><time>2026-04-10T09:59:14.869Z</time></trkpt><trkpt lat="42.520616270444904" lon="2.7070791597121286"><ele>441.0</ele><time>2026-04-10T09:59:15.869Z</time></trkpt><trkpt lat="42.52060316759712" lon="2.7069704707030033"><ele>441.0</ele><time>2026-04-10T09:59:16.869Z</time></trkpt><trkpt lat="42.520574853213795" lon="2.706864668062048"><ele>441.0</ele><time>2026-04-10T09:59:17.869Z</time></trkpt><trkpt lat="42.520533434643845" lon="2.706759510254244"><ele>441.0</ele><time>2026-04-10T09:59:18.869Z</time></trkpt><trkpt lat="42.52049495151095" lon="2.7066464791552547"><ele>441.0</ele><time>2026-04-10T09:59:19.869Z</time></trkpt><trkpt lat="42.52042957228923" lon="2.706554998978628"><ele>441.0</ele><time>2026-04-10T09:59:20.869Z</time></trkpt><trkpt lat="42.52036373089878" lon="2.7064677527313132"><ele>441.0</ele><time>2026-04-10T09:59:21.869Z</time></trkpt><trkpt lat="42.52029647531196" lon="2.7063865191110885"><ele>441.0</ele><time>2026-04-10T09:59:22.869Z</time></trkpt><trkpt lat="42.52019409115269" lon="2.706308597580364"><ele>441.0</ele><time>2026-04-10T09:59:24.869Z</time></trkpt><trkpt lat="42.520112522076545" lon="2.706315249454012"><ele>438.5</ele><time>2026-04-10T09:59:25.869Z</time></trkpt><trkpt lat="42.52002005983708" lon="2.706320242999646"><ele>436.0</ele><time>2026-04-10T09:59:26.869Z</time></trkpt><trkpt lat="42.51993213429002" lon="2.7063211895512502"><ele>433.5</ele><time>2026-04-10T09:59:27.869Z</time></trkpt><trkpt lat="42.519844381452984" lon="2.706300848762332"><ele>431.0</ele><time>2026-04-10T09:59:28.869Z</time></trkpt><trkpt lat="42.519751864246835" lon="2.706276229385258"><ele>428.5</ele><time>2026-04-10T09:59:29.869Z</time></trkpt><trkpt lat="42.519674661854054" lon="2.706230309631971"><ele>426.0</ele><time>2026-04-10T09:59:30.869Z</time></trkpt><trkpt lat="42.51959290822767" lon="2.7061829642444986"><ele>424.6666666666667</ele><time>2026-04-10T09:59:31.869Z</time></trkpt><trkpt lat="42.51950699273103" lon="2.706178017574412"><ele>423.33333333333337</ele><time>2026-04-10T09:59:32.867Z</time></trkpt><trkpt lat="42.51941829622014" lon="2.706202731071737"><ele>422.0</ele><time>2026-04-10T09:59:33.867Z</time></trkpt><trkpt lat="42.5193444822161" lon="2.706246080383259"><ele>420.6666666666667</ele><time>2026-04-10T09:59:34.867Z</time></trkpt><trkpt lat="42.519300288482114" lon="2.7063241038966845"><ele>419.33333333333337</ele><time>2026-04-10T09:59:35.867Z</time></trkpt><trkpt lat="42.51926060806458" lon="2.7064300697348873"><ele>418.0</ele><time>2026-04-10T09:59:36.868Z</time></trkpt><trkpt lat="42.51921610618191" lon="2.7064966363857814"><ele>418.00000000000006</ele><time>2026-04-10T09:59:37.868Z</time></trkpt><trkpt lat="42.519232681808475" lon="2.706642844111385"><ele>418.0</ele><time>2026-04-10T09:59:39.867Z</time></trkpt><trkpt lat="42.519284425023834" lon="2.706699640834544"><ele>418.0</ele><time>2026-04-10T09:59:40.868Z</time></trkpt><trkpt lat="42.51933225375824" lon="2.706762864006476"><ele>418.0</ele><time>2026-04-10T09:59:41.867Z</time></trkpt><trkpt lat="42.519361123190485" lon="2.706854608286513"><ele>418.00000000000006</ele><time>2026-04-10T09:59:43.867Z</time></trkpt><trkpt lat="42.51927309033951" lon="2.706878530141382"><ele>418.0</ele><time>2026-04-10T09:59:45.868Z</time></trkpt><trkpt lat="42.519171337220314" lon="2.7068028070430246"><ele>418.00000000000006</ele><time>2026-04-10T09:59:47.868Z</time></trkpt><trkpt lat="42.5191103987903" lon="2.706770252361045"><ele>418.0</ele><time>2026-04-10T09:59:48.868Z</time></trkpt><trkpt lat="42.51902275407741" lon="2.706723751689736"><ele>418.0</ele><time>2026-04-10T09:59:50.868Z</time></trkpt><trkpt lat="42.51892862942112" lon="2.706730947828631"><ele>418.0</ele><time>2026-04-10T09:59:52.868Z</time></trkpt><trkpt lat="42.51885001880742" lon="2.7067115038836103"><ele>418.00000000000006</ele><time>2026-04-10T09:59:53.868Z</time></trkpt><trkpt lat="42.518763113852785" lon="2.7067074141529757"><ele>418.0</ele><time>2026-04-10T09:59:54.868Z</time></trkpt><trkpt lat="42.518680071102814" lon="2.706670032058687"><ele>416.50000000000006</ele><time>2026-04-10T09:59:55.868Z</time></trkpt><trkpt lat="42.518614424006614" lon="2.706601449329438"><ele>415.0</ele><time>2026-04-10T09:59:56.868Z</time></trkpt><trkpt lat="42.51854229182548" lon="2.7065388005743385"><ele>413.5</ele><time>2026-04-10T09:59:57.868Z</time></trkpt><trkpt lat="42.51846860372297" lon="2.706484528213803"><ele>412.0</ele><time>2026-04-10T09:59:58.868Z</time></trkpt><trkpt lat="42.51840510280154" lon="2.7064246030727643"><ele>410.50000000000006</ele><time>2026-04-10T09:59:59.868Z</time></trkpt><trkpt lat="42.51836773293958" lon="2.70634299751604"><ele>409.0</ele><time>2026-04-10T10:00:00.868Z</time></trkpt><trkpt lat="42.51838892032984" lon="2.70621584845558"><ele>409.0</ele><time>2026-04-10T10:00:02.868Z</time></trkpt><trkpt lat="42.51843043243467" lon="2.7061489913084524"><ele>409.0</ele><time>2026-04-10T10:00:03.868Z</time></trkpt><trkpt lat="42.51848404289605" lon="2.7060715076422115"><ele>409.0</ele><time>2026-04-10T10:00:04.868Z</time></trkpt><trkpt lat="42.51851328157052" lon="2.705976512456776"><ele>409.0</ele><time>2026-04-10T10:00:05.868Z</time></trkpt><trkpt lat="42.51854213310845" lon="2.705878106855341"><ele>409.0</ele><time>2026-04-10T10:00:06.868Z</time></trkpt><trkpt lat="42.51855941536747" lon="2.7057823512904733"><ele>409.0</ele><time>2026-04-10T10:00:07.868Z</time></trkpt><trkpt lat="42.518599568134235" lon="2.7056894371518743"><ele>409.0</ele><time>2026-04-10T10:00:08.868Z</time></trkpt><trkpt lat="42.518582642321796" lon="2.7055735003505474"><ele>408.2</ele><time>2026-04-10T10:00:10.868Z</time></trkpt><trkpt lat="42.518489189881194" lon="2.705548187225255"><ele>407.4</ele><time>2026-04-10T10:00:12.868Z</time></trkpt><trkpt lat="42.51835068023745" lon="2.705575242366032"><ele>406.6</ele><time>2026-04-10T10:00:14.868Z</time></trkpt><trkpt lat="42.51825673777424" lon="2.7055762880993384"><ele>405.8</ele><time>2026-04-10T10:00:15.868Z</time></trkpt><trkpt lat="42.518179786379314" lon="2.7055483294686353"><ele>405.0</ele><time>2026-04-10T10:00:16.868Z</time></trkpt><trkpt lat="42.51809274969723" lon="2.705515078012866"><ele>405.0</ele><time>2026-04-10T10:00:17.868Z</time></trkpt><trkpt lat="42.51801356327113" lon="2.7055079099548953"><ele>405.0</ele><time>2026-04-10T10:00:18.868Z</time></trkpt><trkpt lat="42.51788708638857" lon="2.7054994189461743"><ele>405.0</ele><time>2026-04-10T10:00:20.868Z</time></trkpt><trkpt lat="42.51780954232304" lon="2.7054939045522897"><ele>405.0</ele><time>2026-04-10T10:00:21.868Z</time></trkpt><trkpt lat="42.517730625562" lon="2.705518672470233"><ele>405.0</ele><time>2026-04-10T10:00:22.868Z</time></trkpt><trkpt lat="42.517641580877005" lon="2.7055590880465905"><ele>402.8333333333333</ele><time>2026-04-10T10:00:23.868Z</time></trkpt><trkpt lat="42.51755185760271" lon="2.705596984634653"><ele>400.66666666666663</ele><time>2026-04-10T10:00:24.868Z</time></trkpt><trkpt lat="42.517468127949044" lon="2.7056338009355203"><ele>398.5</ele><time>2026-04-10T10:00:25.868Z</time></trkpt><trkpt lat="42.51739611913286" lon="2.705684573284861"><ele>396.3333333333333</ele><time>2026-04-10T10:00:26.868Z</time></trkpt><trkpt lat="42.51733199382966" lon="2.705746427379158"><ele>394.16666666666663</ele><time>2026-04-10T10:00:27.868Z</time></trkpt><trkpt lat="42.51727279710864" lon="2.705809808437332"><ele>392.0</ele><time>2026-04-10T10:00:28.868Z</time></trkpt><trkpt lat="42.517212477594995" lon="2.7058652876407336"><ele>391.99999999999994</ele><time>2026-04-10T10:00:29.868Z</time></trkpt><trkpt lat="42.517154826500246" lon="2.705942541614769"><ele>392.0</ele><time>2026-04-10T10:00:30.868Z</time></trkpt><trkpt lat="42.51711501079329" lon="2.706025949196067"><ele>392.0</ele><time>2026-04-10T10:00:31.868Z</time></trkpt><trkpt lat="42.51703013260743" lon="2.70607001346"><ele>392.0</ele><time>2026-04-10T10:00:32.868Z</time></trkpt><trkpt lat="42.516947866729005" lon="2.706078781410355"><ele>391.99999999999994</ele><time>2026-04-10T10:00:33.868Z</time></trkpt><trkpt lat="42.516862758643875" lon="2.7061168727228373"><ele>392.0</ele><time>2026-04-10T10:00:34.868Z</time></trkpt><trkpt lat="42.51678202420607" lon="2.706188737019499"><ele>389.66666666666663</ele><time>2026-04-10T10:00:35.869Z</time></trkpt><trkpt lat="42.51669837117835" lon="2.7062581125665384"><ele>387.3333333333333</ele><time>2026-04-10T10:00:36.869Z</time></trkpt><trkpt lat="42.5166267622663" lon="2.706340466009685"><ele>385.0</ele><time>2026-04-10T10:00:37.869Z</time></trkpt><trkpt lat="42.51656491796431" lon="2.706397951171076"><ele>382.66666666666663</ele><time>2026-04-10T10:00:38.869Z</time></trkpt><trkpt lat="42.51654259989252" lon="2.7063157367622845"><ele>380.3333333333333</ele><time>2026-04-10T10:00:42.869Z</time></trkpt><trkpt lat="42.51660503941861" lon="2.7062118251420175"><ele>378.0</ele><time>2026-04-10T10:00:44.869Z</time></trkpt><trkpt lat="42.5166386309744" lon="2.7061393726003975"><ele>375.8333333333333</ele><time>2026-04-10T10:00:45.869Z</time></trkpt><trkpt lat="42.51664105795156" lon="2.70603410610146"><ele>373.6666666666667</ele><time>2026-04-10T10:00:46.869Z</time></trkpt><trkpt lat="42.51666267281028" lon="2.7059218423144324"><ele>371.5</ele><time>2026-04-10T10:00:47.869Z</time></trkpt><trkpt lat="42.516682110960126" lon="2.7058062141894252"><ele>369.33333333333337</ele><time>2026-04-10T10:00:48.869Z</time></trkpt><trkpt lat="42.51672110748595" lon="2.7057011900304238"><ele>367.1666666666667</ele><time>2026-04-10T10:00:49.869Z</time></trkpt><trkpt lat="42.51676382766857" lon="2.7055885068673557"><ele>365.0</ele><time>2026-04-10T10:00:50.869Z</time></trkpt><trkpt lat="42.516766781724144" lon="2.705460159709967"><ele>365.0</ele><time>2026-04-10T10:00:51.869Z</time></trkpt><trkpt lat="42.516747695611976" lon="2.7053473932481698"><ele>365.0</ele><time>2026-04-10T10:00:52.869Z</time></trkpt><trkpt lat="42.51674397250992" lon="2.705231335274181"><ele>365.0</ele><time>2026-04-10T10:00:53.869Z</time></trkpt><trkpt lat="42.51675592867388" lon="2.7051166200207892"><ele>365.0</ele><time>2026-04-10T10:00:54.869Z</time></trkpt><trkpt lat="42.516780511282995" lon="2.7049722628387936"><ele>365.0</ele><time>2026-04-10T10:00:56.869Z</time></trkpt><trkpt lat="42.51672779939951" lon="2.7048861736435215"><ele>365.0</ele><time>2026-04-10T10:00:59.869Z</time></trkpt><trkpt lat="42.51662031199322" lon="2.704944803895784"><ele>363.1666666666667</ele><time>2026-04-10T10:01:01.869Z</time></trkpt><trkpt lat="42.51651708867403" lon="2.7050400404201587"><ele>361.33333333333337</ele><time>2026-04-10T10:01:03.869Z</time></trkpt><trkpt lat="42.51644401886338" lon="2.7050539903581914"><ele>359.5</ele><time>2026-04-10T10:01:04.869Z</time></trkpt><trkpt lat="42.516368853407336" lon="2.7050302571160003"><ele>357.6666666666667</ele><time>2026-04-10T10:01:05.869Z</time></trkpt><trkpt lat="42.51628584611774" lon="2.7050281266276532"><ele>355.8333333333333</ele><time>2026-04-10T10:01:06.869Z</time></trkpt><trkpt lat="42.51619828040609" lon="2.7050311410736567"><ele>354.0</ele><time>2026-04-10T10:01:07.869Z</time></trkpt><trkpt lat="42.51611022185978" lon="2.7050287075713833"><ele>352.5</ele><time>2026-04-10T10:01:08.869Z</time></trkpt><trkpt lat="42.51601869017125" lon="2.7050034560886456"><ele>351.0</ele><time>2026-04-10T10:01:09.869Z</time></trkpt><trkpt lat="42.515930259766584" lon="2.7050176622554645"><ele>349.5</ele><time>2026-04-10T10:01:10.869Z</time></trkpt><trkpt lat="42.51584757851711" lon="2.705052323412704"><ele>348.0</ele><time>2026-04-10T10:01:11.869Z</time></trkpt><trkpt lat="42.515768539882615" lon="2.7051044225143346"><ele>346.5</ele><time>2026-04-10T10:01:12.869Z</time></trkpt><trkpt lat="42.51569669228222" lon="2.705169810117237"><ele>345.0</ele><time>2026-04-10T10:01:13.869Z</time></trkpt><trkpt lat="42.51563198916168" lon="2.7052475592816934"><ele>345.0</ele><time>2026-04-10T10:01:14.869Z</time></trkpt><trkpt lat="42.51556697655012" lon="2.7053319066391057"><ele>345.0</ele><time>2026-04-10T10:01:15.869Z</time></trkpt><trkpt lat="42.51549664645348" lon="2.705405732212491"><ele>345.0</ele><time>2026-04-10T10:01:16.869Z</time></trkpt><trkpt lat="42.515420177623746" lon="2.705466388665815"><ele>345.0</ele><time>2026-04-10T10:01:17.869Z</time></trkpt><trkpt lat="42.51534775835712" lon="2.705524605864759"><ele>345.0</ele><time>2026-04-10T10:01:18.869Z</time></trkpt><trkpt lat="42.51527389464078" lon="2.7055838010482818"><ele>345.0</ele><time>2026-04-10T10:01:19.869Z</time></trkpt><trkpt lat="42.51520435002576" lon="2.7056377266148677"><ele>343.8333333333333</ele><time>2026-04-10T10:01:20.869Z</time></trkpt><trkpt lat="42.515136729424455" lon="2.7056805695195862"><ele>342.6666666666667</ele><time>2026-04-10T10:01:21.869Z</time></trkpt><trkpt lat="42.51508002744216" lon="2.70572832728067"><ele>341.5</ele><time>2026-04-10T10:01:22.869Z</time></trkpt><trkpt lat="42.515030005982105" lon="2.705785004402353"><ele>340.33333333333337</ele><time>2026-04-10T10:01:23.869Z</time></trkpt><trkpt lat="42.51497967281525" lon="2.7058392856240636"><ele>339.1666666666667</ele><time>2026-04-10T10:01:24.869Z</time></trkpt><trkpt lat="42.51491444888768" lon="2.705858732766145"><ele>338.0</ele><time>2026-04-10T10:01:25.869Z</time></trkpt><trkpt lat="42.514795454602165" lon="2.705886724674799"><ele>338.0</ele><time>2026-04-10T10:01:27.869Z</time></trkpt><trkpt lat="42.51473472648421" lon="2.7059409355874675"><ele>338.0</ele><time>2026-04-10T10:01:28.869Z</time></trkpt><trkpt lat="42.51465286055994" lon="2.706064520057222"><ele>338.0</ele><time>2026-04-10T10:01:30.869Z</time></trkpt><trkpt lat="42.51460067077031" lon="2.70612151333585"><ele>338.0</ele><time>2026-04-10T10:01:31.869Z</time></trkpt><trkpt lat="42.51455096698076" lon="2.706179119325416"><ele>338.0</ele><time>2026-04-10T10:01:32.869Z</time></trkpt><trkpt lat="42.514503784086074" lon="2.706246170845683"><ele>338.0</ele><time>2026-04-10T10:01:33.869Z</time></trkpt><trkpt lat="42.51447045061059" lon="2.7063257054346073"><ele>337.2</ele><time>2026-04-10T10:01:34.869Z</time></trkpt><trkpt lat="42.51442003967983" lon="2.706468360757717"><ele>336.4</ele><time>2026-04-10T10:01:36.869Z</time></trkpt><trkpt lat="42.514337856801006" lon="2.70658651458948"><ele>335.59999999999997</ele><time>2026-04-10T10:01:38.867Z</time></trkpt><trkpt lat="42.514276515448586" lon="2.706621669764096"><ele>334.79999999999995</ele><time>2026-04-10T10:01:39.867Z</time></trkpt><trkpt lat="42.5141858750296" lon="2.7066687434239265"><ele>334.0</ele><time>2026-04-10T10:01:40.867Z</time></trkpt><trkpt lat="42.51410897686778" lon="2.7066996527771607"><ele>334.0</ele><time>2026-04-10T10:01:41.868Z</time></trkpt><trkpt lat="42.51401997485081" lon="2.706755196644866"><ele>334.0</ele><time>2026-04-10T10:01:42.868Z</time></trkpt><trkpt lat="42.513937494476465" lon="2.706833941782173"><ele>334.0</ele><time>2026-04-10T10:01:43.868Z</time></trkpt><trkpt lat="42.51385781446097" lon="2.706890021864771"><ele>334.0</ele><time>2026-04-10T10:01:44.868Z</time></trkpt><trkpt lat="42.513771400472926" lon="2.7069245630423935"><ele>334.0</ele><time>2026-04-10T10:01:45.868Z</time></trkpt><trkpt lat="42.51367884368247" lon="2.706962678295462"><ele>331.2</ele><time>2026-04-10T10:01:46.868Z</time></trkpt><trkpt lat="42.51359656858398" lon="2.7070063312378774"><ele>328.4</ele><time>2026-04-10T10:01:47.867Z</time></trkpt><trkpt lat="42.513510213034586" lon="2.7071051875944026"><ele>325.6</ele><time>2026-04-10T10:01:48.868Z</time></trkpt><trkpt lat="42.51342958614512" lon="2.7071872975956772"><ele>322.8</ele><time>2026-04-10T10:01:49.868Z</time></trkpt><trkpt lat="42.51332820902368" lon="2.7072508905849584"><ele>320.0</ele><time>2026-04-10T10:01:50.867Z</time></trkpt><trkpt lat="42.51322533645203" lon="2.7072914009302185"><ele>320.0</ele><time>2026-04-10T10:01:51.868Z</time></trkpt><trkpt lat="42.513122588530216" lon="2.707329106368441"><ele>320.0</ele><time>2026-04-10T10:01:52.868Z</time></trkpt><trkpt lat="42.51301747497887" lon="2.7073919000032944"><ele>320.0</ele><time>2026-04-10T10:01:53.868Z</time></trkpt><trkpt lat="42.51290842778083" lon="2.707420412715111"><ele>320.0</ele><time>2026-04-10T10:01:54.868Z</time></trkpt><trkpt lat="42.51279898000358" lon="2.7074148676444607"><ele>320.0</ele><time>2026-04-10T10:01:55.868Z</time></trkpt><trkpt lat="42.512696536639524" lon="2.707405418731086"><ele>319.0</ele><time>2026-04-10T10:01:56.868Z</time></trkpt><trkpt lat="42.51259188520046" lon="2.707422559216129"><ele>318.0</ele><time>2026-04-10T10:01:57.868Z</time></trkpt><trkpt lat="42.51248369765581" lon="2.7074476603463586"><ele>317.0</ele><time>2026-04-10T10:01:58.868Z</time></trkpt><trkpt lat="42.512375715656326" lon="2.707475984074452"><ele>316.0</ele><time>2026-04-10T10:01:59.868Z</time></trkpt><trkpt lat="42.51227296224827" lon="2.707512462743328"><ele>315.0</ele><time>2026-04-10T10:02:00.868Z</time></trkpt><trkpt lat="42.51216619137178" lon="2.7075613504793252"><ele>313.25</ele><time>2026-04-10T10:02:01.868Z</time></trkpt><trkpt lat="42.512059121225995" lon="2.707601909526523"><ele>311.5</ele><time>2026-04-10T10:02:02.868Z</time></trkpt><trkpt lat="42.5119580243384" lon="2.707647972594209"><ele>309.75</ele><time>2026-04-10T10:02:03.868Z</time></trkpt><trkpt lat="42.51184434997883" lon="2.707712875766837"><ele>308.0</ele><time>2026-04-10T10:02:04.868Z</time></trkpt><trkpt lat="42.51174062459665" lon="2.707776090109315"><ele>308.0</ele><time>2026-04-10T10:02:05.868Z</time></trkpt><trkpt lat="42.511649339610166" lon="2.7078556513025713"><ele>308.0</ele><time>2026-04-10T10:02:06.868Z</time></trkpt><trkpt lat="42.511561003316395" lon="2.7079365137760103"><ele>308.0</ele><time>2026-04-10T10:02:07.868Z</time></trkpt><trkpt lat="42.51148450369096" lon="2.7080265418774556"><ele>308.0</ele><time>2026-04-10T10:02:08.868Z</time></trkpt><trkpt lat="42.511404121762716" lon="2.708128658694949"><ele>308.0</ele><time>2026-04-10T10:02:09.868Z</time></trkpt><trkpt lat="42.511339332784814" lon="2.7082300575036395"><ele>308.0</ele><time>2026-04-10T10:02:10.868Z</time></trkpt><trkpt lat="42.51128500312248" lon="2.7083228247944247"><ele>308.0</ele><time>2026-04-10T10:02:11.868Z</time></trkpt><trkpt lat="42.511228537423385" lon="2.708404525443372"><ele>308.0</ele><time>2026-04-10T10:02:12.868Z</time></trkpt><trkpt lat="42.51114966890738" lon="2.708476355899016"><ele>308.0</ele><time>2026-04-10T10:02:13.868Z</time></trkpt><trkpt lat="42.51108632562713" lon="2.708545437487584"><ele>308.0</ele><time>2026-04-10T10:02:14.868Z</time></trkpt><trkpt lat="42.51101018597691" lon="2.7086233174842462"><ele>308.0</ele><time>2026-04-10T10:02:15.868Z</time></trkpt><trkpt lat="42.51093798733104" lon="2.708697222996531"><ele>308.5</ele><time>2026-04-10T10:02:16.868Z</time></trkpt><trkpt lat="42.510888233109796" lon="2.7087577817107222"><ele>309.0</ele><time>2026-04-10T10:02:17.868Z</time></trkpt><trkpt lat="42.510840772041654" lon="2.7088147589876055"><ele>309.5</ele><time>2026-04-10T10:02:18.868Z</time></trkpt><trkpt lat="42.51077778248627" lon="2.7088755268834612"><ele>310.0</ele><time>2026-04-10T10:02:19.868Z</time></trkpt><trkpt lat="42.51070431467457" lon="2.7089227008197883"><ele>310.5</ele><time>2026-04-10T10:02:20.868Z</time></trkpt><trkpt lat="42.51063290904865" lon="2.708969084182251"><ele>311.0</ele><time>2026-04-10T10:02:21.868Z</time></trkpt><trkpt lat="42.51055643616024" lon="2.7090225713324285"><ele>311.0</ele><time>2026-04-10T10:02:22.868Z</time></trkpt><trkpt lat="42.51048124252737" lon="2.709081956473623"><ele>311.0</ele><time>2026-04-10T10:02:23.868Z</time></trkpt><trkpt lat="42.510399722694864" lon="2.709144255993152"><ele>311.0</ele><time>2026-04-10T10:02:24.868Z</time></trkpt><trkpt lat="42.51032774420266" lon="2.7092068866794095"><ele>311.0</ele><time>2026-04-10T10:02:25.869Z</time></trkpt><trkpt lat="42.51025820332961" lon="2.709265045385311"><ele>311.0</ele><time>2026-04-10T10:02:26.869Z</time></trkpt><trkpt lat="42.510186419237726" lon="2.7093274519464257"><ele>311.0</ele><time>2026-04-10T10:02:27.869Z</time></trkpt><trkpt lat="42.51010475586815" lon="2.7093820456258784"><ele>308.6</ele><time>2026-04-10T10:02:28.869Z</time></trkpt><trkpt lat="42.510018240400754" lon="2.7094416251234725"><ele>306.20000000000005</ele><time>2026-04-10T10:02:29.869Z</time></trkpt><trkpt lat="42.50992250866327" lon="2.7094780394962057"><ele>303.79999999999995</ele><time>2026-04-10T10:02:30.869Z</time></trkpt><trkpt lat="42.50982299218651" lon="2.709502059909696"><ele>301.4</ele><time>2026-04-10T10:02:31.869Z</time></trkpt><trkpt lat="42.509720922902844" lon="2.7095224502819537"><ele>299.0</ele><time>2026-04-10T10:02:32.869Z</time></trkpt><trkpt lat="42.509628093674934" lon="2.7095712212646363"><ele>297.4</ele><time>2026-04-10T10:02:33.869Z</time></trkpt><trkpt lat="42.509569095534296" lon="2.7096633060148343"><ele>295.79999999999995</ele><time>2026-04-10T10:02:34.869Z</time></trkpt><trkpt lat="42.5095108641197" lon="2.7097534891290627"><ele>294.20000000000005</ele><time>2026-04-10T10:02:35.869Z</time></trkpt><trkpt lat="42.50944346016788" lon="2.7098310795069884"><ele>292.6</ele><time>2026-04-10T10:02:36.869Z</time></trkpt><trkpt lat="42.509366554636486" lon="2.7098864362485435"><ele>291.0</ele><time>2026-04-10T10:02:37.869Z</time></trkpt><trkpt lat="42.509281303520716" lon="2.7099469183088223"><ele>291.0</ele><time>2026-04-10T10:02:38.869Z</time></trkpt><trkpt lat="42.50920385616262" lon="2.7099840195657543"><ele>291.0</ele><time>2026-04-10T10:02:39.869Z</time></trkpt><trkpt lat="42.50912183236086" lon="2.710041690305082"><ele>291.0</ele><time>2026-04-10T10:02:40.869Z</time></trkpt><trkpt lat="42.50905252702168" lon="2.710076435565013"><ele>291.0</ele><time>2026-04-10T10:02:41.869Z</time></trkpt><trkpt lat="42.50894858738764" lon="2.7100509863867996"><ele>291.0</ele><time>2026-04-10T10:02:43.869Z</time></trkpt><trkpt lat="42.50888850108134" lon="2.7100247592649844"><ele>291.0</ele><time>2026-04-10T10:02:44.869Z</time></trkpt><trkpt lat="42.508810230931694" lon="2.709991493620481"><ele>287.8</ele><time>2026-04-10T10:02:46.869Z</time></trkpt><trkpt lat="42.50870367261577" lon="2.7099863300073777"><ele>284.6</ele><time>2026-04-10T10:02:48.869Z</time></trkpt><trkpt lat="42.50866267666815" lon="2.7100886913735196"><ele>281.4</ele><time>2026-04-10T10:02:50.869Z</time></trkpt><trkpt lat="42.50862919377886" lon="2.710175411502264"><ele>278.2</ele><time>2026-04-10T10:02:52.869Z</time></trkpt><trkpt lat="42.50857889152521" lon="2.710239130051673"><ele>275.0</ele><time>2026-04-10T10:02:53.869Z</time></trkpt><trkpt lat="42.50864635189298" lon="2.7104169532734446"><ele>275.0</ele><time>2026-04-10T10:02:54.869Z</time></trkpt><trkpt lat="42.50860108469483" lon="2.7105098725100008"><ele>275.0</ele><time>2026-04-10T10:02:55.869Z</time></trkpt><trkpt lat="42.5085582945415" lon="2.7105924745579086"><ele>275.0</ele><time>2026-04-10T10:02:56.869Z</time></trkpt><trkpt lat="42.508526817231754" lon="2.710673053262641"><ele>275.0</ele><time>2026-04-10T10:02:57.869Z</time></trkpt><trkpt lat="42.5084881745781" lon="2.7107819143263123"><ele>275.0</ele><time>2026-04-10T10:02:58.869Z</time></trkpt><trkpt lat="42.50844977524667" lon="2.7109033482924647"><ele>275.0</ele><time>2026-04-10T10:02:59.869Z</time></trkpt><trkpt lat="42.508405544549554" lon="2.711008225174888"><ele>275.0</ele><time>2026-04-10T10:03:00.869Z</time></trkpt><trkpt lat="42.50835379253674" lon="2.7111112645015405"><ele>275.0</ele><time>2026-04-10T10:03:01.869Z</time></trkpt><trkpt lat="42.50827517895906" lon="2.7112422145555177"><ele>275.0</ele><time>2026-04-10T10:03:03.869Z</time></trkpt><trkpt lat="42.508336576856294" lon="2.7111794546392756"><ele>275.0</ele><time>2026-04-10T10:03:33.869Z</time></trkpt><trkpt lat="42.50841155448793" lon="2.71117186378455"><ele>275.0</ele><time>2026-04-10T10:03:34.869Z</time></trkpt><trkpt lat="42.50843213008902" lon="2.7110451818329526"><ele>275.0</ele><time>2026-04-10T10:03:35.869Z</time></trkpt><trkpt lat="42.508465984738585" lon="2.7109587078466726"><ele>275.0</ele><time>2026-04-10T10:03:36.869Z</time></trkpt><trkpt lat="42.50849581612387" lon="2.710878150768967"><ele>275.0</ele><time>2026-04-10T10:03:37.869Z</time></trkpt><trkpt lat="42.508527925727996" lon="2.7107833445774623"><ele>275.0</ele><time>2026-04-10T10:03:38.869Z</time></trkpt><trkpt lat="42.508556929296084" lon="2.7106829260277125"><ele>275.0</ele><time>2026-04-10T10:03:39.869Z</time></trkpt><trkpt lat="42.50860030298551" lon="2.7105909228511225"><ele>275.0</ele><time>2026-04-10T10:03:40.869Z</time></trkpt><trkpt lat="42.508665817651284" lon="2.7105220257250537"><ele>275.0</ele><time>2026-04-10T10:03:41.869Z</time></trkpt><trkpt lat="42.50873523349043" lon="2.710479062825408"><ele>275.0</ele><time>2026-04-10T10:03:42.869Z</time></trkpt><trkpt lat="42.50882629759928" lon="2.7105065731448916"><ele>275.0</ele><time>2026-04-10T10:03:43.869Z</time></trkpt><trkpt lat="42.50890378369445" lon="2.7105800071422266"><ele>275.0</ele><time>2026-04-10T10:03:44.868Z</time></trkpt><trkpt lat="42.5089830092846" lon="2.7106464012606537"><ele>275.0</ele><time>2026-04-10T10:03:45.868Z</time></trkpt><trkpt lat="42.509065102417026" lon="2.7106743170624856"><ele>275.0</ele><time>2026-04-10T10:03:46.868Z</time></trkpt><trkpt lat="42.50915382606468" lon="2.7106786332420336"><ele>275.0</ele><time>2026-04-10T10:03:47.867Z</time></trkpt><trkpt lat="42.509254360010246" lon="2.7106593891526654"><ele>275.0</ele><time>2026-04-10T10:03:48.868Z</time></trkpt><trkpt lat="42.5093441460344" lon="2.7106086535870206"><ele>275.0</ele><time>2026-04-10T10:03:49.868Z</time></trkpt><trkpt lat="42.509459508705845" lon="2.710605071920089"><ele>275.0</ele><time>2026-04-10T10:03:50.868Z</time></trkpt><trkpt lat="42.50956673773172" lon="2.710613486608764"><ele>275.0</ele><time>2026-04-10T10:03:51.867Z</time></trkpt><trkpt lat="42.50968071589363" lon="2.710640715692149"><ele>276.25</ele><time>2026-04-10T10:03:52.867Z</time></trkpt><trkpt lat="42.509804608810015" lon="2.710684234170395"><ele>277.5</ele><time>2026-04-10T10:03:53.867Z</time></trkpt><trkpt lat="42.5099282564543" lon="2.7107457343013364"><ele>278.75</ele><time>2026-04-10T10:03:54.868Z</time></trkpt><trkpt lat="42.510046749556935" lon="2.710800402025197"><ele>280.0</ele><time>2026-04-10T10:03:55.868Z</time></trkpt><trkpt lat="42.51016545218547" lon="2.710849757455266"><ele>280.0</ele><time>2026-04-10T10:03:56.868Z</time></trkpt><trkpt lat="42.51028461058983" lon="2.710881160315466"><ele>280.0</ele><time>2026-04-10T10:03:57.867Z</time></trkpt><trkpt lat="42.51039872180937" lon="2.710933957670207"><ele>280.0</ele><time>2026-04-10T10:03:58.867Z</time></trkpt><trkpt lat="42.51050904907913" lon="2.7109817167307493"><ele>280.0</ele><time>2026-04-10T10:03:59.867Z</time></trkpt><trkpt lat="42.51060169146913" lon="2.7110479652853834"><ele>281.6</ele><time>2026-04-10T10:04:00.867Z</time></trkpt><trkpt lat="42.510687273876705" lon="2.7111203295525814"><ele>283.2</ele><time>2026-04-10T10:04:01.867Z</time></trkpt><trkpt lat="42.5107779549047" lon="2.711139603171912"><ele>284.8</ele><time>2026-04-10T10:04:02.867Z</time></trkpt><trkpt lat="42.51085690201894" lon="2.7111460080292393"><ele>286.4</ele><time>2026-04-10T10:04:03.867Z</time></trkpt><trkpt lat="42.510936233921925" lon="2.7110930808631313"><ele>288.0</ele><time>2026-04-10T10:04:04.867Z</time></trkpt><trkpt lat="42.51101555060278" lon="2.710989227124105"><ele>288.0</ele><time>2026-04-10T10:04:05.867Z</time></trkpt><trkpt lat="42.51108869490375" lon="2.71090379704318"><ele>288.0</ele><time>2026-04-10T10:04:06.867Z</time></trkpt><trkpt lat="42.51117250201327" lon="2.710841969700979"><ele>288.0</ele><time>2026-04-10T10:04:07.867Z</time></trkpt><trkpt lat="42.511248939052244" lon="2.7107658114681676"><ele>288.0</ele><time>2026-04-10T10:04:08.867Z</time></trkpt><trkpt lat="42.51133502253318" lon="2.710689131589583"><ele>288.0</ele><time>2026-04-10T10:04:09.867Z</time></trkpt><trkpt lat="42.51140244378185" lon="2.710578225500452"><ele>287.75</ele><time>2026-04-10T10:04:10.867Z</time></trkpt><trkpt lat="42.511465889830255" lon="2.7104599905661035"><ele>287.5</ele><time>2026-04-10T10:04:11.867Z</time></trkpt><trkpt lat="42.51149772981695" lon="2.7103001716135844"><ele>287.25</ele><time>2026-04-10T10:04:12.867Z</time></trkpt><trkpt lat="42.51152159687153" lon="2.7101242665407295"><ele>287.0</ele><time>2026-04-10T10:04:13.867Z</time></trkpt><trkpt lat="42.51157550154763" lon="2.7099597234855985"><ele>287.0</ele><time>2026-04-10T10:04:14.867Z</time></trkpt><trkpt lat="42.511621426642485" lon="2.709790586182298"><ele>287.0</ele><time>2026-04-10T10:04:15.867Z</time></trkpt><trkpt lat="42.51167143492419" lon="2.709622067487542"><ele>287.0</ele><time>2026-04-10T10:04:16.867Z</time></trkpt><trkpt lat="42.51173175937834" lon="2.709465235143375"><ele>287.0</ele><time>2026-04-10T10:04:17.867Z</time></trkpt><trkpt lat="42.5118098279848" lon="2.709330329016193"><ele>288.8</ele><time>2026-04-10T10:04:18.867Z</time></trkpt><trkpt lat="42.51186116013052" lon="2.7091915493046637"><ele>290.6</ele><time>2026-04-10T10:04:19.867Z</time></trkpt><trkpt lat="42.51184859068522" lon="2.709021732335243"><ele>292.40000000000003</ele><time>2026-04-10T10:04:20.867Z</time></trkpt><trkpt lat="42.51186603568278" lon="2.7088923973221117"><ele>294.2</ele><time>2026-04-10T10:04:21.867Z</time></trkpt><trkpt lat="42.51191299929796" lon="2.708791078946057"><ele>296.0</ele><time>2026-04-10T10:04:22.867Z</time></trkpt><trkpt lat="42.5119993213751" lon="2.708739301891533"><ele>296.8</ele><time>2026-04-10T10:04:23.867Z</time></trkpt><trkpt lat="42.51209531407832" lon="2.7087127895644385"><ele>297.6</ele><time>2026-04-10T10:04:24.867Z</time></trkpt><trkpt lat="42.51221043026304" lon="2.708752467842364"><ele>298.4</ele><time>2026-04-10T10:04:25.867Z</time></trkpt><trkpt lat="42.512310232739395" lon="2.70873227553953"><ele>299.2</ele><time>2026-04-10T10:04:26.867Z</time></trkpt><trkpt lat="42.51240483454761" lon="2.708660910583531"><ele>300.0</ele><time>2026-04-10T10:04:27.867Z</time></trkpt><trkpt lat="42.51247755043908" lon="2.7085350254573206"><ele>300.0</ele><time>2026-04-10T10:04:28.867Z</time></trkpt><trkpt lat="42.51256253425647" lon="2.708426564795885"><ele>300.0</ele><time>2026-04-10T10:04:29.867Z</time></trkpt><trkpt lat="42.51265295308471" lon="2.708325201021212"><ele>300.0</ele><time>2026-04-10T10:04:30.867Z</time></trkpt><trkpt lat="42.512752043430105" lon="2.708253468586672"><ele>300.0</ele><time>2026-04-10T10:04:31.867Z</time></trkpt><trkpt lat="42.51286943412144" lon="2.7081941139054035"><ele>299.25</ele><time>2026-04-10T10:04:32.867Z</time></trkpt><trkpt lat="42.51298700604393" lon="2.708162331256599"><ele>298.5</ele><time>2026-04-10T10:04:33.867Z</time></trkpt><trkpt lat="42.51311459408166" lon="2.708164113594499"><ele>297.75</ele><time>2026-04-10T10:04:34.867Z</time></trkpt><trkpt lat="42.51325889309827" lon="2.708196535350022"><ele>297.0</ele><time>2026-04-10T10:04:35.867Z</time></trkpt><trkpt lat="42.51340918453431" lon="2.708179491301225"><ele>297.0</ele><time>2026-04-10T10:04:36.867Z</time></trkpt><trkpt lat="42.51356430918451" lon="2.7081765672105056"><ele>297.0</ele><time>2026-04-10T10:04:37.867Z</time></trkpt><trkpt lat="42.51372452918688" lon="2.7081343911302223"><ele>297.0</ele><time>2026-04-10T10:04:38.867Z</time></trkpt><trkpt lat="42.51389053210558" lon="2.7081214658112387"><ele>297.8</ele><time>2026-04-10T10:04:39.867Z</time></trkpt><trkpt lat="42.514018638083435" lon="2.7081211523893645"><ele>298.6</ele><time>2026-04-10T10:04:40.868Z</time></trkpt><trkpt lat="42.51410443867453" lon="2.708159689998199"><ele>299.40000000000003</ele><time>2026-04-10T10:04:41.868Z</time></trkpt><trkpt lat="42.51417155289897" lon="2.7082053052794666"><ele>300.2</ele><time>2026-04-10T10:04:43.868Z</time></trkpt><trkpt lat="42.51417008300853" lon="2.7083393374625424"><ele>301.0</ele><time>2026-04-10T10:04:44.868Z</time></trkpt><trkpt lat="42.51412870620057" lon="2.708434657648043"><ele>301.0</ele><time>2026-04-10T10:04:45.868Z</time></trkpt><trkpt lat="42.51406269575518" lon="2.708491289613014"><ele>301.0</ele><time>2026-04-10T10:04:46.868Z</time></trkpt><trkpt lat="42.51396053000604" lon="2.7084331026051287"><ele>301.0</ele><time>2026-04-10T10:04:47.868Z</time></trkpt><trkpt lat="42.513870335701995" lon="2.708455717310903"><ele>301.0</ele><time>2026-04-10T10:04:48.868Z</time></trkpt><trkpt lat="42.51377735974749" lon="2.708461868109166"><ele>301.0</ele><time>2026-04-10T10:04:49.868Z</time></trkpt><trkpt lat="42.513678364021125" lon="2.7084782528414797"><ele>300.0</ele><time>2026-04-10T10:04:50.868Z</time></trkpt><trkpt lat="42.51357829991743" lon="2.708545715864263"><ele>299.0</ele><time>2026-04-10T10:04:51.868Z</time></trkpt><trkpt lat="42.513468840252976" lon="2.7086338458055477"><ele>298.0</ele><time>2026-04-10T10:04:52.868Z</time></trkpt><trkpt lat="42.51335207526244" lon="2.7086330257698163"><ele>297.0</ele><time>2026-04-10T10:04:53.868Z</time></trkpt><trkpt lat="42.513237287697" lon="2.708669455606686"><ele>299.5</ele><time>2026-04-10T10:04:54.868Z</time></trkpt><trkpt lat="42.5131474014577" lon="2.7087502030992123"><ele>302.0</ele><time>2026-04-10T10:04:55.868Z</time></trkpt><trkpt lat="42.51304934202443" lon="2.708840177913827"><ele>304.5</ele><time>2026-04-10T10:04:56.868Z</time></trkpt><trkpt lat="42.51295919363186" lon="2.708945639067058"><ele>307.0</ele><time>2026-04-10T10:04:57.868Z</time></trkpt><trkpt lat="42.51287944834701" lon="2.709063472462244"><ele>303.75</ele><time>2026-04-10T10:04:58.868Z</time></trkpt><trkpt lat="42.51281215221718" lon="2.709200155042084"><ele>300.5</ele><time>2026-04-10T10:04:59.868Z</time></trkpt><trkpt lat="42.51277454139824" lon="2.709361580270081"><ele>297.25</ele><time>2026-04-10T10:05:00.868Z</time></trkpt><trkpt lat="42.51274729542698" lon="2.7095421970244864"><ele>294.0</ele><time>2026-04-10T10:05:01.868Z</time></trkpt><trkpt lat="42.51271746942527" lon="2.70971901540768"><ele>294.0</ele><time>2026-04-10T10:05:02.868Z</time></trkpt><trkpt lat="42.512652518214225" lon="2.7098764423474826"><ele>294.0</ele><time>2026-04-10T10:05:03.868Z</time></trkpt><trkpt lat="42.51258114144101" lon="2.710026767597425"><ele>294.0</ele><time>2026-04-10T10:05:04.868Z</time></trkpt><trkpt lat="42.51252076842819" lon="2.7102143186757854"><ele>294.0</ele><time>2026-04-10T10:05:05.868Z</time></trkpt><trkpt lat="42.51244852599923" lon="2.710385357880901"><ele>297.3333333333333</ele><time>2026-04-10T10:05:06.868Z</time></trkpt><trkpt lat="42.512403036233934" lon="2.7105855538773262"><ele>300.66666666666663</ele><time>2026-04-10T10:05:07.868Z</time></trkpt><trkpt lat="42.512383422212075" lon="2.7107993668355093"><ele>304.0</ele><time>2026-04-10T10:05:08.868Z</time></trkpt><trkpt lat="42.51233783961645" lon="2.7109859072401448"><ele>307.3333333333333</ele><time>2026-04-10T10:05:09.868Z</time></trkpt><trkpt lat="42.51226152008509" lon="2.7111899716295227"><ele>310.6666666666667</ele><time>2026-04-10T10:05:10.868Z</time></trkpt><trkpt lat="42.51220210237402" lon="2.711412949254114"><ele>314.0</ele><time>2026-04-10T10:05:11.868Z</time></trkpt><trkpt lat="42.512162261867665" lon="2.7116268425811363"><ele>314.0</ele><time>2026-04-10T10:05:12.868Z</time></trkpt><trkpt lat="42.51209474208137" lon="2.7118033226875613"><ele>314.0</ele><time>2026-04-10T10:05:13.868Z</time></trkpt><trkpt lat="42.51204972986332" lon="2.7119614314697005"><ele>314.0</ele><time>2026-04-10T10:05:14.868Z</time></trkpt><trkpt lat="42.51203665504199" lon="2.7120878153969046"><ele>314.0</ele><time>2026-04-10T10:05:15.868Z</time></trkpt><trkpt lat="42.51204870036274" lon="2.712182679286901"><ele>314.0</ele><time>2026-04-10T10:05:16.868Z</time></trkpt><trkpt lat="42.51210768528666" lon="2.7122615513026633"><ele>313.0</ele><time>2026-04-10T10:05:17.868Z</time></trkpt><trkpt lat="42.51219779781806" lon="2.712300456689105"><ele>312.0</ele><time>2026-04-10T10:05:18.868Z</time></trkpt><trkpt lat="42.512303756971" lon="2.712315264925432"><ele>311.0</ele><time>2026-04-10T10:05:19.868Z</time></trkpt><trkpt lat="42.51241278317703" lon="2.712350835966995"><ele>310.0</ele><time>2026-04-10T10:05:20.868Z</time></trkpt><trkpt lat="42.51252018672632" lon="2.712405703873403"><ele>309.0</ele><time>2026-04-10T10:05:21.868Z</time></trkpt><trkpt lat="42.512634447077915" lon="2.7124346720397137"><ele>309.0</ele><time>2026-04-10T10:05:22.868Z</time></trkpt><trkpt lat="42.51273809805708" lon="2.7124515480873623"><ele>309.0</ele><time>2026-04-10T10:05:23.868Z</time></trkpt><trkpt lat="42.51281375782672" lon="2.7124924161019917"><ele>309.0</ele><time>2026-04-10T10:05:24.868Z</time></trkpt><trkpt lat="42.51287611498122" lon="2.712572665440524"><ele>309.0</ele><time>2026-04-10T10:05:25.868Z</time></trkpt><trkpt lat="42.51286122299354" lon="2.7127060603433018"><ele>309.0</ele><time>2026-04-10T10:05:26.868Z</time></trkpt><trkpt lat="42.51289031845818" lon="2.7128377882939896"><ele>313.4</ele><time>2026-04-10T10:05:27.868Z</time></trkpt><trkpt lat="42.51290866018743" lon="2.7129424807996836"><ele>317.79999999999995</ele><time>2026-04-10T10:05:28.868Z</time></trkpt><trkpt lat="42.51299193215415" lon="2.71301057510098"><ele>322.20000000000005</ele><time>2026-04-10T10:05:29.868Z</time></trkpt><trkpt lat="42.51310398810521" lon="2.713010499564331"><ele>326.6</ele><time>2026-04-10T10:05:30.868Z</time></trkpt><trkpt lat="42.51320027177147" lon="2.7130635700882926"><ele>331.0</ele><time>2026-04-10T10:05:31.868Z</time></trkpt><trkpt lat="42.5132705479068" lon="2.7131198660608606"><ele>331.0</ele><time>2026-04-10T10:05:32.868Z</time></trkpt><trkpt lat="42.51327819447456" lon="2.713218647685223"><ele>331.0</ele><time>2026-04-10T10:05:33.868Z</time></trkpt><trkpt lat="42.513230734207745" lon="2.713311348022361"><ele>331.0</ele><time>2026-04-10T10:05:34.868Z</time></trkpt><trkpt lat="42.513145315174846" lon="2.7133674661164675"><ele>331.0</ele><time>2026-04-10T10:05:35.868Z</time></trkpt><trkpt lat="42.51302747527984" lon="2.713374840506601"><ele>331.0</ele><time>2026-04-10T10:05:36.868Z</time></trkpt><trkpt lat="42.5129395566192" lon="2.713462423314464"><ele>328.8</ele><time>2026-04-10T10:05:37.868Z</time></trkpt><trkpt lat="42.51286607630986" lon="2.713581910831155"><ele>326.6</ele><time>2026-04-10T10:05:38.868Z</time></trkpt><trkpt lat="42.51278799628584" lon="2.7136936502975586"><ele>324.4</ele><time>2026-04-10T10:05:39.868Z</time></trkpt><trkpt lat="42.51269757706108" lon="2.713771247817146"><ele>322.2</ele><time>2026-04-10T10:05:40.868Z</time></trkpt><trkpt lat="42.51260464579799" lon="2.7138341311321503"><ele>320.0</ele><time>2026-04-10T10:05:41.868Z</time></trkpt><trkpt lat="42.51252268675369" lon="2.713909936536622"><ele>320.0</ele><time>2026-04-10T10:05:42.868Z</time></trkpt><trkpt lat="42.512462726749774" lon="2.714002220920219"><ele>320.0</ele><time>2026-04-10T10:05:43.868Z</time></trkpt><trkpt lat="42.51242421722077" lon="2.7140940225207655"><ele>320.0</ele><time>2026-04-10T10:05:44.868Z</time></trkpt><trkpt lat="42.51243520482486" lon="2.7142205370928956"><ele>320.0</ele><time>2026-04-10T10:05:45.868Z</time></trkpt><trkpt lat="42.51248031000033" lon="2.7143515169950096"><ele>320.0</ele><time>2026-04-10T10:05:46.868Z</time></trkpt><trkpt lat="42.512538070280634" lon="2.7144890146585055"><ele>321.0</ele><time>2026-04-10T10:05:47.868Z</time></trkpt><trkpt lat="42.512585704476955" lon="2.7146384578475713"><ele>322.0</ele><time>2026-04-10T10:05:48.868Z</time></trkpt><trkpt lat="42.5126122763674" lon="2.7148078280333507"><ele>323.0</ele><time>2026-04-10T10:05:49.868Z</time></trkpt><trkpt lat="42.51265950981974" lon="2.7149754850875722"><ele>324.0</ele><time>2026-04-10T10:05:50.866Z</time></trkpt><trkpt lat="42.512694297998" lon="2.7151548944020005"><ele>325.2</ele><time>2026-04-10T10:05:51.866Z</time></trkpt><trkpt lat="42.51273380672048" lon="2.7153204536930913"><ele>326.4</ele><time>2026-04-10T10:05:52.866Z</time></trkpt><trkpt lat="42.51277848227259" lon="2.715457452504807"><ele>327.6</ele><time>2026-04-10T10:05:53.866Z</time></trkpt><trkpt lat="42.51281332522587" lon="2.7155694360969274"><ele>328.8</ele><time>2026-04-10T10:05:54.866Z</time></trkpt><trkpt lat="42.51283824524317" lon="2.715663209656286"><ele>330.0</ele><time>2026-04-10T10:05:55.866Z</time></trkpt><trkpt lat="42.512830097540515" lon="2.7157607797210956"><ele>330.0</ele><time>2026-04-10T10:05:56.866Z</time></trkpt><trkpt lat="42.51277741871367" lon="2.715846855514647"><ele>330.0</ele><time>2026-04-10T10:05:57.866Z</time></trkpt><trkpt lat="42.51268305259719" lon="2.7158274167412664"><ele>330.0</ele><time>2026-04-10T10:05:58.866Z</time></trkpt><trkpt lat="42.51261404288763" lon="2.71583574466993"><ele>330.0</ele><time>2026-04-10T10:05:59.865Z</time></trkpt><trkpt lat="42.51253612753405" lon="2.715879641034384"><ele>330.0</ele><time>2026-04-10T10:06:00.866Z</time></trkpt><trkpt lat="42.51246913033146" lon="2.7158120789390177"><ele>330.0</ele><time>2026-04-10T10:06:01.866Z</time></trkpt><trkpt lat="42.51238130664456" lon="2.7158055899409077"><ele>330.0</ele><time>2026-04-10T10:06:02.865Z</time></trkpt><trkpt lat="42.512306484689375" lon="2.7158683075255454"><ele>330.0</ele><time>2026-04-10T10:06:03.866Z</time></trkpt><trkpt lat="42.51222454494779" lon="2.7158995078233685"><ele>330.0</ele><time>2026-04-10T10:06:05.866Z</time></trkpt><trkpt lat="42.51212559003443" lon="2.7157779522756127"><ele>330.0</ele><time>2026-04-10T10:06:07.866Z</time></trkpt><trkpt lat="42.51200795495156" lon="2.715726750153518"><ele>330.0</ele><time>2026-04-10T10:06:09.866Z</time></trkpt><trkpt lat="42.51189784673003" lon="2.7156946695580375"><ele>328.6</ele><time>2026-04-10T10:06:11.866Z</time></trkpt><trkpt lat="42.51179891719317" lon="2.715824895428913"><ele>327.2</ele><time>2026-04-10T10:06:13.866Z</time></trkpt><trkpt lat="42.51177937095383" lon="2.7159160055147833"><ele>325.79999999999995</ele><time>2026-04-10T10:06:14.866Z</time></trkpt><trkpt lat="42.511753110420514" lon="2.7159978369102715"><ele>324.4</ele><time>2026-04-10T10:06:15.866Z</time></trkpt><trkpt lat="42.51179182873819" lon="2.7162009191665266"><ele>323.0</ele><time>2026-04-10T10:06:17.866Z</time></trkpt><trkpt lat="42.51180057548873" lon="2.716305250066127"><ele>321.33333333333337</ele><time>2026-04-10T10:06:18.866Z</time></trkpt><trkpt lat="42.511849966839414" lon="2.7164099121400684"><ele>319.6666666666667</ele><time>2026-04-10T10:06:19.866Z</time></trkpt><trkpt lat="42.51187379382908" lon="2.7165169064155648"><ele>318.0</ele><time>2026-04-10T10:06:20.866Z</time></trkpt><trkpt lat="42.511902406572325" lon="2.716627957771926"><ele>316.3333333333333</ele><time>2026-04-10T10:06:21.866Z</time></trkpt><trkpt lat="42.51193482056194" lon="2.7167383946831074"><ele>314.66666666666663</ele><time>2026-04-10T10:06:22.866Z</time></trkpt><trkpt lat="42.511969107609175" lon="2.716852188241311"><ele>313.0</ele><time>2026-04-10T10:06:23.866Z</time></trkpt><trkpt lat="42.51198169705623" lon="2.716960573695689"><ele>313.0</ele><time>2026-04-10T10:06:24.866Z</time></trkpt><trkpt lat="42.51199345594103" lon="2.717052202577826"><ele>313.0</ele><time>2026-04-10T10:06:25.866Z</time></trkpt><trkpt lat="42.51192004404347" lon="2.7171616831598335"><ele>313.0</ele><time>2026-04-10T10:06:27.866Z</time></trkpt><trkpt lat="42.511844251622556" lon="2.7171812599719405"><ele>313.0</ele><time>2026-04-10T10:06:28.866Z</time></trkpt><trkpt lat="42.51176002855034" lon="2.717246528764581"><ele>313.0</ele><time>2026-04-10T10:06:29.866Z</time></trkpt><trkpt lat="42.51166983357186" lon="2.717328150873105"><ele>313.0</ele><time>2026-04-10T10:06:30.866Z</time></trkpt><trkpt lat="42.51157238452876" lon="2.7174077020041785"><ele>313.0</ele><time>2026-04-10T10:06:31.866Z</time></trkpt><trkpt lat="42.511470569412616" lon="2.717485595889317"><ele>313.0</ele><time>2026-04-10T10:06:32.866Z</time></trkpt><trkpt lat="42.511372757558625" lon="2.7175592357248304"><ele>313.0</ele><time>2026-04-10T10:06:33.866Z</time></trkpt><trkpt lat="42.51129882927678" lon="2.717651828563068"><ele>313.0</ele><time>2026-04-10T10:06:34.866Z</time></trkpt><trkpt lat="42.5112247633903" lon="2.717748169194952"><ele>310.8</ele><time>2026-04-10T10:06:35.866Z</time></trkpt><trkpt lat="42.511173685604945" lon="2.7178733828045774"><ele>308.6</ele><time>2026-04-10T10:06:36.866Z</time></trkpt><trkpt lat="42.51110280049314" lon="2.7179432362924016"><ele>306.4</ele><time>2026-04-10T10:06:37.866Z</time></trkpt><trkpt lat="42.51105130137979" lon="2.718001788973901"><ele>304.2</ele><time>2026-04-10T10:06:38.866Z</time></trkpt><trkpt lat="42.510930755626006" lon="2.7179448191821134"><ele>302.0</ele><time>2026-04-10T10:06:40.866Z</time></trkpt><trkpt lat="42.51083736320605" lon="2.717965182756217"><ele>302.0</ele><time>2026-04-10T10:06:41.866Z</time></trkpt><trkpt lat="42.5107149102207" lon="2.717964708351605"><ele>302.0</ele><time>2026-04-10T10:06:42.866Z</time></trkpt><trkpt lat="42.51060489256589" lon="2.717989950835452"><ele>302.0</ele><time>2026-04-10T10:06:43.866Z</time></trkpt><trkpt lat="42.51048851695099" lon="2.718020490758271"><ele>302.0</ele><time>2026-04-10T10:06:44.866Z</time></trkpt><trkpt lat="42.51037623303652" lon="2.718065502741925"><ele>299.4</ele><time>2026-04-10T10:06:45.866Z</time></trkpt><trkpt lat="42.510271555882056" lon="2.7181485118336934"><ele>296.79999999999995</ele><time>2026-04-10T10:06:46.866Z</time></trkpt><trkpt lat="42.510193401519615" lon="2.718238583613976"><ele>294.2</ele><time>2026-04-10T10:06:47.866Z</time></trkpt><trkpt lat="42.5101309868591" lon="2.718350281516337"><ele>291.59999999999997</ele><time>2026-04-10T10:06:48.866Z</time></trkpt><trkpt lat="42.51008126508839" lon="2.7184765204373096"><ele>289.0</ele><time>2026-04-10T10:06:49.866Z</time></trkpt><trkpt lat="42.51007681583415" lon="2.718608253829261"><ele>289.0</ele><time>2026-04-10T10:06:50.866Z</time></trkpt><trkpt lat="42.51006374003815" lon="2.7187065316761045"><ele>289.0</ele><time>2026-04-10T10:06:51.866Z</time></trkpt><trkpt lat="42.51006486536806" lon="2.7188241708147225"><ele>289.0</ele><time>2026-04-10T10:06:52.866Z</time></trkpt><trkpt lat="42.510039537230895" lon="2.7189335534797334"><ele>289.0</ele><time>2026-04-10T10:06:54.866Z</time></trkpt><trkpt lat="42.509968683888346" lon="2.718919618398679"><ele>289.0</ele><time>2026-04-10T10:06:55.866Z</time></trkpt><trkpt lat="42.509863786568374" lon="2.7189361651135022"><ele>289.0</ele><time>2026-04-10T10:06:56.866Z</time></trkpt><trkpt lat="42.50974858193027" lon="2.7189620355617508"><ele>289.0</ele><time>2026-04-10T10:06:57.866Z</time></trkpt><trkpt lat="42.509643496865785" lon="2.7190003793952404"><ele>289.0</ele><time>2026-04-10T10:06:58.866Z</time></trkpt><trkpt lat="42.509542219572154" lon="2.719055732887488"><ele>289.0</ele><time>2026-04-10T10:06:59.866Z</time></trkpt><trkpt lat="42.509449932299425" lon="2.7191438502125274"><ele>289.0</ele><time>2026-04-10T10:07:00.866Z</time></trkpt><trkpt lat="42.509371298676946" lon="2.719273905006949"><ele>284.2</ele><time>2026-04-10T10:07:01.866Z</time></trkpt><trkpt lat="42.509304724947945" lon="2.719393316535671"><ele>279.4</ele><time>2026-04-10T10:07:02.866Z</time></trkpt><trkpt lat="42.509259666534476" lon="2.7195115946522384"><ele>274.6</ele><time>2026-04-10T10:07:03.866Z</time></trkpt><trkpt lat="42.50925857964994" lon="2.719632854805496"><ele>269.8</ele><time>2026-04-10T10:07:04.866Z</time></trkpt><trkpt lat="42.509290677616555" lon="2.7197644715145466"><ele>265.0</ele><time>2026-04-10T10:07:05.866Z</time></trkpt><trkpt lat="42.509307241711724" lon="2.719886418627165"><ele>265.0</ele><time>2026-04-10T10:07:06.866Z</time></trkpt><trkpt lat="42.50925435527008" lon="2.7199984541380586"><ele>265.0</ele><time>2026-04-10T10:07:07.866Z</time></trkpt><trkpt lat="42.509185018997535" lon="2.7201050248343748"><ele>265.0</ele><time>2026-04-10T10:07:08.866Z</time></trkpt><trkpt lat="42.509112852511954" lon="2.720231832398441"><ele>265.0</ele><time>2026-04-10T10:07:09.866Z</time></trkpt><trkpt lat="42.50904397560049" lon="2.7203362062341574"><ele>265.0</ele><time>2026-04-10T10:07:10.866Z</time></trkpt><trkpt lat="42.508959022399154" lon="2.720453564782265"><ele>268.25</ele><time>2026-04-10T10:07:11.866Z</time></trkpt><trkpt lat="42.508876427564445" lon="2.720580935471776"><ele>271.5</ele><time>2026-04-10T10:07:12.866Z</time></trkpt><trkpt lat="42.508785122407524" lon="2.720678264115228"><ele>274.75</ele><time>2026-04-10T10:07:13.866Z</time></trkpt><trkpt lat="42.50869315295972" lon="2.7207738097824676"><ele>278.0</ele><time>2026-04-10T10:07:14.866Z</time></trkpt><trkpt lat="42.50859314110467" lon="2.720843578744647"><ele>272.6</ele><time>2026-04-10T10:07:15.866Z</time></trkpt><trkpt lat="42.508524367076824" lon="2.7209240913478703"><ele>267.20000000000005</ele><time>2026-04-10T10:07:16.866Z</time></trkpt><trkpt lat="42.50848347099058" lon="2.721059664702011"><ele>261.8</ele><time>2026-04-10T10:07:17.866Z</time></trkpt><trkpt lat="42.50843386803005" lon="2.72119227602207"><ele>256.40000000000003</ele><time>2026-04-10T10:07:18.866Z</time></trkpt><trkpt lat="42.50837986525866" lon="2.7213222731458324"><ele>251.0</ele><time>2026-04-10T10:07:19.866Z</time></trkpt><trkpt lat="42.508310777176426" lon="2.7214582629827757"><ele>251.0</ele><time>2026-04-10T10:07:20.867Z</time></trkpt><trkpt lat="42.50824232387955" lon="2.7216273072962656"><ele>251.0</ele><time>2026-04-10T10:07:21.867Z</time></trkpt><trkpt lat="42.508164846995065" lon="2.721767535374559"><ele>251.0</ele><time>2026-04-10T10:07:22.867Z</time></trkpt><trkpt lat="42.50809634065268" lon="2.7219087914365105"><ele>251.0</ele><time>2026-04-10T10:07:23.867Z</time></trkpt><trkpt lat="42.5080215320094" lon="2.7220582576673302"><ele>252.5</ele><time>2026-04-10T10:07:24.867Z</time></trkpt><trkpt lat="42.50794768546408" lon="2.7222001527978863"><ele>254.0</ele><time>2026-04-10T10:07:25.867Z</time></trkpt><trkpt lat="42.50787837126995" lon="2.7223448569159054"><ele>255.5</ele><time>2026-04-10T10:07:26.867Z</time></trkpt><trkpt lat="42.50780247526109" lon="2.7224846443209727"><ele>257.0</ele><time>2026-04-10T10:07:27.867Z</time></trkpt><trkpt lat="42.50772791910298" lon="2.7226053544300304"><ele>250.2</ele><time>2026-04-10T10:07:28.867Z</time></trkpt><trkpt lat="42.50768414898871" lon="2.722706750912407"><ele>243.39999999999998</ele><time>2026-04-10T10:07:29.867Z</time></trkpt><trkpt lat="42.507647743740755" lon="2.722828905767118"><ele>236.60000000000002</ele><time>2026-04-10T10:07:30.867Z</time></trkpt><trkpt lat="42.50760706602258" lon="2.722976546992914"><ele>229.8</ele><time>2026-04-10T10:07:31.867Z</time></trkpt><trkpt lat="42.5075978387872" lon="2.7231237268265622"><ele>223.0</ele><time>2026-04-10T10:07:32.867Z</time></trkpt><trkpt lat="42.507598565906434" lon="2.7232356969632496"><ele>222.4</ele><time>2026-04-10T10:07:33.867Z</time></trkpt><trkpt lat="42.507609525155374" lon="2.723334036426511"><ele>221.8</ele><time>2026-04-10T10:07:34.867Z</time></trkpt><trkpt lat="42.50765855534551" lon="2.723454581974917"><ele>221.2</ele><time>2026-04-10T10:07:36.867Z</time></trkpt><trkpt lat="42.50774253052059" lon="2.7234667032451028"><ele>220.6</ele><time>2026-04-10T10:07:37.867Z</time></trkpt><trkpt lat="42.507840559051395" lon="2.7234889702005054"><ele>220.0</ele><time>2026-04-10T10:07:38.867Z</time></trkpt><trkpt lat="42.50796464192312" lon="2.723499960165221"><ele>224.0</ele><time>2026-04-10T10:07:39.867Z</time></trkpt><trkpt lat="42.5080784221717" lon="2.723510104254287"><ele>228.0</ele><time>2026-04-10T10:07:40.867Z</time></trkpt><trkpt lat="42.50818638983568" lon="2.7235338538692178"><ele>232.0</ele><time>2026-04-10T10:07:41.867Z</time></trkpt><trkpt lat="42.508274306410364" lon="2.7235823302555646"><ele>236.0</ele><time>2026-04-10T10:07:42.867Z</time></trkpt><trkpt lat="42.50835642264604" lon="2.7236136486838918"><ele>240.0</ele><time>2026-04-10T10:07:43.867Z</time></trkpt><trkpt lat="42.508408551057364" lon="2.7236645148617105"><ele>240.0</ele><time>2026-04-10T10:07:45.867Z</time></trkpt><trkpt lat="42.50838668506225" lon="2.7237721744280528"><ele>240.0</ele><time>2026-04-10T10:07:47.867Z</time></trkpt><trkpt lat="42.50829544807187" lon="2.7238066844822324"><ele>240.0</ele><time>2026-04-10T10:07:48.867Z</time></trkpt><trkpt lat="42.50819929581823" lon="2.7238504365500296"><ele>240.0</ele><time>2026-04-10T10:07:49.867Z</time></trkpt><trkpt lat="42.508109397377915" lon="2.723905627384895"><ele>240.0</ele><time>2026-04-10T10:07:50.867Z</time></trkpt><trkpt lat="42.50800640902868" lon="2.723978908250392"><ele>240.0</ele><time>2026-04-10T10:07:51.867Z</time></trkpt><trkpt lat="42.50791187345072" lon="2.724047198429692"><ele>240.0</ele><time>2026-04-10T10:07:52.867Z</time></trkpt><trkpt lat="42.50779419878591" lon="2.724125341634581"><ele>240.0</ele><time>2026-04-10T10:07:53.867Z</time></trkpt><trkpt lat="42.507694810278736" lon="2.72419414874005"><ele>240.0</ele><time>2026-04-10T10:07:54.867Z</time></trkpt><trkpt lat="42.507607106852475" lon="2.7242798269279356"><ele>234.8</ele><time>2026-04-10T10:07:55.867Z</time></trkpt><trkpt lat="42.50752901518576" lon="2.7243333243213685"><ele>229.6</ele><time>2026-04-10T10:07:56.864Z</time></trkpt><trkpt lat="42.507474679099765" lon="2.7244129731411793"><ele>224.39999999999998</ele><time>2026-04-10T10:07:57.864Z</time></trkpt><trkpt lat="42.50743459406159" lon="2.7245331661094734"><ele>219.2</ele><time>2026-04-10T10:07:58.864Z</time></trkpt><trkpt lat="42.50740409584398" lon="2.724680425596454"><ele>214.0</ele><time>2026-04-10T10:07:59.864Z</time></trkpt><trkpt lat="42.5073639771916" lon="2.7248348596842487"><ele>214.0</ele><time>2026-04-10T10:08:00.864Z</time></trkpt><trkpt lat="42.507333598355096" lon="2.7249961115936143"><ele>214.0</ele><time>2026-04-10T10:08:01.864Z</time></trkpt><trkpt lat="42.507314716539994" lon="2.725167991090502"><ele>214.0</ele><time>2026-04-10T10:08:02.864Z</time></trkpt><trkpt lat="42.50726568768425" lon="2.7253406811457173"><ele>214.0</ele><time>2026-04-10T10:08:03.864Z</time></trkpt><trkpt lat="42.507220932501404" lon="2.7255124141220888"><ele>214.6</ele><time>2026-04-10T10:08:04.864Z</time></trkpt><trkpt lat="42.507170518737304" lon="2.7256754009863178"><ele>215.2</ele><time>2026-04-10T10:08:05.864Z</time></trkpt><trkpt lat="42.50712035958478" lon="2.72579777172068"><ele>215.79999999999998</ele><time>2026-04-10T10:08:06.864Z</time></trkpt><trkpt lat="42.507084469564695" lon="2.725881464101787"><ele>216.39999999999998</ele><time>2026-04-10T10:08:07.864Z</time></trkpt><trkpt lat="42.50702703843829" lon="2.725945344694493"><ele>217.0</ele><time>2026-04-10T10:08:08.864Z</time></trkpt><trkpt lat="42.50694932093087" lon="2.7259860890119154"><ele>213.6</ele><time>2026-04-10T10:08:09.864Z</time></trkpt><trkpt lat="42.50687889121999" lon="2.725920290701191"><ele>210.2</ele><time>2026-04-10T10:08:10.864Z</time></trkpt><trkpt lat="42.506777861466" lon="2.7258867614119096"><ele>206.8</ele><time>2026-04-10T10:08:11.864Z</time></trkpt><trkpt lat="42.50667652162163" lon="2.725902825376921"><ele>203.4</ele><time>2026-04-10T10:08:12.864Z</time></trkpt><trkpt lat="42.50657744300812" lon="2.7259565237740513"><ele>200.0</ele><time>2026-04-10T10:08:13.864Z</time></trkpt><trkpt lat="42.50649277820219" lon="2.726031558464565"><ele>199.8</ele><time>2026-04-10T10:08:14.864Z</time></trkpt><trkpt lat="42.50642710894158" lon="2.7260849673413645"><ele>199.6</ele><time>2026-04-10T10:08:15.864Z</time></trkpt><trkpt lat="42.5063546560739" lon="2.726138456401189"><ele>199.39999999999998</ele><time>2026-04-10T10:08:16.864Z</time></trkpt><trkpt lat="42.506284283590716" lon="2.7262171238027553"><ele>199.2</ele><time>2026-04-10T10:08:17.864Z</time></trkpt><trkpt lat="42.50619746156646" lon="2.7262851273748803"><ele>199.0</ele><time>2026-04-10T10:08:18.864Z</time></trkpt><trkpt lat="42.506115796560465" lon="2.7263812607419657"><ele>199.0</ele><time>2026-04-10T10:08:19.864Z</time></trkpt><trkpt lat="42.50604962893505" lon="2.7264820148679996"><ele>199.0</ele><time>2026-04-10T10:08:20.864Z</time></trkpt><trkpt lat="42.50598492536687" lon="2.7265896001038246"><ele>199.0</ele><time>2026-04-10T10:08:21.864Z</time></trkpt><trkpt lat="42.50593995990246" lon="2.7267109010756303"><ele>199.0</ele><time>2026-04-10T10:08:22.864Z</time></trkpt><trkpt lat="42.505893109387245" lon="2.726848206030677"><ele>199.0</ele><time>2026-04-10T10:08:23.864Z</time></trkpt><trkpt lat="42.50586374054087" lon="2.726987135505898"><ele>198.16666666666666</ele><time>2026-04-10T10:08:24.864Z</time></trkpt><trkpt lat="42.50584787050152" lon="2.727112912358742"><ele>197.33333333333331</ele><time>2026-04-10T10:08:25.864Z</time></trkpt><trkpt lat="42.50584557582683" lon="2.7272249649083444"><ele>196.5</ele><time>2026-04-10T10:08:26.864Z</time></trkpt><trkpt lat="42.50585619830003" lon="2.727322821074581"><ele>195.66666666666669</ele><time>2026-04-10T10:08:27.864Z</time></trkpt><trkpt lat="42.50586482448621" lon="2.7274127725554935"><ele>194.83333333333334</ele><time>2026-04-10T10:08:28.864Z</time></trkpt><trkpt lat="42.50588471727881" lon="2.7275730180108138"><ele>194.0</ele><time>2026-04-10T10:08:30.864Z</time></trkpt><trkpt lat="42.50590224781663" lon="2.72766529532983"><ele>192.6</ele><time>2026-04-10T10:08:31.864Z</time></trkpt><trkpt lat="42.50593666688305" lon="2.727739466550999"><ele>191.2</ele><time>2026-04-10T10:08:32.864Z</time></trkpt><trkpt lat="42.50599105336002" lon="2.7278940546224915"><ele>189.79999999999998</ele><time>2026-04-10T10:08:34.864Z</time></trkpt><trkpt lat="42.5060409721808" lon="2.728052813247784"><ele>188.39999999999998</ele><time>2026-04-10T10:08:36.864Z</time></trkpt><trkpt lat="42.50607125903436" lon="2.7281958540533533"><ele>187.0</ele><time>2026-04-10T10:08:38.864Z</time></trkpt><trkpt lat="42.50606710039103" lon="2.7282858081886974"><ele>187.0</ele><time>2026-04-10T10:08:39.864Z</time></trkpt><trkpt lat="42.50619549006323" lon="2.7282027976466705"><ele>187.0</ele><time>2026-04-10T10:08:43.864Z</time></trkpt><trkpt lat="42.50626523346604" lon="2.7282017768844598"><ele>187.0</ele><time>2026-04-10T10:08:44.864Z</time></trkpt><trkpt lat="42.50632980948917" lon="2.7281431937667757"><ele>187.0</ele><time>2026-04-10T10:08:45.864Z</time></trkpt><trkpt lat="42.506401724859465" lon="2.728106287160274"><ele>187.0</ele><time>2026-04-10T10:08:46.865Z</time></trkpt><trkpt lat="42.50647442270594" lon="2.728071429187591"><ele>187.0</ele><time>2026-04-10T10:08:47.865Z</time></trkpt><trkpt lat="42.50655183549232" lon="2.7280496808700163"><ele>187.5</ele><time>2026-04-10T10:08:48.865Z</time></trkpt><trkpt lat="42.5066168255188" lon="2.728018550694166"><ele>188.0</ele><time>2026-04-10T10:08:49.865Z</time></trkpt><trkpt lat="42.50668795638082" lon="2.728020463102466"><ele>188.5</ele><time>2026-04-10T10:08:50.865Z</time></trkpt><trkpt lat="42.50678762548489" lon="2.7279336646815344"><ele>189.0</ele><time>2026-04-10T10:08:52.865Z</time></trkpt><trkpt lat="42.506844862391624" lon="2.7278737064400076"><ele>189.5</ele><time>2026-04-10T10:08:53.865Z</time></trkpt><trkpt lat="42.50690255575593" lon="2.7278012307542863"><ele>190.0</ele><time>2026-04-10T10:08:54.865Z</time></trkpt><trkpt lat="42.507007490437644" lon="2.7276929939819525"><ele>190.0</ele><time>2026-04-10T10:08:56.865Z</time></trkpt><trkpt lat="42.50706793480502" lon="2.7276085853278405"><ele>190.0</ele><time>2026-04-10T10:08:57.865Z</time></trkpt><trkpt lat="42.50714593959762" lon="2.7275655073102247"><ele>190.0</ele><time>2026-04-10T10:08:58.865Z</time></trkpt><trkpt lat="42.507225748951555" lon="2.727524685048028"><ele>190.0</ele><time>2026-04-10T10:08:59.865Z</time></trkpt><trkpt lat="42.5073061586287" lon="2.7274932218334214"><ele>190.0</ele><time>2026-04-10T10:09:00.865Z</time></trkpt><trkpt lat="42.50739682655483" lon="2.727468746566842"><ele>190.0</ele><time>2026-04-10T10:09:01.865Z</time></trkpt><trkpt lat="42.507483600542784" lon="2.7274617816441853"><ele>190.16666666666669</ele><time>2026-04-10T10:09:02.865Z</time></trkpt><trkpt lat="42.50756941738434" lon="2.7274641710197574"><ele>190.33333333333334</ele><time>2026-04-10T10:09:03.865Z</time></trkpt><trkpt lat="42.50765252827831" lon="2.727481347582831"><ele>190.5</ele><time>2026-04-10T10:09:04.865Z</time></trkpt><trkpt lat="42.5077287595519" lon="2.7275113565648335"><ele>190.66666666666666</ele><time>2026-04-10T10:09:05.865Z</time></trkpt><trkpt lat="42.50779287019943" lon="2.727553718239577"><ele>190.83333333333331</ele><time>2026-04-10T10:09:06.865Z</time></trkpt><trkpt lat="42.50785675120883" lon="2.7276062721113106"><ele>191.0</ele><time>2026-04-10T10:09:07.865Z</time></trkpt><trkpt lat="42.507910513785134" lon="2.727650990673992"><ele>191.0</ele><time>2026-04-10T10:09:08.865Z</time></trkpt><trkpt lat="42.50802409005331" lon="2.7276947611835634"><ele>191.0</ele><time>2026-04-10T10:09:10.865Z</time></trkpt><trkpt lat="42.5080901077908" lon="2.727712932633171"><ele>191.0</ele><time>2026-04-10T10:09:11.865Z</time></trkpt><trkpt lat="42.508219953054684" lon="2.727731884840601"><ele>191.0</ele><time>2026-04-10T10:09:13.865Z</time></trkpt><trkpt lat="42.508290178503465" lon="2.7277465069167963"><ele>191.0</ele><time>2026-04-10T10:09:14.865Z</time></trkpt><trkpt lat="42.50836828021459" lon="2.727750169721095"><ele>191.0</ele><time>2026-04-10T10:09:15.865Z</time></trkpt><trkpt lat="42.50845416142369" lon="2.727759224047891"><ele>191.0</ele><time>2026-04-10T10:09:16.865Z</time></trkpt><trkpt lat="42.5085413409328" lon="2.727751696694495"><ele>191.0</ele><time>2026-04-10T10:09:17.865Z</time></trkpt><trkpt lat="42.50862185432262" lon="2.7277433215356495"><ele>191.0</ele><time>2026-04-10T10:09:18.865Z</time></trkpt><trkpt lat="42.5087006347813" lon="2.7277228984651565"><ele>191.0</ele><time>2026-04-10T10:09:19.865Z</time></trkpt><trkpt lat="42.50879580645074" lon="2.7277104058784776"><ele>191.0</ele><time>2026-04-10T10:09:20.865Z</time></trkpt><trkpt lat="42.50888128863944" lon="2.7277159885329088"><ele>194.20000000000002</ele><time>2026-04-10T10:09:21.865Z</time></trkpt><trkpt lat="42.50896099283464" lon="2.727775373422178"><ele>197.4</ele><time>2026-04-10T10:09:22.865Z</time></trkpt><trkpt lat="42.509023151027385" lon="2.7278747260778715"><ele>200.6</ele><time>2026-04-10T10:09:23.865Z</time></trkpt><trkpt lat="42.50910804110257" lon="2.7279203817482354"><ele>203.8</ele><time>2026-04-10T10:09:24.865Z</time></trkpt><trkpt lat="42.509188911212334" lon="2.7279683927100145"><ele>207.0</ele><time>2026-04-10T10:09:25.865Z</time></trkpt><trkpt lat="42.50927929454109" lon="2.728003753985888"><ele>207.0</ele><time>2026-04-10T10:09:26.865Z</time></trkpt><trkpt lat="42.50935684728474" lon="2.728061334855053"><ele>207.0</ele><time>2026-04-10T10:09:27.865Z</time></trkpt><trkpt lat="42.50943481591411" lon="2.7281105482041985"><ele>207.0</ele><time>2026-04-10T10:09:28.865Z</time></trkpt><trkpt lat="42.509502766045166" lon="2.728146144878635"><ele>207.0</ele><time>2026-04-10T10:09:29.865Z</time></trkpt><trkpt lat="42.509568106671814" lon="2.728196120995536"><ele>207.0</ele><time>2026-04-10T10:09:30.865Z</time></trkpt><trkpt lat="42.50966558277146" lon="2.7281695080116504"><ele>207.0</ele><time>2026-04-10T10:09:31.865Z</time></trkpt><trkpt lat="42.509742895926664" lon="2.7281911109391896"><ele>205.6</ele><time>2026-04-10T10:09:32.865Z</time></trkpt><trkpt lat="42.50984121395041" lon="2.72824637364544"><ele>204.2</ele><time>2026-04-10T10:09:33.865Z</time></trkpt><trkpt lat="42.509931255352576" lon="2.7283287768519915"><ele>202.8</ele><time>2026-04-10T10:09:34.865Z</time></trkpt><trkpt lat="42.51000155801075" lon="2.728434927490973"><ele>201.4</ele><time>2026-04-10T10:09:35.865Z</time></trkpt><trkpt lat="42.510082256709644" lon="2.7285213324153172"><ele>200.0</ele><time>2026-04-10T10:09:36.865Z</time></trkpt><trkpt lat="42.51013164162815" lon="2.7286305563593447"><ele>200.00000000000003</ele><time>2026-04-10T10:09:37.865Z</time></trkpt><trkpt lat="42.510179355949084" lon="2.728749079426123"><ele>200.0</ele><time>2026-04-10T10:09:38.865Z</time></trkpt><trkpt lat="42.51024114717424" lon="2.7288170332848094"><ele>200.0</ele><time>2026-04-10T10:09:39.865Z</time></trkpt><trkpt lat="42.51027834558475" lon="2.728910476311339"><ele>200.0</ele><time>2026-04-10T10:09:40.865Z</time></trkpt><trkpt lat="42.510326265699824" lon="2.7289982311285246"><ele>200.00000000000003</ele><time>2026-04-10T10:09:41.865Z</time></trkpt><trkpt lat="42.510393801363904" lon="2.729048832734499"><ele>200.0</ele><time>2026-04-10T10:09:42.865Z</time></trkpt><trkpt lat="42.51046232218553" lon="2.729086075542416"><ele>199.8</ele><time>2026-04-10T10:09:43.865Z</time></trkpt><trkpt lat="42.51055012452285" lon="2.729142207565605"><ele>199.6</ele><time>2026-04-10T10:09:44.865Z</time></trkpt><trkpt lat="42.51062477690972" lon="2.7292265184892726"><ele>199.39999999999998</ele><time>2026-04-10T10:09:45.865Z</time></trkpt><trkpt lat="42.51067227384844" lon="2.7293693115017272"><ele>199.2</ele><time>2026-04-10T10:09:46.865Z</time></trkpt><trkpt lat="42.510725232674034" lon="2.729479521498958"><ele>199.0</ele><time>2026-04-10T10:09:47.865Z</time></trkpt><trkpt lat="42.510780276721235" lon="2.729548436359897"><ele>199.0</ele><time>2026-04-10T10:09:48.865Z</time></trkpt><trkpt lat="42.510876966540216" lon="2.7295211558615464"><ele>199.0</ele><time>2026-04-10T10:09:49.865Z</time></trkpt><trkpt lat="42.51095533045518" lon="2.729573698242952"><ele>199.0</ele><time>2026-04-10T10:09:50.865Z</time></trkpt><trkpt lat="42.511062211587785" lon="2.7295855909148177"><ele>199.0</ele><time>2026-04-10T10:09:51.865Z</time></trkpt><trkpt lat="42.51114790804337" lon="2.7296193662352337"><ele>199.0</ele><time>2026-04-10T10:09:52.865Z</time></trkpt><trkpt lat="42.511230381582685" lon="2.729643804937818"><ele>199.39999999999998</ele><time>2026-04-10T10:09:53.865Z</time></trkpt><trkpt lat="42.511312593682476" lon="2.7296589872727104"><ele>199.8</ele><time>2026-04-10T10:09:54.865Z</time></trkpt><trkpt lat="42.511409297557954" lon="2.729672777966418"><ele>200.2</ele><time>2026-04-10T10:09:55.865Z</time></trkpt><trkpt lat="42.51150125419029" lon="2.7296689867647177"><ele>200.60000000000002</ele><time>2026-04-10T10:09:56.865Z</time></trkpt><trkpt lat="42.51159452205625" lon="2.7296410994945255"><ele>201.0</ele><time>2026-04-10T10:09:57.865Z</time></trkpt><trkpt lat="42.51169128136803" lon="2.72960977881708"><ele>201.0</ele><time>2026-04-10T10:09:58.865Z</time></trkpt><trkpt lat="42.51178805892793" lon="2.7295725615727293"><ele>201.0</ele><time>2026-04-10T10:09:59.865Z</time></trkpt><trkpt lat="42.51189268854212" lon="2.729573712044214"><ele>201.0</ele><time>2026-04-10T10:10:00.865Z</time></trkpt><trkpt lat="42.511997846190454" lon="2.7295707815356796"><ele>201.0</ele><time>2026-04-10T10:10:01.865Z</time></trkpt><trkpt lat="42.51211126079799" lon="2.7295527892695195"><ele>201.0</ele><time>2026-04-10T10:10:02.862Z</time></trkpt><trkpt lat="42.51222563216203" lon="2.729517295604587"><ele>202.0</ele><time>2026-04-10T10:10:03.862Z</time></trkpt><trkpt lat="42.512344511951234" lon="2.7294873050126496"><ele>203.0</ele><time>2026-04-10T10:10:04.862Z</time></trkpt><trkpt lat="42.51246008057753" lon="2.7294545597110877"><ele>204.0</ele><time>2026-04-10T10:10:05.862Z</time></trkpt><trkpt lat="42.51257469935107" lon="2.7294190574033173"><ele>205.0</ele><time>2026-04-10T10:10:06.862Z</time></trkpt><trkpt lat="42.512693866784325" lon="2.729392812059027"><ele>204.75</ele><time>2026-04-10T10:10:07.862Z</time></trkpt><trkpt lat="42.51280143167528" lon="2.729317721830985"><ele>204.5</ele><time>2026-04-10T10:10:08.862Z</time></trkpt><trkpt lat="42.512903888843645" lon="2.7292384117451487"><ele>204.25</ele><time>2026-04-10T10:10:09.861Z</time></trkpt><trkpt lat="42.51301316556622" lon="2.7291765421670355"><ele>204.0</ele><time>2026-04-10T10:10:10.861Z</time></trkpt><trkpt lat="42.51313367188667" lon="2.729181560439769"><ele>204.0</ele><time>2026-04-10T10:10:11.861Z</time></trkpt><trkpt lat="42.51324999765509" lon="2.729147300904604"><ele>204.0</ele><time>2026-04-10T10:10:12.861Z</time></trkpt><trkpt lat="42.51335263021871" lon="2.729135690213909"><ele>204.0</ele><time>2026-04-10T10:10:13.861Z</time></trkpt><trkpt lat="42.51342678182488" lon="2.729073834116169"><ele>204.0</ele><time>2026-04-10T10:10:14.862Z</time></trkpt><trkpt lat="42.51349169097497" lon="2.7289937322048097"><ele>204.0</ele><time>2026-04-10T10:10:15.861Z</time></trkpt><trkpt lat="42.513556982952885" lon="2.7289373952996225"><ele>204.0</ele><time>2026-04-10T10:10:16.861Z</time></trkpt><trkpt lat="42.51356635337278" lon="2.7288391017208453"><ele>204.0</ele><time>2026-04-10T10:10:17.861Z</time></trkpt><trkpt lat="42.51361452386837" lon="2.7287832418044142"><ele>204.0</ele><time>2026-04-10T10:10:18.861Z</time></trkpt><trkpt lat="42.51367421233934" lon="2.728716294490639"><ele>204.0</ele><time>2026-04-10T10:10:19.861Z</time></trkpt><trkpt lat="42.51374173774759" lon="2.7282653203138825"><ele>204.75</ele><time>2026-04-10T10:10:20.861Z</time></trkpt><trkpt lat="42.513815400149305" lon="2.728190901337315"><ele>205.5</ele><time>2026-04-10T10:10:22.862Z</time></trkpt><trkpt lat="42.51388575472422" lon="2.7281171552538677"><ele>206.25</ele><time>2026-04-10T10:10:24.862Z</time></trkpt><trkpt lat="42.51395666208783" lon="2.7280408615163307"><ele>207.0</ele><time>2026-04-10T10:10:26.862Z</time></trkpt><trkpt lat="42.51442148119295" lon="2.728466946734675"><ele>207.0</ele><time>2026-04-10T10:10:31.862Z</time></trkpt><trkpt lat="42.51447631380967" lon="2.7284121106962367"><ele>207.0</ele><time>2026-04-10T10:10:33.862Z</time></trkpt><trkpt lat="42.514531041860934" lon="2.728361628716053"><ele>207.0</ele><time>2026-04-10T10:10:36.862Z</time></trkpt><trkpt lat="42.51456739575035" lon="2.7282761233940063"><ele>207.0</ele><time>2026-04-10T10:10:39.862Z</time></trkpt><trkpt lat="42.514509952108604" lon="2.72823983283459"><ele>207.0</ele><time>2026-04-10T10:10:42.862Z</time></trkpt><trkpt lat="42.5144935138353" lon="2.7281203468702624"><ele>207.0</ele><time>2026-04-10T10:10:45.862Z</time></trkpt><trkpt lat="42.51452719796188" lon="2.7279784218343095"><ele>207.0</ele><time>2026-04-10T10:10:47.862Z</time></trkpt><trkpt lat="42.51454281704068" lon="2.727856793329336"><ele>207.0</ele><time>2026-04-10T10:10:49.862Z</time></trkpt><trkpt lat="42.51458029662159" lon="2.727767276363028"><ele>207.0</ele><time>2026-04-10T10:10:51.862Z</time></trkpt><trkpt lat="42.51461700866426" lon="2.727680567831843"><ele>207.0</ele><time>2026-04-10T10:10:53.862Z</time></trkpt><trkpt lat="42.51466395407075" lon="2.727576871073823"><ele>207.0</ele><time>2026-04-10T10:10:56.862Z</time></trkpt><trkpt lat="42.514711518192826" lon="2.7274563324113137"><ele>207.0</ele><time>2026-04-10T10:10:58.862Z</time></trkpt><trkpt lat="42.51476870670041" lon="2.7273549700944053"><ele>208.39999999999998</ele><time>2026-04-10T10:11:00.862Z</time></trkpt><trkpt lat="42.51481814495632" lon="2.7272923626631456"><ele>209.79999999999998</ele><time>2026-04-10T10:11:05.862Z</time></trkpt><trkpt lat="42.51487635965831" lon="2.727175561336019"><ele>211.2</ele><time>2026-04-10T10:11:08.862Z</time></trkpt><trkpt lat="42.5149064162596" lon="2.7270339884572428"><ele>212.6</ele><time>2026-04-10T10:11:10.862Z</time></trkpt><trkpt lat="42.514914262548025" lon="2.7269463906005864"><ele>214.0</ele><time>2026-04-10T10:11:11.862Z</time></trkpt><trkpt lat="42.51498637030592" lon="2.7268124230278796"><ele>213.99999999999997</ele><time>2026-04-10T10:11:13.862Z</time></trkpt><trkpt lat="42.515006276605696" lon="2.7266677629972436"><ele>214.0</ele><time>2026-04-10T10:11:15.862Z</time></trkpt><trkpt lat="42.5149807242468" lon="2.7265774236349736"><ele>214.0</ele><time>2026-04-10T10:11:16.862Z</time></trkpt><trkpt lat="42.5149758291579" lon="2.7264746387832197"><ele>214.0</ele><time>2026-04-10T10:11:17.863Z</time></trkpt><trkpt lat="42.51499776528231" lon="2.7263777662259625"><ele>213.99999999999997</ele><time>2026-04-10T10:11:18.863Z</time></trkpt><trkpt lat="42.515058793349276" lon="2.726268731719788"><ele>214.0</ele><time>2026-04-10T10:11:19.864Z</time></trkpt><trkpt lat="42.51510542027261" lon="2.7261750633458033"><ele>213.99999999999997</ele><time>2026-04-10T10:11:20.864Z</time></trkpt><trkpt lat="42.515173151352" lon="2.726131920993424"><ele>214.0</ele><time>2026-04-10T10:11:21.865Z</time></trkpt><trkpt lat="42.51525258023363" lon="2.726102963263353"><ele>214.0</ele><time>2026-04-10T10:11:22.865Z</time></trkpt><trkpt lat="42.51533071814239" lon="2.7260864892326633"><ele>214.0</ele><time>2026-04-10T10:11:23.866Z</time></trkpt><trkpt lat="42.51540435071389" lon="2.726050127557449"><ele>213.99999999999997</ele><time>2026-04-10T10:11:24.866Z</time></trkpt><trkpt lat="42.515492080632754" lon="2.726055336699179"><ele>214.0</ele><time>2026-04-10T10:11:25.866Z</time></trkpt><trkpt lat="42.51557475127208" lon="2.726092514541592"><ele>214.49999999999997</ele><time>2026-04-10T10:11:26.866Z</time></trkpt><trkpt lat="42.51566485345062" lon="2.72613055803199"><ele>215.0</ele><time>2026-04-10T10:11:27.867Z</time></trkpt><trkpt lat="42.51574716148959" lon="2.726151345575152"><ele>215.5</ele><time>2026-04-10T10:11:28.867Z</time></trkpt><trkpt lat="42.515841487972786" lon="2.7261398359541755"><ele>216.0</ele><time>2026-04-10T10:11:29.867Z</time></trkpt><trkpt lat="42.51592476357903" lon="2.7261202344635267"><ele>216.49999999999997</ele><time>2026-04-10T10:11:30.868Z</time></trkpt><trkpt lat="42.515990915896026" lon="2.7260868693708873"><ele>217.0</ele><time>2026-04-10T10:11:32.868Z</time></trkpt><trkpt lat="42.51605477832454" lon="2.726031589199472"><ele>217.0</ele><time>2026-04-10T10:11:35.869Z</time></trkpt><trkpt lat="42.51617066320934" lon="2.7259796754423253"><ele>217.0</ele><time>2026-04-10T10:11:37.869Z</time></trkpt><trkpt lat="42.5162392202055" lon="2.7259523383337148"><ele>217.0</ele><time>2026-04-10T10:11:39.869Z</time></trkpt><trkpt lat="42.51635099434426" lon="2.7259583623950605"><ele>217.0</ele><time>2026-04-10T10:11:41.869Z</time></trkpt><trkpt lat="42.51641866302058" lon="2.725980536876631"><ele>217.0</ele><time>2026-04-10T10:11:42.869Z</time></trkpt><trkpt lat="42.51633042694963" lon="2.7259246046783994"><ele>217.49999999999997</ele><time>2026-04-10T10:11:43.87Z</time></trkpt><trkpt lat="42.51640891428618" lon="2.725926011975965"><ele>218.0</ele><time>2026-04-10T10:11:45.87Z</time></trkpt><trkpt lat="42.51651275394328" lon="2.7259137553173636"><ele>218.5</ele><time>2026-04-10T10:15:17.868Z</time></trkpt><trkpt lat="42.51659151506956" lon="2.725909032925769"><ele>219.0</ele><time>2026-04-10T10:15:19.868Z</time></trkpt><trkpt lat="42.51665290829945" lon="2.7258706295008888"><ele>219.49999999999997</ele><time>2026-04-10T10:15:21.868Z</time></trkpt><trkpt lat="42.5167136799979" lon="2.725789639175952"><ele>220.0</ele><time>2026-04-10T10:15:23.868Z</time></trkpt><trkpt lat="42.51675650732749" lon="2.7257067680300744"><ele>219.99999999999997</ele><time>2026-04-10T10:15:25.868Z</time></trkpt><trkpt lat="42.516814127525016" lon="2.7256723405386336"><ele>220.0</ele><time>2026-04-10T10:15:27.868Z</time></trkpt><trkpt lat="42.516895294742355" lon="2.725639096883666"><ele>220.0</ele><time>2026-04-10T10:15:30.868Z</time></trkpt><trkpt lat="42.51697101896842" lon="2.725599379032722"><ele>220.0</ele><time>2026-04-10T10:15:33.868Z</time></trkpt><trkpt lat="42.51702712885305" lon="2.725554373823189"><ele>220.0</ele><time>2026-04-10T10:15:35.868Z</time></trkpt><trkpt lat="42.51708482887202" lon="2.725514091748165"><ele>219.99999999999997</ele><time>2026-04-10T10:15:38.868Z</time></trkpt><trkpt lat="42.517131946365325" lon="2.7254400605121067"><ele>220.0</ele><time>2026-04-10T10:15:41.868Z</time></trkpt><trkpt lat="42.51716263337154" lon="2.7253469524933127"><ele>221.8</ele><time>2026-04-10T10:15:44.869Z</time></trkpt><trkpt lat="42.517225672863916" lon="2.72526089695975"><ele>223.6</ele><time>2026-04-10T10:15:46.869Z</time></trkpt><trkpt lat="42.51732222648187" lon="2.7251884010539715"><ele>225.39999999999998</ele><time>2026-04-10T10:15:48.869Z</time></trkpt><trkpt lat="42.5173883587378" lon="2.725136682398742"><ele>227.2</ele><time>2026-04-10T10:15:49.869Z</time></trkpt><trkpt lat="42.51752593359927" lon="2.72507747328067"><ele>229.0</ele><time>2026-04-10T10:15:51.869Z</time></trkpt><trkpt lat="42.51761067388262" lon="2.7250258914214696"><ele>229.0</ele><time>2026-04-10T10:15:52.869Z</time></trkpt><trkpt lat="42.51767381356305" lon="2.724968103908073"><ele>228.99999999999997</ele><time>2026-04-10T10:15:53.869Z</time></trkpt><trkpt lat="42.51775305160722" lon="2.724893747358308"><ele>228.99999999999997</ele><time>2026-04-10T10:15:54.869Z</time></trkpt><trkpt lat="42.51783393051067" lon="2.724837929393896"><ele>229.0</ele><time>2026-04-10T10:15:55.869Z</time></trkpt><trkpt lat="42.5179249840029" lon="2.7247657903312628"><ele>229.0</ele><time>2026-04-10T10:15:56.869Z</time></trkpt><trkpt lat="42.51800975105582" lon="2.724698382294999"><ele>228.79999999999998</ele><time>2026-04-10T10:15:57.869Z</time></trkpt><trkpt lat="42.51810611597435" lon="2.7246400192173743"><ele>228.59999999999997</ele><time>2026-04-10T10:15:58.869Z</time></trkpt><trkpt lat="42.51820033979164" lon="2.7245982378192872"><ele>228.4</ele><time>2026-04-10T10:15:59.869Z</time></trkpt><trkpt lat="42.518298006709" lon="2.724551560827212"><ele>228.2</ele><time>2026-04-10T10:16:00.869Z</time></trkpt><trkpt lat="42.518387246098825" lon="2.7244908714670317"><ele>228.0</ele><time>2026-04-10T10:16:01.869Z</time></trkpt><trkpt lat="42.51850481285785" lon="2.7244374625798167"><ele>227.4</ele><time>2026-04-10T10:16:02.869Z</time></trkpt><trkpt lat="42.518590035028524" lon="2.724376232164583"><ele>226.8</ele><time>2026-04-10T10:16:03.869Z</time></trkpt><trkpt lat="42.518672276734044" lon="2.724319760109081"><ele>226.2</ele><time>2026-04-10T10:16:04.869Z</time></trkpt><trkpt lat="42.51874612598988" lon="2.7242705535664586"><ele>225.6</ele><time>2026-04-10T10:16:05.869Z</time></trkpt><trkpt lat="42.51884686235535" lon="2.724253345908055"><ele>225.0</ele><time>2026-04-10T10:16:06.869Z</time></trkpt><trkpt lat="42.518951983540184" lon="2.724237801539751"><ele>225.0</ele><time>2026-04-10T10:16:07.869Z</time></trkpt><trkpt lat="42.51905401756854" lon="2.7242133280619183"><ele>225.0</ele><time>2026-04-10T10:16:08.869Z</time></trkpt><trkpt lat="42.51914910450927" lon="2.724202576662799"><ele>225.0</ele><time>2026-04-10T10:16:09.869Z</time></trkpt><trkpt lat="42.51923741117771" lon="2.724193537255413"><ele>225.0</ele><time>2026-04-10T10:16:10.869Z</time></trkpt><trkpt lat="42.51929782986761" lon="2.724127082518929"><ele>225.0</ele><time>2026-04-10T10:16:11.869Z</time></trkpt><trkpt lat="42.519339749633566" lon="2.7240288690605383"><ele>225.0</ele><time>2026-04-10T10:16:12.869Z</time></trkpt><trkpt lat="42.51938784872643" lon="2.723938581582702"><ele>225.0</ele><time>2026-04-10T10:16:13.869Z</time></trkpt><trkpt lat="42.519447941398" lon="2.723861504096168"><ele>225.0</ele><time>2026-04-10T10:16:14.869Z</time></trkpt><trkpt lat="42.51951958105367" lon="2.7237824396459156"><ele>225.0</ele><time>2026-04-10T10:16:15.869Z</time></trkpt><trkpt lat="42.519580434922446" lon="2.7236994477498717"><ele>225.0</ele><time>2026-04-10T10:16:16.869Z</time></trkpt><trkpt lat="42.519628253025424" lon="2.7236004654232655"><ele>225.0</ele><time>2026-04-10T10:16:17.869Z</time></trkpt><trkpt lat="42.51968390670774" lon="2.7234972160433366"><ele>225.0</ele><time>2026-04-10T10:16:18.869Z</time></trkpt><trkpt lat="42.519819883814485" lon="2.7234150842856506"><ele>226.33333333333334</ele><time>2026-04-10T10:16:20.867Z</time></trkpt><trkpt lat="42.5199173830748" lon="2.7233488199887916"><ele>227.66666666666669</ele><time>2026-04-10T10:16:21.867Z</time></trkpt><trkpt lat="42.51999060496984" lon="2.7232658954674527"><ele>229.0</ele><time>2026-04-10T10:16:22.867Z</time></trkpt><trkpt lat="42.5200602257802" lon="2.7231998045417893"><ele>230.33333333333334</ele><time>2026-04-10T10:16:23.867Z</time></trkpt><trkpt lat="42.520133397233565" lon="2.7231894441803988"><ele>231.66666666666669</ele><time>2026-04-10T10:16:24.867Z</time></trkpt><trkpt lat="42.52020563125284" lon="2.7231907969572022"><ele>233.0</ele><time>2026-04-10T10:16:25.867Z</time></trkpt><trkpt lat="42.52028261526615" lon="2.7231733469954507"><ele>233.00000000000003</ele><time>2026-04-10T10:16:26.867Z</time></trkpt><trkpt lat="42.52034355764931" lon="2.723092814616306"><ele>233.0</ele><time>2026-04-10T10:16:27.867Z</time></trkpt><trkpt lat="42.52039462383561" lon="2.723013602781722"><ele>233.0</ele><time>2026-04-10T10:16:28.867Z</time></trkpt><trkpt lat="42.520456213263635" lon="2.7229483906143837"><ele>233.0</ele><time>2026-04-10T10:16:29.867Z</time></trkpt><trkpt lat="42.52053800682738" lon="2.7228907714278607"><ele>233.00000000000003</ele><time>2026-04-10T10:16:30.867Z</time></trkpt><trkpt lat="42.520623510654225" lon="2.7228177016699866"><ele>233.0</ele><time>2026-04-10T10:16:31.867Z</time></trkpt><trkpt lat="42.5207081553231" lon="2.722752656565222"><ele>234.2</ele><time>2026-04-10T10:16:32.867Z</time></trkpt><trkpt lat="42.52078748375932" lon="2.7226762679047845"><ele>235.4</ele><time>2026-04-10T10:16:33.867Z</time></trkpt><trkpt lat="42.52086563419182" lon="2.722596177041406"><ele>236.59999999999997</ele><time>2026-04-10T10:16:34.867Z</time></trkpt><trkpt lat="42.520942913033075" lon="2.7225135662085953"><ele>237.79999999999998</ele><time>2026-04-10T10:16:35.867Z</time></trkpt><trkpt lat="42.52100272977977" lon="2.7224089820436648"><ele>239.0</ele><time>2026-04-10T10:16:36.867Z</time></trkpt><trkpt lat="42.52105070447998" lon="2.722307481908034"><ele>239.00000000000003</ele><time>2026-04-10T10:16:37.867Z</time></trkpt><trkpt lat="42.521092631226935" lon="2.7221878182276056"><ele>239.0</ele><time>2026-04-10T10:16:38.867Z</time></trkpt><trkpt lat="42.521149125905964" lon="2.722086922710394"><ele>239.0</ele><time>2026-04-10T10:16:39.867Z</time></trkpt><trkpt lat="42.52121548257977" lon="2.722025566404683"><ele>239.0</ele><time>2026-04-10T10:16:40.867Z</time></trkpt><trkpt lat="42.52129556831606" lon="2.7220049611969026"><ele>239.00000000000003</ele><time>2026-04-10T10:16:41.867Z</time></trkpt><trkpt lat="42.52139101400276" lon="2.721998159937213"><ele>239.0</ele><time>2026-04-10T10:16:42.867Z</time></trkpt><trkpt lat="42.52148741375358" lon="2.721988661286381"><ele>239.6</ele><time>2026-04-10T10:16:43.867Z</time></trkpt><trkpt lat="42.52159354144581" lon="2.7219695287043777"><ele>240.2</ele><time>2026-04-10T10:16:44.867Z</time></trkpt><trkpt lat="42.52168999530222" lon="2.7219329894893134"><ele>240.79999999999998</ele><time>2026-04-10T10:16:45.867Z</time></trkpt><trkpt lat="42.52178554794172" lon="2.7218917537589125"><ele>241.39999999999998</ele><time>2026-04-10T10:16:46.867Z</time></trkpt><trkpt lat="42.521861190174036" lon="2.7218450854758864"><ele>242.0</ele><time>2026-04-10T10:16:47.867Z</time></trkpt><trkpt lat="42.521956275702756" lon="2.7218004092939134"><ele>242.2</ele><time>2026-04-10T10:16:48.867Z</time></trkpt><trkpt lat="42.52204434787372" lon="2.7217318222454097"><ele>242.39999999999998</ele><time>2026-04-10T10:16:49.867Z</time></trkpt><trkpt lat="42.522125548822764" lon="2.72166396599627"><ele>242.60000000000002</ele><time>2026-04-10T10:16:50.867Z</time></trkpt><trkpt lat="42.522210862407704" lon="2.721606501323048"><ele>242.8</ele><time>2026-04-10T10:16:51.867Z</time></trkpt><trkpt lat="42.52229074753733" lon="2.72156207403483"><ele>243.0</ele><time>2026-04-10T10:16:52.867Z</time></trkpt><trkpt lat="42.52239385851646" lon="2.721535620699193"><ele>242.4</ele><time>2026-04-10T10:16:53.867Z</time></trkpt><trkpt lat="42.522507341023136" lon="2.72150092016875"><ele>241.8</ele><time>2026-04-10T10:16:54.867Z</time></trkpt><trkpt lat="42.52259288272156" lon="2.7214369946189083"><ele>241.2</ele><time>2026-04-10T10:16:55.867Z</time></trkpt><trkpt lat="42.52268088717699" lon="2.7213772431220913"><ele>240.6</ele><time>2026-04-10T10:16:56.867Z</time></trkpt><trkpt lat="42.522782283672726" lon="2.7213732785992435"><ele>240.0</ele><time>2026-04-10T10:16:57.867Z</time></trkpt><trkpt lat="42.522872044034614" lon="2.721317790272591"><ele>239.6</ele><time>2026-04-10T10:16:58.867Z</time></trkpt><trkpt lat="42.522975077086" lon="2.721292727486353"><ele>239.2</ele><time>2026-04-10T10:16:59.867Z</time></trkpt><trkpt lat="42.52306269576175" lon="2.7212406248401098"><ele>238.8</ele><time>2026-04-10T10:17:00.867Z</time></trkpt><trkpt lat="42.52316307178256" lon="2.7211930943453724"><ele>238.4</ele><time>2026-04-10T10:17:01.867Z</time></trkpt><trkpt lat="42.52325929524485" lon="2.7211613844184606"><ele>238.0</ele><time>2026-04-10T10:17:02.867Z</time></trkpt><trkpt lat="42.52336024381904" lon="2.721109326975212"><ele>239.2</ele><time>2026-04-10T10:17:03.867Z</time></trkpt><trkpt lat="42.523457847872095" lon="2.721037171982588"><ele>240.4</ele><time>2026-04-10T10:17:04.867Z</time></trkpt><trkpt lat="42.52354533069291" lon="2.7209719463783992"><ele>241.59999999999997</ele><time>2026-04-10T10:17:05.867Z</time></trkpt><trkpt lat="42.52363921181165" lon="2.720912032385504"><ele>242.79999999999998</ele><time>2026-04-10T10:17:06.867Z</time></trkpt><trkpt lat="42.523735700969524" lon="2.7208509699236116"><ele>244.0</ele><time>2026-04-10T10:17:07.867Z</time></trkpt><trkpt lat="42.523827686390156" lon="2.7207840591804144"><ele>244.0</ele><time>2026-04-10T10:17:08.867Z</time></trkpt><trkpt lat="42.52389498642276" lon="2.720680782408207"><ele>243.99999999999997</ele><time>2026-04-10T10:17:09.867Z</time></trkpt><trkpt lat="42.52394825277484" lon="2.720554995630166"><ele>243.99999999999997</ele><time>2026-04-10T10:17:10.867Z</time></trkpt><trkpt lat="42.5240151394278" lon="2.7204343605428067"><ele>244.0</ele><time>2026-04-10T10:17:11.867Z</time></trkpt><trkpt lat="42.524058908940155" lon="2.7203131849692497"><ele>244.0</ele><time>2026-04-10T10:17:12.867Z</time></trkpt><trkpt lat="42.52410055000449" lon="2.720206326425146"><ele>244.66666666666666</ele><time>2026-04-10T10:17:13.867Z</time></trkpt><trkpt lat="42.52414643079336" lon="2.720108694623351"><ele>245.33333333333331</ele><time>2026-04-10T10:17:14.867Z</time></trkpt><trkpt lat="42.52422094903561" lon="2.7200922153154767"><ele>246.0</ele><time>2026-04-10T10:17:15.867Z</time></trkpt><trkpt lat="42.52425161905894" lon="2.7199441223896934"><ele>246.66666666666669</ele><time>2026-04-10T10:17:17.867Z</time></trkpt><trkpt lat="42.52429693058351" lon="2.720045427452878"><ele>247.33333333333334</ele><time>2026-04-10T10:17:18.867Z</time></trkpt><trkpt lat="42.524363663974455" lon="2.7199793543439883"><ele>248.0</ele><time>2026-04-10T10:17:20.867Z</time></trkpt><trkpt lat="42.52446078786308" lon="2.719950005799295"><ele>248.0</ele><time>2026-04-10T10:17:22.867Z</time></trkpt><trkpt lat="42.524522749381894" lon="2.719916340874682"><ele>248.0</ele><time>2026-04-10T10:17:33.868Z</time></trkpt><trkpt lat="42.52456280443906" lon="2.7195404923542914"><ele>248.0</ele><time>2026-04-10T10:17:53.868Z</time></trkpt><trkpt lat="42.524512229357796" lon="2.7195995658174263"><ele>248.0</ele><time>2026-04-10T10:18:36.867Z</time></trkpt></trkseg></trk></gpx>